# Wetter Temperatur Luftdruck Luftfeuchtigkeit Sichtweite Windgeschwindigkeit Windrichtung Zeit
1 Rain 27 1008 100 10000 0.32 63 01:51 05.04.2020
2 Rain 27 1008 100 10000 0.32 63 01:32 05.04.2020
3 Clouds 28 1007 88 10000 0.5 80 00:47 05.04.2020
4 Clouds 28 1007 88 10000 0.5 80 00:22 05.04.2020
5 Clouds 29 1007 74 10000 2.1 80 23:57 04.04.2020
6 Clouds 29 1007 74 10000 2.1 80 23:38 04.04.2020
7 Clouds 29 1007 74 10000 2.1 80 23:19 04.04.2020
8 Clouds 30 1007 70 10000 3.1 80 22:55 04.04.2020
9 Clouds 30 1007 70 10000 3.1 80 22:37 04.04.2020
10 Clouds 30 1007 70 10000 3.1 80 22:19 04.04.2020
11 Clouds 29 1008 74 10000 2.1 70 21:54 04.04.2020
12 Clouds 29 1008 74 10000 2.1 70 21:36 04.04.2020
13 Clouds 29 1008 74 10000 2.1 70 21:18 04.04.2020
14 Clouds 28 1009 83 10000 2.6 80 20:42 04.04.2020
15 Clouds 28 1009 83 10000 2.6 80 20:23 04.04.2020
16 Clouds 29 1011 88 10000 1 70 19:58 04.04.2020
17 Clouds 29 1011 88 10000 1 70 19:37 04.04.2020
18 Clouds 29 1011 88 10000 1 70 19:19 04.04.2020
19 Clouds 28 1011 88 10000 1 70 18:57 04.04.2020
20 Clouds 28 1011 88 10000 1 70 18:57 04.04.2020
21 Clouds 28 1011 88 10000 1.5 70 18:38 04.04.2020
22 Clouds 28 1011 88 10000 1.5 70 18:38 04.04.2020
23 Clouds 28 1011 88 10000 1.5 70 18:19 04.04.2020
24 Clouds 28 1012 88 10000 1.5 60 17:56 04.04.2020
25 Clouds 28 1012 88 10000 1.5 60 17:38 04.04.2020
26 Clouds 28 1012 88 10000 1.5 60 17:38 04.04.2020
27 Clouds 28 1012 88 10000 1.5 60 17:18 04.04.2020
28 Clouds 26 1013 100 10000 1 70 16:42 04.04.2020
29 Clouds 26 1013 100 10000 1 70 16:22 04.04.2020
30 Rain 25 1013 100 6000 2.6 70 15:56 04.04.2020
31 Rain 25 1013 100 6000 2.6 70 15:38 04.04.2020
32 Rain 26 1013 100 6000 2.6 70 15:18 04.04.2020
33 Rain 27 1012 88 10000 1.5 50 14:43 04.04.2020
34 Rain 27 1012 88 10000 1.5 50 14:23 04.04.2020
35 Clouds 26 1011 94 10000 1 60 13:56 04.04.2020
36 Clouds 26 1011 94 10000 1 60 13:38 04.04.2020
37 Clouds 26 1011 94 10000 1 60 13:19 04.04.2020
38 Clouds 26 1011 94 10000 1 60 13:19 04.04.2020
39 Clouds 26 1011 94 10000 1 60 13:19 04.04.2020
40 Thunderstorm 26 1010 88 10000 1.5 50 12:45 04.04.2020
41 Thunderstorm 26 1010 88 10000 1.5 50 12:27 04.04.2020
42 Thunderstorm 26 1010 94 10000 2.1 50 11:59 04.04.2020
43 Thunderstorm 26 1010 94 10000 2.1 50 11:39 04.04.2020
44 Thunderstorm 26 1010 94 10000 2.1 50 11:20 04.04.2020
45 Thunderstorm 26 1010 94 10000 2.1 50 11:20 04.04.2020
46 Clouds 27 1009 94 10000 1.5 20 10:56 04.04.2020
47 Clouds 27 1009 94 10000 1.5 20 10:38 04.04.2020
48 Clouds 27 1009 94 10000 1.5 20 10:19 04.04.2020
49 Clouds 26 1009 100 10000 1.15 59 09:54 04.04.2020
50 Clouds 26 1009 100 10000 1.15 59 09:36 04.04.2020
51 Clouds 26 1009 100 10000 1.13 25 09:18 04.04.2020
52 Clouds 26 1010 100 10000 1.13 25 08:41 04.04.2020
53 Clouds 26 1010 100 10000 1.13 25 08:21 04.04.2020
54 Rain 27 1010 94 10000 1.5 50 07:46 04.04.2020
55 Rain 27 1010 94 10000 1.5 50 07:26 04.04.2020
56 Rain 26 1011 100 10000 1.13 25 06:53 04.04.2020
57 Clouds 26 1011 100 10000 0.8 1 06:20 04.04.2020
58 Clouds 26 1011 100 10000 0.5 60 05:43 04.04.2020
59 Clouds 26 1011 100 10000 0.5 60 05:24 04.04.2020
60 Clouds 27 1011 100 10000 0.8 1 04:31 04.04.2020
61 Clouds 27 1010 100 10000 1.5 160 03:51 04.04.2020
62 Clouds 27 1009 88 10000 0.6 13 02:52 04.04.2020
63 Clouds 27 1009 88 10000 0.6 13 02:33 04.04.2020
64 Clouds 28 1008 88 10000 0.5 50 01:55 04.04.2020
65 Clouds 28 1008 88 10000 0.5 50 01:25 04.04.2020
66 Clouds 29 1007 74 10000 2.1 90 00:49 04.04.2020
67 Clouds 29 1007 74 10000 2.1 90 00:30 04.04.2020
68 Clouds 31 1007 70 10000 1.5 90 23:40 03.04.2020
69 Clouds 31 1007 70 10000 1.5 90 23:21 03.04.2020
70 Clouds 31 1007 70 10000 2.1 80 22:58 03.04.2020
71 Clouds 31 1007 70 10000 2.1 80 22:39 03.04.2020
72 Clouds 31 1007 70 10000 2.1 80 22:18 03.04.2020
73 Rain 32 1008 66 10000 2.6 50 21:44 03.04.2020
74 Rain 32 1008 66 10000 2.6 50 21:25 03.04.2020
75 Clouds 32 1010 66 10000 3.1 60 20:57 03.04.2020
76 Clouds 32 1010 66 10000 3.1 60 20:38 03.04.2020
77 Clouds 32 1010 66 10000 3.1 60 20:19 03.04.2020
78 Clouds 31 1011 66 10000 3.1 90 19:57 03.04.2020
79 Clouds 31 1011 66 10000 3.1 90 19:39 03.04.2020
80 Clouds 31 1011 66 10000 3.1 90 19:21 03.04.2020
81 Clouds 31 1013 74 10000 2.6 80 18:59 03.04.2020
82 Clouds 31 1013 74 10000 2.6 80 18:41 03.04.2020
83 Clouds 31 1013 74 10000 2.6 80 18:22 03.04.2020
84 Clouds 29 1013 83 10000 2.1 70 17:55 03.04.2020
85 Clouds 29 1013 83 10000 2.1 70 17:37 03.04.2020
86 Clouds 29 1013 83 10000 2.1 70 17:18 03.04.2020
87 Clouds 29 1013 79 10000 1.5 40 16:44 03.04.2020
88 Clouds 29 1013 79 10000 1.5 40 16:22 03.04.2020
89 Clouds 28 1013 83 10000 3.1 40 15:58 03.04.2020
90 Clouds 28 1013 83 10000 3.1 40 15:39 03.04.2020
91 Clouds 28 1013 83 10000 3.1 40 15:20 03.04.2020
92 Clouds 28 1013 83 10000 3.1 40 14:56 03.04.2020
93 Clouds 26 1012 85 0 1.59 74 14:37 03.04.2020
94 Rain 25 1013 100 10000 1.5 70 14:19 03.04.2020
95 Rain 25 1013 100 10000 1.5 70 13:43 03.04.2020
96 Rain 25 1013 100 10000 1.5 70 13:25 03.04.2020
97 Clouds 25 1012 94 10000 1.5 80 12:55 03.04.2020
98 Clouds 25 1012 94 10000 1.5 80 12:37 03.04.2020
99 Clouds 25 1012 94 10000 1.5 80 12:18 03.04.2020
100 Clouds 24 1012 94 10000 1 80 11:41 03.04.2020
101 Clouds 24 1012 94 10000 1 80 11:23 03.04.2020
102 Clouds 24 1012 94 10000 1 90 10:59 03.04.2020
103 Clouds 24 1012 94 10000 1 90 10:40 03.04.2020
104 Clouds 24 1012 94 10000 1 90 10:21 03.04.2020
105 Clouds 25 1012 94 10000 1.5 80 09:59 03.04.2020
106 Clouds 25 1012 94 10000 1.5 80 09:40 03.04.2020
107 Clouds 25 1012 94 10000 1.5 80 09:22 03.04.2020
108 Clouds 25 1012 94 10000 1 90 08:57 03.04.2020
109 Clouds 25 1012 94 10000 1 90 08:38 03.04.2020
110 Clouds 25 1012 94 10000 1 90 08:20 03.04.2020
111 Clouds 25 1012 100 10000 1 90 07:48 03.04.2020
112 Clouds 25 1012 100 10000 1 90 07:29 03.04.2020
113 Clouds 25 1013 100 10000 1 80 06:42 03.04.2020
114 Clouds 25 1013 100 10000 1 80 06:23 03.04.2020
115 Clouds 25 1014 100 10000 2.6 30 05:39 03.04.2020
116 Clouds 25 1013 100 10000 2.1 80 03:42 03.04.2020
117 Clouds 25 1012 100 10000 1 90 02:56 03.04.2020
118 Clouds 25 1012 100 10000 1 90 02:18 03.04.2020
119 Clouds 25 1010 100 10000 1 100 01:22 03.04.2020
120 Rain 25 1009 100 10000 1 160 00:36 03.04.2020
121 Rain 25 1009 100 10000 1 160 00:18 03.04.2020
122 Rain 25 1009 100 10000 1.5 150 23:40 02.04.2020
123 Rain 25 1009 100 10000 1.5 150 23:21 02.04.2020
124 Rain 25 1010 100 10000 3.6 80 22:57 02.04.2020
125 Rain 25 1010 100 10000 3.6 80 22:37 02.04.2020
126 Rain 25 1010 100 10000 3.6 80 22:18 02.04.2020
127 Thunderstorm 28 1010 74 10000 2.6 70 21:39 02.04.2020
128 Thunderstorm 28 1010 74 10000 2.6 70 21:19 02.04.2020
129 Rain 30 1010 74 10000 2.1 80 20:58 02.04.2020
130 Rain 30 1010 74 10000 2.1 80 20:58 02.04.2020
131 Rain 30 1010 74 10000 2.1 80 20:58 02.04.2020
132 Rain 30 1010 74 10000 2.1 80 20:40 02.04.2020
133 Rain 31 1010 74 10000 2.1 80 20:21 02.04.2020
134 Rain 29 1012 74 10000 1.5 80 19:44 02.04.2020
135 Rain 29 1012 74 10000 1.5 80 19:21 02.04.2020
136 Rain 31 1014 70 10000 1.5 90 18:58 02.04.2020
137 Rain 31 1014 70 10000 1.5 90 18:39 02.04.2020
138 Rain 31 1014 70 10000 1.5 90 18:20 02.04.2020
139 Clouds 30 1014 74 10000 2.1 80 17:56 02.04.2020
140 Clouds 30 1014 74 10000 2.1 80 17:38 02.04.2020
141 Clouds 30 1014 74 10000 2.1 80 17:18 02.04.2020
142 Clouds 30 1014 74 10000 2.1 80 17:18 02.04.2020
143 Clouds 29 1015 83 10000 1.5 190 16:55 02.04.2020
144 Clouds 29 1015 83 10000 1.5 190 16:36 02.04.2020
145 Clouds 30 1014 83 10000 1.5 80 16:18 02.04.2020
146 Clouds 29 1014 83 10000 1.5 80 15:44 02.04.2020
147 Clouds 29 1014 83 10000 1.5 80 15:44 02.04.2020
148 Clouds 29 1014 83 10000 1.5 80 15:44 02.04.2020
149 Clouds 29 1014 83 10000 1.5 80 15:21 02.04.2020
150 Clouds 27 1014 88 10000 1 120 14:58 02.04.2020
151 Clouds 27 1014 88 10000 1 120 14:39 02.04.2020
152 Clouds 27 1014 88 10000 1 120 14:19 02.04.2020
153 Clouds 25 1013 94 10000 1 20 13:56 02.04.2020
154 Clouds 25 1013 94 10000 1 20 13:38 02.04.2020
155 Rain 25 1013 94 10000 1.5 10 13:19 02.04.2020
156 Rain 25 1013 94 10000 1.5 10 12:47 02.04.2020
157 Clouds 25 1012 94 10000 2.1 70 12:21 02.04.2020
158 Rain 25 1012 100 10000 1.5 70 11:58 02.04.2020
159 Rain 25 1012 100 10000 1.5 70 11:40 02.04.2020
160 Rain 25 1012 100 10000 1.5 70 11:39 02.04.2020
161 Rain 25 1012 100 10000 1.5 70 11:21 02.04.2020
162 Rain 25 1011 100 10000 1.5 10 10:57 02.04.2020
163 Rain 25 1011 100 10000 1.5 10 10:39 02.04.2020
164 Rain 25 1011 100 10000 1.5 10 10:21 02.04.2020
165 Rain 25 1010 100 10000 1.5 330 09:59 02.04.2020
166 Rain 25 1010 100 10000 1.5 330 09:41 02.04.2020
167 Rain 25 1010 100 10000 1.5 330 09:22 02.04.2020
168 Rain 25 1011 94 10000 1 310 08:48 02.04.2020
169 Rain 25 1011 94 10000 1 310 08:29 02.04.2020
170 Clouds 26 1012 100 10000 1 340 07:59 02.04.2020
171 Clouds 26 1012 100 10000 1 340 07:41 02.04.2020
172 Clouds 26 1012 100 10000 1 340 07:19 02.04.2020
173 Clouds 26 1012 94 10000 1.5 10 06:25 02.04.2020
174 Clouds 26 1012 94 10000 1.5 40 05:46 02.04.2020
175 Clouds 26 1012 94 10000 1.5 40 05:18 02.04.2020
176 Clouds 26 1011 100 10000 3.1 70 02:26 02.04.2020
177 Clouds 26 1009 94 10000 2.6 80 01:28 02.04.2020
178 Clouds 28 1009 94 10000 2.6 80 00:42 02.04.2020
179 Rain 28 1009 83 8000 1.5 150 00:22 02.04.2020
180 Rain 31 1008 66 10000 2.6 80 23:40 01.04.2020
181 Rain 31 1008 66 10000 2.6 80 23:19 01.04.2020
182 Rain 31 1007 66 10000 1.5 100 22:57 01.04.2020
183 Rain 31 1007 66 10000 1.5 100 22:57 01.04.2020
184 Rain 31 1007 66 10000 1.5 100 22:57 01.04.2020
185 Rain 31 1007 66 10000 1.5 100 22:38 01.04.2020
186 Rain 31 1007 66 10000 1.5 100 22:19 01.04.2020
187 Rain 31 1007 66 10000 1.5 100 22:19 01.04.2020
188 Rain 31 1007 66 10000 1.5 150 21:41 01.04.2020
189 Rain 31 1007 66 10000 1.5 150 21:19 01.04.2020
190 Thunderstorm 30 1009 66 10000 2.6 180 20:56 01.04.2020
191 Thunderstorm 30 1009 66 10000 2.6 180 20:38 01.04.2020
192 Thunderstorm 30 1009 66 10000 2.6 180 20:19 01.04.2020
193 Clouds 31 1010 74 10000 2.6 170 19:58 01.04.2020
194 Clouds 31 1010 74 10000 2.6 170 19:38 01.04.2020
195 Clouds 31 1010 74 10000 2.6 170 19:19 01.04.2020
196 Clouds 30 1012 79 10000 1.5 140 18:42 01.04.2020
197 Clouds 30 1012 79 10000 1.5 140 18:42 01.04.2020
198 Clouds 30 1012 79 10000 1.5 140 18:23 01.04.2020
199 Clouds 29 1012 74 10000 2.1 90 17:57 01.04.2020
200 Clouds 29 1012 74 10000 2.1 90 17:38 01.04.2020
201 Clouds 29 1012 74 10000 2.1 90 17:19 01.04.2020
202 Clouds 29 1013 83 10000 2.1 80 16:57 01.04.2020
203 Clouds 29 1013 83 10000 2.1 80 16:39 01.04.2020
204 Clouds 29 1013 83 10000 2.1 80 16:20 01.04.2020
205 Clouds 27 1012 78 10000 2.6 50 15:56 01.04.2020
206 Clouds 27 1012 78 10000 2.6 50 15:37 01.04.2020
207 Clouds 27 1012 78 10000 2.6 50 15:18 01.04.2020
208 Clouds 25 1012 94 10000 1.5 70 14:40 01.04.2020
209 Clouds 25 1012 94 10000 1.5 70 14:22 01.04.2020
210 Clouds 24 1011 94 10000 0.79 91 13:59 01.04.2020
211 Clouds 24 1011 94 10000 0.79 91 13:39 01.04.2020
212 Clouds 24 1011 94 10000 0.79 91 13:20 01.04.2020
213 Clouds 23 1010 100 10000 1 90 12:58 01.04.2020
214 Clouds 23 1010 100 10000 1 90 12:40 01.04.2020
215 Clouds 23 1010 100 10000 1 90 12:21 01.04.2020
216 Clouds 24 1009 94 10000 2.1 10 11:56 01.04.2020
217 Clouds 24 1009 94 10000 2.1 10 11:37 01.04.2020
218 Clouds 24 1009 94 10000 2.1 10 11:18 01.04.2020
219 Clouds 24 1009 94 10000 1 350 10:39 01.04.2020
220 Clouds 24 1009 94 10000 1 350 10:21 01.04.2020
221 Clouds 24 1009 94 10000 1.5 340 09:59 01.04.2020
222 Clouds 24 1009 94 10000 1.5 340 09:59 01.04.2020
223 Clouds 24 1009 94 10000 1.5 340 09:40 01.04.2020
224 Clouds 24 1009 94 10000 1.5 340 09:20 01.04.2020
225 Clouds 24 1010 94 10000 1.5 300 08:44 01.04.2020
226 Clouds 24 1010 94 10000 1.5 300 08:44 01.04.2020
227 Clouds 24 1010 94 10000 1.5 300 08:20 01.04.2020
228 Clouds 24 1011 100 10000 1 280 07:58 01.04.2020
229 Clouds 24 1011 100 10000 1 280 07:40 01.04.2020
230 Clouds 24 1011 100 10000 1 280 07:19 01.04.2020
231 Clouds 24 1012 94 10000 1 350 06:41 01.04.2020
232 Clouds 24 1012 94 10000 1 350 06:20 01.04.2020
233 Rain 24 1012 100 10000 0.5 10 05:24 01.04.2020
234 Rain 24 1010 100 10000 2.1 300 03:39 01.04.2020
235 Rain 24 1010 100 10000 1.5 300 02:59 01.04.2020
236 Rain 24 1010 100 10000 1.5 300 02:31 01.04.2020
237 Rain 24 1010 100 10000 2.1 340 01:49 01.04.2020
238 Rain 24 1010 100 10000 2.1 340 01:24 01.04.2020
239 Rain 24 1010 100 10000 2.1 340 00:47 01.04.2020
240 Rain 24 1009 100 8000 2.6 340 00:22 01.04.2020
241 Rain 24 1009 100 6000 2.1 20 23:55 31.03.2020
242 Rain 24 1009 100 6000 2.1 20 23:37 31.03.2020
243 Rain 24 1009 100 6000 2.1 20 23:19 31.03.2020
244 Rain 24 1008 100 6000 3.6 20 22:40 31.03.2020
245 Rain 24 1008 100 6000 3.6 20 22:40 31.03.2020
246 Rain 24 1008 100 6000 3.6 20 22:20 31.03.2020
247 Rain 24 1008 100 6000 3.6 20 21:58 31.03.2020
248 Rain 24 1008 100 6000 3.6 20 21:58 31.03.2020
249 Thunderstorm 24 1009 100 1000 1.5 60 21:39 31.03.2020
250 Thunderstorm 24 1009 100 1000 1.5 60 21:21 31.03.2020
251 Rain 29 1009 79 9000 2.6 240 20:56 31.03.2020
252 Rain 29 1009 79 9000 2.6 240 20:37 31.03.2020
253 Rain 29 1009 79 9000 2.6 240 20:18 31.03.2020
254 Rain 28 1010 83 10000 2.6 230 19:55 31.03.2020
255 Rain 28 1010 83 10000 2.6 230 19:37 31.03.2020
256 Rain 28 1010 83 10000 2.6 230 19:18 31.03.2020
257 Clouds 27 1011 94 10000 2.1 230 18:41 31.03.2020
258 Clouds 27 1011 94 10000 2.1 230 18:20 31.03.2020
259 Clouds 27 1011 94 10000 2.1 230 17:56 31.03.2020
260 Clouds 27 1011 94 10000 2.1 230 17:56 31.03.2020
261 Clouds 27 1011 94 10000 2.1 230 17:56 31.03.2020
262 Rain 27 1012 94 8000 1.5 210 17:38 31.03.2020
263 Rain 27 1012 94 8000 1.5 210 17:20 31.03.2020
264 Rain 26 1013 100 8000 1 230 16:42 31.03.2020
265 Rain 26 1013 100 8000 1 230 16:20 31.03.2020
266 Rain 27 1012 88 5000 1 220 15:59 31.03.2020
267 Rain 27 1012 88 5000 1 220 15:41 31.03.2020
268 Rain 27 1012 88 5000 1 220 15:23 31.03.2020
269 Clouds 26 1012 94 10000 2.1 230 14:59 31.03.2020
270 Clouds 26 1012 94 10000 2.1 230 14:40 31.03.2020
271 Clouds 26 1012 94 10000 2.1 230 14:21 31.03.2020
272 Clouds 25 1012 94 10000 2.1 240 13:54 31.03.2020
273 Clouds 25 1011 100 10000 2.1 230 13:36 31.03.2020
274 Clouds 25 1011 100 10000 2.1 230 13:18 31.03.2020
275 Clouds 25 1010 100 10000 2.6 240 12:42 31.03.2020
276 Clouds 25 1010 100 10000 2.6 240 12:20 31.03.2020
277 Clouds 24 1009 100 10000 1.5 290 11:55 31.03.2020
278 Clouds 25 1009 100 10000 1.5 290 11:36 31.03.2020
279 Clouds 25 1009 100 10000 1.5 290 11:18 31.03.2020
280 Clouds 24 1009 100 10000 1 310 10:54 31.03.2020
281 Clouds 24 1009 100 10000 1 310 10:36 31.03.2020
282 Clouds 24 1009 100 10000 1 310 10:18 31.03.2020
283 Rain 24 1009 94 10000 1.5 330 09:42 31.03.2020
284 Rain 24 1009 94 10000 1.5 330 09:24 31.03.2020
285 Clouds 25 1010 100 10000 1 330 08:57 31.03.2020
286 Clouds 25 1010 100 10000 1 330 08:39 31.03.2020
287 Clouds 25 1010 100 10000 1 330 08:19 31.03.2020
288 Clouds 25 1010 100 10000 1.5 300 07:56 31.03.2020
289 Clouds 25 1010 100 10000 1.5 300 07:38 31.03.2020
290 Clouds 25 1010 100 10000 1.5 300 07:19 31.03.2020
291 Clouds 25 1010 100 10000 2.6 250 06:47 31.03.2020
292 Clouds 25 1010 100 10000 2.6 250 06:22 31.03.2020
293 Clouds 25 1011 100 10000 1.5 260 05:39 31.03.2020
294 Rain 25 1010 100 10000 1.15 260 03:34 31.03.2020
295 Clouds 25 1009 100 10000 1.5 340 02:18 31.03.2020
296 Clouds 25 1008 100 10000 1.5 340 01:45 31.03.2020
297 Clouds 26 1008 94 10000 2.1 350 00:49 31.03.2020
298 Clouds 26 1008 94 10000 2.1 350 00:25 31.03.2020
299 Clouds 26 1008 88 10000 2.6 40 23:57 30.03.2020
300 Clouds 26 1008 88 10000 2.6 40 23:37 30.03.2020
301 Clouds 26 1008 88 10000 2.6 40 23:18 30.03.2020
302 Clouds 26 1009 88 10000 0.5 160 22:55 30.03.2020
303 Clouds 26 1009 88 10000 0.5 160 22:36 30.03.2020
304 Clouds 26 1009 88 10000 0.5 160 22:18 30.03.2020
305 Clouds 26 1009 88 10000 1.5 300 21:54 30.03.2020
306 Clouds 26 1009 88 10000 1.5 300 21:36 30.03.2020
307 Clouds 26 1009 88 10000 1.5 300 21:36 30.03.2020
308 Clouds 26 1009 88 10000 1.5 300 21:18 30.03.2020
309 Clouds 25 1010 94 10000 2.6 10 20:40 30.03.2020
310 Clouds 25 1010 94 10000 2.6 10 20:22 30.03.2020
311 Rain 24 1011 94 8000 2.1 10 19:59 30.03.2020
312 Rain 24 1011 94 8000 2.1 10 19:39 30.03.2020
313 Rain 24 1011 94 8000 2.1 10 19:21 30.03.2020
314 Rain 24 1012 94 10000 3.1 30 18:56 30.03.2020
315 Rain 24 1012 94 10000 3.1 30 18:37 30.03.2020
316 Rain 24 1012 94 10000 3.1 30 18:19 30.03.2020
317 Rain 24 1013 100 8000 2.6 20 17:55 30.03.2020
318 Rain 24 1013 100 8000 2.6 20 17:36 30.03.2020
319 Rain 24 1013 100 8000 2.6 20 17:18 30.03.2020
320 Thunderstorm 23 1013 100 6000 2.38 93 16:41 30.03.2020
321 Thunderstorm 23 1013 100 6000 2.38 93 16:22 30.03.2020
322 Thunderstorm 23 1013 100 5000 1.5 150 15:57 30.03.2020
323 Thunderstorm 23 1013 100 5000 1.5 150 15:57 30.03.2020
324 Thunderstorm 23 1013 100 5000 1.5 150 15:39 30.03.2020
325 Thunderstorm 24 1014 100 500 3.6 80 15:21 30.03.2020
326 Thunderstorm 25 1012 100 3000 1 120 14:58 30.03.2020
327 Thunderstorm 25 1012 100 3000 1 120 14:38 30.03.2020
328 Rain 26 1011 100 10000 2.1 210 14:19 30.03.2020
329 Clouds 26 1011 100 10000 1 200 13:58 30.03.2020
330 Clouds 26 1011 100 10000 1 200 13:39 30.03.2020
331 Clouds 26 1011 100 10000 1 200 13:20 30.03.2020
332 Clouds 26 1011 100 10000 1 180 12:45 30.03.2020
333 Clouds 26 1009 100 10000 1 180 12:22 30.03.2020
334 Clouds 25 1010 94 10000 1 30 11:59 30.03.2020
335 Clouds 25 1010 94 10000 1 30 11:59 30.03.2020
336 Clouds 25 1010 94 10000 1 30 11:41 30.03.2020
337 Clouds 25 1010 94 10000 1 30 11:22 30.03.2020
338 Clouds 24 1010 94 10000 1 40 10:55 30.03.2020
339 Clouds 24 1010 94 10000 1 40 10:37 30.03.2020
340 Clouds 24 1010 94 10000 1 40 10:18 30.03.2020
341 Clouds 24 1010 94 10000 1.5 90 09:40 30.03.2020
342 Clouds 24 1010 94 10000 1.5 90 09:19 30.03.2020
343 Clouds 24 1010 94 10000 1.5 90 09:19 30.03.2020
344 Clouds 25 1011 94 10000 1.5 40 08:56 30.03.2020
345 Clouds 25 1011 94 10000 1.5 40 08:36 30.03.2020
346 Clouds 25 1011 94 10000 1.5 40 08:18 30.03.2020
347 Clouds 25 1011 94 10000 1 30 07:42 30.03.2020
348 Clouds 25 1011 94 10000 1 30 07:20 30.03.2020
349 Rain 26 1011 100 10000 1 30 06:42 30.03.2020
350 Rain 26 1011 100 10000 1 30 06:23 30.03.2020
351 Clouds 26 1011 100 10000 1 50 05:39 30.03.2020
352 Clouds 27 1011 94 10000 1.5 80 04:29 30.03.2020
353 Clouds 26 1010 100 10000 1.5 80 03:53 30.03.2020
354 Clouds 27 1009 94 10000 1 40 02:44 30.03.2020
355 Clouds 26 1008 100 10000 1 70 01:54 30.03.2020
356 Clouds 26 1007 100 10000 2.1 60 00:57 30.03.2020
357 Clouds 26 1007 100 10000 2.1 60 00:26 30.03.2020
358 Clouds 27 1007 94 10000 2.1 60 23:55 29.03.2020
359 Clouds 27 1007 94 10000 2.1 60 23:36 29.03.2020
360 Clouds 27 1007 94 10000 2.1 60 23:18 29.03.2020
361 Clouds 26 1006 100 10000 2.1 40 22:39 29.03.2020
362 Clouds 26 1006 100 10000 2.1 40 22:20 29.03.2020
363 Rain 26 1007 100 10000 4.1 30 21:59 29.03.2020
364 Rain 26 1007 100 10000 4.1 30 21:37 29.03.2020
365 Rain 26 1007 100 10000 4.1 30 21:19 29.03.2020
366 Rain 26 1007 100 3000 6.7 40 20:55 29.03.2020
367 Rain 29 1007 83 400 7.2 60 20:37 29.03.2020
368 Rain 29 1007 83 400 7.2 60 20:18 29.03.2020
369 Clouds 32 1009 62 10000 3.1 80 19:55 29.03.2020
370 Clouds 32 1009 62 10000 3.1 80 19:37 29.03.2020
371 Clouds 32 1009 62 10000 3.1 80 19:18 29.03.2020
372 Clouds 32 1009 62 10000 3.1 80 18:55 29.03.2020
373 Clouds 32 1009 62 10000 3.1 80 18:55 29.03.2020
374 Clouds 32 1011 66 10000 4.1 60 18:36 29.03.2020
375 Clouds 32 1011 66 10000 4.1 70 18:18 29.03.2020
376 Clouds 32 1011 66 10000 4.1 70 17:42 29.03.2020
377 Clouds 32 1011 66 10000 4.1 70 17:23 29.03.2020
378 Clouds 30 1012 79 10000 3.1 70 16:59 29.03.2020
379 Clouds 30 1012 79 10000 3.1 70 16:40 29.03.2020
380 Clouds 30 1012 79 10000 3.1 70 16:21 29.03.2020
381 Clouds 29 1012 79 10000 4.1 60 15:58 29.03.2020
382 Clouds 29 1012 79 10000 4.1 60 15:39 29.03.2020
383 Clouds 29 1012 79 10000 4.1 60 15:19 29.03.2020
384 Clouds 28 1011 83 10000 3.1 60 14:56 29.03.2020
385 Clouds 28 1011 83 10000 3.1 60 14:37 29.03.2020
386 Clouds 28 1011 83 10000 3.1 60 14:18 29.03.2020
387 Clouds 26 1010 94 10000 1.5 30 13:55 29.03.2020
388 Clouds 26 1010 94 10000 1.5 30 13:55 29.03.2020
389 Clouds 26 1010 94 10000 1.5 30 13:36 29.03.2020
390 Clouds 26 1010 94 10000 1.5 30 13:18 29.03.2020
391 Clouds 26 1010 94 10000 1.5 30 12:54 29.03.2020
392 Rain 25 1009 94 10000 1.5 20 12:36 29.03.2020
393 Rain 25 1009 94 10000 1.5 20 12:18 29.03.2020
394 Clouds 25 1009 100 10000 1.5 130 11:38 29.03.2020
395 Clouds 25 1009 100 10000 1.5 130 11:19 29.03.2020
396 Rain 25 1008 100 10000 1 90 10:39 29.03.2020
397 Rain 25 1008 100 10000 1 90 10:21 29.03.2020
398 Rain 26 1009 100 10000 3.1 90 09:57 29.03.2020
399 Rain 26 1009 100 10000 3.1 90 09:38 29.03.2020
400 Clouds 26 1009 100 10000 3.1 90 09:18 29.03.2020
401 Clouds 26 1009 100 10000 3.1 90 09:18 29.03.2020
402 Clouds 26 1009 94 10000 1.5 100 08:45 29.03.2020
403 Clouds 26 1009 94 10000 1.5 100 08:26 29.03.2020
404 Clouds 26 1009 94 10000 1.5 100 07:47 29.03.2020
405 Clouds 26 1010 94 10000 2.1 50 07:23 29.03.2020
406 Clouds 27 1010 94 10000 3.6 60 06:40 29.03.2020
407 Thunderstorm 27 1010 83 10000 3.1 10 04:56 29.03.2020
408 Clouds 28 1009 83 10000 3.1 20 03:41 29.03.2020
409 Clouds 28 1009 83 10000 3.1 20 03:20 29.03.2020
410 Clouds 28 1008 79 10000 2.6 20 01:43 29.03.2020
411 Clouds 28 1008 79 10000 2.6 20 01:22 29.03.2020
412 Clouds 28 1007 79 10000 2.1 30 00:45 29.03.2020
413 Clouds 28 1007 79 10000 2.1 30 00:27 29.03.2020
414 Clouds 29 1006 74 10000 2.6 70 23:41 28.03.2020
415 Clouds 29 1006 74 10000 2.6 70 23:22 28.03.2020
416 Clouds 30 1006 70 10000 2.6 70 22:44 28.03.2020
417 Clouds 30 1006 70 10000 2.6 70 22:22 28.03.2020
418 Clouds 30 1006 66 10000 2.1 70 21:57 28.03.2020
419 Clouds 30 1006 66 10000 2.1 70 21:57 28.03.2020
420 Clouds 30 1006 66 10000 2.1 70 21:39 28.03.2020
421 Clouds 30 1006 66 10000 2.1 70 21:20 28.03.2020
422 Clouds 29 1007 74 10000 2.6 60 20:56 28.03.2020
423 Clouds 29 1007 74 10000 2.6 60 20:37 28.03.2020
424 Clouds 29 1007 74 10000 2.6 60 20:19 28.03.2020
425 Clouds 29 1007 74 10000 2.6 60 20:19 28.03.2020
426 Thunderstorm 30 1008 70 10000 4.1 70 19:55 28.03.2020
427 Thunderstorm 30 1008 70 10000 4.1 70 19:36 28.03.2020
428 Thunderstorm 30 1008 70 10000 4.1 70 19:18 28.03.2020
429 Rain 30 1010 70 10000 3.1 80 18:41 28.03.2020
430 Rain 31 1010 70 10000 3.1 80 18:20 28.03.2020
431 Rain 31 1014 74 10000 3.6 70 17:42 28.03.2020
432 Rain 31 1014 74 10000 3.6 70 17:22 28.03.2020
433 Rain 29 1012 83 10000 2.6 70 16:59 28.03.2020
434 Rain 29 1012 83 10000 2.6 70 16:39 28.03.2020
435 Rain 29 1012 83 10000 2.6 70 16:18 28.03.2020
436 Clouds 29 1012 83 10000 2.6 80 15:40 28.03.2020
437 Clouds 29 1012 83 10000 2.6 80 15:20 28.03.2020
438 Clouds 29 1012 89 10000 1.5 130 14:58 28.03.2020
439 Clouds 29 1012 89 10000 1.5 130 14:40 28.03.2020
440 Clouds 29 1012 89 10000 1.5 130 14:21 28.03.2020
441 Clouds 27 1011 94 10000 1 30 13:43 28.03.2020
442 Clouds 27 1011 94 10000 1 30 13:23 28.03.2020
443 Clouds 26 1010 100 10000 1 50 12:41 28.03.2020
444 Clouds 26 1010 100 10000 1 50 12:22 28.03.2020
445 Clouds 25 1010 100 10000 1 50 11:44 28.03.2020
446 Clouds 25 1010 100 10000 1 160 11:25 28.03.2020
447 Clouds 25 1009 100 10000 1 70 10:58 28.03.2020
448 Clouds 25 1009 100 10000 1 70 10:38 28.03.2020
449 Clouds 25 1009 100 10000 1 70 10:19 28.03.2020
450 Clouds 25 1008 94 10000 1.29 81 09:43 28.03.2020
451 Clouds 25 1008 94 10000 1.29 81 09:24 28.03.2020
452 Clouds 25 1008 100 10000 1.29 81 08:57 28.03.2020
453 Clouds 25 1008 100 10000 1.29 81 08:39 28.03.2020
454 Clouds 25 1008 100 10000 1.23 100 08:39 28.03.2020
455 Clouds 25 1008 100 10000 1.23 100 08:20 28.03.2020
456 Rain 25 1008 100 10000 1.36 105 07:44 28.03.2020
457 Rain 25 1008 100 10000 1.36 105 06:59 28.03.2020
458 Rain 25 1008 94 10000 2.1 80 06:35 28.03.2020
459 Clouds 26 1008 100 10000 2.1 80 05:43 28.03.2020
460 Clouds 26 1008 100 10000 2.1 80 05:21 28.03.2020
461 Clouds 26 1008 94 10000 2.6 80 04:41 28.03.2020
462 Clouds 26 1008 88 10000 2.1 60 03:42 28.03.2020
463 Clouds 27 1008 74 10000 1.5 350 01:57 28.03.2020
464 Clouds 27 1008 74 10000 1.5 350 01:26 28.03.2020
465 Clouds 27 1007 83 10000 1 30 00:57 28.03.2020
466 Clouds 27 1007 83 10000 1 30 00:36 28.03.2020
467 Clouds 27 1007 83 10000 1 30 23:55 27.03.2020
468 Rain 28 1006 78 10000 1 120 23:37 27.03.2020
469 Rain 28 1006 78 10000 1 120 23:37 27.03.2020
470 Rain 28 1006 78 10000 1 120 23:18 27.03.2020
471 Rain 29 1006 83 10000 1 120 22:55 27.03.2020
472 Rain 29 1006 83 10000 1 120 22:37 27.03.2020
473 Rain 29 1006 83 10000 1 120 22:18 27.03.2020
474 Rain 29 1006 83 10000 1 120 22:18 27.03.2020
475 Rain 29 1006 83 10000 2.1 180 21:42 27.03.2020
476 Rain 29 1006 83 10000 2.1 180 21:24 27.03.2020
477 Rain 30 1007 74 10000 1 160 20:58 27.03.2020
478 Rain 30 1007 74 10000 1 160 20:40 27.03.2020
479 Rain 30 1007 74 10000 1 160 20:20 27.03.2020
480 Rain 29 1008 79 10000 1.5 150 19:57 27.03.2020
481 Rain 29 1008 79 10000 1.5 150 19:38 27.03.2020
482 Rain 29 1008 79 10000 1.5 150 19:20 27.03.2020
483 Clouds 29 1009 83 10000 1.5 80 18:44 27.03.2020
484 Clouds 29 1009 83 10000 1.5 80 18:44 27.03.2020
485 Clouds 29 1009 83 10000 1.5 80 18:23 27.03.2020
486 Clouds 29 1009 83 10000 1.5 80 17:57 27.03.2020
487 Clouds 29 1010 83 10000 2.1 70 17:38 27.03.2020
488 Clouds 29 1010 83 10000 2.1 70 17:19 27.03.2020
489 Clouds 28 1010 83 10000 3.1 70 16:44 27.03.2020
490 Clouds 28 1010 83 10000 3.1 70 16:25 27.03.2020
491 Clouds 28 1010 83 10000 3.1 70 16:25 27.03.2020
492 Clouds 28 1010 83 10000 3.1 70 16:25 27.03.2020
493 Clouds 28 1010 78 10000 4.1 70 15:45 27.03.2020
494 Clouds 28 1010 78 10000 4.1 70 15:27 27.03.2020
495 Rain 29 1010 74 10000 4.1 60 14:57 27.03.2020
496 Rain 29 1010 74 10000 4.1 60 14:39 27.03.2020
497 Rain 29 1010 74 10000 4.1 60 14:21 27.03.2020
498 Rain 27 1009 88 10000 3.1 60 13:43 27.03.2020
499 Rain 27 1009 88 10000 3.1 60 13:22 27.03.2020
500 Rain 27 1009 83 10000 2.6 30 12:59 27.03.2020
501 Rain 27 1009 83 10000 2.6 30 12:41 27.03.2020
502 Rain 27 1009 83 10000 2.6 30 12:19 27.03.2020
503 Rain 27 1008 83 10000 2.1 30 11:42 27.03.2020
504 Rain 27 1008 83 10000 2.1 30 11:24 27.03.2020
505 Clouds 26 1007 83 10000 1.5 40 10:56 27.03.2020
506 Clouds 26 1007 83 10000 1.5 40 10:38 27.03.2020
507 Clouds 26 1007 83 10000 1.5 40 10:20 27.03.2020
508 Rain 26 1007 83 10000 2.1 40 09:58 27.03.2020
509 Rain 26 1007 83 10000 2.1 40 09:38 27.03.2020
510 Rain 26 1007 83 10000 2.1 40 09:20 27.03.2020
511 Rain 26 1007 83 10000 1 30 08:57 27.03.2020
512 Rain 26 1007 83 10000 1 30 08:38 27.03.2020
513 Rain 26 1007 83 10000 1 30 08:20 27.03.2020
514 Rain 27 1007 83 10000 3.1 40 07:52 27.03.2020
515 Rain 27 1007 83 10000 3.1 40 07:26 27.03.2020
516 Rain 27 1007 83 10000 3.1 40 06:55 27.03.2020
517 Rain 27 1008 78 10000 1 60 06:37 27.03.2020
518 Rain 27 1008 83 10000 1.5 50 05:28 27.03.2020
519 Thunderstorm 28 1008 79 10000 2.6 260 02:47 27.03.2020
520 Thunderstorm 28 1007 83 10000 1.5 60 01:36 27.03.2020
521 Thunderstorm 30 1006 74 10000 2.6 70 00:53 27.03.2020
522 Thunderstorm 30 1006 74 10000 2.6 70 00:32 27.03.2020
523 Rain 31 1005 70 10000 2.1 80 23:44 26.03.2020
524 Rain 31 1005 70 10000 2.1 80 23:23 26.03.2020
525 Clouds 31 1005 70 10000 2.6 80 22:59 26.03.2020
526 Clouds 31 1005 70 10000 2.6 80 22:39 26.03.2020
527 Clouds 31 1005 70 10000 2.6 80 22:20 26.03.2020
528 Clouds 31 1005 70 10000 2.6 80 22:20 26.03.2020
529 Rain 32 1005 66 10000 3.1 80 21:57 26.03.2020
530 Rain 32 1005 66 10000 3.1 80 21:38 26.03.2020
531 Rain 32 1005 66 10000 3.1 80 21:20 26.03.2020
532 Rain 33 1006 63 10000 2.1 240 20:57 26.03.2020
533 Rain 33 1006 63 10000 2.1 240 20:38 26.03.2020
534 Rain 33 1006 63 10000 2.1 240 20:20 26.03.2020
535 Rain 31 1007 63 10000 1 120 19:54 26.03.2020
536 Rain 31 1007 63 10000 1 120 19:36 26.03.2020
537 Rain 31 1007 63 10000 1 120 19:18 26.03.2020
538 Rain 33 1009 63 10000 1.5 90 18:41 26.03.2020
539 Rain 33 1009 63 10000 1.5 90 18:23 26.03.2020
540 Rain 33 1009 63 10000 1.5 90 18:23 26.03.2020
541 Rain 33 1009 63 10000 1.5 90 17:56 26.03.2020
542 Clouds 33 1010 63 10000 2.1 90 17:37 26.03.2020
543 Clouds 33 1010 59 10000 2.1 10 17:18 26.03.2020
544 Clouds 32 1011 70 10000 2.1 70 16:40 26.03.2020
545 Clouds 32 1011 70 10000 2.1 70 16:21 26.03.2020
546 Clouds 31 1011 70 10000 3.1 80 15:57 26.03.2020
547 Clouds 31 1011 70 10000 3.1 80 15:57 26.03.2020
548 Clouds 31 1011 70 10000 3.1 80 15:39 26.03.2020
549 Clouds 31 1011 70 10000 3.1 80 15:20 26.03.2020
550 Rain 30 1011 74 10000 3.1 70 14:55 26.03.2020
551 Rain 30 1011 74 10000 3.1 70 14:36 26.03.2020
552 Clouds 30 1011 74 10000 3.1 70 14:18 26.03.2020
553 Clouds 29 1010 74 10000 4.1 60 13:41 26.03.2020
554 Clouds 29 1010 74 10000 4.1 60 13:22 26.03.2020
555 Clouds 27 1009 83 10000 3.1 60 12:54 26.03.2020
556 Clouds 27 1009 83 10000 3.1 60 12:36 26.03.2020
557 Clouds 27 1009 83 10000 3.1 60 12:18 26.03.2020
558 Clouds 26 1009 88 10000 2.1 50 11:43 26.03.2020
559 Clouds 26 1009 88 10000 2.1 50 11:19 26.03.2020
560 Clouds 26 1010 83 10000 1 90 10:42 26.03.2020
561 Clouds 26 1010 83 10000 1 90 10:42 26.03.2020
562 Clouds 26 1010 83 10000 1 90 10:20 26.03.2020
563 Clouds 26 1010 83 10000 1 90 10:20 26.03.2020
564 Clouds 26 1010 83 10000 1.5 40 09:55 26.03.2020
565 Clouds 26 1010 83 10000 1.5 40 09:55 26.03.2020
566 Clouds 26 1010 83 10000 1.5 40 09:55 26.03.2020
567 Clouds 26 1010 83 10000 1.5 40 09:37 26.03.2020
568 Clouds 26 1010 83 10000 1.5 40 09:19 26.03.2020
569 Clouds 26 1010 83 10000 1.5 150 08:42 26.03.2020
570 Clouds 26 1010 83 10000 1.5 150 08:24 26.03.2020
571 Clouds 26 1009 83 10000 1 30 07:57 26.03.2020
572 Clouds 26 1009 83 10000 1 30 07:38 26.03.2020
573 Clouds 26 1009 83 10000 1 30 07:19 26.03.2020
574 Clouds 27 1009 78 10000 1.5 40 06:33 26.03.2020
575 Clouds 27 1009 94 10000 1.09 81 05:48 26.03.2020
576 Clouds 26 1010 94 10000 1.4 78 03:46 26.03.2020
577 Clouds 27 1009 88 10000 2.1 80 02:58 26.03.2020
578 Clouds 29 1008 70 10000 2.6 40 01:51 26.03.2020
579 Clouds 29 1008 70 10000 2.6 40 01:18 26.03.2020
580 Clouds 30 1007 66 10000 2.1 360 00:32 26.03.2020
581 Clouds 31 1006 62 10000 1.5 70 23:44 25.03.2020
582 Clouds 31 1006 62 10000 1.5 70 23:24 25.03.2020
583 Rain 32 1006 59 10000 0.5 120 22:43 25.03.2020
584 Rain 33 1006 59 10000 0.5 120 22:23 25.03.2020
585 Clouds 33 1006 59 10000 1.5 140 21:59 25.03.2020
586 Clouds 33 1006 59 10000 1.5 140 21:41 25.03.2020
587 Clouds 33 1006 59 10000 1.5 140 21:23 25.03.2020
588 Clouds 34 1007 59 10000 2.1 170 20:57 25.03.2020
589 Clouds 34 1007 59 10000 2.1 170 20:38 25.03.2020
590 Clouds 34 1007 59 10000 2.1 170 20:38 25.03.2020
591 Clouds 34 1007 59 10000 2.1 170 20:18 25.03.2020
592 Clouds 33 1009 63 10000 2.1 80 19:43 25.03.2020
593 Clouds 33 1009 63 10000 2.1 80 19:24 25.03.2020
594 Clouds 33 1009 63 10000 2.1 80 18:59 25.03.2020
595 Clouds 33 1010 63 10000 2.1 90 18:41 25.03.2020
596 Clouds 33 1010 63 10000 2.1 90 18:23 25.03.2020
597 Clouds 33 1010 63 10000 2.1 90 17:58 25.03.2020
598 Clouds 33 1010 63 10000 2.1 90 17:58 25.03.2020
599 Clouds 33 1011 63 10000 3.1 80 17:39 25.03.2020
600 Clouds 33 1011 63 10000 3.1 80 17:21 25.03.2020
601 Clouds 31 1012 66 10000 3.1 80 16:55 25.03.2020
602 Clouds 31 1012 66 10000 3.1 80 16:36 25.03.2020
603 Clouds 31 1012 66 10000 3.1 80 16:18 25.03.2020
604 Clouds 30 1013 74 10000 2.6 70 15:41 25.03.2020
605 Clouds 30 1013 74 10000 2.6 70 15:20 25.03.2020
606 Clouds 30 1013 70 10000 3.6 60 14:55 25.03.2020
607 Clouds 30 1013 70 10000 3.6 60 14:37 25.03.2020
608 Clouds 30 1013 70 10000 3.6 60 14:18 25.03.2020
609 Rain 28 1013 78 10000 3.6 60 13:42 25.03.2020
610 Rain 28 1013 78 10000 3.6 60 13:22 25.03.2020
611 Clouds 26 1012 83 10000 3.1 50 12:38 25.03.2020
612 Clouds 26 1012 83 10000 3.1 50 12:19 25.03.2020
613 Clouds 26 1012 83 10000 3.1 50 11:56 25.03.2020
614 Rain 25 1011 88 10000 2.6 80 11:37 25.03.2020
615 Clouds 25 1011 88 10000 2.6 80 11:19 25.03.2020
616 Clouds 25 1011 88 10000 1 40 10:56 25.03.2020
617 Clouds 25 1011 88 10000 1 40 10:38 25.03.2020
618 Clouds 25 1011 88 10000 1 40 10:18 25.03.2020
619 Clouds 26 1010 88 10000 1.5 90 09:43 25.03.2020
620 Clouds 26 1010 88 10000 1.5 90 09:24 25.03.2020
621 Clouds 26 1010 83 10000 1 120 08:56 25.03.2020
622 Clouds 26 1010 83 10000 1 120 08:38 25.03.2020
623 Clouds 26 1010 83 10000 1 120 08:19 25.03.2020
624 Clouds 26 1011 83 10000 1 50 07:41 25.03.2020
625 Clouds 26 1011 83 10000 1 50 07:22 25.03.2020
626 Clouds 26 1011 83 10000 1 50 06:48 25.03.2020
627 Clouds 26 1011 74 10000 1.5 80 06:28 25.03.2020
628 Clouds 26 1011 74 10000 1.5 80 05:56 25.03.2020
629 Clouds 26 1012 74 10000 1.5 30 05:30 25.03.2020
630 Clouds 26 1012 65 10000 1.5 70 04:39 25.03.2020
631 Clouds 27 1012 74 10000 1.5 60 03:36 25.03.2020
632 Clouds 27 1010 69 10000 1.5 80 02:31 25.03.2020
633 Clouds 27 1010 74 10000 1 90 01:21 25.03.2020
634 Clouds 28 1009 78 10000 1 160 00:48 25.03.2020
635 Clouds 28 1009 78 10000 1 160 00:23 25.03.2020
636 Clouds 30 1009 79 10000 1 90 23:45 24.03.2020
637 Clouds 30 1009 79 10000 1 90 23:26 24.03.2020
638 Clouds 32 1009 62 10000 1 140 22:56 24.03.2020
639 Clouds 32 1009 62 10000 1 140 22:37 24.03.2020
640 Clouds 32 1009 62 10000 1 140 22:19 24.03.2020
641 Clouds 32 1009 62 10000 1 140 22:19 24.03.2020
642 Clouds 32 1009 52 10000 2.1 190 21:56 24.03.2020
643 Clouds 32 1009 52 10000 2.1 190 21:37 24.03.2020
644 Clouds 32 1009 52 10000 2.1 190 21:18 24.03.2020
645 Clouds 32 1010 49 10000 1.5 160 20:43 24.03.2020
646 Clouds 32 1010 49 10000 1.5 160 20:24 24.03.2020
647 Clouds 31 1012 66 10000 2.1 70 19:59 24.03.2020
648 Clouds 31 1012 66 10000 2.1 70 19:41 24.03.2020
649 Clouds 31 1012 66 10000 2.1 70 19:19 24.03.2020
650 Clouds 31 1012 66 10000 2.1 70 18:55 24.03.2020
651 Clouds 31 1014 70 10000 1.5 170 18:37 24.03.2020
652 Clouds 31 1014 70 10000 1.5 170 18:18 24.03.2020
653 Clouds 30 1014 74 10000 1 90 17:42 24.03.2020
654 Clouds 30 1014 74 10000 1 90 17:23 24.03.2020
655 Clouds 30 1015 79 10000 1 70 16:58 24.03.2020
656 Clouds 30 1015 79 10000 1 70 16:40 24.03.2020
657 Clouds 30 1015 79 10000 1 70 16:22 24.03.2020
658 Clouds 29 1015 78 10000 1.5 110 15:58 24.03.2020
659 Clouds 29 1015 78 10000 1.5 110 15:37 24.03.2020
660 Clouds 29 1015 78 10000 1.5 110 15:19 24.03.2020
661 Clouds 28 1014 74 10000 1.5 50 14:43 24.03.2020
662 Clouds 28 1014 74 10000 1.5 50 14:19 24.03.2020
663 Clouds 25 1014 88 10000 2.6 50 13:44 24.03.2020
664 Clouds 25 1014 88 10000 2.6 50 13:24 24.03.2020
665 Clouds 25 1014 88 10000 2.6 50 12:57 24.03.2020
666 Clouds 23 1014 100 10000 1.5 40 12:37 24.03.2020
667 Mist 23 1014 100 2000 1.5 20 12:19 24.03.2020
668 Clouds 23 1013 100 10000 2.1 20 11:39 24.03.2020
669 Clouds 23 1013 100 10000 2.1 20 11:20 24.03.2020
670 Clouds 23 1013 100 10000 2.1 10 10:43 24.03.2020
671 Clouds 23 1013 100 10000 2.1 10 10:20 24.03.2020
672 Clouds 23 1013 100 10000 2.1 10 09:59 24.03.2020
673 Clouds 23 1013 100 10000 2.1 10 09:40 24.03.2020
674 Clouds 23 1013 100 10000 2.1 10 09:22 24.03.2020
675 Clouds 23 1012 100 10000 1.5 10 08:39 24.03.2020
676 Clouds 23 1012 100 10000 1.5 10 08:20 24.03.2020
677 Clouds 23 1012 100 10000 1 30 07:48 24.03.2020
678 Clouds 23 1012 100 10000 1 30 07:24 24.03.2020
679 Clouds 22 1012 100 10000 0.65 158 06:53 24.03.2020
680 Clouds 23 1013 100 10000 1 40 06:31 24.03.2020
681 Clouds 23 1013 100 10000 1 60 05:22 24.03.2020
682 Clouds 23 1013 100 10000 1 80 04:27 24.03.2020
683 Clouds 24 1013 94 10000 1 80 03:18 24.03.2020
684 Clouds 24 1012 94 10000 1 30 01:47 24.03.2020
685 Clouds 25 1012 88 10000 1.5 20 00:48 24.03.2020
686 Clouds 25 1012 88 10000 1.5 20 00:25 24.03.2020
687 Clouds 25 1011 88 10000 1 360 23:45 23.03.2020
688 Clouds 25 1011 88 10000 1 360 23:26 23.03.2020
689 Clouds 25 1011 88 10000 2.1 20 22:56 23.03.2020
690 Clouds 25 1011 88 10000 2.1 20 22:37 23.03.2020
691 Clouds 25 1011 88 10000 2.1 20 22:19 23.03.2020
692 Clouds 25 1011 88 10000 2.1 20 21:44 23.03.2020
693 Clouds 25 1012 88 10000 1.5 60 21:20 23.03.2020
694 Clouds 25 1012 94 10000 2.6 80 20:58 23.03.2020
695 Clouds 25 1012 94 10000 2.6 80 20:39 23.03.2020
696 Clouds 25 1012 94 10000 2.6 80 20:21 23.03.2020
697 Clouds 24 1012 100 10000 2.6 80 19:45 23.03.2020
698 Clouds 24 1012 100 10000 2.6 80 19:45 23.03.2020
699 Clouds 25 1013 88 10000 1.5 170 19:27 23.03.2020
700 Clouds 25 1013 88 10000 1.5 170 18:59 23.03.2020
701 Rain 24 1016 88 10000 1.5 260 18:40 23.03.2020
702 Rain 24 1016 88 10000 1.5 260 18:21 23.03.2020
703 Rain 23 1017 100 10000 4.1 280 17:43 23.03.2020
704 Rain 23 1017 94 10000 4.1 260 17:21 23.03.2020
705 Rain 23 1017 94 10000 4.1 260 16:59 23.03.2020
706 Rain 23 1018 100 8000 4.6 270 16:39 23.03.2020
707 Rain 23 1018 100 8000 4.6 270 16:20 23.03.2020
708 Rain 22 1018 100 4000 4.1 250 15:42 23.03.2020
709 Rain 22 1018 100 4000 4.1 250 15:42 23.03.2020
710 Rain 23 1019 100 2000 2.6 320 15:20 23.03.2020
711 Rain 23 1018 100 3000 2.6 340 14:55 23.03.2020
712 Rain 23 1018 100 3000 2.6 340 14:36 23.03.2020
713 Rain 23 1018 100 3000 2.6 340 14:36 23.03.2020
714 Rain 23 1018 100 3000 2.6 340 14:18 23.03.2020
715 Thunderstorm 22 1017 100 3000 2.6 270 13:40 23.03.2020
716 Thunderstorm 22 1017 100 3000 2.6 270 13:21 23.03.2020
717 Thunderstorm 23 1015 100 1000 2.1 310 12:45 23.03.2020
718 Thunderstorm 23 1015 100 1000 2.1 310 12:45 23.03.2020
719 Thunderstorm 23 1015 100 1000 2.1 310 12:26 23.03.2020
720 Thunderstorm 23 1015 100 1000 2.1 310 11:59 23.03.2020
721 Thunderstorm 23 1015 100 1000 2.1 310 11:59 23.03.2020
722 Thunderstorm 23 1014 100 2000 2.6 170 11:40 23.03.2020
723 Thunderstorm 23 1014 100 2000 2.6 170 11:20 23.03.2020
724 Thunderstorm 23 1014 100 2000 2.6 170 11:20 23.03.2020
725 Thunderstorm 24 1012 100 5000 3.1 180 10:58 23.03.2020
726 Thunderstorm 24 1012 100 5000 3.1 180 10:38 23.03.2020
727 Thunderstorm 24 1012 100 5000 3.1 180 10:38 23.03.2020
728 Thunderstorm 24 1012 100 5000 3.1 180 10:20 23.03.2020
729 Thunderstorm 25 1012 94 800 4.6 150 09:44 23.03.2020
730 Rain 25 1010 94 10000 1 80 09:21 23.03.2020
731 Rain 27 1011 94 10000 1 100 08:57 23.03.2020
732 Rain 27 1011 94 10000 1 100 08:36 23.03.2020
733 Clouds 27 1011 94 10000 1 100 08:18 23.03.2020
734 Rain 28 1011 94 10000 1.5 110 07:45 23.03.2020
735 Rain 28 1011 94 10000 1.5 110 07:27 23.03.2020
736 Rain 28 1012 83 10000 2.6 80 06:52 23.03.2020
737 Rain 28 1013 100 10000 1 30 05:54 23.03.2020
738 Rain 28 1013 100 10000 1 30 05:29 23.03.2020
739 Rain 29 1012 79 10000 2.1 80 03:29 23.03.2020
740 Rain 29 1012 79 10000 1.5 80 01:51 23.03.2020
741 Rain 29 1010 79 10000 1 80 01:33 23.03.2020
742 Rain 30 1010 74 10000 2.1 80 00:39 23.03.2020
743 Clouds 30 1009 74 10000 3.1 70 23:48 22.03.2020
744 Clouds 32 1009 70 10000 2.1 80 23:26 22.03.2020
745 Clouds 32 1009 62 10000 3.1 70 22:45 22.03.2020
746 Clouds 33 1008 66 10000 2.6 80 22:26 22.03.2020
747 Clouds 34 1008 63 10000 2.1 70 21:56 22.03.2020
748 Clouds 34 1008 63 10000 2.1 70 21:37 22.03.2020
749 Clouds 34 1008 63 10000 2.1 70 21:19 22.03.2020
750 Clouds 33 1009 66 10000 2.6 80 20:46 22.03.2020
751 Clouds 33 1009 66 10000 2.6 80 20:26 22.03.2020
752 Clouds 33 1010 63 10000 2.1 70 19:59 22.03.2020
753 Clouds 33 1010 63 10000 2.1 70 19:40 22.03.2020
754 Clouds 33 1010 63 10000 2.1 70 19:21 22.03.2020
755 Clouds 33 1011 66 10000 2.6 80 18:59 22.03.2020
756 Clouds 33 1011 66 10000 2.6 80 18:41 22.03.2020
757 Clouds 33 1011 66 10000 2.6 80 18:22 22.03.2020
758 Clouds 32 1011 66 10000 2.6 80 17:59 22.03.2020
759 Clouds 32 1012 62 10000 3.6 70 17:39 22.03.2020
760 Clouds 32 1012 62 10000 3.6 70 17:39 22.03.2020
761 Clouds 32 1012 62 10000 3.6 70 17:21 22.03.2020
762 Clouds 31 1013 70 10000 3.6 70 16:58 22.03.2020
763 Clouds 31 1013 70 10000 3.6 70 16:40 22.03.2020
764 Clouds 31 1013 70 10000 3.6 70 16:21 22.03.2020
765 Clouds 30 1013 74 10000 4.1 60 15:57 22.03.2020
766 Clouds 30 1013 74 10000 4.1 60 15:39 22.03.2020
767 Clouds 30 1013 79 10000 4.1 70 14:47 22.03.2020
768 Clouds 30 1013 79 10000 4.1 70 14:19 22.03.2020
769 Clouds 28 1013 88 10000 3.6 70 13:56 22.03.2020
770 Clouds 28 1013 88 10000 3.6 70 13:37 22.03.2020
771 Clouds 28 1013 88 10000 3.6 70 13:19 22.03.2020
772 Clear 27 1012 94 10000 2.6 70 12:43 22.03.2020
773 Clear 27 1012 94 10000 2.6 70 12:20 22.03.2020
774 Clear 27 1012 94 10000 2.6 70 11:56 22.03.2020
775 Clear 27 1012 94 10000 2.6 70 11:37 22.03.2020
776 Clouds 27 1012 94 10000 2.6 70 11:19 22.03.2020
777 Clouds 26 1011 94 10000 2.6 70 10:43 22.03.2020
778 Clouds 26 1011 94 10000 2.6 70 10:23 22.03.2020
779 Clouds 26 1011 94 10000 2.6 70 10:23 22.03.2020
780 Clouds 27 1011 100 10000 1.5 80 09:47 22.03.2020
781 Clouds 27 1011 100 10000 1.5 80 09:28 22.03.2020
782 Clouds 27 1011 88 10000 2.1 70 08:53 22.03.2020
783 Clouds 27 1011 88 10000 2.1 70 08:53 22.03.2020
784 Clear 27 1011 88 10000 2.1 70 08:33 22.03.2020
785 Rain 27 1011 94 10000 2.6 70 07:59 22.03.2020
786 Rain 27 1011 94 10000 2.6 70 07:41 22.03.2020
787 Rain 27 1011 94 10000 2.6 70 07:18 22.03.2020
788 Rain 26 1011 100 10000 1.5 80 05:54 22.03.2020
789 Rain 27 1012 83 10000 2.1 80 04:39 22.03.2020
790 Rain 28 1011 74 10000 2.6 70 02:34 22.03.2020
791 Rain 29 1010 79 10000 1.5 90 01:19 22.03.2020
792 Clouds 29 1009 74 10000 1.5 80 00:34 22.03.2020
793 Clouds 29 1009 74 10000 1.5 80 23:47 21.03.2020
794 Clouds 30 1009 70 10000 2.1 90 23:24 21.03.2020
795 Clouds 32 1008 62 10000 2.1 80 22:59 21.03.2020
796 Clouds 32 1008 62 10000 2.1 80 22:38 21.03.2020
797 Clouds 32 1008 62 10000 2.1 80 22:20 21.03.2020
798 Clouds 32 1009 66 10000 2.1 80 21:59 21.03.2020
799 Clouds 32 1009 66 10000 2.1 80 21:39 21.03.2020
800 Clouds 32 1009 66 10000 2.1 80 21:20 21.03.2020
801 Clouds 32 1009 66 10000 2.1 80 21:20 21.03.2020
802 Clouds 32 1009 62 10000 1.5 310 20:44 21.03.2020
803 Clouds 32 1009 62 10000 1.5 310 20:22 21.03.2020
804 Clouds 32 1010 66 10000 2.1 80 19:57 21.03.2020
805 Clouds 32 1010 66 10000 2.1 80 19:38 21.03.2020
806 Clouds 32 1010 66 10000 2.1 80 19:19 21.03.2020
807 Clouds 31 1010 66 10000 2.1 80 18:54 21.03.2020
808 Clouds 32 1011 66 10000 2.6 70 18:36 21.03.2020
809 Clouds 32 1011 66 10000 2.6 70 18:18 21.03.2020
810 Clouds 32 1012 74 10000 2.6 80 17:42 21.03.2020
811 Clouds 32 1012 74 10000 2.6 80 17:23 21.03.2020
812 Clouds 31 1013 70 10000 1.5 90 16:43 21.03.2020
813 Clouds 31 1013 70 10000 1.5 90 16:24 21.03.2020
814 Clouds 31 1013 70 10000 1.5 90 16:24 21.03.2020
815 Clouds 30 1013 74 10000 2.6 70 15:59 21.03.2020
816 Clouds 30 1013 74 10000 2.6 70 15:41 21.03.2020
817 Clouds 30 1013 74 10000 2.6 70 15:23 21.03.2020
818 Clouds 28 1014 83 10000 3.6 70 14:57 21.03.2020
819 Clouds 28 1014 83 10000 3.6 70 14:39 21.03.2020
820 Clouds 28 1014 83 10000 3.6 70 14:20 21.03.2020
821 Clouds 27 1013 94 10000 3.1 60 13:58 21.03.2020
822 Clouds 27 1013 94 10000 3.1 60 13:58 21.03.2020
823 Clouds 27 1013 94 10000 3.1 60 13:39 21.03.2020
824 Clouds 27 1013 94 10000 3.1 60 13:21 21.03.2020
825 Clouds 26 1012 94 10000 1.5 60 12:57 21.03.2020
826 Clouds 26 1012 94 10000 1.5 60 12:37 21.03.2020
827 Clouds 26 1012 94 10000 1.5 60 12:19 21.03.2020
828 Clouds 26 1012 94 10000 1.5 60 11:55 21.03.2020
829 Clouds 24 1011 100 10000 1.5 50 11:37 21.03.2020
830 Clouds 24 1011 100 10000 1.5 50 11:18 21.03.2020
831 Clouds 24 1011 100 10000 1.57 28 10:56 21.03.2020
832 Clouds 24 1011 100 10000 1.57 28 10:38 21.03.2020
833 Clouds 24 1011 100 10000 1.57 28 10:19 21.03.2020
834 Clouds 24 1010 100 10000 1.57 28 09:41 21.03.2020
835 Clouds 24 1010 100 10000 1.57 28 09:23 21.03.2020
836 Clouds 25 1010 100 10000 1.5 80 08:59 21.03.2020
837 Clouds 25 1010 100 10000 1.5 80 08:41 21.03.2020
838 Clouds 25 1010 100 10000 1.5 80 08:22 21.03.2020
839 Clouds 25 1010 94 10000 1.5 70 07:42 21.03.2020
840 Clouds 25 1010 94 10000 1.5 70 07:23 21.03.2020
841 Clouds 25 1010 94 10000 1.5 70 06:45 21.03.2020
842 Clouds 25 1011 83 10000 1.5 70 06:26 21.03.2020
843 Clouds 25 1012 94 10000 2.1 40 05:41 21.03.2020
844 Clouds 25 1012 83 10000 2.1 40 04:37 21.03.2020
845 Clouds 25 1011 83 10000 1.5 70 02:39 21.03.2020
846 Clouds 26 1010 78 10000 1.5 60 01:57 21.03.2020
847 Clouds 26 1010 78 10000 1.5 60 01:29 21.03.2020
848 Clouds 26 1010 88 10000 4.1 30 00:47 21.03.2020
849 Clouds 26 1010 88 10000 4.1 30 00:24 21.03.2020
850 Clouds 26 1010 88 10000 4.1 30 23:46 20.03.2020
851 Thunderstorm 26 1010 94 10000 1 210 23:24 20.03.2020
852 Thunderstorm 25 1010 94 3000 2.6 320 22:55 20.03.2020
853 Rain 26 1009 88 10000 2.1 100 22:36 20.03.2020
854 Rain 26 1009 88 10000 2.1 100 22:18 20.03.2020
855 Rain 30 1010 70 10000 3.1 70 21:54 20.03.2020
856 Rain 30 1010 70 10000 3.1 70 21:36 20.03.2020
857 Rain 30 1010 70 10000 3.1 70 21:18 20.03.2020
858 Clouds 31 1010 66 10000 2.6 80 20:41 20.03.2020
859 Clouds 31 1010 66 10000 2.6 80 20:41 20.03.2020
860 Clouds 31 1010 66 10000 2.6 80 20:21 20.03.2020
861 Clouds 30 1011 70 10000 1.5 70 19:58 20.03.2020
862 Clouds 30 1011 70 10000 1.5 70 19:40 20.03.2020
863 Clouds 30 1011 70 10000 1.5 70 19:18 20.03.2020
864 Clouds 30 1012 70 10000 2.6 80 18:39 20.03.2020
865 Clouds 30 1012 70 10000 2.6 80 18:20 20.03.2020
866 Clouds 30 1012 70 10000 2.6 80 17:57 20.03.2020
867 Clouds 30 1013 74 10000 1 100 17:39 20.03.2020
868 Clouds 29 1014 78 10000 2.6 50 17:20 20.03.2020
869 Clouds 29 1014 78 10000 2.6 50 16:43 20.03.2020
870 Clouds 29 1014 78 10000 2.6 50 16:22 20.03.2020
871 Clouds 27 1014 78 10000 2.6 50 15:59 20.03.2020
872 Clouds 27 1014 78 10000 2.6 50 15:41 20.03.2020
873 Clouds 27 1014 78 10000 2.6 50 15:20 20.03.2020
874 Clouds 26 1015 83 10000 2.1 70 14:42 20.03.2020
875 Clouds 26 1015 83 10000 2.1 70 14:21 20.03.2020
876 Clouds 24 1014 94 10000 2.1 70 13:55 20.03.2020
877 Clouds 24 1014 94 10000 2.1 70 13:36 20.03.2020
878 Clouds 24 1014 94 10000 2.1 70 13:18 20.03.2020
879 Clouds 23 1013 100 10000 1 10 12:39 20.03.2020
880 Clouds 23 1013 100 10000 1 10 12:20 20.03.2020
881 Clouds 22 1013 100 10000 2.1 30 11:42 20.03.2020
882 Clouds 22 1013 100 10000 2.1 30 11:22 20.03.2020
883 Clouds 23 1013 94 10000 1.5 70 10:59 20.03.2020
884 Clouds 23 1013 94 10000 1.5 70 10:41 20.03.2020
885 Clouds 23 1013 94 10000 1.5 70 10:20 20.03.2020
886 Clouds 23 1013 100 10000 2.1 20 09:47 20.03.2020
887 Clouds 23 1013 100 10000 2.1 20 09:22 20.03.2020
888 Clouds 22 1012 100 10000 1.5 40 08:59 20.03.2020
889 Clouds 22 1012 100 10000 1.5 40 08:40 20.03.2020
890 Clouds 23 1012 100 10000 2.6 350 08:20 20.03.2020
891 Clouds 23 1012 100 10000 1 120 07:46 20.03.2020
892 Clouds 23 1012 100 10000 1 120 07:26 20.03.2020
893 Clouds 23 1012 100 10000 1 120 06:49 20.03.2020
894 Clouds 23 1012 100 10000 1.5 80 06:31 20.03.2020
895 Clouds 23 1012 100 10000 2.6 50 04:49 20.03.2020
896 Clouds 23 1013 100 10000 1 270 03:19 20.03.2020
897 Clouds 23 1012 100 10000 4.1 360 01:51 20.03.2020
898 Clouds 23 1012 100 10000 2.1 340 00:46 20.03.2020
899 Clouds 23 1012 100 10000 2.1 340 00:25 20.03.2020
900 Clouds 23 1012 94 10000 2.6 340 23:44 19.03.2020
901 Clouds 23 1012 94 10000 2.6 340 23:25 19.03.2020
902 Clouds 23 1011 94 10000 4.1 30 22:56 19.03.2020
903 Clouds 23 1011 94 10000 4.1 30 22:37 19.03.2020
904 Clouds 23 1011 94 10000 4.1 30 22:18 19.03.2020
905 Clouds 23 1012 100 10000 4.6 40 21:41 19.03.2020
906 Clouds 23 1012 100 10000 4.6 40 21:20 19.03.2020
907 Rain 23 1012 100 8000 5.1 50 20:56 19.03.2020
908 Rain 23 1013 100 3000 5.1 40 20:38 19.03.2020
909 Rain 23 1013 100 3000 5.1 40 20:19 19.03.2020
910 Rain 23 1013 100 4000 3.6 40 19:55 19.03.2020
911 Rain 23 1013 100 4000 3.6 40 19:36 19.03.2020
912 Rain 23 1013 100 4000 3.6 40 19:18 19.03.2020
913 Rain 23 1014 100 4000 2.6 330 18:42 19.03.2020
914 Rain 23 1014 100 4000 2.6 330 18:22 19.03.2020
915 Rain 23 1014 100 4000 2.6 330 17:56 19.03.2020
916 Rain 23 1015 100 4000 2.6 310 17:38 19.03.2020
917 Rain 23 1015 100 4000 2.6 310 17:18 19.03.2020
918 Rain 23 1016 100 1500 2.1 290 16:43 19.03.2020
919 Rain 23 1016 100 1500 2.1 290 16:22 19.03.2020
920 Rain 23 1016 94 7000 4.1 270 15:44 19.03.2020
921 Rain 23 1016 94 7000 4.1 270 15:25 19.03.2020
922 Rain 24 1015 100 7000 5.1 310 14:55 19.03.2020
923 Rain 24 1015 100 7000 5.1 310 14:37 19.03.2020
924 Rain 24 1015 100 7000 5.1 310 14:18 19.03.2020
925 Rain 24 1015 94 1500 5.1 270 13:39 19.03.2020
926 Rain 24 1015 94 1500 5.1 270 13:18 19.03.2020
927 Clouds 25 1013 100 10000 3.1 220 12:42 19.03.2020
928 Clouds 25 1013 100 10000 3.1 220 12:24 19.03.2020
929 Clouds 25 1013 100 10000 3.1 220 11:59 19.03.2020
930 Clouds 25 1012 100 10000 2.6 210 11:41 19.03.2020
931 Clouds 25 1012 100 10000 2.6 210 11:22 19.03.2020
932 Clouds 25 1011 94 10000 1.5 60 10:44 19.03.2020
933 Clouds 25 1011 94 10000 1.5 60 10:22 19.03.2020
934 Clouds 25 1011 94 10000 1 80 09:58 19.03.2020
935 Clouds 25 1011 94 10000 1 80 09:40 19.03.2020
936 Clouds 25 1011 94 10000 1 80 09:20 19.03.2020
937 Clouds 26 1012 100 10000 1.5 60 08:46 19.03.2020
938 Clouds 26 1012 100 10000 1.5 60 08:22 19.03.2020
939 Clouds 26 1012 94 10000 0.5 40 07:48 19.03.2020
940 Clouds 26 1012 94 10000 0.5 40 07:30 19.03.2020
941 Clouds 26 1012 94 10000 0.5 40 06:51 19.03.2020
942 Clouds 26 1012 100 10000 1 40 05:53 19.03.2020
943 Clouds 26 1013 100 10000 1.5 90 05:22 19.03.2020
944 Clouds 26 1013 100 10000 0.5 90 04:41 19.03.2020
945 Clouds 26 1013 100 10000 0.5 80 03:36 19.03.2020
946 Clouds 27 1010 100 10000 1.5 160 01:27 19.03.2020
947 Clouds 27 1010 100 10000 1 60 00:37 19.03.2020
948 Clouds 27 1010 100 10000 1 60 23:58 18.03.2020
949 Clouds 27 1010 88 10000 1.5 70 23:36 18.03.2020
950 Clouds 27 1010 88 10000 1.5 70 23:18 18.03.2020
951 Rain 28 1009 88 10000 1.5 80 22:42 18.03.2020
952 Rain 28 1009 88 10000 1.5 80 22:22 18.03.2020
953 Rain 29 1008 83 10000 1.5 60 21:54 18.03.2020
954 Rain 29 1008 83 10000 1.5 60 21:36 18.03.2020
955 Rain 29 1008 83 10000 1.5 60 21:18 18.03.2020
956 Rain 30 1009 79 10000 1.5 100 20:41 18.03.2020
957 Rain 30 1009 79 10000 1.5 100 20:21 18.03.2020
958 Clouds 31 1010 74 10000 3.1 70 19:58 18.03.2020
959 Clouds 31 1010 74 10000 3.1 70 19:40 18.03.2020
960 Clouds 31 1010 74 10000 3.1 70 19:21 18.03.2020
961 Clouds 31 1011 79 10000 1.5 100 18:42 18.03.2020
962 Clouds 31 1011 79 10000 1.5 100 18:21 18.03.2020
963 Clouds 31 1011 79 10000 1.5 100 17:59 18.03.2020
964 Clouds 31 1011 79 10000 1.5 100 17:59 18.03.2020
965 Clouds 30 1013 83 10000 1 100 17:41 18.03.2020
966 Clouds 30 1013 70 10000 3.6 70 17:22 18.03.2020
967 Clouds 30 1014 83 10000 2.1 180 16:58 18.03.2020
968 Clouds 30 1014 83 10000 2.1 180 16:40 18.03.2020
969 Clouds 30 1014 83 10000 2.1 180 16:20 18.03.2020
970 Clouds 30 1014 83 10000 1.5 100 15:45 18.03.2020
971 Clouds 30 1014 83 10000 1.5 100 15:23 18.03.2020
972 Clouds 29 1014 83 10000 1 160 14:57 18.03.2020
973 Clouds 29 1014 83 10000 1 160 14:39 18.03.2020
974 Clouds 28 1014 94 10000 1.5 150 14:20 18.03.2020
975 Clouds 28 1014 94 10000 1.5 150 14:20 18.03.2020
976 Clouds 27 1013 100 10000 1.5 170 13:39 18.03.2020
977 Clouds 27 1013 100 10000 1.5 170 13:19 18.03.2020
978 Clouds 27 1013 100 10000 1.5 170 13:19 18.03.2020
979 Clouds 26 1012 100 10000 1.5 190 12:42 18.03.2020
980 Clouds 26 1012 100 10000 1.5 190 12:20 18.03.2020
981 Clouds 26 1011 100 10000 0.5 160 11:41 18.03.2020
982 Clouds 26 1011 100 10000 0.5 160 11:22 18.03.2020
983 Rain 27 1011 88 10000 1 110 10:59 18.03.2020
984 Rain 27 1011 88 10000 1 110 10:59 18.03.2020
985 Rain 27 1011 88 10000 1 110 10:39 18.03.2020
986 Rain 27 1011 88 10000 1 110 10:21 18.03.2020
987 Rain 26 1010 100 10000 0.5 90 09:59 18.03.2020
988 Rain 26 1010 100 10000 0.5 90 09:39 18.03.2020
989 Rain 26 1010 100 10000 0.5 90 09:21 18.03.2020
990 Rain 26 1011 100 10000 0.32 312 08:40 18.03.2020
991 Clear 26 1011 100 10000 0.53 244 08:21 18.03.2020
992 Clouds 26 1011 100 10000 1.12 224 07:49 18.03.2020
993 Clouds 26 1011 100 10000 0.5 120 07:31 18.03.2020
994 Clouds 25 1011 100 10000 0.5 120 06:54 18.03.2020
995 Clouds 26 1012 94 10000 1.5 90 06:35 18.03.2020
996 Clouds 27 1012 100 10000 1.12 224 05:37 18.03.2020
997 Rain 27 1012 94 10000 2.1 220 04:29 18.03.2020
998 Rain 27 1012 83 10000 1 10 03:21 18.03.2020
999 Rain 27 1011 88 10000 1 70 02:32 18.03.2020
1000 Rain 28 1009 83 10000 1.5 70 01:31 18.03.2020
1001 Clouds 28 1009 74 10000 2.1 30 00:42 18.03.2020
1002 Clouds 28 1009 74 10000 2.1 30 00:21 18.03.2020
1003 Clouds 29 1009 74 10000 2.1 30 23:40 17.03.2020
1004 Clouds 29 1009 74 10000 2.1 30 23:19 17.03.2020
1005 Clouds 30 1008 70 10000 3.1 40 22:42 17.03.2020
1006 Clouds 30 1008 70 10000 3.1 40 22:24 17.03.2020
1007 Clouds 30 1008 70 10000 3.6 20 21:42 17.03.2020
1008 Clouds 30 1008 70 10000 3.6 20 21:22 17.03.2020
1009 Clouds 30 1008 74 10000 3.6 30 20:56 17.03.2020
1010 Clouds 30 1008 74 10000 3.6 30 20:37 17.03.2020
1011 Clouds 30 1008 74 10000 3.6 30 20:19 17.03.2020
1012 Clouds 30 1009 79 10000 3.1 70 19:41 17.03.2020
1013 Clouds 30 1009 70 10000 4.1 10 19:18 17.03.2020
1014 Clouds 30 1009 70 10000 4.1 10 18:56 17.03.2020
1015 Clouds 30 1010 79 10000 2.6 70 18:38 17.03.2020
1016 Clouds 30 1010 79 10000 2.6 70 18:20 17.03.2020
1017 Clouds 30 1012 83 10000 2.1 80 17:41 17.03.2020
1018 Clouds 30 1012 83 10000 2.1 80 17:23 17.03.2020
1019 Clouds 29 1013 83 10000 2.1 80 16:57 17.03.2020
1020 Clouds 29 1013 83 10000 2.1 80 16:39 17.03.2020
1021 Clouds 29 1013 83 10000 2.1 80 16:18 17.03.2020
1022 Clouds 28 1013 83 10000 2.6 70 15:44 17.03.2020
1023 Clouds 28 1013 83 10000 2.6 70 15:21 17.03.2020
1024 Clouds 29 1013 83 10000 2.6 70 14:44 17.03.2020
1025 Clouds 29 1013 83 10000 2.6 70 14:23 17.03.2020
1026 Clouds 27 1012 88 10000 2.1 60 13:46 17.03.2020
1027 Clouds 27 1012 88 10000 2.1 60 13:28 17.03.2020
1028 Clouds 27 1012 88 10000 2.1 60 12:59 17.03.2020
1029 Clouds 26 1011 100 10000 1 130 12:40 17.03.2020
1030 Clouds 26 1011 100 10000 1 130 12:22 17.03.2020
1031 Clouds 26 1011 100 10000 1 130 11:47 17.03.2020
1032 Clouds 26 1011 100 10000 1 150 11:29 17.03.2020
1033 Clouds 26 1012 88 10000 2.1 350 10:58 17.03.2020
1034 Clouds 26 1012 88 10000 2.1 350 10:38 17.03.2020
1035 Clouds 26 1012 88 10000 2.1 350 10:20 17.03.2020
1036 Clouds 26 1012 88 10000 1.5 300 09:59 17.03.2020
1037 Clouds 26 1012 88 10000 1.5 300 09:39 17.03.2020
1038 Clouds 26 1012 88 10000 1.5 300 09:19 17.03.2020
1039 Clouds 26 1012 83 10000 2.1 330 08:47 17.03.2020
1040 Clouds 26 1012 83 10000 2.1 330 08:22 17.03.2020
1041 Rain 26 1013 83 10000 2.1 10 07:50 17.03.2020
1042 Rain 26 1013 83 10000 2.1 10 07:26 17.03.2020
1043 Rain 26 1013 83 10000 2.1 10 06:58 17.03.2020
1044 Rain 26 1013 88 10000 2.1 300 06:33 17.03.2020
1045 Rain 26 1013 88 10000 2.1 300 05:49 17.03.2020
1046 Clouds 28 1012 74 10000 2.1 340 03:40 17.03.2020
1047 Clouds 28 1011 74 10000 1.5 340 02:45 17.03.2020
1048 Clouds 27 1010 83 10000 1.5 250 01:43 17.03.2020
1049 Clouds 27 1010 83 10000 1.5 250 01:24 17.03.2020
1050 Clouds 28 1009 79 10000 1.5 50 00:31 17.03.2020
1051 Rain 28 1009 79 10000 1.5 80 23:45 16.03.2020
1052 Rain 28 1009 79 10000 1.5 80 23:25 16.03.2020
1053 Rain 29 1008 70 10000 3.1 70 22:40 16.03.2020
1054 Rain 29 1008 70 10000 3.1 70 22:22 16.03.2020
1055 Thunderstorm 30 1008 70 10000 3.1 70 21:57 16.03.2020
1056 Thunderstorm 30 1008 70 10000 3.1 70 21:57 16.03.2020
1057 Thunderstorm 30 1008 70 10000 3.1 70 21:38 16.03.2020
1058 Rain 32 1008 70 10000 3.1 70 21:20 16.03.2020
1059 Rain 33 1008 66 10000 1.5 90 20:55 16.03.2020
1060 Rain 33 1008 66 10000 1.5 90 20:37 16.03.2020
1061 Rain 33 1008 66 10000 1.5 90 20:18 16.03.2020
1062 Rain 33 1008 66 10000 1.5 90 20:18 16.03.2020
1063 Clouds 32 1009 66 10000 2.1 100 19:40 16.03.2020
1064 Clouds 32 1009 66 10000 2.1 100 19:20 16.03.2020
1065 Clouds 32 1010 74 10000 1.5 80 18:41 16.03.2020
1066 Clouds 32 1010 74 10000 1.5 80 18:20 16.03.2020
1067 Clouds 32 1010 74 10000 1.5 80 17:47 16.03.2020
1068 Clouds 31 1012 70 10000 2.6 60 17:26 16.03.2020
1069 Clouds 31 1013 74 10000 3.1 50 16:59 16.03.2020
1070 Clouds 31 1013 74 10000 3.1 50 16:41 16.03.2020
1071 Clouds 31 1013 74 10000 3.1 50 16:22 16.03.2020
1072 Clouds 30 1013 79 10000 3.6 70 15:44 16.03.2020
1073 Clouds 30 1013 79 10000 3.6 70 15:25 16.03.2020
1074 Clouds 29 1013 88 10000 4.1 70 14:48 16.03.2020
1075 Clouds 29 1013 88 10000 4.1 70 14:25 16.03.2020
1076 Clouds 27 1012 94 10000 2.6 80 13:53 16.03.2020
1077 Clouds 27 1012 94 10000 2.6 80 13:30 16.03.2020
1078 Clouds 26 1011 100 10000 1 40 12:58 16.03.2020
1079 Clouds 26 1011 100 10000 1 40 12:40 16.03.2020
1080 Clouds 26 1011 100 10000 1 40 12:20 16.03.2020
1081 Clouds 25 1010 100 10000 1 70 11:45 16.03.2020
1082 Clouds 25 1010 100 10000 1 70 11:26 16.03.2020
1083 Clouds 25 1010 100 10000 1 80 10:47 16.03.2020
1084 Clouds 25 1010 100 10000 1 80 10:25 16.03.2020
1085 Clouds 26 1010 100 10000 1.5 70 09:59 16.03.2020
1086 Clouds 26 1010 100 10000 1.5 70 09:40 16.03.2020
1087 Clouds 26 1010 100 10000 1.5 70 09:20 16.03.2020
1088 Clouds 25 1010 100 10000 0.5 70 08:43 16.03.2020
1089 Clouds 25 1010 100 10000 0.5 70 08:23 16.03.2020
1090 Clouds 25 1010 100 10000 1 80 07:44 16.03.2020
1091 Clouds 25 1010 100 10000 1 80 07:21 16.03.2020
1092 Clouds 25 1010 100 10000 1 80 07:21 16.03.2020
1093 Clouds 25 1010 100 10000 1 80 06:46 16.03.2020
1094 Clouds 26 1011 94 10000 2.1 70 06:22 16.03.2020
1095 Clouds 27 1012 88 10000 2.6 80 04:26 16.03.2020
1096 Rain 28 1010 83 10000 2.1 50 01:47 16.03.2020
1097 Clouds 28 1009 83 10000 2.6 70 00:46 16.03.2020
1098 Clouds 28 1009 83 10000 2.6 70 00:27 16.03.2020
1099 Clouds 30 1009 74 10000 1.5 80 23:40 15.03.2020
1100 Clouds 30 1009 74 10000 1.5 80 23:19 15.03.2020
1101 Clouds 31 1008 74 10000 1 150 22:42 15.03.2020
1102 Clouds 31 1008 74 10000 1 150 22:21 15.03.2020
1103 Clouds 31 1009 70 10000 1 110 21:39 15.03.2020
1104 Clouds 31 1009 70 10000 1 110 21:21 15.03.2020
1105 Clouds 30 1010 74 10000 1 110 20:58 15.03.2020
1106 Clouds 30 1010 74 10000 1 110 20:40 15.03.2020
1107 Clouds 30 1010 74 10000 1 110 20:19 15.03.2020
1108 Clouds 30 1011 79 10000 1 120 19:55 15.03.2020
1109 Clouds 30 1011 79 10000 1 120 19:37 15.03.2020
1110 Clouds 30 1011 79 10000 1 120 19:18 15.03.2020
1111 Clouds 29 1011 74 10000 1.5 260 18:42 15.03.2020
1112 Clouds 29 1013 78 10000 1.5 150 18:24 15.03.2020
1113 Clouds 28 1013 78 10000 1.5 150 17:59 15.03.2020
1114 Clouds 29 1014 83 10000 2.1 80 17:39 15.03.2020
1115 Clouds 29 1014 83 10000 2.1 80 17:20 15.03.2020
1116 Clouds 28 1015 83 10000 1.5 90 16:55 15.03.2020
1117 Clouds 28 1015 83 10000 1.5 90 16:36 15.03.2020
1118 Clouds 28 1015 83 10000 1.5 90 16:18 15.03.2020
1119 Clouds 28 1015 83 10000 1.5 140 15:41 15.03.2020
1120 Clouds 28 1015 83 10000 1.5 140 15:20 15.03.2020
1121 Clouds 26 1015 94 10000 1 90 14:47 15.03.2020
1122 Clouds 26 1015 94 10000 1 90 14:26 15.03.2020
1123 Drizzle 24 1014 100 10000 0.5 170 13:59 15.03.2020
1124 Drizzle 24 1014 100 10000 0.5 170 13:39 15.03.2020
1125 Drizzle 24 1014 100 10000 0.5 170 13:21 15.03.2020
1126 Clouds 24 1013 100 10000 1.5 160 12:44 15.03.2020
1127 Clouds 24 1013 100 10000 1.5 160 12:26 15.03.2020
1128 Clouds 24 1013 100 10000 1.5 160 11:59 15.03.2020
1129 Clouds 24 1012 100 10000 1.5 160 11:40 15.03.2020
1130 Clouds 24 1012 100 10000 1.5 160 11:22 15.03.2020
1131 Clouds 24 1010 100 10000 2.6 70 10:56 15.03.2020
1132 Clouds 24 1010 100 10000 2.6 70 10:36 15.03.2020
1133 Clouds 24 1010 100 10000 2.6 70 10:18 15.03.2020
1134 Clouds 23 1010 100 10000 1.5 70 09:40 15.03.2020
1135 Clouds 23 1010 100 10000 1.5 70 09:21 15.03.2020
1136 Clouds 23 1011 100 10000 1.5 80 08:42 15.03.2020
1137 Clouds 23 1011 100 10000 1.5 80 08:21 15.03.2020
1138 Clouds 23 1011 100 10000 2.6 70 07:51 15.03.2020
1139 Clouds 23 1011 100 10000 2.6 70 07:31 15.03.2020
1140 Clouds 23 1011 100 10000 1.5 70 06:52 15.03.2020
1141 Clouds 23 1011 100 10000 1.5 70 05:50 15.03.2020
1142 Clouds 24 1012 100 10000 1.5 90 05:18 15.03.2020
1143 Clouds 24 1012 100 10000 1 80 04:43 15.03.2020
1144 Clouds 24 1012 100 10000 1 80 04:24 15.03.2020
1145 Clouds 24 1011 100 10000 1.5 80 03:38 15.03.2020
1146 Clouds 24 1011 100 10000 1 60 02:37 15.03.2020
1147 Clouds 24 1011 100 10000 1.5 160 01:34 15.03.2020
1148 Rain 24 1012 100 10000 1.5 190 00:45 15.03.2020
1149 Rain 24 1012 100 10000 1.5 190 00:22 15.03.2020
1150 Rain 24 1012 100 10000 1.5 190 23:42 14.03.2020
1151 Rain 24 1013 100 10000 1 180 23:22 14.03.2020
1152 Rain 24 1012 100 10000 2.1 190 22:58 14.03.2020
1153 Rain 24 1012 100 10000 2.1 190 22:40 14.03.2020
1154 Rain 24 1012 100 10000 2.1 190 22:22 14.03.2020
1155 Rain 24 1012 100 10000 4.1 250 21:56 14.03.2020
1156 Rain 24 1012 100 10000 4.1 250 21:36 14.03.2020
1157 Rain 24 1012 100 10000 4.1 250 21:18 14.03.2020
1158 Rain 25 1012 100 4000 4.1 250 20:58 14.03.2020
1159 Rain 25 1012 100 4000 4.1 250 20:39 14.03.2020
1160 Rain 25 1012 100 4000 4.1 250 20:19 14.03.2020
1161 Rain 25 1012 94 10000 2.1 300 19:42 14.03.2020
1162 Rain 25 1012 94 10000 2.1 300 19:42 14.03.2020
1163 Rain 25 1012 94 10000 2.1 300 19:24 14.03.2020
1164 Rain 24 1013 100 8000 3.6 300 18:41 14.03.2020
1165 Rain 24 1013 100 8000 3.6 300 18:22 14.03.2020
1166 Rain 24 1013 100 8000 3.6 300 17:56 14.03.2020
1167 Rain 24 1014 100 4000 5.1 310 17:37 14.03.2020
1168 Rain 24 1013 100 8000 3.6 280 17:19 14.03.2020
1169 Rain 25 1014 100 3000 2.6 320 16:40 14.03.2020
1170 Rain 25 1014 100 3000 2.6 320 16:22 14.03.2020
1171 Rain 24 1014 100 6000 3.6 280 15:54 14.03.2020
1172 Rain 24 1014 100 4000 1.5 30 15:26 14.03.2020
1173 Rain 24 1014 94 5000 2.1 230 14:47 14.03.2020
1174 Thunderstorm 24 1014 100 3000 1.5 360 14:24 14.03.2020
1175 Thunderstorm 24 1013 100 800 3.1 10 13:58 14.03.2020
1176 Thunderstorm 25 1013 100 700 5.1 30 13:39 14.03.2020
1177 Thunderstorm 25 1013 100 700 5.1 30 13:21 14.03.2020
1178 Clouds 27 1010 94 10000 2.1 200 12:46 14.03.2020
1179 Clouds 27 1010 94 10000 2.1 200 12:27 14.03.2020
1180 Clouds 27 1010 94 10000 2.1 200 11:56 14.03.2020
1181 Clouds 26 1009 94 10000 3.1 170 11:38 14.03.2020
1182 Clouds 27 1009 88 10000 2.6 140 11:19 14.03.2020
1183 Clouds 26 1010 83 10000 1.5 50 10:42 14.03.2020
1184 Clouds 26 1010 83 10000 1.5 50 10:42 14.03.2020
1185 Clouds 26 1010 83 10000 1.5 50 10:23 14.03.2020
1186 Clouds 26 1009 88 10000 0.5 80 09:47 14.03.2020
1187 Clouds 26 1009 88 10000 0.5 80 09:24 14.03.2020
1188 Clouds 26 1009 83 10000 1.5 60 08:54 14.03.2020
1189 Clouds 26 1009 83 10000 1.5 60 08:35 14.03.2020
1190 Rain 26 1010 88 10000 1 90 07:56 14.03.2020
1191 Rain 26 1010 88 10000 1 90 07:38 14.03.2020
1192 Rain 26 1010 88 10000 1 90 07:19 14.03.2020
1193 Rain 27 1010 83 10000 1.36 77 06:40 14.03.2020
1194 Rain 27 1010 83 10000 1 70 05:43 14.03.2020
1195 Rain 27 1011 83 10000 1 80 04:42 14.03.2020
1196 Rain 28 1011 78 10000 2.1 40 03:24 14.03.2020
1197 Thunderstorm 27 1010 78 10000 2.1 60 02:23 14.03.2020
1198 Clouds 29 1007 70 10000 2.6 30 00:57 14.03.2020
1199 Clouds 29 1007 70 10000 2.6 30 23:51 13.03.2020
1200 Clouds 29 1006 70 10000 3.1 50 23:30 13.03.2020
1201 Clouds 30 1006 74 10000 4.6 20 22:52 13.03.2020
1202 Clouds 30 1006 74 10000 4.6 20 22:26 13.03.2020
1203 Clouds 31 1006 66 10000 4.6 20 21:44 13.03.2020
1204 Clouds 31 1006 66 10000 4.6 20 21:22 13.03.2020
1205 Rain 31 1007 66 10000 2.6 70 20:59 13.03.2020
1206 Rain 31 1007 66 10000 2.6 70 20:41 13.03.2020
1207 Rain 31 1007 66 10000 2.6 70 20:21 13.03.2020
1208 Rain 33 1008 63 10000 2.1 90 19:48 13.03.2020
1209 Rain 33 1008 63 10000 2.1 90 19:30 13.03.2020
1210 Clouds 33 1010 67 10000 2.1 90 18:49 13.03.2020
1211 Clouds 33 1010 67 10000 2.1 90 18:31 13.03.2020
1212 Clouds 33 1010 67 10000 2.1 90 17:57 13.03.2020
1213 Clouds 33 1011 70 10000 2.1 100 17:39 13.03.2020
1214 Clouds 33 1011 70 10000 2.1 100 17:20 13.03.2020
1215 Clouds 33 1012 66 10000 3.6 70 16:42 13.03.2020
1216 Clouds 33 1012 66 10000 3.6 70 16:24 13.03.2020
1217 Clouds 32 1012 74 10000 4.1 60 15:58 13.03.2020
1218 Clouds 32 1012 74 10000 4.1 60 15:38 13.03.2020
1219 Clouds 32 1012 74 10000 4.1 60 15:20 13.03.2020
1220 Clouds 30 1012 83 10000 3.6 80 14:41 13.03.2020
1221 Clouds 30 1012 83 10000 3.6 80 14:22 13.03.2020
1222 Clouds 29 1011 83 10000 2.6 60 13:57 13.03.2020
1223 Clouds 29 1011 83 10000 2.6 60 13:39 13.03.2020
1224 Clouds 29 1011 83 10000 2.6 60 13:19 13.03.2020
1225 Clouds 27 1010 100 10000 1.5 80 12:54 13.03.2020
1226 Clouds 27 1010 100 10000 1.5 80 12:36 13.03.2020
1227 Clouds 27 1010 100 10000 1.5 80 12:18 13.03.2020
1228 Clouds 27 1010 100 10000 1.5 130 11:42 13.03.2020
1229 Clouds 27 1010 100 10000 1.5 130 11:24 13.03.2020
1230 Clouds 27 1009 100 10000 2.1 80 10:48 13.03.2020
1231 Clouds 27 1009 100 10000 2.1 80 10:28 13.03.2020
1232 Clouds 27 1008 94 10000 2.1 90 09:59 13.03.2020
1233 Clouds 27 1008 94 10000 2.1 90 09:41 13.03.2020
1234 Clouds 27 1008 94 10000 2.1 90 09:22 13.03.2020
1235 Clouds 27 1008 88 10000 1.5 70 08:45 13.03.2020
1236 Clouds 27 1008 88 10000 1.5 70 08:23 13.03.2020
1237 Clouds 28 1009 83 10000 2.1 120 07:50 13.03.2020
1238 Clouds 28 1009 83 10000 2.1 120 07:28 13.03.2020
1239 Clouds 28 1009 83 10000 2.1 120 06:53 13.03.2020
1240 Clouds 28 1009 88 10000 1.5 90 06:32 13.03.2020
1241 Clouds 28 1009 88 10000 1.5 90 05:54 13.03.2020
1242 Clouds 28 1009 83 10000 2.1 60 05:22 13.03.2020
1243 Clouds 29 1010 83 10000 2.1 80 04:38 13.03.2020
1244 Clouds 30 1010 83 10000 2.1 80 03:42 13.03.2020
1245 Clouds 30 1008 74 10000 2.6 80 01:47 13.03.2020
1246 Clouds 30 1007 83 10000 1 80 01:19 13.03.2020
1247 Clouds 30 1007 83 10000 0.5 60 00:53 13.03.2020
1248 Clouds 30 1007 83 10000 0.5 60 00:24 13.03.2020
1249 Clouds 32 1006 70 10000 1.5 70 23:50 12.03.2020
1250 Clouds 32 1006 70 10000 1.5 70 23:27 12.03.2020
1251 Clouds 33 1006 59 10000 2.6 80 22:56 12.03.2020
1252 Clouds 33 1006 59 10000 2.6 80 22:38 12.03.2020
1253 Clouds 33 1006 59 10000 2.6 80 22:20 12.03.2020
1254 Clouds 34 1006 59 10000 3.1 80 21:43 12.03.2020
1255 Clouds 34 1006 59 10000 3.1 80 21:25 12.03.2020
1256 Clouds 32 1007 63 10000 2.1 70 20:57 12.03.2020
1257 Clouds 32 1007 63 10000 2.1 70 20:37 12.03.2020
1258 Clouds 32 1007 63 10000 2.1 70 20:37 12.03.2020
1259 Clouds 32 1007 63 10000 2.1 70 20:18 12.03.2020
1260 Rain 33 1008 63 10000 2.1 90 19:39 12.03.2020
1261 Rain 33 1008 63 10000 2.1 90 19:20 12.03.2020
1262 Clouds 34 1010 59 10000 3.6 70 18:43 12.03.2020
1263 Clouds 34 1010 59 10000 3.6 70 18:24 12.03.2020
1264 Clouds 33 1009 56 10000 2.1 350 17:57 12.03.2020
1265 Clouds 32 1010 66 10000 4.6 70 17:38 12.03.2020
1266 Clouds 32 1010 66 10000 4.6 70 17:19 12.03.2020
1267 Clouds 32 1010 66 10000 4.6 70 16:54 12.03.2020
1268 Clouds 32 1011 66 10000 3.6 70 16:36 12.03.2020
1269 Clouds 32 1011 66 10000 3.6 70 16:18 12.03.2020
1270 Clouds 31 1011 74 10000 4.1 80 15:43 12.03.2020
1271 Clouds 31 1011 74 10000 4.1 80 15:24 12.03.2020
1272 Clouds 30 1011 79 10000 2.6 80 14:39 12.03.2020
1273 Clouds 30 1011 79 10000 2.6 80 14:19 12.03.2020
1274 Clouds 29 1010 94 10000 1.5 70 13:41 12.03.2020
1275 Clouds 29 1010 94 10000 1.5 70 13:22 12.03.2020
1276 Clouds 27 1010 100 10000 1 50 12:56 12.03.2020
1277 Clouds 27 1010 100 10000 1 50 12:38 12.03.2020
1278 Clouds 27 1010 100 10000 1 50 12:19 12.03.2020
1279 Clouds 26 1010 100 10000 1 50 11:56 12.03.2020
1280 Clouds 26 1009 100 10000 1 290 11:37 12.03.2020
1281 Clouds 26 1009 100 10000 1 290 11:19 12.03.2020
1282 Clouds 26 1009 100 10000 1 290 11:19 12.03.2020
1283 Clouds 27 1010 83 10000 1 250 10:57 12.03.2020
1284 Clouds 27 1010 83 10000 1 250 10:57 12.03.2020
1285 Clouds 27 1010 83 10000 1 250 10:39 12.03.2020
1286 Clouds 27 1010 83 10000 1 250 10:21 12.03.2020
1287 Clouds 26 1009 88 10000 1.5 210 09:43 12.03.2020
1288 Clouds 26 1009 88 10000 1.5 210 09:43 12.03.2020
1289 Clouds 26 1009 88 10000 1.5 210 09:25 12.03.2020
1290 Clouds 27 1009 88 10000 1.5 70 08:41 12.03.2020
1291 Clouds 27 1009 88 10000 1.5 70 08:20 12.03.2020
1292 Clouds 27 1009 94 10000 1 90 07:53 12.03.2020
1293 Clouds 28 1010 88 10000 1.5 250 07:23 12.03.2020
1294 Clouds 28 1010 88 10000 1.5 250 06:52 12.03.2020
1295 Clouds 28 1010 88 10000 1 80 05:41 12.03.2020
1296 Rain 28 1010 88 10000 1 40 04:29 12.03.2020
1297 Rain 30 1009 79 10000 1.5 80 02:36 12.03.2020
1298 Clouds 31 1008 70 10000 2.1 80 01:30 12.03.2020
1299 Clouds 31 1007 74 10000 1 70 00:43 12.03.2020
1300 Clouds 31 1007 74 10000 1 70 00:24 12.03.2020
1301 Clouds 31 1007 70 10000 1 80 23:42 11.03.2020
1302 Clouds 31 1007 70 10000 1 80 23:23 11.03.2020
1303 Clouds 32 1006 70 10000 1.5 80 22:45 11.03.2020
1304 Clouds 32 1006 70 10000 1.5 80 22:27 11.03.2020
1305 Clouds 33 1006 62 10000 2.6 80 21:59 11.03.2020
1306 Clouds 33 1006 62 10000 2.6 80 21:41 11.03.2020
1307 Clouds 33 1006 62 10000 2.6 80 21:41 11.03.2020
1308 Clouds 33 1006 62 10000 2.6 80 21:22 11.03.2020
1309 Clouds 34 1007 59 10000 2.1 70 20:58 11.03.2020
1310 Clouds 34 1007 59 10000 2.1 70 20:39 11.03.2020
1311 Clouds 34 1007 59 10000 2.1 70 20:19 11.03.2020
1312 Clouds 33 1008 59 10000 2.6 70 19:43 11.03.2020
1313 Clouds 33 1008 59 10000 2.6 70 19:25 11.03.2020
1314 Clouds 33 1008 52 10000 1.5 270 18:58 11.03.2020
1315 Clouds 33 1010 62 10000 2.6 90 18:38 11.03.2020
1316 Clouds 33 1010 62 10000 2.6 90 18:20 11.03.2020
1317 Clouds 33 1010 62 10000 2.6 90 17:56 11.03.2020
1318 Clouds 32 1011 70 10000 3.1 80 17:37 11.03.2020
1319 Clouds 32 1011 70 10000 3.1 80 17:19 11.03.2020
1320 Clouds 31 1012 74 10000 2.6 70 16:45 11.03.2020
1321 Clouds 31 1012 74 10000 2.6 70 16:20 11.03.2020
1322 Clouds 31 1012 70 10000 3.1 50 15:44 11.03.2020
1323 Clouds 31 1012 70 10000 3.1 50 15:23 11.03.2020
1324 Clouds 29 1012 83 10000 1.5 70 14:56 11.03.2020
1325 Clouds 29 1012 83 10000 1.5 70 14:38 11.03.2020
1326 Clouds 29 1012 83 10000 1.5 70 14:19 11.03.2020
1327 Clouds 28 1012 88 10000 1 90 13:44 11.03.2020
1328 Clouds 28 1012 88 10000 1 90 13:25 11.03.2020
1329 Clouds 26 1011 100 10000 1 80 12:57 11.03.2020
1330 Clouds 26 1011 100 10000 1 80 12:39 11.03.2020
1331 Clouds 26 1011 100 10000 1 80 12:19 11.03.2020
1332 Clouds 26 1010 100 10000 1.16 126 11:41 11.03.2020
1333 Clouds 26 1010 100 10000 1.16 126 11:22 11.03.2020
1334 Clouds 26 1010 100 10000 0.5 100 10:49 11.03.2020
1335 Clouds 26 1010 100 10000 0.5 100 10:21 11.03.2020
1336 Clouds 26 1010 100 10000 6.7 160 10:00 11.03.2020
1337 Clouds 26 1010 100 10000 6.7 160 09:41 11.03.2020
1338 Clouds 26 1010 100 10000 6.7 160 09:22 11.03.2020
1339 Clouds 26 1010 100 10000 6.7 160 09:22 11.03.2020
1340 Clouds 26 1010 100 10000 1 180 08:44 11.03.2020
1341 Clouds 26 1010 100 10000 1 180 08:26 11.03.2020
1342 Clouds 27 1010 94 10000 1 190 07:48 11.03.2020
1343 Clouds 27 1010 94 10000 1 190 07:22 11.03.2020
1344 Clouds 26 1011 100 10000 1.1 129 06:53 11.03.2020
1345 Clouds 26 1011 100 10000 1.1 129 06:33 11.03.2020
1346 Clouds 26 1012 100 10000 1 70 05:33 11.03.2020
1347 Clouds 28 1012 94 10000 1.5 80 03:26 11.03.2020
1348 Clouds 28 1010 83 10000 3.6 80 01:54 11.03.2020
1349 Clouds 28 1010 83 10000 3.6 80 01:24 11.03.2020
1350 Clouds 29 1010 79 10000 2.6 70 00:40 11.03.2020
1351 Clouds 29 1010 79 10000 2.6 70 23:50 10.03.2020
1352 Clouds 30 1009 74 10000 2.1 80 23:28 10.03.2020
1353 Clouds 30 1009 74 10000 2.6 80 22:58 10.03.2020
1354 Clouds 30 1009 74 10000 2.6 80 22:37 10.03.2020
1355 Clouds 30 1009 74 10000 2.6 80 22:19 10.03.2020
1356 Clouds 32 1009 62 10000 2.6 60 21:56 10.03.2020
1357 Clouds 32 1009 62 10000 2.6 60 21:38 10.03.2020
1358 Clouds 32 1009 62 10000 2.6 60 21:19 10.03.2020
1359 Clouds 33 1010 59 10000 3.6 40 20:43 10.03.2020
1360 Clouds 33 1010 59 10000 3.6 40 20:21 10.03.2020
1361 Clouds 32 1011 70 10000 2.6 60 19:59 10.03.2020
1362 Clouds 32 1011 70 10000 2.6 60 19:41 10.03.2020
1363 Clouds 32 1011 70 10000 2.6 60 19:23 10.03.2020
1364 Clouds 31 1012 66 10000 3.1 30 18:58 10.03.2020
1365 Clouds 31 1012 66 10000 3.1 30 18:40 10.03.2020
1366 Clouds 31 1012 66 10000 3.1 30 18:21 10.03.2020
1367 Clouds 31 1012 66 10000 3.1 30 17:56 10.03.2020
1368 Clouds 31 1014 70 10000 2.6 80 17:37 10.03.2020
1369 Clouds 31 1014 70 10000 2.6 80 17:18 10.03.2020
1370 Clouds 31 1015 70 10000 2.6 60 16:38 10.03.2020
1371 Clouds 31 1015 70 10000 2.6 60 16:18 10.03.2020
1372 Rain 29 1015 74 10000 3.1 70 15:43 10.03.2020
1373 Rain 29 1015 74 10000 3.1 70 15:20 10.03.2020
1374 Rain 28 1014 78 10000 3.6 60 14:59 10.03.2020
1375 Rain 28 1014 78 10000 3.6 60 14:40 10.03.2020
1376 Rain 28 1014 78 10000 3.6 60 14:19 10.03.2020
1377 Clouds 27 1013 83 10000 2.1 80 13:44 10.03.2020
1378 Clouds 27 1013 83 10000 2.1 80 13:26 10.03.2020
1379 Clouds 26 1013 94 10000 2.1 70 12:56 10.03.2020
1380 Clouds 26 1013 94 10000 2.1 70 12:37 10.03.2020
1381 Clouds 26 1013 94 10000 2.1 70 12:18 10.03.2020
1382 Clouds 26 1012 94 10000 3.1 70 11:42 10.03.2020
1383 Clouds 26 1012 94 10000 3.1 70 11:24 10.03.2020
1384 Rain 26 1012 100 8000 2.1 90 10:58 10.03.2020
1385 Rain 26 1012 100 8000 2.1 90 10:39 10.03.2020
1386 Rain 26 1012 100 8000 2.1 90 10:19 10.03.2020
1387 Rain 26 1011 88 9000 3.1 70 09:55 10.03.2020
1388 Rain 26 1011 88 9000 3.1 70 09:36 10.03.2020
1389 Rain 26 1011 88 9000 3.1 70 09:18 10.03.2020
1390 Clouds 27 1011 83 10000 2.1 120 08:42 10.03.2020
1391 Clouds 27 1011 83 10000 2.1 120 08:24 10.03.2020
1392 Rain 27 1012 83 10000 2.1 60 07:45 10.03.2020
1393 Rain 27 1012 83 10000 2.1 60 07:27 10.03.2020
1394 Rain 27 1013 88 10000 2.6 90 06:38 10.03.2020
1395 Rain 27 1013 88 10000 2.6 90 05:55 10.03.2020
1396 Rain 28 1013 83 10000 3.6 70 05:36 10.03.2020
1397 Rain 28 1013 78 10000 2.6 80 04:33 10.03.2020
1398 Rain 28 1012 74 10000 2.1 60 03:31 10.03.2020
1399 Rain 29 1011 74 10000 2.6 70 01:43 10.03.2020
1400 Clouds 30 1010 66 10000 3.1 60 00:52 10.03.2020
1401 Clouds 30 1010 66 10000 3.1 60 00:29 10.03.2020
1402 Clouds 30 1010 66 10000 3.1 60 23:55 09.03.2020
1403 Clouds 30 1010 66 10000 3.1 30 23:36 09.03.2020
1404 Clouds 30 1009 70 10000 2.6 10 23:18 09.03.2020
1405 Clouds 31 1009 66 10000 3.1 40 22:38 09.03.2020
1406 Clouds 31 1009 66 10000 3.1 40 22:20 09.03.2020
1407 Clouds 32 1009 66 10000 3.6 50 21:45 09.03.2020
1408 Clouds 32 1009 66 10000 3.6 50 21:22 09.03.2020
1409 Clouds 32 1009 66 10000 3.6 50 21:22 09.03.2020
1410 Rain 31 1010 66 10000 4.1 40 20:59 09.03.2020
1411 Rain 31 1010 66 10000 4.1 40 20:41 09.03.2020
1412 Rain 31 1010 66 10000 4.1 40 20:22 09.03.2020
1413 Clouds 32 1011 70 10000 2.6 80 19:59 09.03.2020
1414 Clouds 32 1011 70 10000 2.6 80 19:41 09.03.2020
1415 Clouds 32 1011 70 10000 2.6 80 19:19 09.03.2020
1416 Clouds 32 1011 59 10000 2.1 350 18:56 09.03.2020
1417 Clouds 32 1011 59 10000 2.1 350 18:56 09.03.2020
1418 Clouds 32 1013 70 10000 2.6 80 18:38 09.03.2020
1419 Clouds 32 1013 70 10000 2.6 80 18:18 09.03.2020
1420 Clouds 32 1013 70 10000 2.6 80 17:55 09.03.2020
1421 Clouds 31 1014 70 10000 4.1 70 17:37 09.03.2020
1422 Clouds 31 1014 70 10000 4.1 70 17:19 09.03.2020
1423 Clouds 31 1014 74 10000 2.6 40 16:55 09.03.2020
1424 Rain 29 1013 83 0 1.38 83 16:36 09.03.2020
1425 Clouds 30 1015 79 10000 2.6 70 16:18 09.03.2020
1426 Clouds 30 1015 79 10000 2.6 70 15:55 09.03.2020
1427 Clouds 30 1015 79 10000 2.6 70 15:55 09.03.2020
1428 Clouds 30 1015 79 10000 2.6 70 15:37 09.03.2020
1429 Clouds 30 1015 79 10000 2.6 70 15:18 09.03.2020
1430 Clouds 29 1015 83 10000 2.1 90 14:39 09.03.2020
1431 Clouds 29 1015 83 10000 2.1 90 14:20 09.03.2020
1432 Clouds 28 1014 88 10000 1.5 80 13:58 09.03.2020
1433 Clouds 28 1014 88 10000 1.5 80 13:39 09.03.2020
1434 Clouds 28 1014 88 10000 1.5 80 13:20 09.03.2020
1435 Clouds 27 1014 88 10000 1.5 80 12:44 09.03.2020
1436 Clouds 26 1013 100 10000 1 70 12:24 09.03.2020
1437 Clouds 26 1013 100 10000 1 70 11:58 09.03.2020
1438 Clouds 26 1012 100 10000 1 80 11:40 09.03.2020
1439 Clouds 26 1012 100 10000 1 80 11:20 09.03.2020
1440 Clouds 26 1011 88 10000 1.5 120 10:55 09.03.2020
1441 Clouds 26 1011 88 10000 1.5 120 10:37 09.03.2020
1442 Clouds 26 1011 88 10000 1.5 120 10:18 09.03.2020
1443 Clouds 26 1011 88 10000 1 90 09:42 09.03.2020
1444 Clouds 26 1011 88 10000 1 90 09:23 09.03.2020
1445 Clouds 27 1011 88 10000 2.1 90 08:45 09.03.2020
1446 Clouds 27 1011 88 10000 2.1 90 08:27 09.03.2020
1447 Clouds 27 1011 83 10000 1 90 07:44 09.03.2020
1448 Clouds 27 1011 83 10000 1 90 07:23 09.03.2020
1449 Clouds 27 1012 83 10000 1 90 06:59 09.03.2020
1450 Clouds 27 1012 83 10000 1 90 06:39 09.03.2020
1451 Clouds 27 1012 83 10000 1 90 06:20 09.03.2020
1452 Clouds 27 1012 83 10000 2.1 50 05:41 09.03.2020
1453 Clouds 28 1012 78 10000 1.5 80 04:48 09.03.2020
1454 Clouds 28 1012 78 10000 1.5 80 04:23 09.03.2020
1455 Clouds 28 1012 78 10000 1.5 80 03:46 09.03.2020
1456 Clouds 29 1012 74 10000 2.6 70 02:37 09.03.2020
1457 Clouds 29 1010 83 10000 1 70 00:42 09.03.2020
1458 Clouds 29 1010 83 10000 1 70 00:24 09.03.2020
1459 Clouds 31 1009 74 10000 0.5 80 23:55 08.03.2020
1460 Clouds 31 1009 74 10000 0.5 80 23:28 08.03.2020
1461 Clouds 32 1009 66 10000 1.5 80 22:58 08.03.2020
1462 Clouds 32 1009 66 10000 1.5 80 22:39 08.03.2020
1463 Clouds 32 1009 66 10000 1.5 80 22:21 08.03.2020
1464 Clouds 32 1009 66 10000 1.5 80 22:21 08.03.2020
1465 Clouds 33 1009 59 10000 2.6 50 21:57 08.03.2020
1466 Clouds 33 1009 59 10000 2.6 50 21:39 08.03.2020
1467 Clouds 33 1009 59 10000 2.6 50 21:19 08.03.2020
1468 Clouds 32 1009 59 10000 2.6 50 20:56 08.03.2020
1469 Clouds 33 1009 59 10000 2.6 60 20:37 08.03.2020
1470 Clouds 33 1009 59 10000 2.6 60 20:18 08.03.2020
1471 Clouds 32 1010 66 10000 2.1 60 19:37 08.03.2020
1472 Clouds 32 1010 66 10000 2.1 60 19:19 08.03.2020
1473 Clouds 32 1012 66 10000 2.6 80 18:42 08.03.2020
1474 Clouds 32 1012 66 10000 2.6 80 18:24 08.03.2020
1475 Clouds 31 1013 66 10000 2.1 70 17:57 08.03.2020
1476 Clouds 31 1013 66 10000 2.1 70 17:38 08.03.2020
1477 Clouds 31 1013 66 10000 2.1 70 17:19 08.03.2020
1478 Clouds 31 1013 66 10000 2.1 70 16:47 08.03.2020
1479 Clouds 32 1013 62 10000 2.6 50 16:28 08.03.2020
1480 Clouds 31 1014 58 10000 2.6 30 15:58 08.03.2020
1481 Clouds 31 1014 58 10000 2.6 30 15:40 08.03.2020
1482 Clouds 31 1014 58 10000 2.6 30 15:21 08.03.2020
1483 Clouds 30 1013 58 10000 2.1 30 14:42 08.03.2020
1484 Clouds 30 1013 58 10000 2.1 30 14:22 08.03.2020
1485 Clouds 28 1012 74 10000 1.5 20 13:59 08.03.2020
1486 Clouds 28 1012 74 10000 1.5 20 13:39 08.03.2020
1487 Clouds 28 1012 74 10000 1.5 20 13:19 08.03.2020
1488 Clouds 26 1011 78 10000 1.5 350 12:43 08.03.2020
1489 Clouds 26 1011 78 10000 1.5 350 12:43 08.03.2020
1490 Clouds 26 1011 78 10000 1.5 350 12:24 08.03.2020
1491 Clouds 26 1011 78 10000 1.5 350 11:56 08.03.2020
1492 Clouds 27 1011 71 0 0.64 61 11:38 08.03.2020
1493 Clouds 25 1011 83 10000 2.6 80 11:19 08.03.2020
1494 Clouds 25 1011 83 10000 2.6 80 10:41 08.03.2020
1495 Clouds 25 1011 83 10000 2.6 80 10:23 08.03.2020
1496 Clouds 26 1011 78 10000 1.5 100 09:43 08.03.2020
1497 Clouds 26 1011 78 10000 1.5 100 09:25 08.03.2020
1498 Clouds 26 1011 78 10000 1.5 100 08:54 08.03.2020
1499 Clouds 26 1011 78 10000 1.5 100 08:54 08.03.2020
1500 Clouds 26 1011 78 10000 1 70 08:36 08.03.2020
1501 Clouds 26 1011 78 10000 1 70 08:18 08.03.2020
1502 Clouds 26 1011 74 10000 1.5 90 07:41 08.03.2020
1503 Clouds 26 1011 74 10000 1.5 90 07:22 08.03.2020
1504 Clouds 27 1012 78 10000 0.39 115 06:42 08.03.2020
1505 Clouds 27 1012 78 10000 0.39 115 06:22 08.03.2020
1506 Clouds 27 1011 74 10000 1.5 30 05:28 08.03.2020
1507 Clouds 27 1011 74 10000 1.5 30 03:51 08.03.2020
1508 Clouds 28 1010 70 10000 1 60 02:29 08.03.2020
1509 Clouds 30 1008 66 10000 2.1 70 01:23 08.03.2020
1510 Clouds 30 1008 66 10000 2.1 70 01:23 08.03.2020
1511 Clouds 30 1008 66 10000 2.1 70 01:23 08.03.2020
1512 Clouds 30 1008 66 10000 2.1 70 01:23 08.03.2020
1513 Clouds 30 1008 66 10000 2.1 70 00:44 08.03.2020
1514 Clouds 31 1008 62 10000 2.1 80 00:25 08.03.2020
1515 Clouds 31 1008 62 10000 2.1 80 23:44 07.03.2020
1516 Clouds 31 1008 62 10000 2.1 80 23:23 07.03.2020
1517 Clouds 33 1007 59 10000 2.1 80 22:41 07.03.2020
1518 Clouds 33 1007 59 10000 2.1 80 22:22 07.03.2020
1519 Clouds 33 1007 59 10000 2.6 80 21:49 07.03.2020
1520 Clouds 33 1007 59 10000 2.6 80 21:26 07.03.2020
1521 Clouds 33 1008 59 10000 2.1 90 20:42 07.03.2020
1522 Clouds 33 1008 59 10000 2.1 90 20:42 07.03.2020
1523 Clouds 33 1008 59 10000 2.1 90 20:24 07.03.2020
1524 Clouds 33 1008 59 10000 2.1 90 20:24 07.03.2020
1525 Clouds 33 1008 59 10000 2.1 90 19:59 07.03.2020
1526 Clouds 33 1009 55 10000 2.1 90 19:41 07.03.2020
1527 Clouds 33 1009 55 10000 2.1 90 19:21 07.03.2020
1528 Clouds 33 1009 49 10000 3.1 40 18:43 07.03.2020
1529 Clouds 33 1010 62 10000 1.5 80 18:25 07.03.2020
1530 Clouds 32 1010 62 10000 1.5 80 17:56 07.03.2020
1531 Clouds 32 1011 62 10000 3.1 80 17:38 07.03.2020
1532 Clouds 32 1011 62 10000 3.1 80 17:18 07.03.2020
1533 Clouds 32 1012 55 10000 3.6 20 16:43 07.03.2020
1534 Clouds 32 1012 55 10000 3.6 20 16:23 07.03.2020
1535 Clouds 30 1012 62 10000 3.6 10 15:58 07.03.2020
1536 Clouds 30 1012 66 10000 2.6 40 15:40 07.03.2020
1537 Clouds 30 1012 66 10000 2.6 40 15:40 07.03.2020
1538 Clouds 30 1012 66 10000 2.6 40 15:21 07.03.2020
1539 Clouds 30 1012 66 10000 2.6 40 15:21 07.03.2020
1540 Clouds 29 1012 74 10000 3.1 50 14:57 07.03.2020
1541 Clouds 29 1012 74 10000 3.1 50 14:38 07.03.2020
1542 Clouds 29 1012 74 10000 3.1 50 14:19 07.03.2020
1543 Clouds 27 1012 88 10000 1.5 60 13:40 07.03.2020
1544 Clouds 27 1012 88 10000 1.5 60 13:21 07.03.2020
1545 Clouds 26 1011 100 10000 1 80 12:44 07.03.2020
1546 Clouds 26 1011 100 10000 1 80 12:44 07.03.2020
1547 Clouds 26 1011 100 10000 1 80 12:22 07.03.2020
1548 Clouds 26 1011 100 10000 1 80 11:59 07.03.2020
1549 Clouds 26 1011 100 10000 1 80 11:40 07.03.2020
1550 Clouds 26 1011 100 10000 1 80 11:22 07.03.2020
1551 Clouds 25 1011 94 10000 1.5 90 10:42 07.03.2020
1552 Clouds 25 1011 94 10000 1.5 90 10:21 07.03.2020
1553 Clouds 25 1011 94 10000 2.6 90 09:58 07.03.2020
1554 Clouds 25 1011 94 10000 2.6 90 09:39 07.03.2020
1555 Clouds 25 1011 94 10000 2.6 90 09:19 07.03.2020
1556 Clouds 25 1011 100 10000 2.1 90 08:44 07.03.2020
1557 Clouds 25 1011 100 10000 2.1 90 08:21 07.03.2020
1558 Clouds 25 1011 100 10000 1 70 07:52 07.03.2020
1559 Clouds 24 1009 86 0 1.34 98 07:23 07.03.2020
1560 Clouds 24 1009 86 0 1.34 98 06:59 07.03.2020
1561 Clouds 24 1009 86 0 1.34 98 06:33 07.03.2020
1562 Clouds 24 1009 86 0 1.34 98 05:53 07.03.2020
1563 Clear 26 1012 94 10000 1 60 04:47 07.03.2020
1564 Clouds 27 1011 94 10000 2.1 80 02:57 07.03.2020
1565 Clouds 27 1011 94 10000 2.1 80 02:33 07.03.2020
1566 Clouds 27 1011 94 10000 2.1 80 01:45 07.03.2020
1567 Clouds 27 1010 100 10000 0.5 160 00:40 07.03.2020
1568 Clouds 27 1010 100 10000 0.5 160 00:21 07.03.2020
1569 Clouds 27 1010 100 10000 0.5 160 23:49 06.03.2020
1570 Clouds 27 1009 100 10000 0.76 151 23:26 06.03.2020
1571 Clouds 27 1009 100 10000 0.86 349 22:48 06.03.2020
1572 Rain 27 1009 100 10000 1 120 22:23 06.03.2020
1573 Rain 28 1009 83 8000 3.6 60 21:59 06.03.2020
1574 Rain 28 1009 83 8000 3.6 60 21:59 06.03.2020
1575 Rain 28 1009 83 8000 3.6 60 21:41 06.03.2020
1576 Rain 28 1009 83 8000 3.6 60 21:18 06.03.2020
1577 Rain 28 1010 88 10000 1.5 30 20:39 06.03.2020
1578 Rain 28 1010 88 10000 1.5 30 20:20 06.03.2020
1579 Rain 28 1010 88 10000 1.5 30 19:51 06.03.2020
1580 Rain 26 1010 88 2000 7.2 60 19:33 06.03.2020
1581 Rain 29 1010 79 10000 2.6 40 18:58 06.03.2020
1582 Rain 27 1011 88 10000 3.1 50 18:39 06.03.2020
1583 Rain 30 1012 74 4000 6.7 40 18:19 06.03.2020
1584 Clouds 31 1013 74 10000 3.1 40 17:42 06.03.2020
1585 Clouds 31 1013 74 10000 3.1 40 17:42 06.03.2020
1586 Clouds 30 1014 70 10000 4.1 40 17:23 06.03.2020
1587 Clouds 30 1014 70 10000 4.1 40 16:59 06.03.2020
1588 Clouds 30 1014 70 10000 4.1 40 16:40 06.03.2020
1589 Clouds 30 1014 70 10000 4.1 40 16:20 06.03.2020
1590 Clouds 29 1015 83 10000 3.1 60 15:45 06.03.2020
1591 Clouds 29 1015 83 10000 3.1 60 15:24 06.03.2020
1592 Clouds 28 1014 88 10000 1.5 80 14:47 06.03.2020
1593 Clouds 28 1014 88 10000 1.5 80 14:25 06.03.2020
1594 Clouds 27 1014 100 10000 1.06 58 13:59 06.03.2020
1595 Clouds 27 1014 100 10000 1.06 58 13:41 06.03.2020
1596 Clouds 27 1014 100 10000 1.13 56 13:21 06.03.2020
1597 Clouds 26 1013 100 10000 0.5 160 12:56 06.03.2020
1598 Clouds 26 1013 100 10000 0.5 160 12:37 06.03.2020
1599 Clouds 26 1013 100 10000 0.5 160 12:18 06.03.2020
1600 Clouds 25 1013 100 10000 0.5 160 11:56 06.03.2020
1601 Clouds 25 1012 100 10000 1.5 160 11:37 06.03.2020
1602 Clouds 25 1012 100 10000 1.5 160 11:19 06.03.2020
1603 Clouds 25 1012 100 10000 1 160 10:37 06.03.2020
1604 Clouds 25 1012 100 10000 1 160 10:19 06.03.2020
1605 Rain 25 1012 100 10000 1 160 09:43 06.03.2020
1606 Rain 25 1012 100 10000 1 160 09:24 06.03.2020
1607 Rain 25 1012 100 10000 1 130 08:58 06.03.2020
1608 Rain 25 1012 100 10000 1 130 08:58 06.03.2020
1609 Rain 25 1012 100 10000 1 130 08:58 06.03.2020
1610 Rain 25 1012 100 10000 1 130 08:40 06.03.2020
1611 Rain 25 1012 100 10000 1 130 08:22 06.03.2020
1612 Clouds 25 1012 94 10000 1.5 40 07:47 06.03.2020
1613 Clouds 25 1012 94 10000 1.5 40 07:26 06.03.2020
1614 Rain 25 1012 100 10000 2.6 300 06:51 06.03.2020
1615 Rain 25 1012 100 10000 2.6 300 06:33 06.03.2020
1616 Clouds 26 1013 100 10000 1 30 05:41 06.03.2020
1617 Clouds 26 1013 100 10000 1 30 05:20 06.03.2020
1618 Rain 26 1013 100 10000 1.5 70 04:44 06.03.2020
1619 Clouds 26 1012 100 10000 1.5 50 01:56 06.03.2020
1620 Clouds 26 1012 100 10000 1.5 50 01:38 06.03.2020
1621 Clouds 26 1012 100 10000 1.5 50 01:18 06.03.2020
1622 Clouds 26 1011 100 10000 0.5 150 00:31 06.03.2020
1623 Clouds 26 1011 100 10000 0.5 150 00:31 06.03.2020
1624 Clouds 26 1011 100 10000 0.5 150 23:44 05.03.2020
1625 Clouds 26 1010 94 10000 0.5 130 23:25 05.03.2020
1626 Clouds 26 1011 94 10000 1 280 22:56 05.03.2020
1627 Clouds 26 1011 94 10000 1 280 22:37 05.03.2020
1628 Clouds 26 1011 94 10000 1 280 22:18 05.03.2020
1629 Thunderstorm 25 1011 100 8000 3.1 340 21:56 05.03.2020
1630 Thunderstorm 25 1011 100 8000 3.1 340 21:56 05.03.2020
1631 Thunderstorm 25 1011 100 8000 3.1 340 21:37 05.03.2020
1632 Thunderstorm 25 1011 100 8000 3.1 340 21:19 05.03.2020
1633 Rain 28 1010 79 10000 2.6 170 20:43 05.03.2020
1634 Rain 28 1010 79 10000 2.6 170 20:21 05.03.2020
1635 Rain 28 1011 94 3000 5.1 150 19:59 05.03.2020
1636 Rain 31 1012 74 10000 2.6 160 19:40 05.03.2020
1637 Rain 31 1012 74 10000 2.6 160 19:22 05.03.2020
1638 Clouds 30 1013 79 10000 1.5 130 18:59 05.03.2020
1639 Clouds 30 1013 79 10000 1.5 130 18:38 05.03.2020
1640 Clouds 30 1013 79 10000 1.5 130 18:19 05.03.2020
1641 Clouds 30 1013 79 10000 1.5 130 17:57 05.03.2020
1642 Clouds 29 1014 83 10000 1.5 80 17:39 05.03.2020
1643 -273 0 0 0 0 0 17:21 05.03.2020
1644 Clouds 29 1015 83 10000 2.6 80 16:42 05.03.2020
1645 Clouds 29 1015 83 10000 2.6 80 16:24 05.03.2020
1646 Rain 27 1016 100 10000 0.5 130 15:59 05.03.2020
1647 Rain 27 1016 100 10000 0.5 130 15:38 05.03.2020
1648 Rain 27 1016 100 10000 0.5 130 15:20 05.03.2020
1649 Clouds 26 1015 94 10000 2.1 20 14:43 05.03.2020
1650 Clouds 26 1015 94 10000 2.1 20 14:23 05.03.2020
1651 Rain 25 1015 100 10000 2.6 30 13:59 05.03.2020
1652 Rain 25 1015 100 10000 2.6 30 13:40 05.03.2020
1653 Rain 25 1014 100 4000 4.6 40 13:21 05.03.2020
1654 Clouds 26 1013 94 10000 2.1 10 12:56 05.03.2020
1655 Clouds 26 1013 94 10000 2.1 10 12:38 05.03.2020
1656 Clouds 26 1013 94 10000 2.1 10 12:38 05.03.2020
1657 Clouds 26 1013 94 10000 2.1 10 12:18 05.03.2020
1658 Clouds 26 1012 100 10000 2.1 50 11:56 05.03.2020
1659 Clouds 26 1012 100 10000 2.1 50 11:56 05.03.2020
1660 Clouds 26 1012 100 10000 2.1 50 11:37 05.03.2020
1661 Clouds 26 1012 100 10000 2.1 50 11:18 05.03.2020
1662 Clouds 25 1012 100 10000 2.1 50 10:55 05.03.2020
1663 Clouds 26 1011 100 10000 1.5 60 10:37 05.03.2020
1664 Clouds 26 1011 100 10000 1.5 60 10:19 05.03.2020
1665 Clouds 26 1011 100 10000 2.1 60 09:41 05.03.2020
1666 Clouds 26 1011 100 10000 2.1 60 09:23 05.03.2020
1667 Clouds 25 1011 88 10000 2.1 60 08:43 05.03.2020
1668 Clouds 25 1011 88 10000 2.1 60 08:25 05.03.2020
1669 Clouds 26 1013 100 10000 1 130 07:46 05.03.2020
1670 Clouds 26 1013 100 10000 1 130 07:22 05.03.2020
1671 Clouds 26 1013 100 10000 1 120 06:46 05.03.2020
1672 Clouds 26 1013 100 10000 1 120 06:21 05.03.2020
1673 Clouds 26 1013 100 10000 1 160 05:39 05.03.2020
1674 Thunderstorm 26 1013 100 10000 1.5 160 04:33 05.03.2020
1675 Thunderstorm 26 1013 100 7000 1 100 03:59 05.03.2020
1676 Thunderstorm 26 1013 100 7000 1 100 03:19 05.03.2020
1677 Thunderstorm 29 1011 74 10000 1.5 40 01:29 05.03.2020
1678 Clouds 30 1010 70 10000 2.6 60 00:58 05.03.2020
1679 Clouds 30 1010 70 10000 2.6 60 00:23 05.03.2020
1680 Clouds 30 1010 70 10000 2.6 60 23:41 04.03.2020
1681 Rain 31 1009 79 10000 2.1 80 23:22 04.03.2020
1682 Clouds 32 1008 70 10000 2.1 80 22:57 04.03.2020
1683 Clouds 32 1008 70 10000 2.1 80 22:38 04.03.2020
1684 Clouds 32 1008 70 10000 2.1 80 22:19 04.03.2020
1685 Clouds 32 1008 70 10000 1.5 80 21:57 04.03.2020
1686 Clouds 32 1008 70 10000 1.5 80 21:38 04.03.2020
1687 Clouds 32 1008 70 10000 1.5 80 21:19 04.03.2020
1688 Rain 32 1009 70 10000 2.1 80 20:42 04.03.2020
1689 Rain 32 1009 70 10000 2.1 80 20:24 04.03.2020
1690 Rain 32 1010 70 10000 2.1 40 19:59 04.03.2020
1691 Rain 32 1010 70 10000 2.1 40 19:41 04.03.2020
1692 Rain 32 1010 70 10000 2.1 40 19:22 04.03.2020
1693 Rain 32 1012 66 10000 3.1 60 18:43 04.03.2020
1694 Rain 32 1012 66 10000 3.1 60 18:24 04.03.2020
1695 Clouds 33 1013 70 10000 4.1 60 17:59 04.03.2020
1696 Clouds 33 1013 70 10000 4.1 60 17:40 04.03.2020
1697 Clouds 33 1013 70 10000 4.1 60 17:21 04.03.2020
1698 Clouds 31 1014 74 10000 3.1 70 16:58 04.03.2020
1699 Clouds 29 1014 83 10000 3.1 70 16:38 04.03.2020
1700 Clouds 29 1014 83 10000 3.1 70 16:20 04.03.2020
1701 Clouds 29 1014 83 10000 3.1 70 15:55 04.03.2020
1702 Clouds 29 1014 83 10000 2.1 70 15:36 04.03.2020
1703 Clouds 29 1014 83 10000 2.1 70 15:18 04.03.2020
1704 Clouds 28 1014 94 10000 2.6 70 14:41 04.03.2020
1705 Clouds 28 1014 94 10000 2.6 70 14:21 04.03.2020
1706 Clouds 28 1014 94 10000 1.5 80 13:58 04.03.2020
1707 Clouds 28 1014 94 10000 1.5 80 13:58 04.03.2020
1708 Clouds 28 1014 94 10000 1.5 80 13:39 04.03.2020
1709 Clouds 28 1014 94 10000 1.5 80 13:21 04.03.2020
1710 Clouds 26 1012 100 10000 0.5 70 12:56 04.03.2020
1711 Clouds 26 1012 100 10000 0.5 70 12:38 04.03.2020
1712 Clouds 26 1012 100 10000 0.5 70 12:19 04.03.2020
1713 Clouds 26 1012 100 10000 0.5 70 11:42 04.03.2020
1714 Clouds 26 1012 100 10000 0.5 70 11:42 04.03.2020
1715 Clouds 26 1011 100 10000 0.5 90 11:24 04.03.2020
1716 Clouds 26 1011 88 10000 0.5 90 10:59 04.03.2020
1717 Clouds 26 1011 88 10000 0.5 90 10:59 04.03.2020
1718 Clouds 26 1011 88 10000 0.5 90 10:41 04.03.2020
1719 Clouds 26 1011 88 10000 0.5 90 10:22 04.03.2020
1720 Clouds 26 1012 88 10000 1 90 09:44 04.03.2020
1721 Clouds 26 1012 88 10000 1 90 09:44 04.03.2020
1722 Clouds 26 1012 88 10000 1 90 09:21 04.03.2020
1723 Rain 26 1012 88 10000 1.5 90 08:56 04.03.2020
1724 Rain 26 1012 88 10000 1.5 90 08:37 04.03.2020
1725 Clouds 26 1012 88 10000 1.5 90 08:19 04.03.2020
1726 Rain 27 1012 94 10000 2.6 90 07:39 04.03.2020
1727 Rain 27 1012 94 10000 2.6 90 07:20 04.03.2020
1728 Rain 27 1012 94 10000 1 90 06:47 04.03.2020
1729 Rain 27 1012 94 10000 1 90 06:47 04.03.2020
1730 Rain 27 1012 94 10000 1 90 06:24 04.03.2020
1731 Rain 27 1013 88 10000 1 80 05:54 04.03.2020
1732 Rain 28 1013 88 10000 1.5 80 04:40 04.03.2020
1733 Rain 28 1012 88 10000 1.5 80 03:46 04.03.2020
1734 Rain 28 1012 88 10000 1.5 80 03:27 04.03.2020
1735 Clouds 28 1011 83 10000 1.5 80 02:58 04.03.2020
1736 Clouds 28 1011 83 10000 1.5 80 02:22 04.03.2020
1737 Rain 28 1011 83 10000 2.6 70 01:56 04.03.2020
1738 Clouds 28 1009 83 10000 1 90 00:53 04.03.2020
1739 Clouds 28 1009 83 10000 1 90 00:27 04.03.2020
1740 Clouds 28 1009 83 10000 1 90 23:59 03.03.2020
1741 Clouds 29 1009 74 10000 2.1 70 23:40 03.03.2020
1742 Clouds 29 1009 74 10000 2.1 70 23:22 03.03.2020
1743 Clouds 30 1008 74 10000 2.1 60 22:41 03.03.2020
1744 Clouds 30 1008 74 10000 2.1 60 22:20 03.03.2020
1745 Rain 29 1008 70 10000 2.6 30 21:58 03.03.2020
1746 Rain 29 1008 70 10000 2.6 30 21:39 03.03.2020
1747 Rain 29 1008 70 10000 2.6 30 21:20 03.03.2020
1748 Rain 30 1009 74 10000 3.1 360 20:56 03.03.2020
1749 Rain 30 1009 74 10000 3.1 360 20:37 03.03.2020
1750 Rain 30 1009 74 10000 3.1 360 20:18 03.03.2020
1751 Rain 30 1009 74 10000 3.1 360 20:18 03.03.2020
1752 Rain 31 1010 74 10000 2.1 80 19:54 03.03.2020
1753 Rain 31 1010 74 10000 2.1 80 19:36 03.03.2020
1754 Rain 31 1010 74 10000 2.1 80 19:18 03.03.2020
1755 Clouds 32 1011 66 10000 2.6 70 18:55 03.03.2020
1756 Clouds 32 1011 66 10000 2.6 70 18:36 03.03.2020
1757 Clouds 32 1011 66 10000 2.6 70 18:18 03.03.2020
1758 Clouds 31 1012 70 10000 3.1 80 17:40 03.03.2020
1759 Clouds 31 1012 70 10000 3.1 80 17:21 03.03.2020
1760 Clouds 30 1013 74 10000 3.1 70 16:59 03.03.2020
1761 Clouds 30 1013 74 10000 3.1 70 16:38 03.03.2020
1762 Clouds 30 1013 74 10000 3.1 70 16:38 03.03.2020
1763 Clouds 30 1013 74 10000 3.1 70 16:38 03.03.2020
1764 Clouds 30 1013 74 10000 3.1 70 16:20 03.03.2020
1765 Clouds 29 1014 88 10000 2.6 70 15:57 03.03.2020
1766 Clouds 29 1014 88 10000 2.6 70 15:57 03.03.2020
1767 Clouds 29 1014 88 10000 2.6 70 15:38 03.03.2020
1768 Clouds 29 1014 88 10000 2.6 70 15:18 03.03.2020
1769 Clouds 27 1013 94 10000 1.5 70 14:41 03.03.2020
1770 Clouds 27 1013 94 10000 1.5 70 14:41 03.03.2020
1771 Clouds 27 1013 94 10000 1.5 70 14:19 03.03.2020
1772 Clouds 27 1013 94 10000 1.5 70 14:19 03.03.2020
1773 Clouds 26 1013 94 10000 2.1 70 13:57 03.03.2020
1774 Clouds 26 1013 94 10000 2.1 70 13:39 03.03.2020
1775 Clouds 26 1013 94 10000 2.1 70 13:19 03.03.2020
1776 Clouds 25 1012 100 10000 0.5 110 12:47 03.03.2020
1777 Clouds 25 1012 100 10000 0.5 110 12:25 03.03.2020
1778 Clouds 25 1011 94 10000 1.5 80 11:57 03.03.2020
1779 Clouds 24 1011 100 10000 1 106 11:37 03.03.2020
1780 Clouds 24 1011 100 10000 0.48 142 11:18 03.03.2020
1781 Clouds 25 1011 100 10000 1 70 10:55 03.03.2020
1782 Clouds 25 1011 100 10000 1 70 10:37 03.03.2020
1783 Clouds 25 1011 100 10000 1 70 10:18 03.03.2020
1784 Clouds 24 1011 100 10000 1 70 09:43 03.03.2020
1785 Clouds 24 1011 100 10000 1 70 09:22 03.03.2020
1786 Clouds 25 1011 100 10000 0.48 142 08:43 03.03.2020
1787 Clouds 25 1011 100 10000 0.48 142 08:24 03.03.2020
1788 Clouds 25 1011 100 10000 1 40 07:58 03.03.2020
1789 Clouds 25 1011 100 10000 1 40 07:39 03.03.2020
1790 Clouds 25 1011 100 10000 1 40 07:19 03.03.2020
1791 Clouds 25 1012 100 10000 0.5 300 06:40 03.03.2020
1792 Clouds 25 1012 100 10000 0.5 300 06:21 03.03.2020
1793 Clouds 25 1012 100 10000 1.17 142 05:46 03.03.2020
1794 Clouds 25 1012 100 10000 0.5 70 04:56 03.03.2020
1795 Clouds 25 1012 100 10000 1.19 169 03:26 03.03.2020
1796 Clouds 25 1010 100 10000 1 90 01:35 03.03.2020
1797 Clouds 26 1010 100 10000 2.1 70 00:46 03.03.2020
1798 Clouds 26 1010 100 10000 2.1 70 00:46 03.03.2020
1799 Clouds 26 1010 100 10000 2.1 70 00:24 03.03.2020
1800 Clouds 25 1010 100 10000 2.1 70 23:51 02.03.2020
1801 Clouds 26 1010 88 10000 2.6 70 23:23 02.03.2020
1802 Clouds 27 1010 88 10000 2.6 60 22:58 02.03.2020
1803 Clouds 27 1010 88 10000 2.6 60 22:39 02.03.2020
1804 Clouds 27 1010 88 10000 2.6 60 22:20 02.03.2020
1805 Clouds 27 1010 88 10000 2.6 70 21:56 02.03.2020
1806 Clouds 27 1010 88 10000 2.6 70 21:38 02.03.2020
1807 Clouds 27 1010 88 10000 2.6 70 21:20 02.03.2020
1808 Clouds 27 1010 78 10000 3.1 10 20:56 02.03.2020
1809 Rain 27 1011 88 10000 2.6 50 20:38 02.03.2020
1810 Rain 27 1011 88 10000 2.6 50 20:19 02.03.2020
1811 Clouds 27 1011 83 10000 3.1 20 19:54 02.03.2020
1812 Clouds 27 1011 83 10000 3.1 20 19:54 02.03.2020
1813 Clouds 27 1011 83 10000 3.1 20 19:36 02.03.2020
1814 Clouds 27 1011 83 10000 3.1 20 19:18 02.03.2020
1815 Clouds 26 1012 88 10000 3.1 20 18:43 02.03.2020
1816 Clouds 27 1012 94 10000 2.6 70 18:19 02.03.2020
1817 Clouds 26 1012 94 10000 2.6 70 17:57 02.03.2020
1818 Clouds 27 1013 94 10000 1 80 17:39 02.03.2020
1819 Clouds 27 1013 94 10000 1 80 17:20 02.03.2020
1820 Clouds 26 1014 94 10000 2.6 60 16:45 02.03.2020
1821 Clouds 26 1014 94 10000 2.6 60 16:27 02.03.2020
1822 Clouds 25 1015 100 10000 2.1 80 15:59 02.03.2020
1823 Clouds 25 1015 100 10000 2.1 80 15:41 02.03.2020
1824 Clouds 25 1015 100 10000 2.1 80 15:19 02.03.2020
1825 Clouds 25 1015 100 10000 2.1 80 14:40 02.03.2020
1826 Clouds 25 1015 100 10000 2.1 80 14:20 02.03.2020
1827 Rain 24 1014 100 8000 1 70 13:57 02.03.2020
1828 Rain 24 1014 100 8000 1 70 13:38 02.03.2020
1829 Rain 24 1014 100 8000 1 70 13:18 02.03.2020
1830 Rain 24 1013 100 10000 1.5 50 12:43 02.03.2020
1831 Rain 24 1013 100 10000 1.5 50 12:19 02.03.2020
1832 Rain 24 1013 100 10000 1.5 50 12:19 02.03.2020
1833 Thunderstorm 24 1012 100 8000 2.6 20 11:40 02.03.2020
1834 Thunderstorm 24 1012 100 8000 2.6 20 11:22 02.03.2020
1835 Thunderstorm 24 1012 100 5000 2.6 180 10:59 02.03.2020
1836 Thunderstorm 24 1012 100 5000 2.6 180 10:41 02.03.2020
1837 Thunderstorm 24 1012 100 5000 2.6 180 10:20 02.03.2020
1838 Thunderstorm 24 1012 100 5000 2.6 310 09:55 02.03.2020
1839 Thunderstorm 25 1012 94 700 3.6 350 09:37 02.03.2020
1840 Thunderstorm 25 1012 94 700 3.6 350 09:18 02.03.2020
1841 Clouds 26 1012 94 8000 1.5 190 08:40 02.03.2020
1842 Clouds 26 1012 94 8000 1.5 190 08:19 02.03.2020
1843 Rain 26 1012 94 7000 2.6 180 07:40 02.03.2020
1844 Rain 27 1012 94 7000 2.1 220 06:57 02.03.2020
1845 Rain 27 1012 94 7000 2.1 220 06:35 02.03.2020
1846 Clouds 27 1013 94 10000 2.6 220 05:29 02.03.2020
1847 Clouds 27 1013 94 10000 1.5 210 04:19 02.03.2020
1848 Clouds 27 1013 94 10000 1 90 03:19 02.03.2020
1849 Clouds 27 1012 94 10000 1 140 02:36 02.03.2020
1850 Clouds 27 1012 94 10000 1 140 01:41 02.03.2020
1851 Clouds 28 1012 94 10000 1 180 01:22 02.03.2020
1852 Clouds 28 1010 88 10000 2.6 230 00:23 02.03.2020
1853 Clouds 28 1010 88 10000 2.6 230 23:56 01.03.2020
1854 Clouds 28 1010 88 10000 2.6 230 23:56 01.03.2020
1855 Clouds 29 1008 83 10000 1 180 23:37 01.03.2020
1856 Clouds 29 1008 83 10000 1 180 23:18 01.03.2020
1857 Clouds 30 1008 74 10000 1.5 190 22:38 01.03.2020
1858 Clouds 30 1008 74 10000 1.5 190 22:19 01.03.2020
1859 Clouds 30 1009 79 10000 2.6 160 21:44 01.03.2020
1860 Clouds 30 1009 79 10000 2.6 160 21:25 01.03.2020
1861 Clouds 29 1009 83 10000 1.5 70 20:59 01.03.2020
1862 Clouds 29 1009 83 10000 1.5 70 20:41 01.03.2020
1863 Clouds 29 1009 83 10000 1.5 70 20:22 01.03.2020
1864 Clouds 32 1010 70 10000 3.1 30 19:43 01.03.2020
1865 Clouds 32 1010 70 10000 3.1 30 19:23 01.03.2020
1866 Clouds 30 1012 89 10000 1.5 40 18:58 01.03.2020
1867 Clouds 30 1012 89 10000 1.5 40 18:39 01.03.2020
1868 Clouds 30 1012 89 10000 1.5 40 18:19 01.03.2020
1869 Rain 29 1013 94 10000 4.1 280 17:57 01.03.2020
1870 Rain 29 1013 94 10000 4.1 280 17:38 01.03.2020
1871 Rain 29 1013 94 10000 4.1 280 17:20 01.03.2020
1872 Rain 28 1014 94 4000 2.6 60 16:55 01.03.2020
1873 Clouds 30 1014 79 10000 1.5 80 16:37 01.03.2020
1874 Clouds 30 1014 79 10000 1.5 80 16:18 01.03.2020
1875 Clouds 29 1014 89 10000 1 100 15:56 01.03.2020
1876 Clouds 29 1014 89 10000 1 100 15:37 01.03.2020
1877 Clouds 29 1014 89 10000 1 100 15:37 01.03.2020
1878 Clouds 29 1014 89 10000 1 100 15:18 01.03.2020
1879 Clouds 28 1014 94 10000 0.5 90 14:55 01.03.2020
1880 Clouds 28 1014 94 10000 0.5 90 14:37 01.03.2020
1881 Clouds 28 1014 94 10000 0.5 90 14:18 01.03.2020
1882 Clouds 27 1013 100 10000 1.5 80 13:44 01.03.2020
1883 Clouds 27 1013 100 10000 1.5 80 13:21 01.03.2020
1884 Clouds 27 1013 100 10000 1.17 86 12:59 01.03.2020
1885 Clouds 27 1013 100 10000 1.19 138 12:40 01.03.2020
1886 Clouds 27 1013 100 10000 1.17 86 12:20 01.03.2020
1887 Clouds 27 1013 100 10000 1.19 138 12:20 01.03.2020
1888 Clouds 26 1013 100 10000 1.17 86 11:41 01.03.2020
1889 Clouds 26 1013 94 10000 1.5 70 11:22 01.03.2020
1890 Clouds 25 1011 100 10000 0.57 67 10:57 01.03.2020
1891 Clouds 25 1011 100 10000 0.65 176 10:38 01.03.2020
1892 Clouds 25 1011 100 10000 0.57 67 10:19 01.03.2020
1893 Clouds 25 1011 100 10000 1 120 09:46 01.03.2020
1894 Clouds 25 1011 100 10000 1 120 09:27 01.03.2020
1895 Clouds 25 1011 100 10000 1.5 100 08:57 01.03.2020
1896 Clouds 25 1011 100 10000 1.5 100 08:38 01.03.2020
1897 Clouds 25 1011 100 10000 1.5 100 08:18 01.03.2020
1898 Clouds 25 1012 100 10000 0.61 169 07:41 01.03.2020
1899 Clouds 25 1012 100 10000 0.61 169 07:23 01.03.2020
1900 Clouds 26 1013 100 10000 1 150 06:47 01.03.2020
1901 Clouds 26 1013 100 10000 1 150 06:28 01.03.2020
1902 Clouds 26 1014 100 10000 0.5 10 03:54 01.03.2020
1903 Clouds 26 1013 100 10000 1 150 02:23 01.03.2020
1904 Thunderstorm 25 1012 100 10000 1 110 01:52 01.03.2020
1905 Thunderstorm 25 1012 100 10000 1 110 01:21 01.03.2020
1906 Rain 27 1011 100 10000 3.1 270 00:42 01.03.2020
1907 Rain 27 1011 100 10000 3.1 270 00:21 01.03.2020
1908 Rain 27 1011 100 10000 3.1 270 23:45 29.02.2020
1909 Rain 27 1011 88 10000 4.1 270 23:26 29.02.2020
1910 Rain 27 1010 79 10000 1.5 280 22:42 29.02.2020
1911 Rain 27 1010 79 10000 1.5 280 22:22 29.02.2020
1912 Thunderstorm 27 1010 74 10000 2.1 80 21:42 29.02.2020
1913 Thunderstorm 27 1010 74 10000 2.1 80 21:22 29.02.2020
1914 Thunderstorm 29 1010 74 10000 2.1 80 20:43 29.02.2020
1915 Clouds 31 1011 70 10000 1.5 90 20:21 29.02.2020
1916 Clouds 31 1012 70 10000 1.5 100 19:56 29.02.2020
1917 Clouds 31 1012 70 10000 1.5 100 19:37 29.02.2020
1918 Clouds 31 1012 70 10000 1.5 100 19:19 29.02.2020
1919 Clouds 31 1013 70 10000 1.5 80 18:42 29.02.2020
1920 Clouds 31 1013 70 10000 1.5 80 18:23 29.02.2020
1921 Clouds 31 1013 70 10000 1.5 80 17:57 29.02.2020
1922 Clouds 30 1015 83 10000 2.1 80 17:39 29.02.2020
1923 Clouds 30 1015 83 10000 2.1 80 17:20 29.02.2020
1924 Clouds 29 1016 79 10000 2.1 70 16:45 29.02.2020
1925 Clouds 29 1016 79 10000 2.1 70 16:21 29.02.2020
1926 Clouds 29 1016 79 10000 1.5 90 15:58 29.02.2020
1927 Clouds 29 1016 79 10000 1.5 90 15:39 29.02.2020
1928 Clouds 29 1016 79 10000 1.5 90 15:21 29.02.2020
1929 Clouds 28 1015 83 10000 1.5 70 14:41 29.02.2020
1930 Clouds 28 1015 83 10000 1.5 70 14:22 29.02.2020
1931 Clouds 27 1015 94 10000 1 70 13:46 29.02.2020
1932 Clouds 27 1015 94 10000 1 70 13:28 29.02.2020
1933 Clouds 26 1015 94 10000 1 70 12:58 29.02.2020
1934 Clouds 26 1014 94 10000 0.5 100 12:39 29.02.2020
1935 Clouds 26 1014 94 10000 0.5 100 12:21 29.02.2020
1936 Clouds 25 1014 100 10000 0.5 10 11:46 29.02.2020
1937 Clouds 25 1013 100 10000 1 160 11:27 29.02.2020
1938 Clouds 25 1013 100 10000 1 160 10:55 29.02.2020
1939 Clouds 25 1012 94 10000 1 180 10:37 29.02.2020
1940 Clouds 25 1012 94 10000 1 180 10:19 29.02.2020
1941 Clouds 25 1012 94 10000 1 150 09:47 29.02.2020
1942 Clouds 25 1012 94 10000 1 150 09:23 29.02.2020
1943 Clouds 26 1013 94 10000 1.5 120 08:41 29.02.2020
1944 Clouds 26 1013 94 10000 1.5 120 08:21 29.02.2020
1945 Clouds 26 1013 94 10000 1.5 160 07:53 29.02.2020
1946 Clouds 26 1013 94 10000 1.5 160 07:33 29.02.2020
1947 Clouds 26 1014 94 10000 1.5 150 06:57 29.02.2020
1948 Clouds 26 1014 94 10000 1.5 150 06:30 29.02.2020
1949 Clouds 26 1014 100 10000 1.5 170 05:54 29.02.2020
1950 Clouds 26 1014 100 10000 1.5 170 05:33 29.02.2020
1951 Clouds 26 1014 100 10000 1.5 180 04:25 29.02.2020
1952 Clouds 26 1014 100 10000 1 170 03:37 29.02.2020
1953 Clouds 26 1014 100 10000 1 170 03:18 29.02.2020
1954 Clouds 26 1013 100 10000 1.5 200 02:26 29.02.2020
1955 Clouds 27 1012 94 10000 3.6 250 00:52 29.02.2020
1956 Clouds 27 1012 94 10000 3.6 250 00:28 29.02.2020
1957 Clouds 27 1011 94 10000 2.6 250 23:42 28.02.2020
1958 Clouds 27 1011 94 10000 2.6 250 23:24 28.02.2020
1959 Rain 27 1011 94 10000 3.6 250 22:43 28.02.2020
1960 Rain 27 1011 94 10000 3.6 250 22:23 28.02.2020
1961 Rain 27 1011 83 10000 4.6 250 21:56 28.02.2020
1962 Rain 27 1011 83 10000 4.6 250 21:38 28.02.2020
1963 Rain 27 1011 83 10000 4.6 250 21:19 28.02.2020
1964 Rain 28 1011 88 10000 3.6 230 20:39 28.02.2020
1965 Rain 28 1011 88 10000 3.6 230 20:21 28.02.2020
1966 Rain 28 1012 74 10000 4.1 270 19:57 28.02.2020
1967 Rain 28 1012 74 10000 4.1 270 19:39 28.02.2020
1968 Rain 28 1012 74 10000 4.1 270 19:39 28.02.2020
1969 Rain 28 1012 74 10000 4.1 270 19:39 28.02.2020
1970 Rain 28 1012 74 10000 4.1 270 19:20 28.02.2020
1971 Rain 29 1012 74 10000 4.1 270 18:47 28.02.2020
1972 Rain 29 1012 74 10000 4.1 270 18:47 28.02.2020
1973 Rain 29 1012 74 10000 4.1 270 18:47 28.02.2020
1974 Rain 29 1012 74 10000 4.1 270 18:47 28.02.2020
1975 Thunderstorm 27 1013 88 10000 4.1 180 18:28 28.02.2020
1976 Rain 29 1014 88 3000 1 100 17:58 28.02.2020
1977 Rain 29 1014 88 3000 1 100 17:39 28.02.2020
1978 Rain 29 1014 88 3000 1 100 17:39 28.02.2020
1979 Rain 29 1014 88 3000 1 100 17:39 28.02.2020
1980 Rain 29 1014 88 3000 1 100 17:20 28.02.2020
1981 Clouds 29 1014 88 10000 3.6 220 16:43 28.02.2020
1982 Clouds 29 1014 88 10000 3.6 220 16:20 28.02.2020
1983 Clouds 30 1015 83 10000 1 170 15:57 28.02.2020
1984 Clouds 30 1015 83 10000 1 170 15:39 28.02.2020
1985 Clouds 30 1015 83 10000 1 170 15:19 28.02.2020
1986 Clouds 28 1014 88 10000 1 170 14:55 28.02.2020
1987 Clouds 28 1014 88 10000 1 170 14:37 28.02.2020
1988 Clouds 28 1014 88 10000 1 170 14:18 28.02.2020
1989 Clouds 27 1014 94 10000 1.5 170 13:41 28.02.2020
1990 Clouds 27 1014 94 10000 1.5 170 13:20 28.02.2020
1991 Clouds 27 1014 94 10000 1.5 170 13:20 28.02.2020
1992 Clouds 27 1012 100 10000 0.69 53 12:47 28.02.2020
1993 Clouds 27 1012 100 10000 0.69 53 12:28 28.02.2020
1994 Clouds 27 1012 100 10000 0.69 53 11:59 28.02.2020
1995 Clouds 26 1012 100 10000 1 180 11:40 28.02.2020
1996 Clouds 26 1012 100 10000 1 180 11:21 28.02.2020
1997 Clouds 26 1012 100 10000 1 180 10:43 28.02.2020
1998 Clouds 26 1011 100 10000 0.51 7 10:24 28.02.2020
1999 Clouds 26 1011 100 10000 0.51 7 09:59 28.02.2020
2000 Clouds 26 1011 100 10000 0.5 70 09:40 28.02.2020
2001 Clouds 26 1011 100 10000 0.5 70 09:18 28.02.2020
2002 Clouds 26 1011 100 10000 1 70 08:42 28.02.2020
2003 Clouds 26 1011 100 10000 1 70 08:42 28.02.2020
2004 Clouds 26 1011 100 10000 1 70 08:20 28.02.2020
2005 Clouds 27 1012 100 10000 1.5 80 07:45 28.02.2020
2006 Clouds 27 1012 100 10000 1.5 80 07:25 28.02.2020
2007 Clouds 27 1012 100 10000 1.5 80 06:51 28.02.2020
2008 Clouds 27 1012 100 10000 0.5 60 06:30 28.02.2020
2009 Clouds 28 1012 74 10000 1 20 05:29 28.02.2020
2010 Clouds 27 1013 78 10000 2.6 30 04:31 28.02.2020
2011 Clouds 27 1011 83 10000 2.1 30 02:55 28.02.2020
2012 Clouds 27 1011 83 10000 2.1 30 02:28 28.02.2020
2013 Clouds 27 1011 88 10000 3.1 40 01:46 28.02.2020
2014 Rain 28 1009 79 10000 1.5 30 00:31 28.02.2020
2015 Rain 29 1009 79 10000 1.5 30 23:45 27.02.2020
2016 Rain 29 1009 74 10000 1.5 340 23:22 27.02.2020
2017 Rain 29 1009 70 10000 4.1 350 22:56 27.02.2020
2018 Rain 29 1009 70 10000 4.1 350 22:38 27.02.2020
2019 Rain 29 1009 70 10000 4.1 350 22:20 27.02.2020
2020 Clouds 31 1008 70 10000 1 70 21:41 27.02.2020
2021 Clouds 31 1008 70 10000 1 70 21:23 27.02.2020
2022 Clouds 32 1009 70 10000 2.1 70 20:59 27.02.2020
2023 Clouds 32 1009 70 10000 2.1 70 20:41 27.02.2020
2024 Clouds 32 1009 70 10000 2.1 70 20:21 27.02.2020
2025 Clouds 32 1009 70 10000 2.1 70 20:21 27.02.2020
2026 Clouds 32 1010 70 10000 2.6 70 19:56 27.02.2020
2027 Clouds 32 1010 70 10000 2.6 70 19:38 27.02.2020
2028 Clouds 32 1010 70 10000 2.6 70 19:19 27.02.2020
2029 Clouds 32 1010 70 10000 2.6 70 19:19 27.02.2020
2030 Clouds 30 1012 83 10000 1 110 18:43 27.02.2020
2031 Clouds 30 1012 83 10000 1 110 18:24 27.02.2020
2032 Clouds 29 1012 83 10000 1 110 17:59 27.02.2020
2033 Clouds 29 1013 83 10000 1.5 50 17:40 27.02.2020
2034 Clouds 29 1013 83 10000 1.5 50 17:20 27.02.2020
2035 Clouds 28 1013 88 10000 1 50 16:58 27.02.2020
2036 Clouds 28 1013 88 10000 1 50 16:39 27.02.2020
2037 Clouds 28 1013 88 10000 1 50 16:19 27.02.2020
2038 Rain 27 1013 100 10000 1 80 15:57 27.02.2020
2039 Rain 27 1013 100 10000 1 80 15:37 27.02.2020
2040 Rain 27 1013 100 10000 1 80 15:18 27.02.2020
2041 Clouds 27 1013 94 10000 1 110 14:55 27.02.2020
2042 Clouds 27 1013 94 10000 1 110 14:36 27.02.2020
2043 Clouds 27 1013 94 10000 1 110 14:18 27.02.2020
2044 Clouds 26 1013 100 10000 1 30 13:41 27.02.2020
2045 Clouds 26 1013 100 10000 1 30 13:21 27.02.2020
2046 Clouds 25 1011 100 10000 1.5 20 12:47 27.02.2020
2047 Clouds 25 1011 100 10000 1.5 20 12:25 27.02.2020
2048 Clouds 25 1011 100 10000 1.5 20 11:59 27.02.2020
2049 Clouds 24 1011 100 10000 1 130 11:39 27.02.2020
2050 Clouds 24 1011 100 10000 1 130 11:21 27.02.2020
2051 Clouds 24 1011 100 10000 1 130 11:21 27.02.2020
2052 Clouds 25 1011 94 10000 1.5 70 10:43 27.02.2020
2053 Clouds 25 1011 94 10000 1.5 70 10:22 27.02.2020
2054 Clouds 25 1011 94 10000 1 70 09:48 27.02.2020
2055 Clouds 25 1011 94 10000 1 70 09:29 27.02.2020
2056 Rain 24 1011 94 5000 2.6 310 08:57 27.02.2020
2057 Clouds 25 1011 100 10000 0.5 90 08:39 27.02.2020
2058 Clouds 25 1011 100 10000 0.5 90 08:19 27.02.2020
2059 Clouds 26 1011 94 10000 1 90 07:43 27.02.2020
2060 Clouds 26 1011 94 10000 1 90 07:25 27.02.2020
2061 Clouds 26 1011 94 10000 1.5 90 06:42 27.02.2020
2062 Clouds 26 1012 100 10000 1.5 80 05:27 27.02.2020
2063 Clouds 26 1012 100 10000 0.5 80 03:33 27.02.2020
2064 Clouds 26 1011 100 10000 1.5 90 02:19 27.02.2020
2065 Clouds 26 1009 100 10000 1 80 00:44 27.02.2020
2066 Clouds 26 1009 100 10000 1 80 00:22 27.02.2020
2067 Thunderstorm 27 1008 100 10000 1.5 70 23:38 26.02.2020
2068 Thunderstorm 27 1008 100 10000 1.5 70 23:18 26.02.2020
2069 Thunderstorm 27 1009 100 9000 1 80 22:56 26.02.2020
2070 Thunderstorm 27 1009 100 9000 1 80 22:38 26.02.2020
2071 Thunderstorm 27 1009 100 9000 1 80 22:19 26.02.2020
2072 Thunderstorm 27 1009 83 10000 1 70 21:40 26.02.2020
2073 Thunderstorm 27 1009 83 10000 1 70 21:20 26.02.2020
2074 Thunderstorm 28 1009 83 10000 5.7 90 20:57 26.02.2020
2075 Rain 28 1010 83 10000 3.1 80 20:38 26.02.2020
2076 Rain 28 1010 83 10000 3.1 80 20:19 26.02.2020
2077 Rain 31 1010 70 10000 4.6 60 19:56 26.02.2020
2078 Rain 31 1010 70 10000 4.6 60 19:37 26.02.2020
2079 Rain 31 1010 70 10000 4.6 60 19:19 26.02.2020
2080 Clouds 31 1011 74 10000 4.1 40 18:57 26.02.2020
2081 Clouds 31 1011 74 10000 4.1 40 18:37 26.02.2020
2082 Clouds 31 1011 74 10000 4.1 40 18:19 26.02.2020
2083 Clouds 31 1012 74 10000 2.6 80 17:41 26.02.2020
2084 Clouds 31 1012 74 10000 2.6 80 17:19 26.02.2020
2085 Clouds 31 1012 74 10000 2.6 80 17:19 26.02.2020
2086 Clouds 31 1013 79 10000 2.1 70 16:56 26.02.2020
2087 Clouds 31 1013 79 10000 2.1 70 16:38 26.02.2020
2088 Clouds 31 1013 79 10000 2.1 70 16:20 26.02.2020
2089 Clouds 31 1014 79 10000 1 90 15:45 26.02.2020
2090 Clouds 31 1014 79 10000 1 90 15:45 26.02.2020
2091 Clouds 31 1014 79 10000 1 90 15:27 26.02.2020
2092 Clouds 29 1013 83 10000 0.5 130 14:43 26.02.2020
2093 Clouds 29 1013 83 10000 0.5 130 14:24 26.02.2020
2094 Clouds 28 1012 88 10000 1 20 13:57 26.02.2020
2095 Clouds 28 1012 88 10000 1 20 13:57 26.02.2020
2096 Clouds 28 1012 88 10000 1 20 13:39 26.02.2020
2097 Clouds 28 1012 88 10000 1 20 13:18 26.02.2020
2098 Clouds 25 1011 94 10000 1 20 12:38 26.02.2020
2099 Clouds 25 1011 94 10000 1 20 12:19 26.02.2020
2100 Clouds 25 1011 94 10000 1 20 11:55 26.02.2020
2101 Clouds 25 1010 88 10000 2.1 70 11:37 26.02.2020
2102 Clouds 25 1010 88 10000 2.1 70 11:18 26.02.2020
2103 Clouds 25 1010 100 10000 0.93 15 10:41 26.02.2020
2104 Clouds 25 1010 100 10000 0.93 15 10:22 26.02.2020
2105 Clouds 25 1010 94 10000 1 40 09:46 26.02.2020
2106 Clouds 25 1010 94 10000 1 40 09:25 26.02.2020
2107 Clouds 26 1010 100 10000 1.5 20 08:59 26.02.2020
2108 Clouds 26 1010 100 10000 1.5 20 08:38 26.02.2020
2109 Clouds 26 1010 100 10000 1.5 20 08:19 26.02.2020
2110 Clouds 26 1011 100 10000 1 40 07:45 26.02.2020
2111 Clouds 26 1011 100 10000 1 40 07:26 26.02.2020
2112 Thunderstorm 26 1011 100 10000 1.5 70 06:53 26.02.2020
2113 Thunderstorm 26 1011 100 10000 1.5 70 06:34 26.02.2020
2114 Clouds 26 1012 100 10000 0.98 84 05:53 26.02.2020
2115 Clouds 26 1012 100 10000 0.98 84 05:25 26.02.2020
2116 Clouds 27 1012 83 10000 2.1 80 04:34 26.02.2020
2117 Clouds 27 1010 78 10000 1.5 40 02:28 26.02.2020
2118 Clouds 27 1009 78 10000 1.5 20 01:45 26.02.2020
2119 Clouds 28 1008 78 10000 2.1 30 00:48 26.02.2020
2120 Clouds 28 1008 78 10000 2.1 30 00:24 26.02.2020
2121 Clouds 28 1008 78 10000 2.1 30 00:24 26.02.2020
2122 Clouds 28 1008 78 10000 2.1 30 23:45 25.02.2020
2123 Clouds 29 1008 74 10000 2.6 70 23:27 25.02.2020
2124 Clouds 29 1007 79 10000 1.5 90 22:59 25.02.2020
2125 Clouds 29 1007 79 10000 1.5 90 22:41 25.02.2020
2126 Clouds 29 1007 79 10000 1.5 90 22:19 25.02.2020
2127 Clouds 30 1008 79 10000 1.5 110 21:40 25.02.2020
2128 Clouds 30 1008 79 10000 1.5 110 21:21 25.02.2020
2129 Clouds 30 1009 79 10000 2.1 110 20:59 25.02.2020
2130 Clouds 30 1009 79 10000 2.1 110 20:40 25.02.2020
2131 Clouds 30 1009 79 10000 2.1 110 20:21 25.02.2020
2132 Clouds 31 1011 74 10000 1.5 80 19:59 25.02.2020
2133 Clouds 31 1011 74 10000 1.5 80 19:40 25.02.2020
2134 Clouds 31 1011 74 10000 1.5 80 19:19 25.02.2020
2135 Clouds 29 1012 83 10000 3.6 80 18:42 25.02.2020
2136 Clouds 29 1012 83 10000 3.6 80 18:21 25.02.2020
2137 Clouds 29 1013 79 10000 4.1 60 17:59 25.02.2020
2138 Clouds 29 1013 79 10000 4.1 60 17:38 25.02.2020
2139 Clouds 29 1013 79 10000 4.1 60 17:19 25.02.2020
2140 Clouds 28 1013 83 10000 3.6 60 16:58 25.02.2020
2141 Clouds 28 1013 83 10000 3.6 60 16:58 25.02.2020
2142 Clouds 28 1013 83 10000 3.6 60 16:40 25.02.2020
2143 Clouds 28 1013 83 10000 3.6 60 16:22 25.02.2020
2144 Clouds 27 1013 88 10000 2.1 80 15:56 25.02.2020
2145 Clouds 27 1013 88 10000 2.1 80 15:38 25.02.2020
2146 Clouds 27 1013 88 10000 2.1 80 15:18 25.02.2020
2147 Clouds 26 1013 94 10000 1 90 14:56 25.02.2020
2148 Clouds 26 1013 94 10000 1 90 14:37 25.02.2020
2149 Clouds 26 1013 94 10000 1 90 14:18 25.02.2020
2150 Clouds 25 1013 100 10000 1.5 80 13:54 25.02.2020
2151 Clouds 25 1013 100 10000 1.5 80 13:54 25.02.2020
2152 Clouds 25 1013 100 10000 1.5 80 13:36 25.02.2020
2153 Clouds 25 1013 100 10000 1.5 80 13:18 25.02.2020
2154 Clouds 24 1012 100 10000 2.1 60 12:40 25.02.2020
2155 Clouds 24 1012 100 10000 2.1 60 12:20 25.02.2020
2156 Clouds 24 1012 100 10000 2.1 60 11:56 25.02.2020
2157 Rain 24 1011 100 10000 1.5 80 11:38 25.02.2020
2158 Rain 24 1011 100 10000 1.5 80 11:19 25.02.2020
2159 Rain 24 1011 100 10000 1.5 80 11:19 25.02.2020
2160 Rain 24 1011 100 10000 1.5 80 11:19 25.02.2020
2161 Rain 24 1011 100 10000 2.6 30 10:56 25.02.2020
2162 Rain 24 1011 100 10000 2.6 30 10:38 25.02.2020
2163 Rain 24 1011 100 10000 2.6 30 10:19 25.02.2020
2164 Rain 24 1011 100 10000 2.6 30 09:40 25.02.2020
2165 Rain 24 1011 100 10000 2.6 30 09:19 25.02.2020
2166 Clouds 25 1011 100 10000 4.1 200 08:44 25.02.2020
2167 Clouds 25 1011 100 10000 4.1 200 08:25 25.02.2020
2168 Rain 25 1011 100 10000 4.1 20 07:51 25.02.2020
2169 Rain 25 1011 100 10000 4.1 20 07:25 25.02.2020
2170 Rain 25 1011 100 10000 4.1 20 06:59 25.02.2020
2171 Rain 24 1012 100 10000 1 50 06:26 25.02.2020
2172 Thunderstorm 25 1013 100 10000 2.1 80 05:23 25.02.2020
2173 Clouds 28 1011 79 10000 3.1 340 02:44 25.02.2020
2174 Thunderstorm 28 1010 79 10000 1 50 01:19 25.02.2020
2175 Thunderstorm 28 1009 88 10000 1 80 00:34 25.02.2020
2176 Thunderstorm 28 1009 88 10000 1 80 23:57 24.02.2020
2177 Clouds 29 1008 83 10000 0.5 90 23:38 24.02.2020
2178 Clouds 29 1008 83 10000 0.5 90 23:18 24.02.2020
2179 Rain 30 1007 70 10000 1 100 22:37 24.02.2020
2180 Rain 30 1007 70 10000 1 100 22:19 24.02.2020
2181 Clouds 29 1007 79 10000 1 90 21:55 24.02.2020
2182 Clouds 29 1007 79 10000 1 90 21:37 24.02.2020
2183 Clouds 29 1007 79 10000 1 90 21:18 24.02.2020
2184 Rain 32 1008 70 10000 1.5 80 20:55 24.02.2020
2185 Rain 32 1008 70 10000 1.5 80 20:37 24.02.2020
2186 Rain 32 1008 70 10000 1.5 80 20:18 24.02.2020
2187 Rain 32 1009 70 10000 1.5 160 19:55 24.02.2020
2188 Rain 32 1009 70 10000 1.5 160 19:37 24.02.2020
2189 Rain 32 1009 70 10000 1.5 160 19:19 24.02.2020
2190 Clouds 32 1011 70 10000 1 180 18:41 24.02.2020
2191 Clouds 32 1011 70 10000 1 180 18:23 24.02.2020
2192 Clouds 32 1011 70 10000 1 180 17:55 24.02.2020
2193 Clouds 32 1012 70 10000 2.1 70 17:37 24.02.2020
2194 Clouds 32 1012 70 10000 2.1 70 17:18 24.02.2020
2195 Clouds 31 1013 74 10000 2.1 80 16:55 24.02.2020
2196 Clouds 31 1013 74 10000 2.1 80 16:36 24.02.2020
2197 Clouds 31 1013 74 10000 2.1 80 16:18 24.02.2020
2198 Clouds 31 1013 74 10000 2.1 80 16:18 24.02.2020
2199 Clouds 30 1013 74 10000 2.6 70 15:55 24.02.2020
2200 Clouds 30 1013 74 10000 2.6 70 15:37 24.02.2020
2201 Clouds 30 1013 74 10000 2.6 70 15:18 24.02.2020
2202 Rain 28 1013 74 10000 3.1 50 14:40 24.02.2020
2203 Rain 28 1013 74 10000 3.1 50 14:22 24.02.2020
2204 Clouds 26 1013 83 10000 2.1 40 13:58 24.02.2020
2205 Clouds 26 1013 83 10000 2.1 40 13:58 24.02.2020
2206 Clouds 26 1013 83 10000 2.1 40 13:58 24.02.2020
2207 Clouds 26 1013 83 10000 2.1 40 13:39 24.02.2020
2208 Clouds 26 1013 83 10000 2.1 40 13:21 24.02.2020
2209 Clouds 25 1011 88 10000 2.1 70 12:57 24.02.2020
2210 Clouds 25 1011 88 10000 2.1 70 12:38 24.02.2020
2211 Clouds 25 1011 88 10000 2.1 70 12:20 24.02.2020
2212 Clouds 25 1011 88 10000 2.1 70 11:46 24.02.2020
2213 Clouds 25 1011 88 10000 2.6 30 11:28 24.02.2020
2214 Clouds 25 1011 88 10000 2.6 30 10:47 24.02.2020
2215 Clouds 25 1010 88 10000 1.5 50 10:29 24.02.2020
2216 Clouds 25 1010 94 10000 1.5 80 09:54 24.02.2020
2217 Clouds 25 1010 94 10000 1.5 80 09:36 24.02.2020
2218 Clouds 25 1010 94 10000 1.5 80 09:18 24.02.2020
2219 Clouds 25 1009 94 10000 1.5 70 08:46 24.02.2020
2220 Clouds 25 1009 94 10000 1.5 70 08:27 24.02.2020
2221 Clouds 26 1009 94 10000 1.5 30 07:46 24.02.2020
2222 Clouds 26 1009 94 10000 1.5 30 07:27 24.02.2020
2223 Clouds 26 1010 94 10000 2.1 40 06:37 24.02.2020
2224 Clouds 26 1010 94 10000 2.1 40 06:18 24.02.2020
2225 Clouds 27 1011 94 10000 1.5 60 05:30 24.02.2020
2226 Clouds 27 1011 94 10000 2.1 80 04:25 24.02.2020
2227 Clouds 28 1011 83 10000 1.5 80 02:55 24.02.2020
2228 Clouds 28 1010 83 10000 1 80 01:46 24.02.2020
2229 Clouds 29 1009 83 10000 1.5 80 00:57 24.02.2020
2230 Clouds 29 1009 83 10000 1.5 80 00:27 24.02.2020
2231 Clouds 29 1009 79 10000 2.6 80 23:59 23.02.2020
2232 Clouds 29 1009 79 10000 2.6 80 23:40 23.02.2020
2233 Clouds 29 1009 79 10000 2.6 80 23:18 23.02.2020
2234 Rain 31 1008 70 10000 3.6 70 22:56 23.02.2020
2235 Rain 31 1008 70 10000 3.6 70 22:37 23.02.2020
2236 Rain 31 1008 70 10000 3.6 70 22:18 23.02.2020
2237 Rain 32 1008 66 10000 3.1 80 21:43 23.02.2020
2238 Rain 32 1008 66 10000 3.1 80 21:43 23.02.2020
2239 Rain 32 1008 66 10000 3.1 80 21:19 23.02.2020
2240 Clouds 32 1009 70 10000 2.6 80 20:56 23.02.2020
2241 Clouds 32 1009 70 10000 2.6 80 20:38 23.02.2020
2242 Clouds 32 1009 70 10000 2.6 80 20:20 23.02.2020
2243 Clouds 31 1011 74 10000 2.6 80 19:56 23.02.2020
2244 Clouds 31 1011 74 10000 2.6 80 19:38 23.02.2020
2245 Clouds 31 1011 74 10000 2.6 80 19:18 23.02.2020
2246 Clouds 32 1012 74 10000 2.1 70 18:54 23.02.2020
2247 Clouds 32 1012 74 10000 2.1 70 18:36 23.02.2020
2248 Clouds 32 1012 74 10000 2.1 70 18:18 23.02.2020
2249 Clouds 31 1012 74 10000 2.1 70 17:56 23.02.2020
2250 Clouds 31 1013 74 10000 3.1 70 17:37 23.02.2020
2251 Clouds 31 1013 74 10000 3.1 70 17:18 23.02.2020
2252 Clouds 30 1013 74 10000 3.1 80 16:42 23.02.2020
2253 Clouds 30 1013 74 10000 3.1 80 16:24 23.02.2020
2254 Clouds 30 1014 83 10000 2.6 60 15:57 23.02.2020
2255 Clouds 30 1014 83 10000 2.6 60 15:38 23.02.2020
2256 Clouds 30 1014 83 10000 2.6 60 15:20 23.02.2020
2257 Clouds 28 1014 94 10000 1.5 80 14:55 23.02.2020
2258 Clouds 28 1014 94 10000 1.5 80 14:37 23.02.2020
2259 Clouds 28 1014 94 10000 1.5 80 14:19 23.02.2020
2260 Clouds 27 1014 83 10000 4.6 60 13:55 23.02.2020
2261 Clouds 26 1013 94 10000 2.6 80 13:37 23.02.2020
2262 Clouds 26 1013 94 10000 2.6 80 13:19 23.02.2020
2263 Clouds 25 1012 100 10000 1.5 70 12:40 23.02.2020
2264 Clouds 25 1012 100 10000 1.5 70 12:21 23.02.2020
2265 Clouds 25 1011 100 10000 1.5 70 11:39 23.02.2020
2266 Clouds 25 1011 100 10000 1.5 70 11:20 23.02.2020
2267 Clouds 25 1011 100 10000 1 70 10:59 23.02.2020
2268 Clouds 25 1011 100 10000 1 70 10:40 23.02.2020
2269 Clouds 25 1011 100 10000 1 70 10:22 23.02.2020
2270 Clouds 25 1011 100 10000 1 70 09:56 23.02.2020
2271 Clouds 25 1011 100 10000 1 70 09:38 23.02.2020
2272 Clouds 25 1011 100 10000 1 70 09:18 23.02.2020
2273 Clouds 25 1011 100 10000 1 70 08:46 23.02.2020
2274 Clouds 25 1011 100 10000 2.6 80 08:25 23.02.2020
2275 Clouds 25 1011 100 10000 1 50 07:47 23.02.2020
2276 Clouds 25 1011 100 10000 1 50 07:28 23.02.2020
2277 Clouds 25 1012 100 10000 0.5 140 06:25 23.02.2020
2278 Clouds 25 1013 100 10000 0.5 300 05:22 23.02.2020
2279 Rain 25 1013 100 10000 1 170 04:23 23.02.2020
2280 Rain 25 1013 100 10000 0.5 230 02:50 23.02.2020
2281 Rain 25 1012 100 10000 1.86 103 01:42 23.02.2020
2282 Rain 25 1012 100 10000 1.54 101 01:20 23.02.2020
2283 Rain 25 1011 94 10000 3.1 80 00:44 23.02.2020
2284 Rain 25 1011 94 10000 3.1 80 00:22 23.02.2020
2285 Rain 24 1010 100 5000 3.1 80 23:43 22.02.2020
2286 Rain 24 1010 100 5000 3.1 80 23:43 22.02.2020
2287 Thunderstorm 25 1010 100 1200 5.7 40 23:22 22.02.2020
2288 Thunderstorm 26 1010 83 10000 8.2 40 22:45 22.02.2020
2289 Thunderstorm 26 1010 83 10000 8.2 40 22:20 22.02.2020
2290 Clouds 32 1008 70 10000 1.5 190 21:46 22.02.2020
2291 Clouds 32 1008 70 10000 1.5 190 21:28 22.02.2020
2292 Clouds 31 1010 89 10000 1.5 100 20:58 22.02.2020
2293 Clouds 31 1010 89 10000 1.5 100 20:39 22.02.2020
2294 Clouds 31 1010 89 10000 1.5 100 20:21 22.02.2020
2295 Clouds 30 1010 89 10000 1.5 100 19:42 22.02.2020
2296 Rain 30 1010 100 10000 1 120 19:24 22.02.2020
2297 Rain 30 1011 79 10000 2.1 80 18:57 22.02.2020
2298 Rain 30 1011 79 10000 2.1 80 18:37 22.02.2020
2299 Rain 30 1011 79 10000 2.1 80 18:19 22.02.2020
2300 Clouds 31 1013 70 10000 2.1 90 17:44 22.02.2020
2301 Clouds 31 1013 70 10000 2.1 90 17:26 22.02.2020
2302 Clouds 30 1014 79 10000 2.6 90 16:59 22.02.2020
2303 Clouds 30 1014 79 10000 2.6 90 16:40 22.02.2020
2304 Clouds 30 1014 79 10000 2.6 90 16:20 22.02.2020
2305 Clouds 29 1014 88 10000 1.5 70 15:55 22.02.2020
2306 Clouds 29 1014 88 10000 1.5 70 15:37 22.02.2020
2307 Clouds 29 1014 88 10000 1.5 70 15:19 22.02.2020
2308 Clouds 27 1014 94 10000 2.6 70 14:41 22.02.2020
2309 Clouds 27 1014 94 10000 2.6 70 14:21 22.02.2020
2310 Clouds 27 1013 88 10000 2.1 70 13:43 22.02.2020
2311 Clouds 27 1013 88 10000 2.1 70 13:20 22.02.2020
2312 Clouds 26 1013 88 10000 2.1 70 12:58 22.02.2020
2313 Clouds 26 1012 100 10000 1.5 60 12:39 22.02.2020
2314 Clouds 26 1012 100 10000 1.5 60 12:20 22.02.2020
2315 Rain 26 1011 100 10000 2.1 70 11:42 22.02.2020
2316 Rain 26 1011 100 10000 2.1 70 11:24 22.02.2020
2317 Rain 26 1010 94 10000 1 100 10:42 22.02.2020
2318 Rain 26 1010 94 10000 1 100 10:21 22.02.2020
2319 Clouds 26 1009 83 10000 0.5 110 09:59 22.02.2020
2320 Clouds 26 1009 83 10000 0.5 110 09:41 22.02.2020
2321 Clouds 26 1009 83 10000 0.5 110 09:22 22.02.2020
2322 Rain 26 1009 83 10000 1 140 08:55 22.02.2020
2323 Rain 26 1009 83 10000 1 140 08:28 22.02.2020
2324 Rain 26 1010 88 10000 1.5 140 07:59 22.02.2020
2325 Rain 26 1010 88 10000 1.5 140 07:38 22.02.2020
2326 Rain 26 1010 88 10000 1.5 140 07:38 22.02.2020
2327 Rain 26 1010 88 10000 1.5 140 07:18 22.02.2020
2328 Rain 26 1010 88 10000 0.5 110 06:41 22.02.2020
2329 Clouds 27 1010 83 10000 1 110 04:44 22.02.2020
2330 Clouds 27 1010 83 10000 0.5 110 03:47 22.02.2020
2331 Clouds 27 1010 83 10000 1 130 02:34 22.02.2020
2332 Rain 27 1010 83 10000 0.5 100 01:47 22.02.2020
2333 Rain 27 1010 83 10000 0.5 100 01:28 22.02.2020
2334 Rain 27 1010 78 10000 1.5 30 00:46 22.02.2020
2335 Rain 27 1010 78 10000 1.5 30 00:28 22.02.2020
2336 Rain 28 1010 78 10000 1.5 30 23:52 21.02.2020
2337 Clouds 29 1009 74 10000 0.95 97 23:24 21.02.2020
2338 Rain 28 1009 74 10000 1.5 360 22:57 21.02.2020
2339 Rain 28 1009 74 10000 1.5 360 22:39 21.02.2020
2340 Rain 28 1009 74 10000 1.5 360 22:20 21.02.2020
2341 Rain 26 1009 88 7000 3.1 330 21:42 21.02.2020
2342 Rain 26 1009 88 7000 3.1 330 21:42 21.02.2020
2343 Rain 26 1009 88 7000 3.1 330 21:24 21.02.2020
2344 Rain 29 1010 74 10000 0.5 70 20:50 21.02.2020
2345 Rain 29 1010 74 10000 0.5 70 20:32 21.02.2020
2346 Clouds 31 1010 70 10000 1.5 80 19:59 21.02.2020
2347 Clouds 31 1010 70 10000 1.5 80 19:59 21.02.2020
2348 Clouds 31 1010 70 10000 1.5 80 19:38 21.02.2020
2349 Clouds 31 1010 70 10000 1.5 80 19:18 21.02.2020
2350 Clouds 30 1011 74 10000 2.6 70 18:40 21.02.2020
2351 Clouds 30 1011 74 10000 2.6 70 18:22 21.02.2020
2352 Clouds 31 1012 66 10000 2.6 90 17:42 21.02.2020
2353 Clouds 31 1012 66 10000 2.6 90 17:24 21.02.2020
2354 Clouds 29 1013 69 10000 3.1 80 16:58 21.02.2020
2355 Clouds 29 1013 69 10000 3.1 80 16:40 21.02.2020
2356 Clouds 29 1013 69 10000 3.1 80 16:21 21.02.2020
2357 Clouds 29 1013 78 10000 4.1 80 15:56 21.02.2020
2358 Clouds 29 1013 78 10000 4.1 80 15:38 21.02.2020
2359 Clouds 29 1013 78 10000 4.1 80 15:18 21.02.2020
2360 Clouds 28 1013 88 10000 2.1 70 14:42 21.02.2020
2361 Clouds 28 1013 88 10000 2.1 70 14:19 21.02.2020
2362 Clouds 27 1013 100 8000 2.1 80 13:44 21.02.2020
2363 Clouds 27 1013 100 8000 2.1 80 13:24 21.02.2020
2364 Clouds 26 1012 100 9000 1 70 12:55 21.02.2020
2365 Clouds 26 1012 100 9000 1 70 12:37 21.02.2020
2366 Clouds 26 1012 100 9000 1 70 12:18 21.02.2020
2367 Clouds 26 1011 100 10000 1.5 90 11:42 21.02.2020
2368 Clouds 26 1011 100 10000 2.1 70 11:22 21.02.2020
2369 Clouds 26 1010 100 10000 1.5 80 10:57 21.02.2020
2370 Clouds 26 1010 100 10000 1.5 80 10:39 21.02.2020
2371 Clouds 26 1010 100 10000 1.5 80 10:19 21.02.2020
2372 Clouds 26 1010 100 10000 2.1 80 09:57 21.02.2020
2373 Clouds 26 1010 100 10000 2.1 80 09:57 21.02.2020
2374 Clouds 26 1010 100 10000 2.1 80 09:38 21.02.2020
2375 Clouds 26 1010 100 10000 2.1 80 09:19 21.02.2020
2376 Clouds 26 1010 94 10000 1 70 08:43 21.02.2020
2377 Clouds 26 1010 94 10000 1 70 08:22 21.02.2020
2378 Clouds 26 1010 88 10000 2.1 80 07:59 21.02.2020
2379 Clouds 26 1010 88 10000 2.1 80 07:59 21.02.2020
2380 Clouds 26 1010 88 10000 2.1 80 07:40 21.02.2020
2381 Clouds 26 1010 88 10000 2.1 80 07:19 21.02.2020
2382 Clouds 26 1010 88 10000 1.5 50 06:52 21.02.2020
2383 Clouds 26 1010 88 10000 1.5 50 06:30 21.02.2020
2384 Clouds 26 1010 88 10000 2.1 40 05:47 21.02.2020
2385 Clouds 27 1011 83 10000 1 20 04:38 21.02.2020
2386 Clouds 27 1011 83 10000 1 20 04:18 21.02.2020
2387 Clouds 27 1010 83 10000 2.1 30 03:39 21.02.2020
2388 Clouds 27 1010 83 10000 2.1 40 02:29 21.02.2020
2389 Rain 27 1009 78 10000 1.5 50 01:24 21.02.2020
2390 Clouds 28 1008 74 8000 2.6 40 00:45 21.02.2020
2391 Clouds 28 1008 74 8000 2.6 40 00:23 21.02.2020
2392 Clouds 28 1008 74 8000 2.6 40 23:46 20.02.2020
2393 Clouds 28 1008 74 8000 2.6 40 23:46 20.02.2020
2394 Clouds 28 1008 74 10000 3.1 70 23:25 20.02.2020
2395 Clouds 29 1008 74 8000 2.6 80 22:57 20.02.2020
2396 Clouds 29 1008 74 8000 2.6 80 22:38 20.02.2020
2397 Clouds 29 1008 74 8000 2.6 80 22:20 20.02.2020
2398 Clouds 30 1008 79 8000 2.1 80 21:56 20.02.2020
2399 Clouds 30 1008 79 8000 2.1 80 21:37 20.02.2020
2400 Clouds 30 1008 79 8000 2.1 80 21:37 20.02.2020
2401 Clouds 30 1008 79 8000 2.1 80 21:19 20.02.2020
2402 Clouds 30 1009 79 8000 1.5 80 20:54 20.02.2020
2403 Clouds 30 1009 79 8000 1.5 80 20:36 20.02.2020
2404 Clouds 30 1009 79 8000 1.5 80 20:18 20.02.2020
2405 Clouds 30 1009 74 10000 2.1 80 19:43 20.02.2020
2406 Clouds 30 1009 74 10000 2.1 80 19:25 20.02.2020
2407 Clouds 30 1010 66 10000 3.6 30 18:59 20.02.2020
2408 Clouds 30 1010 66 10000 3.6 30 18:39 20.02.2020
2409 Clouds 30 1010 66 10000 3.6 30 18:19 20.02.2020
2410 Clouds 30 1011 66 10000 3.1 40 17:41 20.02.2020
2411 Clouds 29 1011 70 10000 3.1 350 17:23 20.02.2020
2412 Clouds 29 1011 70 10000 3.1 350 16:59 20.02.2020
2413 Clouds 29 1012 74 10000 2.6 30 16:41 20.02.2020
2414 Clouds 29 1012 74 10000 2.6 30 16:21 20.02.2020
2415 Rain 27 1012 100 8000 1 120 15:59 20.02.2020
2416 Rain 27 1012 100 8000 1 120 15:41 20.02.2020
2417 Rain 27 1012 100 8000 1 120 15:20 20.02.2020
2418 Clouds 26 1012 100 10000 1.5 210 14:55 20.02.2020
2419 Clouds 26 1012 100 10000 1.5 210 14:36 20.02.2020
2420 Clouds 26 1012 100 10000 1.5 210 14:18 20.02.2020
2421 Clouds 26 1012 100 10000 1.5 210 14:18 20.02.2020
2422 Clouds 26 1012 100 10000 1.5 210 14:18 20.02.2020
2423 Clouds 27 1012 94 10000 1 160 13:44 20.02.2020
2424 Clouds 27 1012 94 10000 1 160 13:19 20.02.2020
2425 Clouds 25 1010 100 10000 1 90 12:56 20.02.2020
2426 Clouds 25 1010 100 10000 1 90 12:37 20.02.2020
2427 Clouds 25 1010 100 10000 1 90 12:18 20.02.2020
2428 Clouds 25 1010 100 10000 1 90 11:42 20.02.2020
2429 Clouds 25 1009 100 10000 1 150 11:22 20.02.2020
2430 Clouds 25 1009 100 10000 1 130 10:57 20.02.2020
2431 Clouds 25 1009 100 10000 1 130 10:39 20.02.2020
2432 Clouds 25 1009 100 10000 1 130 10:21 20.02.2020
2433 Clouds 26 1009 100 10000 1.84 52 09:46 20.02.2020
2434 Clouds 26 1009 100 10000 1.84 52 09:25 20.02.2020
2435 Clouds 26 1009 100 10000 1.84 52 08:59 20.02.2020
2436 Clouds 26 1009 100 10000 0.5 90 08:38 20.02.2020
2437 Clouds 26 1009 100 10000 0.5 90 08:20 20.02.2020
2438 Clouds 27 1009 88 10000 1 70 07:45 20.02.2020
2439 Clouds 27 1009 88 10000 1 70 07:21 20.02.2020
2440 Clouds 27 1009 88 10000 1 70 06:52 20.02.2020
2441 Clouds 27 1009 88 10000 1.5 50 06:26 20.02.2020
2442 Clouds 27 1009 88 10000 1.5 50 05:45 20.02.2020
2443 Clouds 27 1010 88 10000 1 70 04:51 20.02.2020
2444 Clouds 27 1010 88 10000 1.5 70 03:58 20.02.2020
2445 Clouds 27 1010 88 10000 1.5 70 03:28 20.02.2020
2446 Clouds 27 1009 83 10000 1.5 90 02:23 20.02.2020
2447 Clouds 29 1007 66 10000 3.1 30 00:58 20.02.2020
2448 Clouds 29 1007 66 10000 3.1 30 00:31 20.02.2020
2449 Clouds 29 1007 66 10000 3.1 30 23:49 19.02.2020
2450 Rain 29 1007 70 10000 3.6 40 23:22 19.02.2020
2451 Clouds 32 1005 62 10000 1.5 60 22:46 19.02.2020
2452 Clouds 32 1005 62 10000 1.5 60 22:28 19.02.2020
2453 Rain 32 1006 66 9000 3.6 20 21:59 19.02.2020
2454 Rain 32 1006 66 9000 3.6 20 21:41 19.02.2020
2455 Rain 32 1006 66 9000 3.6 20 21:19 19.02.2020
2456 Clouds 32 1007 59 10000 3.6 20 20:58 19.02.2020
2457 Clouds 32 1007 59 10000 3.6 20 20:58 19.02.2020
2458 Clouds 32 1007 59 10000 3.6 20 20:39 19.02.2020
2459 Clouds 32 1007 59 10000 3.6 20 20:20 19.02.2020
2460 Clouds 32 1008 62 8000 3.6 40 19:58 19.02.2020
2461 Clouds 32 1008 62 8000 3.6 40 19:39 19.02.2020
2462 Clouds 32 1008 62 8000 3.6 40 19:20 19.02.2020
2463 Clouds 32 1010 62 10000 2.6 40 18:58 19.02.2020
2464 Clouds 32 1010 62 10000 2.6 40 18:40 19.02.2020
2465 Clouds 32 1010 62 10000 2.6 40 18:22 19.02.2020
2466 Clouds 32 1010 62 10000 2.6 40 17:57 19.02.2020
2467 Clouds 31 1011 62 8000 3.1 20 17:39 19.02.2020
2468 Clouds 31 1011 62 8000 3.1 20 17:18 19.02.2020
2469 Clouds 31 1012 66 8000 4.1 40 16:43 19.02.2020
2470 Clouds 31 1012 66 8000 4.1 40 16:19 19.02.2020
2471 Rain 30 1012 70 8000 3.1 30 15:56 19.02.2020
2472 Rain 30 1012 70 8000 3.1 30 15:37 19.02.2020
2473 Rain 30 1012 70 8000 3.1 30 15:19 19.02.2020
2474 Rain 29 1011 74 8000 3.6 20 14:41 19.02.2020
2475 Rain 29 1011 74 8000 3.6 20 14:22 19.02.2020
2476 Rain 28 1011 74 8000 3.6 30 13:43 19.02.2020
2477 Rain 28 1011 74 8000 3.6 30 13:23 19.02.2020
2478 Rain 26 1010 83 10000 2.1 40 12:58 19.02.2020
2479 Rain 26 1010 83 10000 2.1 40 12:37 19.02.2020
2480 Rain 26 1010 83 10000 2.1 40 12:18 19.02.2020
2481 Clouds 26 1009 83 10000 1.5 30 11:39 19.02.2020
2482 Clouds 26 1009 83 10000 1.5 30 11:20 19.02.2020
2483 Clouds 27 1009 83 10000 1.5 30 10:59 19.02.2020
2484 Clouds 26 1010 88 10000 1 80 10:39 19.02.2020
2485 Clouds 26 1010 88 10000 1 80 10:20 19.02.2020
2486 Clouds 26 1010 94 10000 1.5 60 09:59 19.02.2020
2487 Clouds 26 1010 94 10000 1.5 60 09:41 19.02.2020
2488 Clouds 26 1010 94 10000 1.5 60 09:41 19.02.2020
2489 Clouds 26 1010 94 10000 1.5 60 09:20 19.02.2020
2490 Clouds 26 1009 88 10000 1.5 90 08:48 19.02.2020
2491 Clouds 26 1009 88 10000 1.5 90 08:24 19.02.2020
2492 Clouds 26 1010 88 10000 1.5 60 07:57 19.02.2020
2493 Clouds 26 1010 88 10000 1.5 60 07:38 19.02.2020
2494 Clouds 26 1010 88 10000 1.5 60 07:18 19.02.2020
2495 Rain 26 1010 83 10000 1.5 30 06:36 19.02.2020
2496 Clouds 28 1011 83 10000 2.1 70 04:59 19.02.2020
2497 Clouds 29 1010 79 10000 2.1 70 03:50 19.02.2020
2498 Clouds 29 1009 79 10000 1.5 100 02:35 19.02.2020
2499 Clouds 30 1008 70 10000 1.5 60 01:33 19.02.2020
2500 Clouds 30 1007 66 10000 2.6 40 00:59 19.02.2020
2501 Clouds 30 1007 66 10000 2.6 40 00:36 19.02.2020
2502 Clouds 30 1007 66 10000 2.6 40 23:57 18.02.2020
2503 Clouds 31 1007 66 10000 3.6 40 23:39 18.02.2020
2504 Clouds 31 1007 66 10000 3.6 40 23:19 18.02.2020
2505 Clouds 31 1007 66 10000 3.6 40 23:19 18.02.2020
2506 Clouds 31 1007 66 10000 3.6 40 23:19 18.02.2020
2507 Clouds 32 1007 59 10000 4.1 30 22:54 18.02.2020
2508 Clouds 32 1007 59 10000 4.1 30 22:36 18.02.2020
2509 Clouds 32 1007 59 10000 4.1 30 22:18 18.02.2020
2510 Clouds 32 1007 70 10000 2.1 70 21:38 18.02.2020
2511 Clouds 32 1007 70 10000 2.1 70 21:38 18.02.2020
2512 Clouds 32 1007 70 10000 2.1 70 21:20 18.02.2020
2513 Rain 31 1008 79 10000 1.5 70 20:59 18.02.2020
2514 Rain 31 1008 79 10000 1.5 70 20:39 18.02.2020
2515 Rain 31 1008 79 10000 1.5 70 20:21 18.02.2020
2516 Rain 31 1008 79 10000 1.5 70 20:21 18.02.2020
2517 Clouds 32 1010 62 10000 3.1 50 19:56 18.02.2020
2518 Clouds 32 1010 62 10000 3.1 50 19:38 18.02.2020
2519 Clouds 32 1010 62 10000 3.1 50 19:18 18.02.2020
2520 Clouds 32 1011 66 10000 2.6 60 18:42 18.02.2020
2521 Clouds 32 1011 66 10000 2.6 60 18:21 18.02.2020
2522 Clouds 31 1011 66 10000 2.6 60 17:57 18.02.2020
2523 Clouds 31 1011 62 10000 4.1 50 17:38 18.02.2020
2524 Clouds 31 1011 62 10000 4.1 50 17:19 18.02.2020
2525 Clouds 30 1013 70 10000 4.1 40 16:40 18.02.2020
2526 Clouds 30 1013 70 10000 4.1 40 16:21 18.02.2020
2527 Rain 29 1013 79 10000 3.1 60 15:42 18.02.2020
2528 Rain 29 1013 79 10000 3.1 60 15:21 18.02.2020
2529 Clouds 30 1013 79 10000 3.1 60 14:59 18.02.2020
2530 Clouds 30 1013 79 10000 3.1 60 14:41 18.02.2020
2531 Clouds 30 1013 79 10000 3.1 60 14:21 18.02.2020
2532 Clouds 28 1012 83 10000 2.1 60 13:59 18.02.2020
2533 Clouds 28 1012 83 10000 2.1 60 13:40 18.02.2020
2534 Clouds 28 1012 83 10000 2.1 60 13:21 18.02.2020
2535 Clouds 26 1011 88 10000 1.5 60 12:44 18.02.2020
2536 Clouds 26 1011 88 10000 1.5 60 12:25 18.02.2020
2537 Clouds 26 1011 88 10000 1.5 60 11:56 18.02.2020
2538 Clouds 26 1010 83 10000 1.5 60 11:38 18.02.2020
2539 Clouds 26 1010 83 10000 1.5 60 11:19 18.02.2020
2540 Clouds 25 1010 88 10000 1.5 40 10:44 18.02.2020
2541 Clouds 25 1010 88 10000 1.5 40 10:44 18.02.2020
2542 Clouds 25 1010 88 10000 1.5 40 10:22 18.02.2020
2543 Clouds 26 1009 88 10000 1.5 50 09:56 18.02.2020
2544 Clouds 26 1009 88 10000 1.5 50 09:38 18.02.2020
2545 Clouds 26 1009 88 10000 1.5 50 09:19 18.02.2020
2546 Clouds 25 1009 88 10000 1.5 60 08:55 18.02.2020
2547 Clouds 25 1009 88 10000 1.5 60 08:37 18.02.2020
2548 Rain 25 1009 88 10000 1.5 60 08:18 18.02.2020
2549 Rain 25 1009 88 10000 1 40 07:45 18.02.2020
2550 Rain 25 1009 88 10000 1 40 07:25 18.02.2020
2551 Rain 26 1009 88 10000 1 40 06:50 18.02.2020
2552 Rain 26 1010 94 10000 1 30 06:28 18.02.2020
2553 Clouds 26 1010 94 10000 1.5 40 05:47 18.02.2020
2554 Clouds 26 1010 94 10000 1.5 40 05:47 18.02.2020
2555 Clouds 26 1010 94 10000 1.5 40 05:18 18.02.2020
2556 Rain 27 1010 88 10000 1.5 60 03:41 18.02.2020
2557 Rain 26 1010 94 10000 1 70 02:58 18.02.2020
2558 Clouds 26 1009 83 10000 1 20 01:25 18.02.2020
2559 Clouds 27 1008 83 10000 3.1 60 00:22 18.02.2020
2560 Clouds 27 1008 78 10000 2.1 350 23:58 17.02.2020
2561 Clouds 27 1008 78 10000 2.1 350 23:38 17.02.2020
2562 Clouds 27 1008 78 10000 2.1 350 23:19 17.02.2020
2563 Clouds 28 1008 78 10000 2.1 350 22:56 17.02.2020
2564 Rain 28 1007 83 10000 1.5 80 22:38 17.02.2020
2565 Rain 28 1007 83 10000 1.5 80 22:18 17.02.2020
2566 Rain 28 1008 79 10000 2.6 30 21:39 17.02.2020
2567 Rain 28 1008 79 10000 2.6 30 21:18 17.02.2020
2568 Rain 28 1009 88 10000 2.6 40 20:43 17.02.2020
2569 Rain 28 1009 88 10000 2.6 40 20:22 17.02.2020
2570 Rain 27 1009 88 10000 2.6 40 19:59 17.02.2020
2571 Thunderstorm 27 1010 94 4000 3.6 50 19:41 17.02.2020
2572 Thunderstorm 27 1010 94 4000 3.6 50 19:20 17.02.2020
2573 Thunderstorm 26 1011 88 7000 4.6 90 18:39 17.02.2020
2574 Thunderstorm 26 1011 88 7000 4.6 90 18:39 17.02.2020
2575 Thunderstorm 26 1011 88 7000 4.6 90 18:20 17.02.2020
2576 Rain 29 1011 74 10000 4.1 80 17:59 17.02.2020
2577 Rain 30 1011 74 10000 2.6 60 17:38 17.02.2020
2578 Rain 30 1011 74 10000 2.6 60 17:19 17.02.2020
2579 Rain 30 1012 74 10000 1.5 80 16:58 17.02.2020
2580 Rain 30 1012 74 10000 1.5 80 16:40 17.02.2020
2581 Rain 30 1012 74 10000 1.5 80 16:21 17.02.2020
2582 Clouds 30 1012 70 10000 3.1 30 15:45 17.02.2020
2583 Clouds 30 1012 70 10000 3.1 30 15:45 17.02.2020
2584 Clouds 30 1012 70 10000 3.1 30 15:26 17.02.2020
2585 Clouds 28 1012 78 10000 3.1 50 14:56 17.02.2020
2586 Clouds 28 1012 78 10000 3.1 50 14:56 17.02.2020
2587 Clouds 28 1012 78 10000 3.1 50 14:38 17.02.2020
2588 Clouds 28 1012 78 10000 3.1 50 14:19 17.02.2020
2589 Clear 27 1012 83 10000 2.6 60 13:41 17.02.2020
2590 Clear 27 1012 83 10000 2.6 60 13:22 17.02.2020
2591 Rain 26 1011 88 10000 1.5 60 12:59 17.02.2020
2592 Rain 26 1011 88 10000 1.5 60 12:41 17.02.2020
2593 Rain 26 1011 88 10000 1.5 60 12:22 17.02.2020
2594 Rain 26 1011 88 10000 1.5 60 11:47 17.02.2020
2595 Rain 26 1010 88 10000 2.1 80 11:27 17.02.2020
2596 Clouds 26 1009 78 10000 1.5 90 10:58 17.02.2020
2597 Clouds 26 1009 78 10000 1.5 90 10:40 17.02.2020
2598 Clouds 26 1009 78 10000 1.5 90 10:21 17.02.2020
2599 Clouds 26 1009 78 10000 2.1 90 09:58 17.02.2020
2600 Clouds 26 1009 78 10000 2.1 90 09:39 17.02.2020
2601 Clouds 26 1009 78 10000 2.1 90 09:19 17.02.2020
2602 Clouds 27 1008 78 10000 1 90 08:56 17.02.2020
2603 Clouds 27 1008 78 10000 1 90 08:37 17.02.2020
2604 Clouds 27 1008 78 10000 1 90 08:19 17.02.2020
2605 Clouds 27 1008 78 10000 2.1 90 07:39 17.02.2020
2606 Clouds 27 1008 78 10000 2.1 90 07:21 17.02.2020
2607 Clear 26 1009 83 10000 1.5 90 06:46 17.02.2020
2608 Clear 26 1009 83 10000 1.5 90 06:27 17.02.2020
2609 Clear 26 1009 83 10000 2.1 70 05:40 17.02.2020
2610 Clear 27 1009 78 10000 1 70 04:39 17.02.2020
2611 Clear 28 1009 78 10000 2.1 70 02:59 17.02.2020
2612 Rain 28 1008 74 10000 1.5 280 01:23 17.02.2020
2613 Clouds 29 1008 74 10000 2.1 80 00:39 17.02.2020
2614 Clouds 29 1008 74 10000 2.1 80 00:39 17.02.2020
2615 Clouds 29 1008 74 10000 2.1 80 00:19 17.02.2020
2616 Clouds 29 1008 74 10000 2.1 80 23:52 16.02.2020
2617 Clouds 30 1007 70 10000 1.5 50 23:27 16.02.2020
2618 Clouds 31 1007 66 10000 3.6 60 22:56 16.02.2020
2619 Clouds 31 1007 66 10000 3.6 60 22:38 16.02.2020
2620 Clouds 31 1007 66 10000 3.6 60 22:38 16.02.2020
2621 Clouds 31 1007 66 10000 3.6 60 22:19 16.02.2020
2622 Clouds 32 1007 66 10000 2.6 100 21:55 16.02.2020
2623 Clouds 32 1007 66 10000 2.6 100 21:36 16.02.2020
2624 Clouds 32 1007 66 10000 2.6 100 21:18 16.02.2020
2625 Clouds 29 1008 74 10000 1.5 340 20:54 16.02.2020
2626 Clouds 29 1008 74 10000 1.5 340 20:36 16.02.2020
2627 Clouds 29 1008 74 10000 1.5 340 20:18 16.02.2020
2628 Clouds 29 1008 74 10000 1.5 340 20:18 16.02.2020
2629 Rain 28 1009 74 10000 4.6 40 19:54 16.02.2020
2630 Rain 29 1009 62 4000 7.2 30 19:36 16.02.2020
2631 Rain 29 1009 62 4000 7.2 30 19:18 16.02.2020
2632 Clouds 31 1011 70 10000 1.5 80 18:41 16.02.2020
2633 Clouds 31 1011 70 10000 1.5 80 18:23 16.02.2020
2634 Clouds 31 1011 70 10000 1.5 80 18:23 16.02.2020
2635 Clouds 31 1011 70 10000 1.5 80 17:45 16.02.2020
2636 Clouds 32 1012 62 10000 3.1 30 17:21 16.02.2020
2637 Clouds 30 1013 70 10000 3.6 40 16:57 16.02.2020
2638 Clouds 30 1013 70 10000 3.6 40 16:57 16.02.2020
2639 Clouds 30 1013 70 10000 3.6 40 16:39 16.02.2020
2640 Clouds 30 1013 70 10000 3.6 40 16:21 16.02.2020
2641 Clouds 29 1014 70 10000 3.6 50 15:56 16.02.2020
2642 Clouds 29 1014 70 10000 3.6 50 15:37 16.02.2020
2643 Clouds 29 1014 70 10000 3.6 50 15:18 16.02.2020
2644 Clouds 28 1013 78 10000 1.5 50 14:39 16.02.2020
2645 Clouds 28 1013 78 10000 1.5 50 14:21 16.02.2020
2646 Clouds 27 1013 78 10000 1.5 50 13:47 16.02.2020
2647 Clouds 26 1012 94 10000 1 70 13:24 16.02.2020
2648 Clouds 26 1012 94 10000 1 70 13:24 16.02.2020
2649 Clouds 25 1012 94 10000 1 70 12:56 16.02.2020
2650 Rain 24 1011 100 10000 1.5 80 12:38 16.02.2020
2651 Rain 24 1011 100 10000 1.5 80 12:19 16.02.2020
2652 Rain 24 1011 100 10000 3.1 60 11:39 16.02.2020
2653 Rain 24 1011 100 10000 3.1 60 11:18 16.02.2020
2654 Rain 25 1010 94 8000 4.1 70 10:56 16.02.2020
2655 Rain 25 1010 94 8000 4.1 70 10:38 16.02.2020
2656 Rain 25 1010 94 8000 4.1 70 10:38 16.02.2020
2657 Rain 25 1010 94 8000 4.1 70 10:20 16.02.2020
2658 Clouds 25 1010 94 10000 3.1 70 09:55 16.02.2020
2659 Clouds 25 1010 94 10000 3.1 70 09:36 16.02.2020
2660 Clouds 25 1010 94 10000 3.1 70 09:18 16.02.2020
2661 Clouds 25 1009 83 10000 3.1 60 08:45 16.02.2020
2662 Clouds 25 1009 83 10000 3.1 60 08:21 16.02.2020
2663 Clouds 25 1010 88 10000 1.5 30 07:54 16.02.2020
2664 Clouds 25 1010 88 10000 1.5 30 07:34 16.02.2020
2665 Clouds 25 1010 83 10000 1.5 30 06:33 16.02.2020
2666 Thunderstorm 25 1011 88 10000 1 90 04:45 16.02.2020
2667 Thunderstorm 25 1011 83 10000 1.5 350 03:33 16.02.2020
2668 Thunderstorm 25 1010 88 10000 1.5 120 02:32 16.02.2020
2669 Thunderstorm 26 1009 78 10000 3.1 360 01:43 16.02.2020
2670 Thunderstorm 26 1009 78 10000 3.1 360 01:23 16.02.2020
2671 Thunderstorm 26 1009 78 10000 4.1 10 00:53 16.02.2020
2672 Thunderstorm 26 1009 78 10000 4.1 10 00:33 16.02.2020
2673 Rain 26 1009 78 10000 4.6 60 23:58 15.02.2020
2674 Rain 26 1009 78 10000 4.6 60 23:40 15.02.2020
2675 Rain 26 1009 78 10000 4.6 60 23:40 15.02.2020
2676 Rain 26 1009 78 10000 4.6 60 23:21 15.02.2020
2677 Thunderstorm 30 1009 70 5000 5.7 350 22:41 15.02.2020
2678 Clouds 32 1008 66 10000 1 70 22:22 15.02.2020
2679 Clouds 33 1008 59 10000 1.5 90 21:59 15.02.2020
2680 Clouds 33 1008 59 10000 1.5 90 21:41 15.02.2020
2681 Clouds 33 1008 59 10000 1.5 90 21:21 15.02.2020
2682 Clouds 30 1009 66 10000 2.6 80 20:41 15.02.2020
2683 Clouds 30 1009 66 10000 2.6 80 20:21 15.02.2020
2684 Clouds 32 1010 66 10000 2.1 100 19:44 15.02.2020
2685 Clouds 32 1010 66 10000 2.1 100 19:24 15.02.2020
2686 Clouds 32 1010 66 10000 2.1 100 19:24 15.02.2020
2687 Clouds 33 1010 66 10000 2.1 100 18:55 15.02.2020
2688 Clouds 32 1011 62 10000 3.1 80 18:37 15.02.2020
2689 Clouds 32 1011 62 10000 3.1 80 18:18 15.02.2020
2690 Clouds 31 1012 70 10000 2.1 60 17:43 15.02.2020
2691 Clouds 31 1012 70 10000 2.1 60 17:22 15.02.2020
2692 Clouds 30 1013 70 10000 2.6 50 16:59 15.02.2020
2693 Clouds 30 1013 70 10000 2.6 50 16:39 15.02.2020
2694 Clouds 30 1013 70 10000 2.6 50 16:19 15.02.2020
2695 Clouds 30 1013 74 10000 2.6 40 15:43 15.02.2020
2696 Clouds 30 1013 74 10000 2.6 40 15:24 15.02.2020
2697 Clouds 29 1013 79 10000 1.5 50 14:45 15.02.2020
2698 Clouds 29 1013 79 10000 1.5 50 14:24 15.02.2020
2699 Clouds 27 1013 88 10000 2.1 60 13:58 15.02.2020
2700 Clouds 27 1013 88 10000 2.1 60 13:39 15.02.2020
2701 Clouds 27 1013 88 10000 2.1 60 13:20 15.02.2020
2702 Clouds 25 1012 100 10000 1 90 12:44 15.02.2020
2703 Clouds 25 1012 100 10000 1 90 12:26 15.02.2020
2704 Clouds 25 1012 100 10000 1 90 11:55 15.02.2020
2705 Clouds 24 1011 100 10000 1 20 11:36 15.02.2020
2706 Clouds 24 1011 100 10000 1 20 11:18 15.02.2020
2707 Clouds 24 1012 94 10000 1.5 70 10:39 15.02.2020
2708 Clouds 24 1012 94 10000 1.5 70 10:21 15.02.2020
2709 Clouds 24 1012 88 10000 2.1 50 09:44 15.02.2020
2710 Clouds 24 1012 88 10000 2.1 50 09:25 15.02.2020
2711 Clouds 24 1012 94 10000 1.5 360 08:58 15.02.2020
2712 Clouds 24 1012 94 10000 1.5 360 08:39 15.02.2020
2713 Clouds 24 1012 94 10000 1.5 360 08:19 15.02.2020
2714 Clouds 24 1012 94 10000 1 250 07:40 15.02.2020
2715 Clouds 24 1012 94 10000 1 250 07:22 15.02.2020
2716 Clouds 25 1012 94 10000 1 50 06:38 15.02.2020
2717 Clouds 25 1012 94 10000 1 50 06:18 15.02.2020
2718 Clouds 25 1012 94 10000 2.1 70 04:51 15.02.2020
2719 Clouds 25 1012 94 10000 2.1 70 04:26 15.02.2020
2720 Clouds 26 1012 83 10000 3.1 60 02:59 15.02.2020
2721 Clouds 26 1012 83 10000 3.1 60 02:28 15.02.2020
2722 Clouds 26 1011 88 10000 2.1 80 01:58 15.02.2020
2723 Clouds 26 1011 88 10000 2.1 80 01:36 15.02.2020
2724 Clouds 26 1009 88 10000 1 70 00:30 15.02.2020
2725 Clouds 27 1009 78 10000 2.1 80 23:48 14.02.2020
2726 Clouds 27 1009 78 10000 2.1 80 23:21 14.02.2020
2727 Clouds 28 1009 74 10000 3.6 70 22:58 14.02.2020
2728 Clouds 28 1009 74 10000 3.6 70 22:40 14.02.2020
2729 Clouds 28 1009 74 10000 3.6 70 22:21 14.02.2020
2730 Clouds 28 1009 88 10000 3.6 70 21:49 14.02.2020
2731 Clouds 28 1009 88 10000 3.6 70 21:30 14.02.2020
2732 Clouds 28 1010 78 10000 3.6 50 20:48 14.02.2020
2733 Clouds 28 1010 78 10000 3.6 50 20:21 14.02.2020
2734 Rain 27 1011 94 10000 2.6 70 19:59 14.02.2020
2735 Rain 27 1011 94 10000 2.6 70 19:41 14.02.2020
2736 Rain 27 1011 94 10000 2.6 70 19:41 14.02.2020
2737 Rain 27 1011 94 10000 2.6 70 19:22 14.02.2020
2738 Clouds 27 1012 88 10000 2.6 80 18:56 14.02.2020
2739 Clouds 27 1012 88 10000 2.6 80 18:38 14.02.2020
2740 Clouds 27 1012 88 10000 2.6 80 18:19 14.02.2020
2741 Clouds 27 1012 88 10000 2.6 80 17:44 14.02.2020
2742 Clouds 27 1013 94 10000 1 180 17:21 14.02.2020
2743 Clouds 26 1013 100 10000 1 180 16:58 14.02.2020
2744 Clouds 26 1013 100 10000 1 180 16:58 14.02.2020
2745 Rain 25 1013 100 8000 2.6 170 16:39 14.02.2020
2746 Rain 25 1013 100 8000 2.6 170 16:21 14.02.2020
2747 Rain 25 1013 88 10000 2.1 110 15:56 14.02.2020
2748 Rain 26 1014 100 8000 1.5 150 15:37 14.02.2020
2749 Rain 26 1014 100 8000 1.5 150 15:37 14.02.2020
2750 Rain 26 1014 100 8000 1.5 150 15:19 14.02.2020
2751 Rain 26 1014 100 8000 1 70 14:58 14.02.2020
2752 Rain 26 1014 100 10000 0.5 40 14:39 14.02.2020
2753 Rain 26 1014 100 10000 0.5 40 14:21 14.02.2020
2754 Clouds 26 1013 94 10000 0.5 70 13:40 14.02.2020
2755 Clouds 26 1013 94 10000 0.5 70 13:21 14.02.2020
2756 Clouds 24 1012 88 10000 1 300 12:58 14.02.2020
2757 Clouds 25 1012 100 10000 2.6 320 12:40 14.02.2020
2758 Clouds 25 1012 100 10000 2.6 320 12:21 14.02.2020
2759 Clouds 25 1012 100 10000 2.6 320 11:59 14.02.2020
2760 Rain 25 1012 88 10000 2.6 280 11:41 14.02.2020
2761 Rain 25 1012 88 10000 2.6 280 11:21 14.02.2020
2762 Clouds 25 1011 94 10000 2.6 300 10:56 14.02.2020
2763 Clouds 25 1011 88 10000 1.5 40 10:37 14.02.2020
2764 Clouds 25 1011 88 10000 1.5 40 10:19 14.02.2020
2765 Clouds 25 1010 83 10000 1.5 10 09:42 14.02.2020
2766 Clouds 25 1010 83 10000 1.5 10 09:21 14.02.2020
2767 Rain 24 1011 88 10000 1.5 20 08:44 14.02.2020
2768 Rain 24 1011 88 10000 1.5 20 08:25 14.02.2020
2769 Rain 24 1011 94 10000 1 40 07:57 14.02.2020
2770 Rain 24 1011 94 10000 1 40 07:38 14.02.2020
2771 Rain 24 1011 94 10000 1 40 07:19 14.02.2020
2772 Rain 25 1012 94 10000 1.5 10 06:30 14.02.2020
2773 Rain 26 1012 94 10000 1.5 30 05:47 14.02.2020
2774 Clouds 25 1012 88 10000 1 50 04:46 14.02.2020
2775 Thunderstorm 26 1012 94 10000 1 80 03:29 14.02.2020
2776 Clouds 26 1011 94 10000 1 100 02:30 14.02.2020
2777 Clouds 26 1010 100 10000 2.1 30 01:27 14.02.2020
2778 Clouds 26 1008 100 10000 1.5 70 00:43 14.02.2020
2779 Clouds 26 1008 100 10000 1.5 70 00:23 14.02.2020
2780 Clouds 27 1008 88 10000 2.1 80 23:43 13.02.2020
2781 Clouds 27 1008 88 10000 2.1 80 23:43 13.02.2020
2782 Clouds 27 1008 88 10000 2.1 80 23:20 13.02.2020
2783 Clouds 29 1007 83 10000 1.5 80 22:43 13.02.2020
2784 Clouds 29 1007 83 10000 1.5 80 22:20 13.02.2020
2785 Clouds 28 1008 83 10000 1.5 70 21:59 13.02.2020
2786 Clouds 28 1008 83 10000 1.5 70 21:40 13.02.2020
2787 Clouds 28 1008 83 10000 1.5 70 21:22 13.02.2020
2788 Rain 27 1008 83 10000 1.5 90 20:56 13.02.2020
2789 Rain 27 1008 83 10000 1.5 90 20:38 13.02.2020
2790 Rain 27 1008 83 10000 1.5 90 20:19 13.02.2020
2791 Rain 28 1009 83 5000 2.1 70 19:55 13.02.2020
2792 Rain 29 1009 83 8000 2.1 30 19:36 13.02.2020
2793 Rain 29 1009 83 8000 2.1 30 19:18 13.02.2020
2794 Rain 29 1009 83 8000 2.1 30 19:18 13.02.2020
2795 Rain 30 1011 74 10000 2.1 50 18:42 13.02.2020
2796 Rain 30 1011 74 10000 2.1 50 18:42 13.02.2020
2797 Rain 30 1011 74 10000 2.1 50 18:23 13.02.2020
2798 Rain 30 1012 70 10000 3.6 40 17:58 13.02.2020
2799 Rain 30 1012 70 10000 3.6 40 17:39 13.02.2020
2800 Rain 30 1012 70 10000 3.6 40 17:20 13.02.2020
2801 Rain 30 1012 70 10000 3.6 40 17:20 13.02.2020
2802 Clouds 29 1012 70 10000 4.1 40 16:57 13.02.2020
2803 Clouds 29 1012 70 10000 4.1 40 16:36 13.02.2020
2804 Clouds 29 1012 70 10000 4.1 40 16:18 13.02.2020
2805 Clouds 28 1013 74 10000 2.1 60 15:56 13.02.2020
2806 Clouds 28 1013 74 10000 2.1 60 15:37 13.02.2020
2807 Clouds 28 1013 74 10000 2.1 60 15:37 13.02.2020
2808 Clouds 28 1013 74 10000 2.1 60 15:18 13.02.2020
2809 Clouds 26 1013 88 10000 1 70 14:55 13.02.2020
2810 Clouds 26 1013 88 10000 1 70 14:55 13.02.2020
2811 Clouds 26 1013 88 10000 1 70 14:37 13.02.2020
2812 Clouds 26 1013 88 10000 1 70 14:37 13.02.2020
2813 Clouds 26 1013 88 10000 1 70 14:37 13.02.2020
2814 Clouds 26 1013 88 10000 1 70 14:19 13.02.2020
2815 Clouds 25 1013 94 10000 0.5 80 13:42 13.02.2020
2816 Clouds 25 1013 94 10000 0.5 80 13:18 13.02.2020
2817 Clouds 24 1011 100 10000 1.5 10 12:54 13.02.2020
2818 Clouds 24 1011 100 10000 1.5 10 12:36 13.02.2020
2819 Clouds 24 1011 100 10000 1.5 10 12:18 13.02.2020
2820 Rain 24 1011 100 7000 1.5 20 11:43 13.02.2020
2821 Rain 24 1011 100 7000 1.5 20 11:19 13.02.2020
2822 Rain 24 1010 100 8000 2.1 20 10:46 13.02.2020
2823 Rain 24 1010 100 8000 2.1 20 10:27 13.02.2020
2824 Rain 24 1010 100 8000 2.1 20 09:51 13.02.2020
2825 Rain 24 1010 100 8000 4.1 20 09:26 13.02.2020
2826 Rain 24 1010 100 8000 4.1 20 09:26 13.02.2020
2827 Clouds 25 1000 94 10000 3.1 20 08:52 13.02.2020
2828 Clouds 25 1000 94 10000 3.1 20 08:21 13.02.2020
2829 Clouds 25 1000 94 10000 3.1 20 07:57 13.02.2020
2830 Rain 24 1011 100 8000 4.1 10 07:38 13.02.2020
2831 Rain 24 1011 100 8000 4.1 10 07:38 13.02.2020
2832 Rain 24 1011 100 8000 4.1 10 07:20 13.02.2020
2833 Rain 24 1011 100 8000 4.1 10 06:44 13.02.2020
2834 Rain 24 1012 100 5000 5.1 20 06:18 13.02.2020
2835 Clouds 26 1012 94 10000 3.1 20 05:25 13.02.2020
2836 Clouds 26 1012 94 10000 1 80 04:25 13.02.2020
2837 Thunderstorm 25 1012 100 10000 1 80 03:47 13.02.2020
2838 Thunderstorm 25 1012 100 10000 1 80 03:18 13.02.2020
2839 Thunderstorm 25 1011 100 10000 1 80 02:45 13.02.2020
2840 Thunderstorm 25 1011 100 10000 1 80 02:19 13.02.2020
2841 Thunderstorm 25 1010 94 10000 1 90 01:28 13.02.2020
2842 Thunderstorm 25 1010 94 10000 3.1 30 00:32 13.02.2020
2843 Thunderstorm 25 1009 88 10000 2.1 360 23:58 12.02.2020
2844 Rain 26 1009 94 8000 4.6 60 23:38 12.02.2020
2845 Rain 26 1009 94 8000 4.6 60 23:19 12.02.2020
2846 Rain 28 1008 79 10000 1.5 70 22:44 12.02.2020
2847 Rain 28 1008 79 10000 1.5 70 22:24 12.02.2020
2848 Rain 27 1008 83 10000 2.6 310 21:58 12.02.2020
2849 Rain 27 1008 83 10000 2.6 310 21:39 12.02.2020
2850 Rain 27 1008 83 10000 2.6 310 21:19 12.02.2020
2851 Rain 27 1008 94 10000 1 180 20:56 12.02.2020
2852 Rain 28 1009 83 10000 3.1 290 20:37 12.02.2020
2853 Rain 28 1009 83 10000 3.1 290 20:18 12.02.2020
2854 Rain 27 1010 78 10000 3.1 250 19:44 12.02.2020
2855 Rain 27 1010 78 10000 3.1 250 19:23 12.02.2020
2856 Rain 27 1012 78 10000 2.6 50 18:54 12.02.2020
2857 Rain 27 1012 78 10000 2.6 50 18:36 12.02.2020
2858 Rain 27 1012 78 10000 2.6 50 18:18 12.02.2020
2859 Rain 26 1013 100 4000 1 330 17:42 12.02.2020
2860 Rain 26 1013 100 4000 1 330 17:20 12.02.2020
2861 Rain 27 1013 88 4000 3.1 30 16:58 12.02.2020
2862 Rain 27 1014 78 10000 3.1 10 16:37 12.02.2020
2863 Rain 27 1014 78 10000 3.1 10 16:18 12.02.2020
2864 Rain 25 1014 100 10000 2.1 300 15:40 12.02.2020
2865 Rain 25 1014 100 10000 2.1 300 15:20 12.02.2020
2866 Rain 25 1014 94 4000 3.6 360 14:54 12.02.2020
2867 Rain 25 1014 94 8000 2.1 20 14:36 12.02.2020
2868 Rain 25 1014 94 8000 2.1 20 14:18 12.02.2020
2869 Clouds 25 1014 94 10000 2.1 40 13:55 12.02.2020
2870 Rain 25 1013 94 7000 2.6 30 13:37 12.02.2020
2871 Rain 25 1013 94 7000 2.6 30 13:18 12.02.2020
2872 Rain 25 1012 94 9000 2.6 240 12:55 12.02.2020
2873 Rain 25 1012 94 9000 2.6 240 12:36 12.02.2020
2874 Rain 25 1012 94 9000 2.6 240 12:18 12.02.2020
2875 Rain 25 1012 94 9000 2.6 240 11:42 12.02.2020
2876 Rain 25 1011 100 8000 2.6 20 11:21 12.02.2020
2877 Clouds 25 1011 100 10000 0.5 90 10:59 12.02.2020
2878 Clouds 25 1011 100 10000 0.5 90 10:41 12.02.2020
2879 Clouds 25 1011 100 10000 0.5 90 10:21 12.02.2020
2880 Clouds 25 1011 100 10000 0.5 90 10:21 12.02.2020
2881 Clouds 25 1011 100 10000 0.5 70 09:57 12.02.2020
2882 Clouds 25 1011 100 10000 0.5 70 09:39 12.02.2020
2883 Clouds 25 1011 100 10000 0.5 70 09:19 12.02.2020
2884 Clouds 25 1011 100 10000 0.5 70 09:19 12.02.2020
2885 Clouds 25 1011 100 10000 0.5 90 08:55 12.02.2020
2886 Clouds 25 1011 100 10000 0.5 90 08:36 12.02.2020
2887 Clouds 25 1011 100 10000 0.5 90 08:18 12.02.2020
2888 Clouds 25 1011 100 10000 1 40 07:42 12.02.2020
2889 Clouds 25 1011 100 10000 1 40 07:22 12.02.2020
2890 Clouds 25 1012 100 10000 0.5 120 06:52 12.02.2020
2891 Clouds 25 1012 100 10000 0.5 120 06:20 12.02.2020
2892 Clouds 25 1012 100 10000 0.5 330 05:35 12.02.2020
2893 Clouds 25 1012 100 10000 0.5 250 04:56 12.02.2020
2894 Clouds 25 1012 100 10000 0.5 250 04:38 12.02.2020
2895 Clouds 26 1012 94 10000 1 90 03:31 12.02.2020
2896 Clouds 26 1011 94 10000 1.5 190 02:58 12.02.2020
2897 Clouds 26 1011 94 10000 1.5 190 02:28 12.02.2020
2898 Clouds 26 1011 94 10000 0.5 120 01:40 12.02.2020
2899 Clouds 26 1010 94 10000 0.5 120 00:44 12.02.2020
2900 Clouds 26 1010 94 10000 0.5 120 00:25 12.02.2020
2901 Clouds 26 1010 94 10000 0.5 120 23:55 11.02.2020
2902 Rain 26 1009 88 10000 1.5 60 23:36 11.02.2020
2903 Rain 26 1009 88 10000 1.5 60 23:18 11.02.2020
2904 Rain 27 1009 88 8000 1 160 22:42 11.02.2020
2905 Rain 27 1009 88 8000 1 160 22:21 11.02.2020
2906 Rain 27 1010 88 10000 2.6 180 21:57 11.02.2020
2907 Rain 29 1009 88 10000 0.5 160 21:39 11.02.2020
2908 Rain 29 1009 88 10000 0.5 160 21:19 11.02.2020
2909 Rain 29 1010 94 10000 1 140 20:59 11.02.2020
2910 Rain 29 1010 78 4000 4.1 60 20:39 11.02.2020
2911 Rain 29 1010 78 4000 4.1 60 20:20 11.02.2020
2912 Clouds 30 1011 66 10000 3.1 40 19:58 11.02.2020
2913 Clouds 30 1011 66 10000 3.1 40 19:40 11.02.2020
2914 Clouds 30 1011 66 10000 3.1 40 19:22 11.02.2020
2915 Clouds 29 1013 74 10000 3.1 30 18:46 11.02.2020
2916 Clouds 29 1013 74 10000 3.1 30 18:28 11.02.2020
2917 Clouds 28 1013 74 10000 3.1 30 17:57 11.02.2020
2918 Rain 26 1014 88 6000 4.1 350 17:39 11.02.2020
2919 Rain 26 1014 88 6000 4.1 350 17:19 11.02.2020
2920 Rain 26 1014 88 6000 4.1 350 16:58 11.02.2020
2921 Rain 28 1015 83 3000 3.6 50 16:39 11.02.2020
2922 Rain 28 1015 83 3000 3.6 50 16:21 11.02.2020
2923 Clouds 27 1015 78 10000 4.6 40 15:58 11.02.2020
2924 Clouds 27 1015 78 10000 4.6 40 15:39 11.02.2020
2925 Clouds 27 1015 78 10000 4.6 40 15:21 11.02.2020
2926 Clouds 27 1014 83 10000 3.6 30 14:42 11.02.2020
2927 Clouds 27 1014 83 10000 3.6 30 14:19 11.02.2020
2928 Clouds 26 1014 83 10000 3.6 30 13:56 11.02.2020
2929 Clouds 25 1014 94 10000 2.6 60 13:38 11.02.2020
2930 Clouds 25 1014 94 10000 2.6 60 13:19 11.02.2020
2931 Rain 25 1013 94 5000 3.1 70 12:41 11.02.2020
2932 Rain 25 1013 94 5000 3.1 70 12:22 11.02.2020
2933 Rain 25 1013 94 5000 3.1 70 12:22 11.02.2020
2934 Clouds 26 1012 88 10000 2.6 70 11:59 11.02.2020
2935 Clouds 26 1012 88 10000 2.6 70 11:40 11.02.2020
2936 Clouds 26 1012 88 10000 2.6 70 11:19 11.02.2020
2937 Clouds 26 1012 88 10000 2.6 70 11:19 11.02.2020
2938 Clouds 26 1012 88 10000 1 70 10:54 11.02.2020
2939 Clouds 26 1012 88 10000 1 70 10:36 11.02.2020
2940 Clouds 26 1012 88 10000 1 70 10:18 11.02.2020
2941 Clouds 26 1012 83 10000 2.1 40 09:42 11.02.2020
2942 Clouds 26 1012 83 10000 2.1 40 09:22 11.02.2020
2943 Clouds 26 1012 83 10000 1.5 70 08:55 11.02.2020
2944 Clouds 26 1012 83 10000 1.5 70 08:37 11.02.2020
2945 Clouds 26 1012 83 10000 1.5 70 08:18 11.02.2020
2946 Clouds 26 1012 83 10000 1.5 70 07:41 11.02.2020
2947 Clouds 26 1012 83 10000 1.5 70 07:19 11.02.2020
2948 Clouds 26 1012 83 10000 1.5 70 07:19 11.02.2020
2949 Clouds 26 1013 83 10000 2.1 70 06:40 11.02.2020
2950 Clouds 26 1013 83 10000 2.1 70 06:20 11.02.2020
2951 Clouds 26 1013 78 10000 2.6 40 05:47 11.02.2020
2952 Clouds 26 1013 78 10000 2.6 40 05:47 11.02.2020
2953 Clouds 26 1013 78 10000 2.6 40 05:20 11.02.2020
2954 Clouds 26 1013 78 10000 1.5 40 04:34 11.02.2020
2955 Clouds 26 1013 78 10000 2.6 40 02:40 11.02.2020
2956 Clouds 26 1013 78 10000 2.6 40 02:22 11.02.2020
2957 Clouds 26 1012 83 10000 2.6 40 01:32 11.02.2020
2958 Clouds 26 1011 88 10000 2.6 20 00:28 11.02.2020
2959 Rain 25 1011 88 8000 6.2 20 23:50 10.02.2020
2960 Rain 25 1011 88 8000 6.2 20 23:30 10.02.2020
2961 Rain 30 1010 70 10000 3.1 70 22:58 10.02.2020
2962 Rain 30 1010 70 10000 3.1 70 22:58 10.02.2020
2963 Rain 30 1010 70 10000 3.1 70 22:38 10.02.2020
2964 Rain 30 1010 70 10000 3.1 70 22:19 10.02.2020
2965 Clouds 31 1010 62 10000 3.1 70 21:41 10.02.2020
2966 Clouds 31 1010 62 10000 3.1 70 21:23 10.02.2020
2967 Clouds 32 1011 59 10000 4.1 80 20:56 10.02.2020
2968 Clouds 32 1011 59 10000 4.1 80 20:38 10.02.2020
2969 Clouds 32 1011 59 10000 4.1 80 20:20 10.02.2020
2970 Clouds 31 1011 59 10000 4.1 80 19:58 10.02.2020
2971 Clouds 31 1012 62 10000 3.1 70 19:37 10.02.2020
2972 Clouds 31 1012 62 10000 3.1 70 19:18 10.02.2020
2973 Clouds 31 1013 62 10000 4.6 70 18:58 10.02.2020
2974 Clouds 31 1013 62 10000 4.6 70 18:58 10.02.2020
2975 Clouds 31 1013 62 10000 4.6 70 18:39 10.02.2020
2976 Clouds 31 1013 62 10000 4.6 70 18:20 10.02.2020
2977 Clouds 31 1013 62 10000 4.6 70 17:56 10.02.2020
2978 Clouds 31 1013 66 10000 4.1 80 17:37 10.02.2020
2979 Clouds 31 1013 66 10000 4.1 80 17:37 10.02.2020
2980 Clouds 31 1013 66 10000 4.1 80 17:18 10.02.2020
2981 Clouds 31 1014 70 10000 4.6 70 16:56 10.02.2020
2982 Clouds 31 1014 70 10000 4.6 70 16:38 10.02.2020
2983 Clouds 31 1014 70 10000 4.6 70 16:18 10.02.2020
2984 Clouds 30 1015 74 10000 3.6 70 15:42 10.02.2020
2985 Clouds 30 1015 74 10000 3.6 70 15:22 10.02.2020
2986 Clouds 29 1015 78 10000 4.1 60 14:59 10.02.2020
2987 Clouds 29 1015 78 10000 4.1 60 14:41 10.02.2020
2988 Clouds 29 1015 78 10000 4.1 60 14:19 10.02.2020
2989 Clouds 27 1014 83 10000 2.1 60 13:56 10.02.2020
2990 Clouds 27 1014 83 10000 2.1 60 13:37 10.02.2020
2991 Clouds 27 1014 83 10000 2.1 60 13:18 10.02.2020
2992 Clouds 25 1013 94 10000 1.5 60 12:43 10.02.2020
2993 Clouds 25 1013 94 10000 1.5 60 12:43 10.02.2020
2994 Clouds 25 1013 94 10000 1.5 60 12:24 10.02.2020
2995 Clouds 25 1013 94 10000 1.5 60 11:54 10.02.2020
2996 Clouds 25 1012 88 10000 3.1 60 11:36 10.02.2020
2997 Clouds 25 1012 88 10000 3.1 60 11:18 10.02.2020
2998 Clouds 25 1012 88 10000 3.6 240 10:44 10.02.2020
2999 Clouds 25 1012 88 10000 3.6 240 10:26 10.02.2020
3000 Clouds 25 1013 88 10000 3.1 220 09:45 10.02.2020
3001 Clouds 25 1013 88 10000 3.1 220 09:24 10.02.2020
3002 Clouds 25 1013 88 10000 2.6 90 08:43 10.02.2020
3003 Clouds 25 1013 88 10000 2.6 90 08:22 10.02.2020
3004 Clouds 26 1014 83 10000 3.1 240 07:57 10.02.2020
3005 Clouds 26 1014 83 10000 3.1 240 07:36 10.02.2020
3006 Clouds 26 1014 83 10000 3.6 60 06:58 10.02.2020
3007 Clouds 26 1013 83 10000 2.1 360 05:41 10.02.2020
3008 Clouds 27 1013 78 10000 4.6 40 04:23 10.02.2020
3009 Clouds 27 1013 78 10000 3.6 60 03:28 10.02.2020
3010 Clouds 28 1013 78 10000 5.7 50 02:53 10.02.2020
3011 Clouds 28 1012 78 10000 4.6 70 01:34 10.02.2020
3012 Clouds 28 1011 74 10000 4.1 70 00:46 10.02.2020
3013 Clouds 28 1011 74 10000 4.1 70 00:27 10.02.2020
3014 Clouds 29 1011 74 10000 3.6 70 23:43 09.02.2020
3015 Clouds 29 1011 74 10000 3.6 70 23:24 09.02.2020
3016 Rain 30 1010 74 10000 4.1 80 22:54 09.02.2020
3017 Rain 30 1010 74 10000 4.1 80 22:54 09.02.2020
3018 Rain 30 1010 74 10000 4.1 80 22:54 09.02.2020
3019 Rain 30 1010 74 10000 4.1 80 22:36 09.02.2020
3020 Rain 30 1010 74 10000 4.1 80 22:18 09.02.2020
3021 Rain 31 1010 59 10000 3.1 70 21:41 09.02.2020
3022 Rain 31 1010 59 10000 3.1 70 21:22 09.02.2020
3023 Clouds 33 1011 59 10000 2.1 90 20:46 09.02.2020
3024 Clouds 33 1011 59 10000 2.1 90 20:23 09.02.2020
3025 Clouds 33 1011 55 10000 2.1 100 19:57 09.02.2020
3026 Clouds 33 1011 55 10000 2.1 100 19:57 09.02.2020
3027 Clouds 33 1011 55 10000 2.1 100 19:38 09.02.2020
3028 Clouds 33 1011 55 10000 2.1 100 19:20 09.02.2020
3029 Clouds 32 1011 52 10000 3.6 360 18:42 09.02.2020
3030 Clouds 33 1013 59 10000 2.6 80 18:23 09.02.2020
3031 Clouds 32 1013 59 10000 2.6 80 17:59 09.02.2020
3032 Clouds 31 1013 70 10000 2.6 70 17:39 09.02.2020
3033 Clouds 31 1013 70 10000 2.6 70 17:21 09.02.2020
3034 Clouds 32 1014 62 10000 4.1 50 16:41 09.02.2020
3035 Clouds 32 1014 62 10000 4.1 50 16:22 09.02.2020
3036 Clouds 30 1015 74 10000 3.6 70 15:59 09.02.2020
3037 Clouds 30 1015 74 10000 3.6 70 15:59 09.02.2020
3038 Clouds 30 1015 74 10000 3.6 70 15:41 09.02.2020
3039 Clouds 30 1015 74 10000 3.6 70 15:21 09.02.2020
3040 Clouds 28 1015 78 10000 3.1 80 14:57 09.02.2020
3041 Clouds 28 1015 78 10000 3.1 80 14:38 09.02.2020
3042 Clouds 28 1015 78 10000 3.1 80 14:20 09.02.2020
3043 Clouds 27 1014 83 10000 2.6 80 13:43 09.02.2020
3044 Clouds 27 1014 83 10000 2.6 80 13:25 09.02.2020
3045 Clouds 26 1013 94 10000 1.5 70 12:56 09.02.2020
3046 Clouds 26 1013 94 10000 1.5 70 12:37 09.02.2020
3047 Clouds 26 1013 94 10000 1.5 70 12:18 09.02.2020
3048 Clouds 26 1012 88 10000 1 40 11:41 09.02.2020
3049 Clouds 26 1012 88 10000 1 40 11:20 09.02.2020
3050 Clouds 26 1011 83 10000 1 40 10:57 09.02.2020
3051 Clouds 26 1011 83 10000 1 40 10:38 09.02.2020
3052 Clouds 26 1011 83 10000 1 40 10:38 09.02.2020
3053 Clouds 26 1011 83 10000 1 40 10:19 09.02.2020
3054 Clouds 25 1010 83 10000 1 30 09:41 09.02.2020
3055 Clouds 25 1010 83 10000 1 30 09:21 09.02.2020
3056 Clouds 25 1010 78 10000 1.5 10 08:44 09.02.2020
3057 Clouds 25 1010 78 10000 1.5 10 08:26 09.02.2020
3058 Clouds 26 1011 78 10000 1 30 07:57 09.02.2020
3059 Clouds 26 1011 78 10000 1 30 07:34 09.02.2020
3060 Clouds 26 1011 78 10000 1 40 06:45 09.02.2020
3061 Clouds 27 1012 74 10000 1.5 20 05:57 09.02.2020
3062 Clouds 27 1012 74 10000 1.5 20 05:35 09.02.2020
3063 Clouds 27 1012 74 10000 1.5 20 04:52 09.02.2020
3064 Clouds 28 1012 70 10000 1 360 03:30 09.02.2020
3065 Clouds 27 1012 66 10000 3.1 360 02:43 09.02.2020
3066 Clouds 28 1011 66 10000 1.5 10 01:45 09.02.2020
3067 Clouds 28 1011 66 10000 1.5 10 01:27 09.02.2020
3068 Clouds 29 1010 62 10000 2.1 20 00:38 09.02.2020
3069 Clouds 29 1010 62 10000 2.1 20 00:18 09.02.2020
3070 Clouds 30 1009 62 10000 2.6 30 23:41 08.02.2020
3071 Clouds 30 1009 62 10000 2.6 30 23:19 08.02.2020
3072 Clouds 31 1009 58 10000 3.6 30 22:40 08.02.2020
3073 Clouds 31 1009 58 10000 3.6 30 22:21 08.02.2020
3074 Clouds 31 1009 74 10000 1 110 21:54 08.02.2020
3075 Clouds 31 1009 74 10000 1 110 21:36 08.02.2020
3076 Clouds 31 1009 74 10000 1 110 21:18 08.02.2020
3077 Clouds 31 1010 62 10000 2.1 30 20:54 08.02.2020
3078 Clouds 31 1010 62 10000 2.1 30 20:54 08.02.2020
3079 Clouds 31 1010 62 10000 2.1 30 20:36 08.02.2020
3080 Clouds 31 1010 62 10000 2.1 30 20:18 08.02.2020
3081 Clouds 31 1011 58 10000 3.1 360 19:40 08.02.2020
3082 Clouds 31 1011 58 10000 3.1 360 19:20 08.02.2020
3083 Clouds 31 1012 58 10000 3.1 10 18:58 08.02.2020
3084 Clouds 31 1012 58 10000 3.1 10 18:39 08.02.2020
3085 Clouds 31 1012 58 10000 3.1 10 18:21 08.02.2020
3086 Clouds 31 1012 58 10000 3.1 10 17:42 08.02.2020
3087 Clouds 31 1012 58 10000 3.1 10 17:42 08.02.2020
3088 Clouds 31 1013 58 10000 4.1 30 17:21 08.02.2020
3089 Rain 31 1013 55 10000 3.1 40 16:56 08.02.2020
3090 Rain 31 1013 55 10000 3.1 40 16:37 08.02.2020
3091 Rain 31 1013 55 10000 3.1 40 16:18 08.02.2020
3092 Rain 29 1013 66 10000 2.1 50 15:40 08.02.2020
3093 Rain 29 1013 66 10000 2.1 50 15:18 08.02.2020
3094 Rain 27 1013 78 10000 2.37 17 14:46 08.02.2020
3095 Rain 27 1013 78 10000 2.37 17 14:24 08.02.2020
3096 Clouds 26 1012 74 10000 1 50 13:59 08.02.2020
3097 Clouds 26 1012 74 10000 1 50 13:41 08.02.2020
3098 Clouds 26 1012 74 10000 1 50 13:23 08.02.2020
3099 Clouds 25 1012 88 10000 1 360 12:49 08.02.2020
3100 Clouds 25 1012 88 10000 1 360 12:49 08.02.2020
3101 Clouds 25 1011 78 10000 2.1 30 12:24 08.02.2020
3102 Clouds 25 1011 78 10000 2.1 30 11:59 08.02.2020
3103 Clouds 25 1011 78 10000 2.1 30 11:40 08.02.2020
3104 Clouds 25 1011 78 10000 2.1 30 11:20 08.02.2020
3105 Clouds 25 1011 74 10000 1.5 40 10:43 08.02.2020
3106 Clouds 25 1011 74 10000 1.5 40 10:43 08.02.2020
3107 Clouds 25 1011 74 10000 1.5 40 10:23 08.02.2020
3108 Clouds 26 1010 78 10000 2.1 60 09:53 08.02.2020
3109 Clouds 26 1010 78 10000 2.1 60 09:29 08.02.2020
3110 Clouds 25 1011 94 10000 0.5 240 08:57 08.02.2020
3111 Clouds 26 1010 74 10000 1.5 20 08:38 08.02.2020
3112 Clouds 26 1010 74 10000 1.5 20 08:20 08.02.2020
3113 Clouds 26 1011 74 10000 1.5 340 07:48 08.02.2020
3114 Clouds 26 1011 74 10000 1.5 340 07:30 08.02.2020
3115 Clouds 26 1011 74 10000 2.6 10 06:30 08.02.2020
3116 Clouds 27 1012 69 10000 2.1 20 05:49 08.02.2020
3117 Clouds 27 1012 69 10000 2.1 20 05:30 08.02.2020
3118 Clouds 27 1012 69 10000 3.1 360 04:50 08.02.2020
3119 Clouds 27 1012 74 10000 1.5 360 03:53 08.02.2020
3120 Clouds 27 1011 74 10000 2.1 320 02:52 08.02.2020
3121 Clouds 28 1011 66 10000 2.6 330 01:55 08.02.2020
3122 Clouds 28 1011 66 10000 2.6 330 01:26 08.02.2020
3123 Clouds 28 1010 66 10000 2.1 350 00:44 08.02.2020
3124 Clouds 28 1010 66 10000 2.1 350 00:22 08.02.2020
3125 Clouds 29 1010 66 10000 2.1 350 23:55 07.02.2020
3126 Clouds 29 1010 66 10000 2.6 350 23:37 07.02.2020
3127 Clouds 29 1010 66 10000 2.6 350 23:18 07.02.2020
3128 Clouds 29 1010 66 10000 3.6 350 22:39 07.02.2020
3129 Clouds 29 1010 66 10000 3.6 350 22:19 07.02.2020
3130 Clouds 29 1010 66 10000 3.6 350 21:43 07.02.2020
3131 Clouds 29 1010 66 10000 3.6 350 21:22 07.02.2020
3132 Clouds 29 1010 66 10000 3.6 350 20:57 07.02.2020
3133 Clouds 29 1010 66 10000 4.1 350 20:38 07.02.2020
3134 Clouds 29 1010 66 10000 4.1 350 20:18 07.02.2020
3135 Clouds 30 1010 55 10000 4.1 10 19:40 07.02.2020
3136 Clouds 30 1010 55 10000 4.1 10 19:21 07.02.2020
3137 Clouds 30 1011 62 10000 3.6 320 18:56 07.02.2020
3138 Clouds 31 1011 55 10000 3.6 360 18:38 07.02.2020
3139 Clouds 31 1011 55 10000 3.6 360 18:19 07.02.2020
3140 Clouds 31 1011 55 10000 3.6 360 17:43 07.02.2020
3141 Clouds 32 1012 52 10000 4.6 350 17:22 07.02.2020
3142 Clouds 31 1012 52 10000 4.6 350 16:55 07.02.2020
3143 Clouds 31 1013 52 10000 5.1 350 16:37 07.02.2020
3144 Clouds 31 1013 52 10000 5.1 350 16:19 07.02.2020
3145 Clouds 30 1013 55 10000 4.6 360 15:44 07.02.2020
3146 Clouds 30 1013 55 10000 4.6 360 15:21 07.02.2020
3147 Clouds 29 1013 55 10000 4.6 360 14:44 07.02.2020
3148 Clouds 28 1013 62 10000 3.6 10 14:26 07.02.2020
3149 Clouds 27 1013 62 10000 3.6 10 13:58 07.02.2020
3150 Clouds 26 1012 74 10000 2.1 10 13:39 07.02.2020
3151 Clouds 26 1012 74 10000 2.1 10 13:39 07.02.2020
3152 Clouds 26 1012 74 10000 2.1 10 13:21 07.02.2020
3153 Clouds 25 1011 69 10000 2.1 350 12:55 07.02.2020
3154 Clouds 25 1011 69 10000 2.1 350 12:55 07.02.2020
3155 Clouds 25 1011 69 10000 2.1 350 12:36 07.02.2020
3156 Clouds 25 1011 69 10000 2.1 350 12:18 07.02.2020
3157 Clouds 24 1011 78 10000 1.5 20 11:41 07.02.2020
3158 Clouds 24 1011 78 10000 1.5 20 11:20 07.02.2020
3159 Clouds 24 1011 94 10000 1 130 10:41 07.02.2020
3160 Clouds 24 1011 94 10000 1 130 10:22 07.02.2020
3161 Clouds 24 1011 94 10000 1 140 09:56 07.02.2020
3162 Clouds 24 1011 94 10000 1 140 09:37 07.02.2020
3163 Clouds 24 1011 94 10000 1 140 09:19 07.02.2020
3164 Clouds 25 1011 94 10000 1.5 120 08:42 07.02.2020
3165 Clouds 25 1011 94 10000 1.5 120 08:20 07.02.2020
3166 Clouds 25 1011 94 10000 0.5 120 07:44 07.02.2020
3167 Clouds 25 1011 94 10000 0.5 120 07:26 07.02.2020
3168 Clouds 25 1011 94 10000 1 120 06:45 07.02.2020
3169 Clouds 25 1011 94 10000 1 120 06:25 07.02.2020
3170 Clouds 25 1012 94 10000 1 110 05:44 07.02.2020
3171 Clouds 26 1012 94 10000 0.5 110 04:33 07.02.2020
3172 Clouds 26 1011 94 10000 0.5 190 02:33 07.02.2020
3173 Clouds 26 1010 100 10000 1 230 01:37 07.02.2020
3174 Clouds 27 1010 94 10000 1 160 00:45 07.02.2020
3175 Clouds 27 1010 94 10000 1 160 00:18 07.02.2020
3176 Clouds 28 1009 94 10000 1 150 23:37 06.02.2020
3177 Clouds 28 1009 94 10000 1 150 23:18 06.02.2020
3178 Clouds 29 1009 88 10000 1 150 22:44 06.02.2020
3179 Clouds 29 1009 88 10000 1 150 22:24 06.02.2020
3180 Rain 29 1009 83 10000 1.5 180 21:38 06.02.2020
3181 Rain 29 1009 83 10000 1.5 180 21:19 06.02.2020
3182 Rain 28 1010 94 10000 1.5 80 20:58 06.02.2020
3183 Rain 28 1010 94 10000 1.5 80 20:39 06.02.2020
3184 Rain 28 1010 94 10000 1.5 80 20:19 06.02.2020
3185 Rain 32 1010 59 10000 4.1 40 19:58 06.02.2020
3186 Rain 32 1010 59 10000 4.1 40 19:40 06.02.2020
3187 Rain 32 1010 59 10000 4.1 40 19:21 06.02.2020
3188 Clouds 30 1011 66 10000 4.6 30 18:58 06.02.2020
3189 Clouds 30 1011 66 10000 4.6 30 18:39 06.02.2020
3190 Clouds 30 1011 66 10000 4.6 30 18:20 06.02.2020
3191 Clouds 29 1012 70 10000 3.6 60 17:42 06.02.2020
3192 Clouds 29 1012 70 10000 3.6 60 17:21 06.02.2020
3193 Clouds 29 1013 70 10000 3.1 70 16:57 06.02.2020
3194 Clouds 29 1013 70 10000 3.1 70 16:39 06.02.2020
3195 Clouds 29 1013 70 10000 3.1 70 16:20 06.02.2020
3196 Clouds 29 1014 70 10000 3.6 60 15:42 06.02.2020
3197 Clouds 29 1014 70 10000 3.6 60 15:21 06.02.2020
3198 Clouds 28 1013 74 10000 3.1 60 14:48 06.02.2020
3199 Clouds 28 1013 74 10000 3.1 60 14:26 06.02.2020
3200 Clouds 27 1013 78 10000 2.1 60 13:55 06.02.2020
3201 Clouds 27 1013 78 10000 2.1 60 13:36 06.02.2020
3202 Clouds 27 1013 78 10000 2.1 60 13:18 06.02.2020
3203 Clouds 26 1013 78 10000 2.1 60 12:43 06.02.2020
3204 Clouds 25 1012 88 10000 1.5 60 12:18 06.02.2020
3205 Clouds 25 1011 88 10000 1.5 70 11:56 06.02.2020
3206 Clouds 25 1011 88 10000 1.5 70 11:37 06.02.2020
3207 Clouds 25 1011 88 10000 1.5 70 11:18 06.02.2020
3208 Clouds 25 1011 100 10000 1.5 70 10:41 06.02.2020
3209 Clouds 25 1011 100 10000 1.5 70 10:22 06.02.2020
3210 Clouds 25 1010 100 10000 1 80 09:59 06.02.2020
3211 Clouds 25 1010 100 10000 1 80 09:41 06.02.2020
3212 Clouds 25 1010 100 10000 1 80 09:20 06.02.2020
3213 Clouds 25 1010 100 10000 1 80 08:46 06.02.2020
3214 Clouds 25 1010 100 10000 1 90 08:24 06.02.2020
3215 Clouds 25 1010 100 10000 1 90 07:56 06.02.2020
3216 Clouds 25 1010 94 10000 1.61 67 07:32 06.02.2020
3217 Clouds 25 1010 94 10000 1.61 67 06:53 06.02.2020
3218 Clouds 25 1011 100 10000 1 90 06:19 06.02.2020
3219 Clouds 26 1012 94 10000 1.5 80 05:33 06.02.2020
3220 Clouds 25 1011 94 10000 1 80 03:49 06.02.2020
3221 Clouds 25 1011 94 10000 1 80 03:18 06.02.2020
3222 Clouds 27 1010 78 10000 2.1 40 01:57 06.02.2020
3223 Clouds 27 1010 78 10000 2.1 40 01:24 06.02.2020
3224 Clouds 26 1009 78 10000 2.1 30 00:38 06.02.2020
3225 Clouds 26 1009 78 10000 2.1 30 00:19 06.02.2020
3226 Rain 27 1009 78 10000 2.6 30 23:40 05.02.2020
3227 Rain 27 1009 78 10000 2.6 30 23:22 05.02.2020
3228 Rain 26 1009 83 9000 5.1 50 22:41 05.02.2020
3229 Rain 26 1009 83 9000 5.1 50 22:23 05.02.2020
3230 Rain 25 1009 94 10000 3.1 20 21:58 05.02.2020
3231 Rain 31 1009 66 10000 2.6 20 21:40 05.02.2020
3232 Rain 31 1009 66 10000 2.6 20 21:22 05.02.2020
3233 Clouds 31 1010 70 10000 3.6 70 20:39 05.02.2020
3234 Clouds 31 1010 70 10000 3.6 70 20:21 05.02.2020
3235 Rain 30 1011 79 10000 1.5 90 19:59 05.02.2020
3236 Rain 30 1011 79 10000 1.5 90 19:41 05.02.2020
3237 Rain 30 1011 79 10000 1.5 90 19:19 05.02.2020
3238 Rain 30 1012 70 10000 2.6 50 18:57 05.02.2020
3239 Rain 30 1012 70 10000 2.6 50 18:39 05.02.2020
3240 Rain 30 1012 70 10000 2.6 50 18:19 05.02.2020
3241 Rain 30 1013 74 10000 3.1 70 17:39 05.02.2020
3242 Rain 30 1013 74 10000 3.1 70 17:20 05.02.2020
3243 Rain 29 1013 74 10000 3.1 70 16:57 05.02.2020
3244 Clouds 29 1014 78 10000 3.1 80 16:39 05.02.2020
3245 Clouds 29 1014 78 10000 3.1 80 16:20 05.02.2020
3246 Clouds 29 1014 70 10000 3.6 50 15:46 05.02.2020
3247 Clouds 29 1014 70 10000 3.6 50 15:20 05.02.2020
3248 Clouds 28 1014 83 10000 1 80 14:59 05.02.2020
3249 Clouds 28 1014 83 10000 1 80 14:59 05.02.2020
3250 Clouds 28 1014 83 10000 1 80 14:40 05.02.2020
3251 Clouds 28 1014 83 10000 1 80 14:21 05.02.2020
3252 Clouds 27 1013 88 10000 1 220 13:43 05.02.2020
3253 Clouds 27 1013 88 10000 1 220 13:23 05.02.2020
3254 Clouds 26 1013 88 10000 1 220 12:58 05.02.2020
3255 Clouds 25 1012 94 10000 1.5 250 12:36 05.02.2020
3256 Clouds 25 1012 94 10000 1.5 250 12:18 05.02.2020
3257 Clouds 25 1011 94 10000 1.5 60 11:41 05.02.2020
3258 Clouds 25 1011 94 10000 1.5 60 11:22 05.02.2020
3259 Clouds 24 1012 100 10000 2.6 240 10:57 05.02.2020
3260 Clouds 24 1012 100 10000 2.6 240 10:39 05.02.2020
3261 Clouds 24 1012 100 10000 2.6 240 10:39 05.02.2020
3262 Clouds 24 1012 100 10000 2.6 240 10:18 05.02.2020
3263 Clouds 25 1012 94 10000 1.5 300 09:39 05.02.2020
3264 Clouds 25 1012 94 10000 1.5 300 09:21 05.02.2020
3265 Clouds 25 1012 94 10000 2.1 220 08:49 05.02.2020
3266 Clouds 25 1012 94 10000 2.1 220 08:26 05.02.2020
3267 Clouds 25 1012 88 10000 1.5 330 07:58 05.02.2020
3268 Clouds 25 1012 88 10000 1.5 330 07:39 05.02.2020
3269 Clouds 25 1012 88 10000 1.5 330 07:18 05.02.2020
3270 Clouds 25 1012 94 10000 2.6 220 06:39 05.02.2020
3271 Clouds 25 1012 94 10000 2.6 220 06:20 05.02.2020
3272 Clouds 25 1013 94 10000 1 100 05:20 05.02.2020
3273 Clouds 25 1013 94 10000 1 100 04:58 05.02.2020
3274 Rain 25 1013 94 9000 1 220 04:22 05.02.2020
3275 Thunderstorm 26 1014 83 2000 5.1 30 02:42 05.02.2020
3276 Clouds 27 1013 83 10000 5.1 40 02:20 05.02.2020
3277 Clouds 26 1011 94 10000 1 170 01:25 05.02.2020
3278 Clouds 26 1010 88 10000 1 130 00:21 05.02.2020
3279 Rain 27 1010 78 10000 1 190 23:40 04.02.2020
3280 Rain 27 1010 78 10000 1 190 23:19 04.02.2020
3281 Rain 27 1010 78 10000 1 190 23:19 04.02.2020
3282 Rain 27 1010 78 10000 1 190 22:57 04.02.2020
3283 Rain 27 1010 78 10000 1 190 22:57 04.02.2020
3284 Rain 27 1009 78 10000 4.6 60 22:39 04.02.2020
3285 Rain 27 1009 78 10000 4.6 60 22:20 04.02.2020
3286 Rain 29 1009 83 10000 4.1 20 21:54 04.02.2020
3287 Rain 32 1009 62 10000 2.1 80 21:36 04.02.2020
3288 Rain 32 1009 62 10000 2.1 80 21:18 04.02.2020
3289 Clouds 33 1009 59 10000 4.1 50 20:44 04.02.2020
3290 Clouds 33 1009 59 10000 4.1 50 20:21 04.02.2020
3291 Clouds 33 1009 52 10000 4.1 320 19:59 04.02.2020
3292 Clouds 32 1010 59 10000 3.6 60 19:40 04.02.2020
3293 Clouds 32 1010 59 10000 3.6 60 19:22 04.02.2020
3294 Clouds 33 1012 59 10000 3.6 40 18:56 04.02.2020
3295 Clouds 33 1012 59 10000 3.6 40 18:38 04.02.2020
3296 Clouds 33 1012 59 10000 3.6 40 18:19 04.02.2020
3297 Clouds 32 1013 62 10000 3.6 30 17:43 04.02.2020
3298 Clouds 32 1013 62 10000 3.6 30 17:21 04.02.2020
3299 Clouds 30 1014 66 10000 4.6 50 16:57 04.02.2020
3300 Clouds 30 1014 66 10000 4.6 50 16:38 04.02.2020
3301 Clouds 30 1014 66 10000 4.6 50 16:19 04.02.2020
3302 Clouds 30 1014 66 10000 4.1 30 15:56 04.02.2020
3303 Clouds 30 1014 66 10000 4.1 30 15:56 04.02.2020
3304 Clouds 30 1014 66 10000 4.1 30 15:38 04.02.2020
3305 Clouds 30 1014 66 10000 4.1 30 15:19 04.02.2020
3306 Rain 29 1014 58 10000 5.7 20 14:42 04.02.2020
3307 Rain 29 1014 58 10000 5.7 20 14:23 04.02.2020
3308 Rain 29 1014 58 10000 5.7 20 14:23 04.02.2020
3309 Clouds 28 1014 74 10000 3.1 20 13:57 04.02.2020
3310 Clouds 28 1014 74 10000 3.1 20 13:39 04.02.2020
3311 Clouds 28 1014 74 10000 3.1 20 13:20 04.02.2020
3312 Clouds 26 1013 78 10000 2.6 30 12:44 04.02.2020
3313 Clouds 26 1013 78 10000 2.6 30 12:25 04.02.2020
3314 Clouds 26 1013 78 10000 2.6 30 11:58 04.02.2020
3315 Clouds 26 1012 78 10000 2.6 10 11:39 04.02.2020
3316 Clouds 26 1012 78 10000 2.6 10 11:20 04.02.2020
3317 Clouds 26 1011 78 10000 2.1 20 10:50 04.02.2020
3318 Clouds 26 1011 78 10000 2.1 20 10:30 04.02.2020
3319 Clouds 26 1011 78 10000 2.1 20 10:30 04.02.2020
3320 Clouds 26 1012 74 10000 1 10 09:58 04.02.2020
3321 Clouds 26 1012 74 10000 1 10 09:40 04.02.2020
3322 Clouds 26 1012 74 10000 1 10 09:21 04.02.2020
3323 Clouds 26 1011 69 10000 1.5 30 08:50 04.02.2020
3324 Clouds 26 1011 69 10000 1.5 30 08:28 04.02.2020
3325 Clouds 26 1011 69 10000 1.5 40 07:57 04.02.2020
3326 Clouds 26 1011 69 10000 1.5 40 07:37 04.02.2020
3327 Clouds 26 1011 69 10000 1.5 40 07:18 04.02.2020
3328 Clouds 26 1012 74 10000 1 10 06:42 04.02.2020
3329 Clouds 27 1012 69 10000 1 20 05:37 04.02.2020
3330 Clouds 27 1013 74 10000 2.6 30 04:41 04.02.2020
3331 Clouds 28 1013 74 10000 2.6 40 03:49 04.02.2020
3332 Clouds 28 1013 74 10000 2.6 40 03:30 04.02.2020
3333 Clouds 28 1012 74 10000 1 60 02:49 04.02.2020
3334 Clouds 28 1012 74 10000 1 60 02:28 04.02.2020
3335 Clouds 29 1011 66 10000 2.1 40 01:47 04.02.2020
3336 Clouds 28 1011 66 10000 2.1 40 01:19 04.02.2020
3337 Clouds 29 1010 66 10000 2.6 30 00:23 04.02.2020
3338 Clouds 30 1010 62 10000 2.6 360 23:55 03.02.2020
3339 Clouds 30 1010 62 10000 2.6 360 23:37 03.02.2020
3340 Clouds 30 1010 62 10000 2.6 360 23:18 03.02.2020
3341 Clouds 31 1009 58 10000 3.1 30 22:39 03.02.2020
3342 Clouds 31 1009 58 10000 3.1 30 22:19 03.02.2020
3343 Clouds 31 1010 58 10000 2.1 40 21:42 03.02.2020
3344 Clouds 31 1010 58 10000 2.1 40 21:20 03.02.2020
3345 Clouds 32 1011 55 10000 3.6 20 20:56 03.02.2020
3346 Clouds 32 1011 55 10000 3.6 20 20:38 03.02.2020
3347 Clouds 32 1011 55 10000 3.6 20 20:18 03.02.2020
3348 Clouds 32 1012 55 10000 3.6 10 19:42 03.02.2020
3349 Clouds 32 1012 55 10000 3.6 10 19:23 03.02.2020
3350 Clouds 32 1013 59 10000 1.5 10 18:59 03.02.2020
3351 Clouds 32 1013 59 10000 1.5 10 18:40 03.02.2020
3352 Clouds 32 1013 59 10000 1.5 10 18:21 03.02.2020
3353 Clouds 31 1014 62 10000 2.1 40 17:57 03.02.2020
3354 Clouds 31 1014 62 10000 2.1 40 17:39 03.02.2020
3355 Clouds 31 1014 62 10000 2.1 40 17:19 03.02.2020
3356 Clouds 30 1014 62 10000 2.6 350 16:40 03.02.2020
3357 Clouds 30 1014 62 10000 2.6 350 16:21 03.02.2020
3358 Clouds 31 1014 58 10000 3.6 40 15:57 03.02.2020
3359 Clouds 31 1014 58 10000 3.6 40 15:39 03.02.2020
3360 Clouds 31 1014 58 10000 3.6 40 15:20 03.02.2020
3361 Clouds 30 1015 66 10000 3.1 30 14:57 03.02.2020
3362 Clouds 30 1015 66 10000 3.1 30 14:38 03.02.2020
3363 Clouds 30 1015 66 10000 3.1 30 14:19 03.02.2020
3364 Clouds 27 1014 78 10000 1.5 20 13:42 03.02.2020
3365 Clouds 27 1014 78 10000 1.5 20 13:21 03.02.2020
3366 Clouds 26 1013 78 10000 1.5 20 12:58 03.02.2020
3367 Clouds 26 1013 78 10000 1.5 20 12:39 03.02.2020
3368 Clouds 26 1013 78 10000 1.5 20 12:21 03.02.2020
3369 Clouds 26 1013 78 10000 1.5 20 11:55 03.02.2020
3370 Clouds 26 1012 78 10000 1.5 60 11:36 03.02.2020
3371 Clouds 26 1012 78 10000 1.5 60 11:36 03.02.2020
3372 Clouds 26 1012 78 10000 1.5 60 11:18 03.02.2020
3373 Clouds 26 1011 78 10000 1 30 10:40 03.02.2020
3374 Clouds 26 1011 78 10000 1 30 10:21 03.02.2020
3375 Clouds 26 1011 78 10000 1 110 09:44 03.02.2020
3376 Clouds 26 1011 78 10000 1 110 09:21 03.02.2020
3377 Clouds 26 1011 74 10000 1.5 80 08:42 03.02.2020
3378 Clouds 26 1011 74 10000 1.5 80 08:23 03.02.2020
3379 Clouds 26 1012 78 10000 1.5 40 07:59 03.02.2020
3380 Clouds 26 1012 78 10000 1.5 40 07:40 03.02.2020
3381 Clouds 26 1012 78 10000 1.5 40 07:21 03.02.2020
3382 Clouds 26 1012 74 10000 1 10 06:47 03.02.2020
3383 Clouds 26 1012 74 10000 1 10 06:27 03.02.2020
3384 Clouds 26 1013 74 10000 1.5 10 05:36 03.02.2020
3385 Clouds 27 1013 74 10000 1.5 10 04:59 03.02.2020
3386 Clouds 27 1012 83 10000 1.5 340 02:58 03.02.2020
3387 Clouds 28 1012 70 10000 2.1 30 02:34 03.02.2020
3388 Rain 28 1012 70 10000 1.5 30 01:30 03.02.2020
3389 Clouds 29 1010 62 10000 2.6 20 00:46 03.02.2020
3390 Clouds 29 1010 62 10000 2.6 20 00:22 03.02.2020
3391 Clouds 30 1010 66 10000 3.1 30 23:38 02.02.2020
3392 Clouds 30 1010 66 10000 3.1 30 23:20 02.02.2020
3393 Clouds 32 1010 59 10000 3.1 40 22:57 02.02.2020
3394 Clouds 32 1010 59 10000 3.1 40 22:37 02.02.2020
3395 Clouds 32 1010 59 10000 3.1 40 22:37 02.02.2020
3396 Clouds 32 1010 59 10000 3.1 40 22:19 02.02.2020
3397 Clouds 33 1010 52 10000 3.1 50 21:42 02.02.2020
3398 Clouds 33 1010 52 10000 3.1 50 21:24 02.02.2020
3399 Clouds 32 1011 59 10000 3.6 50 20:58 02.02.2020
3400 Clouds 32 1011 59 10000 3.6 50 20:39 02.02.2020
3401 Clouds 32 1011 59 10000 3.6 50 20:21 02.02.2020
3402 Clouds 32 1012 55 10000 5.1 20 19:59 02.02.2020
3403 Clouds 32 1012 55 10000 5.1 20 19:41 02.02.2020
3404 Clouds 32 1012 55 10000 5.1 20 19:41 02.02.2020
3405 Clouds 32 1012 55 10000 5.1 20 19:23 02.02.2020
3406 Clouds 32 1012 55 10000 4.1 350 18:57 02.02.2020
3407 Clouds 32 1013 59 10000 4.6 40 18:38 02.02.2020
3408 Clouds 32 1013 59 10000 4.6 40 18:20 02.02.2020
3409 Clouds 32 1013 62 10000 4.1 40 17:58 02.02.2020
3410 Clouds 32 1013 62 10000 4.1 40 17:38 02.02.2020
3411 Clouds 32 1013 62 10000 4.1 40 17:18 02.02.2020
3412 Clouds 31 1014 62 10000 0.5 50 16:58 02.02.2020
3413 Clouds 31 1014 62 10000 0.5 50 16:38 02.02.2020
3414 Clouds 31 1014 62 10000 0.5 50 16:19 02.02.2020
3415 Clouds 31 1014 62 10000 0.5 50 16:19 02.02.2020
3416 Clouds 30 1014 66 10000 0.5 30 15:57 02.02.2020
3417 Clouds 30 1014 66 10000 0.5 30 15:37 02.02.2020
3418 Clouds 30 1014 66 10000 0.5 30 15:19 02.02.2020
3419 Rain 29 1014 70 10000 4.1 30 14:44 02.02.2020
3420 Rain 29 1014 70 10000 4.1 30 14:19 02.02.2020
3421 Rain 27 1014 83 10000 3.1 20 13:59 02.02.2020
3422 Rain 27 1014 83 10000 3.1 20 13:41 02.02.2020
3423 Rain 27 1014 83 10000 3.1 20 13:21 02.02.2020
3424 Rain 27 1014 83 10000 3.1 20 13:21 02.02.2020
3425 Rain 25 1013 94 10000 2.1 30 12:56 02.02.2020
3426 Rain 25 1013 94 10000 2.1 30 12:38 02.02.2020
3427 Rain 25 1013 94 10000 2.1 30 12:19 02.02.2020
3428 Rain 25 1013 94 10000 2.1 30 11:42 02.02.2020
3429 Clouds 24 1012 88 10000 2.1 40 11:19 02.02.2020
3430 Clouds 24 1011 83 10000 2.1 180 10:58 02.02.2020
3431 Clouds 24 1011 83 10000 2.1 180 10:39 02.02.2020
3432 Clouds 24 1011 83 10000 2.1 180 10:21 02.02.2020
3433 Clouds 25 1011 83 10000 1 80 09:57 02.02.2020
3434 Clouds 25 1011 83 10000 1 80 09:57 02.02.2020
3435 Clouds 25 1011 83 10000 1 80 09:39 02.02.2020
3436 Clouds 25 1011 83 10000 1 80 09:20 02.02.2020
3437 Clouds 26 1011 83 10000 2.1 80 08:45 02.02.2020
3438 Clouds 26 1011 83 10000 2.1 80 08:26 02.02.2020
3439 Clouds 26 1011 83 10000 1 80 07:47 02.02.2020
3440 Clouds 26 1011 83 10000 1 80 07:29 02.02.2020
3441 Clouds 26 1011 83 10000 3.1 70 06:46 02.02.2020
3442 Clouds 26 1011 83 10000 3.1 70 06:28 02.02.2020
3443 Clouds 27 1012 78 10000 1 70 05:49 02.02.2020
3444 Clouds 27 1012 78 10000 2.6 70 04:58 02.02.2020
3445 Clouds 27 1011 83 10000 2.6 40 03:40 02.02.2020
3446 Clouds 27 1011 83 10000 2.6 40 02:39 02.02.2020
3447 Clouds 27 1010 83 10000 3.6 40 01:56 02.02.2020
3448 Clouds 27 1010 83 10000 3.6 40 01:26 02.02.2020
3449 Clouds 28 1010 78 10000 3.1 40 00:44 02.02.2020
3450 Clouds 28 1010 78 10000 3.1 40 00:23 02.02.2020
3451 Clouds 28 1010 78 10000 3.1 40 23:47 01.02.2020
3452 Clouds 28 1010 78 10000 3.1 40 23:47 01.02.2020
3453 Clouds 28 1010 78 10000 3.1 40 23:47 01.02.2020
3454 Rain 29 1009 74 10000 2.6 40 23:23 01.02.2020
3455 Rain 29 1009 74 10000 3.6 40 22:59 01.02.2020
3456 Rain 29 1009 74 10000 3.6 40 22:41 01.02.2020
3457 Rain 29 1009 74 10000 3.6 40 22:18 01.02.2020
3458 Rain 30 1009 74 10000 3.6 60 21:39 01.02.2020
3459 Rain 30 1009 74 10000 3.6 60 21:18 01.02.2020
3460 Rain 29 1010 62 10000 5.1 70 20:41 01.02.2020
3461 Rain 29 1010 62 10000 5.1 70 20:20 01.02.2020
3462 Rain 29 1011 83 10000 3.1 40 19:57 01.02.2020
3463 Rain 29 1011 83 10000 3.1 40 19:39 01.02.2020
3464 Rain 29 1011 83 10000 3.1 40 19:20 01.02.2020
3465 Clouds 30 1012 70 10000 5.1 30 18:58 01.02.2020
3466 Clouds 30 1012 70 10000 5.1 30 18:40 01.02.2020
3467 Clouds 30 1012 70 10000 5.1 30 18:22 01.02.2020
3468 Clouds 30 1012 70 10000 5.1 30 17:58 01.02.2020
3469 Clouds 31 1013 66 10000 3.1 60 17:39 01.02.2020
3470 Clouds 31 1013 66 10000 3.1 60 17:19 01.02.2020
3471 Clouds 31 1014 66 10000 3.6 80 16:43 01.02.2020
3472 Clouds 31 1014 66 10000 3.6 80 16:25 01.02.2020
3473 Clouds 29 1014 74 10000 3.1 100 15:59 01.02.2020
3474 Clouds 29 1014 74 10000 3.1 100 15:40 01.02.2020
3475 Clouds 29 1014 74 10000 3.1 100 15:22 01.02.2020
3476 Clouds 29 1014 74 10000 4.1 60 14:41 01.02.2020
3477 Clouds 29 1014 74 10000 4.1 60 14:22 01.02.2020
3478 -273 0 0 0 0 0 14:22 01.02.2020
3479 Clouds 27 1013 83 10000 3.1 70 13:58 01.02.2020
3480 Clouds 27 1013 83 10000 3.1 70 13:39 01.02.2020
3481 Clouds 27 1013 83 10000 3.1 70 13:18 01.02.2020
3482 Clouds 25 1012 94 10000 2.6 70 12:41 01.02.2020
3483 Clouds 25 1012 94 10000 2.6 70 12:23 01.02.2020
3484 Clouds 25 1012 88 10000 2.1 40 11:44 01.02.2020
3485 Clouds 25 1012 88 10000 2.1 40 11:24 01.02.2020
3486 Clouds 25 1012 94 10000 1.5 110 10:59 01.02.2020
3487 Clouds 25 1012 94 10000 1.5 110 10:41 01.02.2020
3488 Clouds 25 1012 94 10000 1.5 110 10:22 01.02.2020
3489 Clouds 25 1012 88 10000 2.1 150 09:59 01.02.2020
3490 Clouds 25 1012 88 10000 2.1 150 09:40 01.02.2020
3491 Clouds 25 1012 88 10000 2.1 150 09:21 01.02.2020
3492 Clouds 25 1012 88 10000 2.6 30 08:52 01.02.2020
3493 Rain 24 1012 94 10000 1.5 10 07:56 01.02.2020
3494 Rain 25 1013 94 10000 2.6 140 07:38 01.02.2020
3495 Rain 25 1013 94 10000 2.6 140 07:19 01.02.2020
3496 Rain 26 1013 88 10000 2.6 160 06:42 01.02.2020
3497 Rain 26 1013 83 10000 3.1 30 05:53 01.02.2020
3498 Rain 26 1014 83 10000 4.1 20 04:22 01.02.2020
3499 Rain 26 1014 83 10000 4.1 20 04:22 01.02.2020
3500 Rain 27 1014 83 10000 2.6 200 03:25 01.02.2020
3501 Clouds 27 1013 83 10000 3.1 30 02:50 01.02.2020
3502 Clouds 27 1013 83 10000 3.1 30 02:30 01.02.2020
3503 Clouds 27 1011 83 10000 3.1 60 01:56 01.02.2020
3504 Clouds 27 1011 83 10000 3.1 60 01:37 01.02.2020
3505 Clouds 28 1010 74 10000 3.6 50 00:38 01.02.2020
3506 Clouds 28 1010 74 10000 3.6 50 00:19 01.02.2020
3507 Clouds 28 1009 78 10000 3.1 70 23:38 31.01.2020
3508 Clouds 28 1009 78 10000 3.1 70 23:18 31.01.2020
3509 Clouds 30 1009 70 10000 3.6 60 22:55 31.01.2020
3510 Clouds 30 1009 70 10000 3.6 60 22:36 31.01.2020
3511 Clouds 30 1009 70 10000 3.6 60 22:18 31.01.2020
3512 Rain 30 1009 74 10000 5.7 70 21:39 31.01.2020
3513 Rain 30 1009 74 10000 5.7 70 21:21 31.01.2020
3514 Rain 28 1010 78 10000 5.7 20 20:57 31.01.2020
3515 Rain 30 1010 74 10000 6.7 80 20:39 31.01.2020
3516 Rain 32 1011 66 10000 3.1 80 20:20 31.01.2020
3517 Rain 32 1011 66 10000 3.1 80 19:56 31.01.2020
3518 Rain 32 1011 66 10000 3.1 80 19:38 31.01.2020
3519 Rain 32 1011 66 10000 3.1 80 19:38 31.01.2020
3520 Rain 32 1011 66 10000 3.1 80 19:19 31.01.2020
3521 Rain 32 1011 66 10000 3.1 80 19:19 31.01.2020
3522 Rain 32 1012 66 10000 3.1 80 18:46 31.01.2020
3523 Rain 32 1012 66 10000 3.1 80 18:27 31.01.2020
3524 Clouds 32 1013 70 10000 2.6 90 17:59 31.01.2020
3525 Clouds 32 1013 70 10000 2.6 90 17:40 31.01.2020
3526 Clouds 32 1013 70 10000 2.6 90 17:21 31.01.2020
3527 Clouds 31 1014 74 10000 3.1 80 16:56 31.01.2020
3528 Clouds 31 1014 74 10000 3.1 80 16:37 31.01.2020
3529 Clouds 31 1014 74 10000 3.1 80 16:18 31.01.2020
3530 Clouds 30 1015 79 10000 2.6 90 15:56 31.01.2020
3531 Clouds 30 1015 79 10000 2.6 90 15:56 31.01.2020
3532 Clouds 30 1015 79 10000 2.6 90 15:37 31.01.2020
3533 Clouds 30 1015 79 10000 2.6 90 15:19 31.01.2020
3534 Clouds 29 1014 79 10000 2.6 80 14:42 31.01.2020
3535 Clouds 29 1014 79 10000 2.6 80 14:20 31.01.2020
3536 Clouds 28 1014 78 10000 3.1 50 13:50 31.01.2020
3537 Clouds 28 1014 78 10000 3.1 50 13:32 31.01.2020
3538 Clouds 26 1013 88 10000 1.5 20 12:54 31.01.2020
3539 Clouds 26 1013 88 10000 1.5 20 12:36 31.01.2020
3540 Clouds 26 1013 88 10000 1.5 20 12:18 31.01.2020
3541 Rain 26 1012 88 10000 1.5 30 11:41 31.01.2020
3542 Rain 26 1012 88 10000 1.5 30 11:23 31.01.2020
3543 Clouds 26 1011 88 10000 1 360 10:58 31.01.2020
3544 Clouds 26 1011 88 10000 1 360 10:37 31.01.2020
3545 Clouds 26 1011 88 10000 1 360 10:19 31.01.2020
3546 Clouds 26 1011 83 10000 1 80 09:43 31.01.2020
3547 Clouds 26 1011 83 10000 1 80 09:22 31.01.2020
3548 Clouds 26 1011 83 10000 1 100 08:59 31.01.2020
3549 Clouds 26 1011 83 10000 1 100 08:41 31.01.2020
3550 Clouds 26 1011 83 10000 1 100 08:41 31.01.2020
3551 Clouds 26 1011 83 10000 1 100 08:22 31.01.2020
3552 Clouds 26 1012 88 10000 0.5 70 07:51 31.01.2020
3553 Clouds 26 1012 88 10000 0.5 70 07:19 31.01.2020
3554 Clouds 26 1012 83 10000 0.94 20 06:38 31.01.2020
3555 Clouds 26 1013 83 10000 0.5 40 05:57 31.01.2020
3556 Clouds 26 1013 83 10000 0.5 40 05:30 31.01.2020
3557 Clouds 27 1013 88 10000 1 90 04:41 31.01.2020
3558 Clouds 27 1013 88 10000 1 90 04:41 31.01.2020
3559 Clouds 28 1013 74 10000 2.1 20 02:50 31.01.2020
3560 Clouds 29 1012 70 10000 2.6 10 01:32 31.01.2020
3561 Clouds 28 1010 74 10000 1.5 80 00:41 31.01.2020
3562 Clouds 28 1010 74 10000 1.5 80 00:23 31.01.2020
3563 Clouds 29 1010 74 10000 1.5 80 23:44 30.01.2020
3564 Clouds 30 1009 70 10000 2.1 30 23:23 30.01.2020
3565 Clouds 31 1009 66 10000 3.1 40 22:40 30.01.2020
3566 Clouds 31 1009 66 10000 3.1 40 22:21 30.01.2020
3567 Clouds 32 1008 66 10000 3.6 70 21:59 30.01.2020
3568 Clouds 32 1008 66 10000 3.6 70 21:41 30.01.2020
3569 Clouds 32 1008 66 10000 3.6 70 21:19 30.01.2020
3570 Clouds 32 1008 66 10000 3.6 70 20:57 30.01.2020
3571 Rain 33 1009 63 10000 2.1 80 20:38 30.01.2020
3572 Rain 33 1009 63 10000 2.1 80 20:20 30.01.2020
3573 Clouds 33 1011 63 10000 2.1 90 19:44 30.01.2020
3574 Clouds 33 1011 63 10000 2.1 90 19:19 30.01.2020
3575 Clouds 33 1011 63 10000 2.1 90 19:19 30.01.2020
3576 Clouds 32 1012 70 10000 2.6 80 18:59 30.01.2020
3577 Clouds 32 1012 70 10000 2.6 80 18:38 30.01.2020
3578 Clouds 32 1012 70 10000 2.6 80 18:19 30.01.2020
3579 Clouds 32 1012 70 10000 2.6 80 17:54 30.01.2020
3580 Clouds 31 1013 74 10000 3.1 80 17:36 30.01.2020
3581 Clouds 31 1013 74 10000 3.1 80 17:18 30.01.2020
3582 Clouds 30 1014 74 10000 3.6 80 16:40 30.01.2020
3583 Clouds 30 1014 74 10000 3.6 80 16:21 30.01.2020
3584 Clouds 30 1014 79 10000 2.6 80 15:45 30.01.2020
3585 Clouds 30 1014 79 10000 2.6 80 15:22 30.01.2020
3586 Clouds 30 1014 79 10000 2.6 80 15:22 30.01.2020
3587 Clouds 28 1014 94 10000 1.5 80 14:58 30.01.2020
3588 Clouds 28 1014 94 10000 1.5 80 14:40 30.01.2020
3589 Clouds 28 1014 94 10000 1.5 80 14:22 30.01.2020
3590 Clouds 26 1014 94 10000 0.5 280 13:42 30.01.2020
3591 Clouds 26 1014 94 10000 0.5 280 13:24 30.01.2020
3592 Clouds 26 1013 94 10000 1 150 12:57 30.01.2020
3593 Clouds 26 1013 94 10000 1.5 160 12:38 30.01.2020
3594 Clouds 26 1013 94 10000 1.5 160 12:19 30.01.2020
3595 Clouds 25 1012 94 10000 1 90 11:41 30.01.2020
3596 Clouds 25 1012 94 10000 1 90 11:41 30.01.2020
3597 Clouds 25 1012 94 10000 1 90 11:22 30.01.2020
3598 Clouds 24 1011 94 10000 1.5 100 10:59 30.01.2020
3599 Clouds 24 1011 94 10000 1.5 100 10:40 30.01.2020
3600 Clouds 24 1011 94 10000 1.5 100 10:20 30.01.2020
3601 Clouds 24 1011 94 10000 2.6 180 09:45 30.01.2020
3602 Clouds 24 1011 94 10000 2.6 180 09:26 30.01.2020
3603 Clouds 25 1011 94 10000 2.1 170 08:43 30.01.2020
3604 Clouds 25 1011 94 10000 2.1 170 08:22 30.01.2020
3605 Clouds 25 1011 94 10000 2.1 70 07:59 30.01.2020
3606 Clouds 25 1011 94 10000 2.1 70 07:41 30.01.2020
3607 Clouds 25 1011 94 10000 2.1 70 07:18 30.01.2020
3608 Clouds 26 1011 88 10000 2.6 180 06:44 30.01.2020
3609 Clouds 26 1011 88 10000 2.6 180 06:26 30.01.2020
3610 Clouds 26 1011 88 10000 1.5 70 05:30 30.01.2020
3611 Clouds 26 1011 88 10000 1.5 70 05:30 30.01.2020
3612 Clouds 25 1012 83 10000 1 100 04:57 30.01.2020
3613 Clouds 25 1012 83 10000 1 100 03:48 30.01.2020
3614 Clouds 26 1011 83 10000 1 60 03:24 30.01.2020
3615 Clouds 26 1010 88 10000 1.5 30 01:35 30.01.2020
3616 Clouds 28 1010 78 10000 3.1 70 00:37 30.01.2020
3617 Clouds 28 1010 78 10000 3.1 70 00:18 30.01.2020
3618 Rain 29 1009 79 10000 0.5 130 23:43 29.01.2020
3619 Rain 29 1009 79 10000 0.5 130 23:20 29.01.2020
3620 Rain 29 1009 70 10000 1.5 80 22:56 29.01.2020
3621 Rain 29 1009 70 10000 1.5 80 22:56 29.01.2020
3622 Rain 29 1009 70 10000 1.5 80 22:37 29.01.2020
3623 Rain 29 1009 70 10000 1.5 80 22:18 29.01.2020
3624 Rain 31 1009 74 10000 3.6 80 21:56 29.01.2020
3625 Rain 31 1009 74 10000 3.6 80 21:37 29.01.2020
3626 Rain 31 1009 74 10000 3.6 80 21:18 29.01.2020
3627 Rain 30 1009 79 10000 3.1 80 20:54 29.01.2020
3628 Rain 30 1009 79 10000 3.1 80 20:36 29.01.2020
3629 Rain 30 1009 79 10000 3.1 80 20:18 29.01.2020
3630 Thunderstorm 31 1010 70 10000 3.1 80 19:54 29.01.2020
3631 Thunderstorm 31 1010 70 10000 3.1 80 19:36 29.01.2020
3632 Thunderstorm 31 1010 70 10000 3.1 80 19:18 29.01.2020
3633 Rain 33 1011 70 10000 2.6 90 18:38 29.01.2020
3634 Rain 33 1011 70 10000 2.6 90 18:19 29.01.2020
3635 Rain 32 1012 70 10000 2.6 80 17:41 29.01.2020
3636 -273 0 0 0 0 0 17:23 29.01.2020
3637 Clouds 32 1012 66 10000 3.6 10 16:55 29.01.2020
3638 Clouds 32 1013 70 10000 2.6 60 16:37 29.01.2020
3639 Clouds 32 1013 70 10000 2.6 60 16:19 29.01.2020
3640 Clouds 30 1014 79 10000 2.1 60 15:39 29.01.2020
3641 Clouds 30 1014 79 10000 2.1 60 15:21 29.01.2020
3642 Clouds 30 1014 79 10000 2.1 60 15:21 29.01.2020
3643 Clouds 28 1014 78 10000 1.5 90 14:46 29.01.2020
3644 Clouds 28 1014 78 10000 1.5 90 14:24 29.01.2020
3645 Clouds 27 1013 88 10000 1 60 13:57 29.01.2020
3646 Clouds 27 1013 88 10000 1 60 13:57 29.01.2020
3647 Clouds 27 1013 88 10000 1 60 13:39 29.01.2020
3648 Clouds 27 1013 88 10000 1 60 13:21 29.01.2020
3649 Clouds 26 1012 88 10000 1.5 60 12:56 29.01.2020
3650 Clouds 26 1012 88 10000 1.5 60 12:38 29.01.2020
3651 Clouds 26 1012 88 10000 1.5 60 12:19 29.01.2020
3652 Clouds 26 1012 88 10000 1.5 60 11:47 29.01.2020
3653 Clouds 25 1011 94 10000 1.5 50 11:24 29.01.2020
3654 Clouds 26 1010 88 10000 2.1 80 10:54 29.01.2020
3655 Clouds 24 1009 93 0 1.49 52 10:36 29.01.2020
3656 Clouds 24 1009 93 0 1.49 52 10:36 29.01.2020
3657 Clouds 24 1009 93 0 1.49 52 10:36 29.01.2020
3658 Clouds 26 1010 88 10000 2.6 80 10:18 29.01.2020
3659 Clouds 26 1010 88 10000 2.6 80 09:40 29.01.2020
3660 Clouds 26 1010 88 10000 2.6 80 09:21 29.01.2020
3661 Clouds 25 1010 100 10000 1.5 30 08:57 29.01.2020
3662 Clouds 25 1010 100 10000 1.5 30 08:38 29.01.2020
3663 Rain 25 1010 100 10000 1.5 30 08:20 29.01.2020
3664 Clouds 26 1010 88 10000 1 80 07:44 29.01.2020
3665 Clouds 26 1010 88 10000 1 80 07:24 29.01.2020
3666 Clouds 26 1010 88 10000 1.5 90 06:39 29.01.2020
3667 Clouds 26 1010 88 10000 1.5 90 06:21 29.01.2020
3668 Clouds 26 1011 94 10000 1 90 05:59 29.01.2020
3669 Clouds 26 1011 94 10000 1 90 05:39 29.01.2020
3670 Clouds 26 1011 94 10000 1 90 05:21 29.01.2020
3671 Clouds 26 1011 94 10000 1 120 04:37 29.01.2020
3672 Clouds 26 1011 88 10000 1 130 02:43 29.01.2020
3673 Clouds 26 1010 83 10000 1.5 20 02:18 29.01.2020
3674 Clouds 27 1009 78 10000 2.1 10 00:42 29.01.2020
3675 Clouds 27 1009 78 10000 2.1 10 00:23 29.01.2020
3676 Clouds 28 1009 78 10000 2.1 10 23:45 28.01.2020
3677 Clouds 28 1009 78 10000 3.1 30 23:21 28.01.2020
3678 Clouds 29 1009 74 10000 4.1 30 22:58 28.01.2020
3679 Clouds 29 1009 74 10000 4.1 30 22:40 28.01.2020
3680 Clouds 29 1009 74 10000 4.1 30 22:20 28.01.2020
3681 Clouds 29 1008 74 10000 2.6 60 21:42 28.01.2020
3682 Clouds 29 1008 74 10000 2.6 60 21:22 28.01.2020
3683 Clouds 29 1009 79 10000 3.1 70 20:57 28.01.2020
3684 Clouds 29 1009 79 10000 3.1 70 20:39 28.01.2020
3685 Clouds 29 1009 79 10000 3.1 70 20:21 28.01.2020
3686 Clouds 29 1011 74 10000 2.6 50 19:39 28.01.2020
3687 Clouds 29 1011 74 10000 2.6 50 19:20 28.01.2020
3688 Clouds 28 1012 78 10000 2.1 80 18:58 28.01.2020
3689 Clouds 28 1012 78 10000 2.1 80 18:39 28.01.2020
3690 Clouds 28 1012 78 10000 2.1 80 18:21 28.01.2020
3691 Clouds 28 1012 78 10000 3.1 20 17:56 28.01.2020
3692 Clouds 28 1013 78 10000 3.1 80 17:37 28.01.2020
3693 Clouds 28 1013 78 10000 3.1 80 17:19 28.01.2020
3694 Clouds 27 1013 83 10000 3.1 50 16:46 28.01.2020
3695 Clouds 27 1013 83 10000 3.1 50 16:27 28.01.2020
3696 Clouds 25 1013 94 10000 3.6 30 15:59 28.01.2020
3697 Clouds 25 1013 94 10000 3.6 30 15:40 28.01.2020
3698 Clouds 25 1013 94 10000 3.6 30 15:18 28.01.2020
3699 Rain 24 1013 94 5000 4.1 50 14:45 28.01.2020
3700 Rain 24 1013 94 4000 3.6 50 14:20 28.01.2020
3701 Rain 24 1013 100 5000 2.1 20 13:45 28.01.2020
3702 Rain 24 1013 94 4000 3.1 50 13:25 28.01.2020
3703 Rain 23 1013 100 3000 4.1 360 12:58 28.01.2020
3704 Rain 23 1013 100 3000 4.1 360 12:40 28.01.2020
3705 Rain 23 1013 100 3000 4.1 360 12:22 28.01.2020
3706 Rain 24 1012 100 10000 2.6 70 11:43 28.01.2020
3707 Rain 24 1012 100 10000 2.6 70 11:22 28.01.2020
3708 Rain 24 1011 94 4000 2.1 40 10:55 28.01.2020
3709 Rain 24 1011 94 4000 2.1 40 10:37 28.01.2020
3710 Rain 24 1011 94 4000 2.1 40 10:18 28.01.2020
3711 Thunderstorm 24 1011 100 3000 3.1 60 09:42 28.01.2020
3712 Thunderstorm 24 1011 100 3000 3.1 60 09:20 28.01.2020
3713 Thunderstorm 25 1011 100 3000 4.1 160 08:46 28.01.2020
3714 Thunderstorm 25 1011 100 3000 4.1 160 08:26 28.01.2020
3715 Thunderstorm 24 1011 100 2000 2.6 160 07:57 28.01.2020
3716 Rain 25 1011 100 5000 1 50 07:36 28.01.2020
3717 Rain 26 1012 94 4000 3.1 250 06:48 28.01.2020
3718 Rain 26 1012 94 4000 3.1 250 06:48 28.01.2020
3719 Rain 26 1012 94 4000 3.1 250 06:25 28.01.2020
3720 Clouds 25 1012 94 10000 1 300 05:40 28.01.2020
3721 Clouds 25 1012 94 10000 1 300 05:40 28.01.2020
3722 Clouds 25 1012 94 10000 1 300 05:22 28.01.2020
3723 Clouds 27 1012 88 10000 1.5 250 03:50 28.01.2020
3724 Thunderstorm 26 1012 88 10000 1.5 30 02:55 28.01.2020
3725 Thunderstorm 26 1012 88 10000 1.5 30 02:25 28.01.2020
3726 Thunderstorm 26 1011 94 10000 3.1 310 01:56 28.01.2020
3727 Thunderstorm 26 1011 94 10000 3.1 310 01:22 28.01.2020
3728 Thunderstorm 28 1009 79 10000 2.1 50 00:45 28.01.2020
3729 Thunderstorm 28 1009 79 10000 2.1 50 00:23 28.01.2020
3730 Rain 28 1009 79 10000 3.6 300 23:44 27.01.2020
3731 Rain 28 1009 79 10000 3.6 300 23:20 27.01.2020
3732 Clouds 30 1008 70 10000 1.5 80 22:45 27.01.2020
3733 Clouds 30 1008 70 10000 1.5 80 22:20 27.01.2020
3734 Clouds 30 1008 70 10000 1.5 80 22:20 27.01.2020
3735 Rain 33 1008 63 10000 1 170 21:58 27.01.2020
3736 Rain 33 1008 63 10000 1 170 21:39 27.01.2020
3737 Rain 33 1008 63 10000 1 170 21:19 27.01.2020
3738 Rain 33 1008 63 10000 1 170 21:19 27.01.2020
3739 Clouds 32 1009 74 10000 2.1 90 20:57 27.01.2020
3740 Clouds 32 1009 74 10000 2.1 90 20:38 27.01.2020
3741 Clouds 32 1009 74 10000 2.1 90 20:19 27.01.2020
3742 Rain 32 1010 70 10000 3.1 60 19:56 27.01.2020
3743 Rain 32 1010 70 10000 3.1 60 19:38 27.01.2020
3744 Rain 32 1010 70 10000 3.1 60 19:19 27.01.2020
3745 Clouds 32 1011 74 10000 2.1 70 18:40 27.01.2020
3746 Clouds 32 1011 74 10000 2.1 70 18:21 27.01.2020
3747 Rain 31 1012 70 10000 4.1 50 17:58 27.01.2020
3748 Rain 34 1008 51 0 2.13 359 17:38 27.01.2020
3749 Clouds 31 1013 74 10000 2.6 70 17:19 27.01.2020
3750 Clouds 31 1013 74 10000 2.6 70 17:19 27.01.2020
3751 Clouds 31 1013 74 10000 2.6 70 16:56 27.01.2020
3752 Clouds 31 1013 74 10000 2.6 70 16:37 27.01.2020
3753 Clouds 31 1013 74 10000 2.6 70 16:19 27.01.2020
3754 Clouds 30 1014 70 10000 5.1 50 15:41 27.01.2020
3755 Clouds 30 1014 70 10000 5.1 50 15:20 27.01.2020
3756 Rain 30 1013 74 10000 4.1 40 14:57 27.01.2020
3757 Rain 30 1013 74 10000 4.1 40 14:39 27.01.2020
3758 Clouds 30 1013 74 10000 4.1 40 14:20 27.01.2020
3759 Clouds 28 1012 78 10000 5.7 30 13:42 27.01.2020
3760 Clouds 28 1012 78 10000 5.7 30 13:22 27.01.2020
3761 Clouds 26 1010 83 10000 3.6 40 12:57 27.01.2020
3762 Clouds 26 1010 83 10000 3.6 40 12:57 27.01.2020
3763 Clouds 26 1010 83 10000 3.6 40 12:39 27.01.2020
3764 Clouds 26 1010 83 10000 3.6 40 12:20 27.01.2020
3765 Clouds 26 1010 83 10000 2.6 40 11:42 27.01.2020
3766 Clouds 26 1010 83 10000 2.6 40 11:42 27.01.2020
3767 Clouds 26 1010 83 10000 2.6 40 11:21 27.01.2020
3768 Clouds 26 1010 83 10000 2.6 40 10:55 27.01.2020
3769 Clouds 26 1010 83 10000 2.6 40 10:36 27.01.2020
3770 Clouds 26 1010 83 10000 2.6 40 10:18 27.01.2020
3771 Clouds 26 1010 100 10000 2.1 80 09:39 27.01.2020
3772 Clouds 26 1010 100 10000 2.1 80 09:39 27.01.2020
3773 Clouds 26 1010 100 10000 2.1 80 09:19 27.01.2020
3774 Clouds 26 1010 88 10000 1.5 60 08:48 27.01.2020
3775 Clouds 26 1010 88 10000 1.5 60 08:23 27.01.2020
3776 Clouds 25 1010 88 10000 1 50 07:55 27.01.2020
3777 Clouds 25 1010 88 10000 1 50 07:36 27.01.2020
3778 Clouds 25 1010 88 10000 1 50 07:18 27.01.2020
3779 Clouds 25 1011 88 10000 0.94 12 06:33 27.01.2020
3780 Clouds 26 1011 83 10000 0.5 30 05:37 27.01.2020
3781 Clouds 26 1012 83 10000 1 110 04:21 27.01.2020
3782 Clouds 26 1012 83 10000 1.5 20 03:27 27.01.2020
3783 Clouds 27 1010 83 10000 3.1 10 01:42 27.01.2020
3784 Clouds 27 1010 83 10000 3.1 10 01:22 27.01.2020
3785 Clouds 27 1009 88 10000 3.1 350 00:40 27.01.2020
3786 Clouds 27 1009 88 10000 3.1 350 00:19 27.01.2020
3787 Rain 27 1009 83 7000 2.6 20 23:42 26.01.2020
3788 Rain 27 1009 83 7000 2.6 20 23:20 26.01.2020
3789 Rain 30 1009 70 10000 1 110 22:57 26.01.2020
3790 Rain 30 1009 70 10000 1 110 22:37 26.01.2020
3791 Rain 30 1009 70 10000 1 110 22:18 26.01.2020
3792 Clouds 33 1009 66 10000 1.5 110 21:57 26.01.2020
3793 Clouds 33 1009 66 10000 1.5 110 21:38 26.01.2020
3794 Clouds 33 1009 66 10000 1.5 110 21:19 26.01.2020
3795 Clouds 33 1009 66 10000 1.5 110 21:19 26.01.2020
3796 Clouds 32 1010 74 10000 1.5 150 20:55 26.01.2020
3797 Clouds 32 1010 74 10000 1.5 150 20:37 26.01.2020
3798 Clouds 32 1010 74 10000 1.5 150 20:18 26.01.2020
3799 Clouds 32 1011 66 10000 2.6 160 19:56 26.01.2020
3800 Clouds 32 1011 66 10000 2.6 160 19:37 26.01.2020
3801 Clouds 32 1011 66 10000 2.6 160 19:18 26.01.2020
3802 Clouds 32 1012 70 10000 1.5 100 18:41 26.01.2020
3803 Clouds 32 1012 70 10000 1.5 100 18:22 26.01.2020
3804 Clouds 31 1012 70 10000 1.5 100 17:58 26.01.2020
3805 Clouds 31 1012 70 10000 1.5 100 17:58 26.01.2020
3806 Clouds 30 1013 74 10000 1.5 90 17:39 26.01.2020
3807 Clouds 30 1013 74 10000 1.5 90 17:20 26.01.2020
3808 Clouds 30 1014 74 10000 2.1 180 16:58 26.01.2020
3809 Clouds 30 1014 74 10000 2.1 180 16:58 26.01.2020
3810 Clouds 30 1014 74 10000 2.1 180 16:39 26.01.2020
3811 Clouds 30 1014 74 10000 2.1 180 16:39 26.01.2020
3812 Clouds 30 1014 74 10000 2.1 180 16:20 26.01.2020
3813 Rain 30 1012 75 0 0.94 174 15:58 26.01.2020
3814 Rain 30 1012 75 0 0.94 174 15:39 26.01.2020
3815 Rain 30 1012 75 0 0.94 174 15:18 26.01.2020
3816 Rain 30 1012 75 0 0.94 174 14:40 26.01.2020
3817 Clouds 27 1013 83 0 0.16 1 14:21 26.01.2020
3818 Clouds 27 1013 83 0 0.16 1 13:55 26.01.2020
3819 Clouds 27 1013 83 0 0.16 1 13:37 26.01.2020
3820 Clouds 27 1013 83 0 0.16 1 13:37 26.01.2020
3821 Clouds 27 1012 83 0 0.5 33 13:18 26.01.2020
3822 Clouds 27 1012 83 0 0.5 33 13:18 26.01.2020
3823 Clouds 27 1012 83 0 0.5 33 12:41 26.01.2020
3824 Clouds 27 1012 83 0 0.5 33 12:23 26.01.2020
3825 Clouds 27 1012 83 0 0.5 33 11:57 26.01.2020
3826 Clouds 27 1012 83 0 0.5 33 11:39 26.01.2020
3827 Clouds 24 1012 94 10000 1 150 11:19 26.01.2020
3828 Clouds 24 1012 94 10000 1 150 10:58 26.01.2020
3829 Clouds 24 1012 94 10000 1 150 10:38 26.01.2020
3830 Clouds 24 1012 94 10000 1 150 10:20 26.01.2020
3831 Clouds 24 1011 94 10000 1 70 09:57 26.01.2020
3832 Clouds 24 1011 94 10000 1 70 09:39 26.01.2020
3833 Clouds 24 1011 94 10000 1 70 09:39 26.01.2020
3834 Clouds 24 1011 94 10000 1 70 09:20 26.01.2020
3835 Clouds 24 1011 94 10000 1 140 08:43 26.01.2020
3836 Clouds 24 1011 94 10000 1 140 08:22 26.01.2020
3837 Clouds 25 1011 94 10000 1 80 07:56 26.01.2020
3838 Clouds 25 1011 94 10000 1 80 07:38 26.01.2020
3839 Clouds 25 1011 94 10000 1 80 07:19 26.01.2020
3840 Clouds 25 1011 94 10000 1 150 06:29 26.01.2020
3841 Clouds 25 1011 94 10000 1 70 05:30 26.01.2020
3842 Clouds 26 1012 94 10000 1 110 04:45 26.01.2020
3843 Clouds 26 1012 88 10000 1.5 80 02:40 26.01.2020
3844 Clouds 25 1012 100 10000 1 50 01:47 26.01.2020
3845 Clouds 26 1011 88 10000 1 120 01:24 26.01.2020
3846 Clouds 27 1010 88 10000 0.5 196 00:44 26.01.2020
3847 Clouds 27 1010 88 10000 0.5 196 00:26 26.01.2020
3848 Clouds 24 1010 92 0 0.5 196 23:40 25.01.2020
3849 Rain 27 1009 83 0 2.5 214 23:21 25.01.2020
3850 Rain 27 1009 83 0 2.5 214 22:56 25.01.2020
3851 Rain 27 1009 83 0 2.5 214 22:37 25.01.2020
3852 Rain 27 1009 83 0 2.5 214 22:37 25.01.2020
3853 Rain 27 1009 83 0 2.5 214 22:18 25.01.2020
3854 Rain 27 1009 83 0 2.5 214 21:55 25.01.2020
3855 Rain 27 1009 83 0 2.5 214 21:37 25.01.2020
3856 Rain 27 1009 83 0 2.5 214 21:19 25.01.2020
3857 Rain 27 1009 83 0 2.5 214 20:43 25.01.2020
3858 Rain 27 1009 83 0 2.5 214 20:24 25.01.2020
3859 Rain 32 1009 59 0 1.81 160 19:48 25.01.2020
3860 Rain 32 1009 59 0 1.81 160 19:20 25.01.2020
3861 Rain 32 1009 59 0 1.81 160 19:20 25.01.2020
3862 Rain 32 1009 59 0 1.81 160 18:59 25.01.2020
3863 Rain 26 1010 85 0 2.54 221 18:41 25.01.2020
3864 Rain 32 1009 59 0 1.81 160 18:20 25.01.2020
3865 Rain 32 1009 59 0 1.81 160 17:54 25.01.2020
3866 Rain 32 1009 59 0 1.81 160 17:36 25.01.2020
3867 Clouds 29 1012 70 0 1.5 112 17:18 25.01.2020
3868 Clouds 29 1012 70 0 1.5 112 16:42 25.01.2020
3869 Clouds 29 1012 70 0 1.5 112 16:22 25.01.2020
3870 Clouds 29 1012 70 0 1.5 112 15:55 25.01.2020
3871 Clouds 29 1012 70 0 1.5 112 15:37 25.01.2020
3872 Clouds 29 1012 70 0 1.5 112 15:18 25.01.2020
3873 Clouds 29 1012 70 0 1.5 112 14:41 25.01.2020
3874 Clouds 28 1012 74 0 0.66 221 14:19 25.01.2020
3875 Clouds 28 1012 74 0 0.66 221 13:43 25.01.2020
3876 Clouds 28 1012 74 0 0.66 221 13:24 25.01.2020
3877 Clouds 28 1012 74 0 0.66 221 13:24 25.01.2020
3878 Rain 23 1013 100 3000 4.1 200 12:46 25.01.2020
3879 Rain 23 1013 100 3000 4.1 200 12:28 25.01.2020
3880 Rain 23 1013 100 3000 4.1 200 11:46 25.01.2020
3881 Rain 23 1012 100 5000 3.6 240 11:23 25.01.2020
3882 Rain 25 1012 100 10000 4.1 200 11:00 25.01.2020
3883 Clouds 25 1010 83 10000 1.5 60 10:40 25.01.2020
3884 Clouds 25 1010 83 10000 1.5 60 10:21 25.01.2020
3885 Clouds 25 1011 100 10000 5.7 190 09:57 25.01.2020
3886 Thunderstorm 25 1010 100 10000 5.7 180 09:37 25.01.2020
3887 Thunderstorm 25 1010 100 10000 5.7 180 09:18 25.01.2020
3888 Thunderstorm 26 1010 100 3000 6.2 200 08:42 25.01.2020
3889 Clouds 27 1009 78 10000 1 90 07:51 25.01.2020
3890 Clouds 27 1009 78 10000 1 90 06:57 25.01.2020
3891 Clouds 27 1009 78 10000 1 90 06:31 25.01.2020
3892 Clouds 27 1010 74 10000 1.5 60 05:48 25.01.2020
3893 Clouds 27 1010 74 10000 1.5 60 05:28 25.01.2020
3894 Clouds 28 1010 74 10000 1.5 70 03:54 25.01.2020
3895 Clouds 28 1010 74 10000 1.5 70 03:23 25.01.2020
3896 Clouds 28 1010 74 10000 1.5 50 02:23 25.01.2020
3897 Clouds 28 1009 70 10000 1.5 20 01:53 25.01.2020
3898 Clouds 29 1008 74 10000 2.1 30 00:44 25.01.2020
3899 Clouds 29 1008 74 10000 2.1 30 00:26 25.01.2020
3900 Clouds 29 1008 74 10000 2.1 30 23:58 24.01.2020
3901 Clouds 30 1007 70 10000 3.1 40 23:40 24.01.2020
3902 Clouds 30 1007 70 10000 3.1 40 23:40 24.01.2020
3903 Clouds 30 1007 70 10000 3.1 40 23:22 24.01.2020
3904 Clouds 31 1007 79 10000 1 70 22:44 24.01.2020
3905 Clouds 31 1007 79 10000 1 70 22:25 24.01.2020
3906 Clouds 32 1007 74 10000 1 80 21:43 24.01.2020
3907 Clouds 32 1007 74 10000 1 80 21:21 24.01.2020
3908 Clouds 32 1007 74 10000 1.5 70 20:59 24.01.2020
3909 Clouds 32 1007 74 10000 1.5 70 20:40 24.01.2020
3910 Clouds 32 1007 74 10000 1.5 70 20:20 24.01.2020
3911 Clouds 33 1008 66 10000 2.6 80 19:57 24.01.2020
3912 Clouds 33 1008 66 10000 2.6 80 19:38 24.01.2020
3913 Clouds 33 1008 66 10000 2.6 80 19:20 24.01.2020
3914 Clouds 33 1008 52 10000 2.1 10 18:43 24.01.2020
3915 Clouds 32 1010 70 10000 1 70 18:24 24.01.2020
3916 Clouds 31 1010 70 10000 1 70 17:54 24.01.2020
3917 Clouds 32 1010 62 10000 3.6 70 17:36 24.01.2020
3918 Clouds 32 1010 62 10000 3.6 70 17:18 24.01.2020
3919 Clouds 32 1011 66 10000 2.6 80 16:39 24.01.2020
3920 Clouds 32 1011 66 10000 2.6 80 16:20 24.01.2020
3921 Clouds 32 1011 70 10000 2.6 70 15:43 24.01.2020
3922 Clouds 32 1011 70 10000 2.6 70 15:22 24.01.2020
3923 Clouds 31 1011 70 10000 3.1 60 14:57 24.01.2020
3924 Clouds 31 1011 70 10000 3.1 60 14:38 24.01.2020
3925 Clouds 31 1011 70 10000 3.1 60 14:38 24.01.2020
3926 Clouds 31 1011 70 10000 3.1 60 14:20 24.01.2020
3927 Clouds 29 1011 88 10000 1.5 70 13:42 24.01.2020
3928 Clouds 29 1011 88 10000 1.5 70 13:23 24.01.2020
3929 Clouds 27 1009 94 10000 1.5 80 12:44 24.01.2020
3930 Clouds 27 1009 94 10000 1.5 80 12:22 24.01.2020
3931 Clouds 26 1010 100 10000 1.5 50 11:45 24.01.2020
3932 Clouds 26 1009 94 10000 1 70 11:20 24.01.2020
3933 Clouds 25 1009 94 10000 1 110 10:59 24.01.2020
3934 Clouds 25 1009 94 10000 1 110 10:41 24.01.2020
3935 Clouds 25 1009 94 10000 1 110 10:41 24.01.2020
3936 Clouds 25 1009 94 10000 1 110 10:19 24.01.2020
3937 Clouds 26 1010 83 10000 1.5 120 09:42 24.01.2020
3938 Clouds 26 1010 83 10000 1.5 120 09:42 24.01.2020
3939 Clouds 26 1010 83 10000 1.5 120 09:24 24.01.2020
3940 Clouds 26 1009 88 10000 1.5 130 08:59 24.01.2020
3941 Clouds 26 1009 88 10000 1.5 130 08:36 24.01.2020
3942 Clouds 26 1009 88 10000 1.5 130 08:18 24.01.2020
3943 Clouds 26 1009 88 10000 1.5 150 07:42 24.01.2020
3944 Clouds 26 1009 88 10000 1.5 150 07:18 24.01.2020
3945 Clouds 27 1010 88 10000 1.5 170 06:42 24.01.2020
3946 Clouds 27 1010 88 10000 1.5 170 06:18 24.01.2020
3947 Clouds 27 1010 88 10000 1 180 05:20 24.01.2020
3948 Clouds 28 1009 79 10000 1.5 360 02:56 24.01.2020
3949 Clouds 28 1009 79 10000 1.5 360 02:38 24.01.2020
3950 Clouds 28 1009 79 10000 1.5 360 02:18 24.01.2020
3951 Thunderstorm 28 1008 74 10000 3.1 320 01:37 24.01.2020
3952 Clouds 28 1007 83 10000 0.5 230 00:39 24.01.2020
3953 Clouds 28 1007 83 10000 0.5 230 23:59 23.01.2020
3954 Clouds 28 1007 83 10000 0.5 230 23:59 23.01.2020
3955 Clouds 31 1007 70 10000 0.5 80 23:40 23.01.2020
3956 Clouds 31 1007 70 10000 0.5 80 23:21 23.01.2020
3957 Clouds 32 1007 70 10000 0.5 80 22:55 23.01.2020
3958 Clouds 32 1007 70 10000 0.5 80 22:55 23.01.2020
3959 Clouds 33 1006 66 10000 0.5 60 22:36 23.01.2020
3960 Clouds 33 1006 66 10000 0.5 60 22:36 23.01.2020
3961 Clouds 33 1006 66 10000 0.5 60 22:18 23.01.2020
3962 Clouds 33 1006 66 10000 0.5 60 22:18 23.01.2020
3963 Clouds 34 1006 66 10000 1.5 110 21:54 23.01.2020
3964 Clouds 34 1006 66 10000 1.5 110 21:36 23.01.2020
3965 Clouds 34 1006 66 10000 1.5 110 21:18 23.01.2020
3966 Clouds 34 1007 66 10000 1 140 20:40 23.01.2020
3967 Clouds 34 1007 66 10000 1 140 20:22 23.01.2020
3968 Clouds 32 1008 66 10000 2.1 70 19:57 23.01.2020
3969 Clouds 32 1008 66 10000 2.1 70 19:38 23.01.2020
3970 Clouds 32 1008 66 10000 2.1 70 19:38 23.01.2020
3971 Clouds 32 1008 66 10000 2.1 70 19:20 23.01.2020
3972 Clouds 32 1008 66 10000 2.1 70 18:56 23.01.2020
3973 Clouds 32 1008 66 10000 2.1 70 18:56 23.01.2020
3974 Clouds 33 1010 66 10000 2.1 70 18:37 23.01.2020
3975 Clouds 33 1010 66 10000 2.1 70 18:19 23.01.2020
3976 Clouds 31 1011 74 10000 2.1 90 17:43 23.01.2020
3977 Clouds 31 1011 74 10000 2.1 90 17:20 23.01.2020
3978 Clouds 32 1011 70 10000 4.1 60 16:58 23.01.2020
3979 Clouds 32 1011 70 10000 4.1 60 16:38 23.01.2020
3980 Clouds 32 1011 70 10000 4.1 60 16:19 23.01.2020
3981 Clouds 30 1012 74 10000 2.6 70 15:57 23.01.2020
3982 Clouds 30 1012 74 10000 2.6 70 15:38 23.01.2020
3983 Clouds 30 1012 74 10000 2.6 70 15:18 23.01.2020
3984 Clouds 30 1012 74 10000 2.6 70 15:18 23.01.2020
3985 Clouds 29 1012 79 10000 3.1 60 14:56 23.01.2020
3986 Clouds 29 1012 79 10000 3.1 60 14:56 23.01.2020
3987 Clouds 29 1012 79 10000 3.1 60 14:38 23.01.2020
3988 Clouds 29 1012 79 10000 3.1 60 14:20 23.01.2020
3989 Clouds 27 1011 94 10000 2.1 70 13:44 23.01.2020
3990 Clouds 27 1011 94 10000 2.1 70 13:20 23.01.2020
3991 Clouds 26 1010 94 10000 1.5 80 12:54 23.01.2020
3992 Clouds 26 1010 94 10000 1.5 80 12:36 23.01.2020
3993 Clouds 26 1010 94 10000 1.5 80 12:18 23.01.2020
3994 Clouds 25 1010 94 10000 1.5 80 11:42 23.01.2020
3995 Clouds 25 1010 100 10000 1.1 37 11:23 23.01.2020
3996 Clouds 25 1009 94 10000 0.99 57 10:56 23.01.2020
3997 Clouds 25 1009 94 10000 0.99 57 10:38 23.01.2020
3998 Clouds 25 1009 94 10000 1.11 49 10:18 23.01.2020
3999 Clouds 25 1009 94 10000 1.5 90 09:40 23.01.2020
4000 Clouds 25 1009 94 10000 1.5 90 09:21 23.01.2020
4001 Clouds 25 1009 94 10000 0.5 50 08:43 23.01.2020
4002 Clouds 25 1009 94 10000 0.5 50 08:25 23.01.2020
4003 Clouds 25 1010 100 10000 0.78 88 07:52 23.01.2020
4004 Clouds 25 1010 100 10000 0.78 88 07:27 23.01.2020
4005 Clouds 25 1010 100 10000 1 60 06:55 23.01.2020
4006 Clouds 25 1010 100 10000 1 60 06:25 23.01.2020
4007 Clouds 25 1010 94 10000 0.78 88 05:59 23.01.2020
4008 Clouds 26 1010 94 10000 0.73 81 04:25 23.01.2020
4009 Clouds 26 1010 88 10000 0.73 81 02:50 23.01.2020
4010 Clouds 27 1008 78 10000 1 60 01:51 23.01.2020
4011 Clouds 27 1008 83 10000 1.5 80 00:41 23.01.2020
4012 Clouds 27 1008 83 10000 1.5 80 00:20 23.01.2020
4013 Rain 28 1007 83 10000 1.5 240 23:45 22.01.2020
4014 Rain 28 1007 83 10000 1.5 240 23:27 22.01.2020
4015 Rain 29 1007 79 10000 2.1 80 22:43 22.01.2020
4016 Rain 29 1007 79 10000 2.1 80 22:43 22.01.2020
4017 Rain 29 1007 79 10000 2.1 80 22:24 22.01.2020
4018 Rain 30 1007 79 10000 2.1 80 21:58 22.01.2020
4019 Clouds 32 1007 66 10000 2.1 40 21:36 22.01.2020
4020 Clouds 32 1007 66 10000 2.1 40 21:36 22.01.2020
4021 Clouds 32 1007 66 10000 2.1 40 21:18 22.01.2020
4022 Rain 30 1008 74 10000 1 170 20:41 22.01.2020
4023 Rain 30 1008 74 10000 1 170 20:23 22.01.2020
4024 Rain 31 1008 74 10000 1 170 19:58 22.01.2020
4025 Rain 31 1008 74 10000 1 170 19:58 22.01.2020
4026 Clouds 32 1009 70 10000 2.1 90 19:40 22.01.2020
4027 Clouds 32 1009 70 10000 2.1 90 19:20 22.01.2020
4028 Clouds 31 1009 70 10000 2.1 90 18:58 22.01.2020
4029 Clouds 31 1010 74 10000 1.5 60 18:38 22.01.2020
4030 Clouds 31 1010 74 10000 1.5 60 18:20 22.01.2020
4031 Clouds 30 1012 74 10000 2.6 60 17:55 22.01.2020
4032 Clouds 30 1012 74 10000 2.6 60 17:37 22.01.2020
4033 Clouds 30 1012 74 10000 2.6 60 17:19 22.01.2020
4034 Clouds 29 1012 74 10000 3.6 70 16:43 22.01.2020
4035 Clouds 29 1012 74 10000 3.6 70 16:23 22.01.2020
4036 Clouds 28 1012 83 10000 2.6 80 15:59 22.01.2020
4037 Clouds 28 1012 83 10000 2.6 80 15:41 22.01.2020
4038 Clouds 28 1012 83 10000 2.6 80 15:22 22.01.2020
4039 Clouds 27 1012 83 10000 2.6 70 14:58 22.01.2020
4040 Clouds 27 1012 83 10000 2.6 70 14:37 22.01.2020
4041 Clouds 27 1012 83 10000 2.6 70 14:18 22.01.2020
4042 Clouds 26 1011 88 10000 2.6 50 13:54 22.01.2020
4043 Clouds 26 1011 88 10000 2.6 50 13:36 22.01.2020
4044 Clouds 26 1011 88 10000 2.6 50 13:18 22.01.2020
4045 Clouds 26 1010 88 10000 1.5 40 12:55 22.01.2020
4046 Clouds 26 1010 88 10000 1.5 40 12:37 22.01.2020
4047 Clouds 26 1010 88 10000 1.5 40 12:18 22.01.2020
4048 Clouds 25 1010 94 10000 1.5 350 11:56 22.01.2020
4049 Clouds 25 1010 94 10000 1.5 70 11:37 22.01.2020
4050 Clouds 25 1010 94 10000 1.5 70 11:18 22.01.2020
4051 Clouds 25 1011 94 10000 1.5 50 10:42 22.01.2020
4052 Clouds 25 1011 94 10000 1.5 50 10:19 22.01.2020
4053 Clouds 25 1012 88 10000 1 120 09:43 22.01.2020
4054 Clouds 25 1012 88 10000 1 120 09:24 22.01.2020
4055 Clouds 25 1012 88 10000 1 40 08:57 22.01.2020
4056 Clouds 25 1012 88 10000 1 40 08:57 22.01.2020
4057 Clouds 25 1012 88 10000 1 40 08:39 22.01.2020
4058 Clouds 25 1012 88 10000 1 40 08:20 22.01.2020
4059 Clouds 25 1011 94 10000 1.5 100 07:47 22.01.2020
4060 Clouds 25 1011 94 10000 1.5 100 07:29 22.01.2020
4061 Clouds 25 1011 94 10000 1 110 06:46 22.01.2020
4062 Clouds 25 1011 94 10000 1 110 06:26 22.01.2020
4063 Clouds 25 1011 94 10000 1.5 40 05:26 22.01.2020
4064 Clouds 26 1011 88 10000 1.5 10 03:30 22.01.2020
4065 Clouds 26 1010 88 10000 1 40 02:57 22.01.2020
4066 Clouds 26 1009 83 10000 1.5 30 01:42 22.01.2020
4067 Clouds 26 1008 88 10000 1.5 20 00:44 22.01.2020
4068 Clouds 26 1008 88 10000 1.5 20 00:26 22.01.2020
4069 Clouds 27 1008 83 10000 1.5 70 23:38 21.01.2020
4070 Clouds 27 1008 83 10000 1.5 70 23:20 21.01.2020
4071 Clouds 27 1008 78 10000 2.6 340 22:55 21.01.2020
4072 Clouds 27 1008 78 10000 2.6 340 22:55 21.01.2020
4073 Rain 27 1008 83 8000 2.6 50 22:36 21.01.2020
4074 Rain 27 1008 83 8000 2.6 50 22:18 21.01.2020
4075 Rain 28 1008 88 2000 1 90 21:55 21.01.2020
4076 Clouds 29 1008 78 10000 1.5 40 21:36 21.01.2020
4077 Clouds 29 1008 78 10000 1.5 40 21:18 21.01.2020
4078 Clouds 28 1009 83 10000 2.1 230 20:39 21.01.2020
4079 Clouds 28 1009 83 10000 2.1 230 20:20 21.01.2020
4080 Clouds 28 1010 83 10000 2.6 270 19:59 21.01.2020
4081 Clouds 28 1010 83 10000 2.6 270 19:40 21.01.2020
4082 Clouds 28 1010 83 10000 2.6 270 19:21 21.01.2020
4083 Clouds 28 1012 78 10000 1.5 330 18:57 21.01.2020
4084 Clouds 28 1012 78 10000 1.5 330 18:57 21.01.2020
4085 Clouds 28 1012 78 10000 1.5 330 18:39 21.01.2020
4086 Clouds 28 1012 78 10000 1.5 330 18:21 21.01.2020
4087 Clouds 27 1013 83 10000 2.6 310 17:59 21.01.2020
4088 Clouds 27 1013 83 10000 2.6 310 17:40 21.01.2020
4089 Clouds 27 1013 83 10000 2.6 310 17:18 21.01.2020
4090 Clouds 27 1013 83 10000 2.6 310 17:18 21.01.2020
4091 Clouds 26 1013 88 10000 2.6 360 16:38 21.01.2020
4092 Clouds 26 1013 88 10000 2.6 360 16:20 21.01.2020
4093 Rain 25 1013 94 9000 1.5 60 15:59 21.01.2020
4094 Rain 25 1013 94 9000 1.5 60 15:39 21.01.2020
4095 Rain 25 1013 94 9000 1.5 60 15:19 21.01.2020
4096 Rain 25 1013 94 9000 1.5 60 15:19 21.01.2020
4097 Clouds 24 1013 100 10000 1.5 360 14:40 21.01.2020
4098 Clouds 24 1013 100 10000 1.5 360 14:22 21.01.2020
4099 Rain 24 1013 100 2000 2.6 30 13:55 21.01.2020
4100 Rain 24 1013 100 2000 2.6 30 13:37 21.01.2020
4101 Rain 24 1013 100 2000 2.6 30 13:18 21.01.2020
4102 Rain 23 1012 100 4000 2.1 110 12:42 21.01.2020
4103 Rain 24 1012 100 2000 2.6 50 12:24 21.01.2020
4104 Rain 24 1012 94 2000 2.1 80 11:56 21.01.2020
4105 Thunderstorm 24 1011 100 4000 2.1 220 11:38 21.01.2020
4106 Thunderstorm 24 1011 100 4000 2.1 220 11:19 21.01.2020
4107 Thunderstorm 24 1010 94 10000 1 190 10:43 21.01.2020
4108 Thunderstorm 24 1010 94 10000 1 190 10:23 21.01.2020
4109 Thunderstorm 24 1010 100 4000 2.6 290 09:56 21.01.2020
4110 Clouds 25 1010 94 10000 1.5 190 09:38 21.01.2020
4111 Clouds 25 1010 94 10000 1.5 190 09:19 21.01.2020
4112 Thunderstorm 25 1009 100 10000 2.1 100 08:41 21.01.2020
4113 Clouds 25 1010 94 10000 1 190 08:22 21.01.2020
4114 Clouds 25 1010 94 10000 1.5 160 07:43 21.01.2020
4115 Clouds 25 1010 94 10000 1.5 160 07:24 21.01.2020
4116 Clouds 25 1011 94 10000 1.5 190 06:57 21.01.2020
4117 Clouds 25 1011 94 10000 1.5 190 06:38 21.01.2020
4118 Clouds 25 1011 94 10000 1 190 05:53 21.01.2020
4119 Clouds 25 1011 94 10000 1 190 05:32 21.01.2020
4120 Clouds 25 1011 94 10000 0.5 180 04:37 21.01.2020
4121 Clouds 25 1010 100 10000 0.5 80 02:27 21.01.2020
4122 Clouds 26 1009 100 10000 0.5 120 01:36 21.01.2020
4123 Clouds 25 1009 100 10000 0.87 357 00:45 21.01.2020
4124 Clouds 25 1009 100 10000 0.87 357 00:25 21.01.2020
4125 Clouds 26 1008 94 10000 1 140 23:56 20.01.2020
4126 Clouds 26 1008 94 10000 1 140 23:36 20.01.2020
4127 Clouds 26 1008 94 10000 1 140 23:18 20.01.2020
4128 Clouds 26 1008 94 10000 1 180 22:39 20.01.2020
4129 Clouds 26 1008 94 10000 1 180 22:21 20.01.2020
4130 Clouds 26 1008 94 10000 1 220 21:58 20.01.2020
4131 Clouds 26 1008 94 10000 1 220 21:58 20.01.2020
4132 Rain 26 1008 94 10000 1 200 21:38 20.01.2020
4133 Rain 26 1008 94 10000 1 200 21:20 20.01.2020
4134 Thunderstorm 26 1009 94 8000 2.6 30 20:58 20.01.2020
4135 Thunderstorm 26 1009 94 8000 2.6 30 20:39 20.01.2020
4136 Thunderstorm 26 1009 94 8000 2.6 30 20:20 20.01.2020
4137 Thunderstorm 24 1010 100 10000 3.6 340 19:57 20.01.2020
4138 Thunderstorm 25 1010 94 2000 5.7 10 19:38 20.01.2020
4139 Thunderstorm 25 1010 94 2000 5.7 10 19:19 20.01.2020
4140 Thunderstorm 25 1011 94 2000 6.2 30 18:45 20.01.2020
4141 Clouds 29 1011 79 10000 2.1 190 18:24 20.01.2020
4142 Clouds 30 1011 79 10000 2.1 190 17:59 20.01.2020
4143 Clouds 29 1012 89 10000 2.1 170 17:37 20.01.2020
4144 Clouds 29 1012 89 10000 2.1 170 17:18 20.01.2020
4145 Clouds 29 1012 89 10000 2.1 170 16:44 20.01.2020
4146 Clouds 28 1013 88 10000 1.5 150 16:25 20.01.2020
4147 Clouds 29 1013 79 10000 1.5 230 15:58 20.01.2020
4148 Clouds 29 1013 88 10000 1 170 15:39 20.01.2020
4149 Clouds 29 1013 88 10000 1 170 15:21 20.01.2020
4150 Clouds 28 1013 88 10000 1 110 14:44 20.01.2020
4151 Clouds 28 1013 88 10000 1 110 14:25 20.01.2020
4152 Mist 26 1013 100 5000 1.03 15 13:59 20.01.2020
4153 Mist 26 1013 100 5000 1.03 15 13:40 20.01.2020
4154 Mist 26 1013 100 5000 0.94 16 13:22 20.01.2020
4155 Fog 25 1012 100 1000 0.5 60 12:48 20.01.2020
4156 Clouds 26 1012 94 10000 0.94 16 12:29 20.01.2020
4157 Clouds 25 1011 94 10000 1 140 11:59 20.01.2020
4158 Clouds 25 1011 94 10000 1 140 11:40 20.01.2020
4159 Clouds 25 1011 94 10000 1 140 11:22 20.01.2020
4160 Clouds 25 1010 100 10000 0.81 349 10:57 20.01.2020
4161 Clouds 25 1010 100 10000 0.81 349 10:39 20.01.2020
4162 Clouds 25 1010 100 10000 0.81 349 10:19 20.01.2020
4163 Clouds 25 1010 100 10000 0.81 349 10:19 20.01.2020
4164 Clouds 25 1010 100 10000 0.81 349 10:19 20.01.2020
4165 Fog 24 1010 100 300 1 270 09:41 20.01.2020
4166 Clouds 24 1011 94 10000 1 80 09:21 20.01.2020
4167 Mist 25 1010 100 1000 1 10 08:49 20.01.2020
4168 Clouds 25 1010 88 10000 1 30 08:30 20.01.2020
4169 Fog 25 1010 100 200 0.5 360 07:46 20.01.2020
4170 Fog 24 1010 100 800 1 340 07:26 20.01.2020
4171 Clouds 24 1010 100 6000 1 230 06:59 20.01.2020
4172 Clouds 25 1011 88 10000 1.5 60 06:28 20.01.2020
4173 Clouds 25 1012 94 10000 1.5 50 05:43 20.01.2020
4174 Clouds 25 1012 94 10000 1.5 50 05:43 20.01.2020
4175 Clouds 25 1012 94 10000 1.5 50 05:43 20.01.2020
4176 Clouds 25 1012 94 10000 1.5 50 05:22 20.01.2020
4177 Rain 26 1011 94 10000 2.1 70 04:47 20.01.2020
4178 Clouds 26 1011 94 10000 1 160 02:58 20.01.2020
4179 Clouds 26 1011 94 10000 1 160 02:58 20.01.2020
4180 Clouds 26 1010 94 10000 1 200 01:55 20.01.2020
4181 Clouds 26 1010 94 10000 1 200 01:37 20.01.2020
4182 Clouds 26 1009 94 10000 1 20 00:45 20.01.2020
4183 Clouds 26 1009 94 10000 1 20 00:24 20.01.2020
4184 Clouds 26 1009 100 10000 1 170 23:39 19.01.2020
4185 Clouds 26 1009 100 10000 1 170 23:20 19.01.2020
4186 Clouds 26 1009 100 10000 1 170 23:20 19.01.2020
4187 Clouds 26 1009 94 10000 1.5 160 22:57 19.01.2020
4188 Clouds 26 1009 94 10000 1.5 160 22:57 19.01.2020
4189 Clouds 26 1009 94 10000 1.5 160 22:38 19.01.2020
4190 Clouds 26 1009 94 10000 1.5 160 22:20 19.01.2020
4191 Clouds 26 1009 100 10000 1 150 21:56 19.01.2020
4192 Clouds 26 1009 100 10000 1 150 21:38 19.01.2020
4193 Clouds 26 1009 100 10000 1 150 21:20 19.01.2020
4194 Clouds 25 1010 94 10000 1 350 20:57 19.01.2020
4195 Clouds 25 1010 94 10000 1 350 20:39 19.01.2020
4196 Clouds 25 1010 94 10000 1 350 20:20 19.01.2020
4197 Rain 24 1010 100 10000 1.5 10 19:57 19.01.2020
4198 Rain 24 1010 100 10000 1.5 10 19:39 19.01.2020
4199 Rain 24 1010 100 10000 1.5 10 19:20 19.01.2020
4200 Thunderstorm 27 1011 83 4000 2.1 270 18:56 19.01.2020
4201 Rain 29 1011 79 4000 3.1 310 18:37 19.01.2020
4202 Rain 29 1011 79 4000 3.1 310 18:19 19.01.2020
4203 Clouds 29 1012 79 10000 2.1 200 17:58 19.01.2020
4204 Clouds 29 1012 79 10000 2.1 200 17:58 19.01.2020
4205 Clouds 29 1012 79 10000 2.1 200 17:58 19.01.2020
4206 Clouds 27 1013 88 10000 1.5 50 17:39 19.01.2020
4207 Clouds 27 1013 88 10000 1.5 50 17:20 19.01.2020
4208 Clouds 28 1014 74 10000 2.6 40 16:58 19.01.2020
4209 Clouds 28 1014 74 10000 2.6 40 16:38 19.01.2020
4210 Clouds 28 1014 74 10000 2.6 40 16:20 19.01.2020
4211 Clouds 28 1014 79 10000 2.1 10 15:58 19.01.2020
4212 Clouds 28 1014 79 10000 2.1 10 15:37 19.01.2020
4213 Clouds 28 1014 79 10000 2.1 10 15:19 19.01.2020
4214 Clouds 28 1014 78 10000 1.5 40 14:57 19.01.2020
4215 Clouds 28 1014 78 10000 1.5 40 14:38 19.01.2020
4216 Clouds 28 1014 78 10000 1.5 40 14:38 19.01.2020
4217 Clouds 28 1014 78 10000 1.5 40 14:18 19.01.2020
4218 Clouds 28 1014 78 10000 1.5 40 14:18 19.01.2020
4219 Clouds 27 1013 83 10000 1.5 60 13:56 19.01.2020
4220 Clouds 27 1013 83 10000 1.5 60 13:37 19.01.2020
4221 Clouds 27 1013 83 10000 1.5 60 13:19 19.01.2020
4222 Clouds 25 1012 94 10000 2.17 46 12:54 19.01.2020
4223 Clouds 25 1012 94 10000 2.17 46 12:36 19.01.2020
4224 Clouds 25 1012 94 10000 2.17 46 12:18 19.01.2020
4225 Clouds 24 1012 100 10000 1 150 11:39 19.01.2020
4226 Clouds 24 1012 100 10000 1 150 11:20 19.01.2020
4227 Clouds 24 1012 100 10000 1 150 10:56 19.01.2020
4228 Clouds 24 1012 100 10000 1 150 10:56 19.01.2020
4229 Clouds 24 1011 94 10000 1 350 10:37 19.01.2020
4230 Clouds 24 1011 94 10000 1 350 10:19 19.01.2020
4231 Clouds 24 1010 94 10000 0.5 80 09:45 19.01.2020
4232 Clouds 24 1010 94 10000 0.5 80 09:45 19.01.2020
4233 Clouds 24 1010 94 10000 0.5 80 09:27 19.01.2020
4234 Clouds 24 1010 94 10000 1.04 26 08:58 19.01.2020
4235 Clouds 24 1010 94 10000 1.04 26 08:39 19.01.2020
4236 Clouds 24 1010 94 10000 1.3 11 08:21 19.01.2020
4237 Clouds 24 1011 100 10000 1 50 07:42 19.01.2020
4238 Clouds 24 1011 100 10000 1 50 07:22 19.01.2020
4239 Clouds 25 1011 94 10000 1.5 10 06:51 19.01.2020
4240 Clouds 25 1012 94 10000 1 60 05:41 19.01.2020
4241 Clouds 25 1012 94 10000 1 120 02:44 19.01.2020
4242 Clouds 25 1012 94 10000 1 120 02:21 19.01.2020
4243 Clouds 25 1011 94 10000 2.6 40 01:25 19.01.2020
4244 Clouds 25 1011 94 10000 2.6 40 01:25 19.01.2020
4245 Rain 25 1011 88 7000 3.6 70 00:46 19.01.2020
4246 Rain 25 1011 88 7000 3.6 70 00:28 19.01.2020
4247 Rain 25 1011 88 7000 3.6 70 23:56 18.01.2020
4248 Rain 26 1010 88 10000 1 80 23:38 18.01.2020
4249 Rain 26 1010 88 10000 1 80 23:38 18.01.2020
4250 Rain 26 1010 88 10000 1 80 23:19 18.01.2020
4251 Thunderstorm 29 1010 83 10000 1 170 22:55 18.01.2020
4252 Thunderstorm 29 1010 83 10000 1 170 22:36 18.01.2020
4253 Thunderstorm 29 1010 83 10000 1 170 22:18 18.01.2020
4254 Clouds 29 1009 88 10000 2.1 170 21:56 18.01.2020
4255 Clouds 29 1009 88 10000 2.1 170 21:37 18.01.2020
4256 Clouds 29 1009 88 10000 2.1 170 21:18 18.01.2020
4257 Rain 30 1010 83 10000 2.1 190 20:42 18.01.2020
4258 Rain 30 1010 83 10000 2.1 190 20:20 18.01.2020
4259 Clouds 31 1010 74 10000 1.5 80 19:55 18.01.2020
4260 Clouds 31 1010 74 10000 1.5 80 19:37 18.01.2020
4261 Clouds 31 1010 74 10000 1.5 80 19:19 18.01.2020
4262 Clouds 31 1011 70 10000 1.5 70 18:41 18.01.2020
4263 Clouds 31 1011 70 10000 1.5 70 18:21 18.01.2020
4264 Clouds 30 1013 70 10000 1.5 130 17:41 18.01.2020
4265 Clouds 30 1013 70 10000 1.5 130 17:21 18.01.2020
4266 Clouds 30 1013 70 10000 1.5 130 17:21 18.01.2020
4267 Clouds 30 1014 74 10000 1 130 16:59 18.01.2020
4268 Clouds 30 1014 74 10000 1 130 16:41 18.01.2020
4269 Clouds 30 1014 74 10000 1 130 16:22 18.01.2020
4270 Clouds 30 1014 74 10000 1 130 16:22 18.01.2020
4271 Clouds 30 1014 79 10000 1.5 160 15:58 18.01.2020
4272 Clouds 30 1014 79 10000 1.5 160 15:40 18.01.2020
4273 Clouds 30 1014 79 10000 1.5 160 15:21 18.01.2020
4274 Clouds 28 1014 88 10000 1.5 180 14:44 18.01.2020
4275 Clouds 28 1014 88 10000 1.5 180 14:21 18.01.2020
4276 Clouds 26 1014 94 10000 1 200 13:59 18.01.2020
4277 Clouds 26 1014 94 10000 1 200 13:41 18.01.2020
4278 Clouds 26 1014 94 10000 1 200 13:20 18.01.2020
4279 Clouds 25 1014 94 10000 1 200 12:55 18.01.2020
4280 Clouds 25 1013 94 10000 1 240 12:36 18.01.2020
4281 Clouds 25 1013 94 10000 1 240 12:18 18.01.2020
4282 Clouds 25 1013 94 10000 1 240 11:43 18.01.2020
4283 Clouds 25 1012 94 10000 1.5 190 11:21 18.01.2020
4284 Clouds 24 1011 94 10000 1 10 10:45 18.01.2020
4285 Clouds 24 1011 94 10000 1 10 10:22 18.01.2020
4286 Clouds 25 1011 88 10000 1 300 09:59 18.01.2020
4287 Clouds 25 1011 88 10000 1 300 09:41 18.01.2020
4288 Clouds 25 1011 88 10000 1 300 09:19 18.01.2020
4289 Clouds 25 1012 94 10000 1.5 40 08:42 18.01.2020
4290 Clouds 25 1012 94 10000 1.5 40 08:20 18.01.2020
4291 Clouds 25 1012 88 10000 1.5 310 07:59 18.01.2020
4292 Clouds 25 1012 88 10000 1.5 310 07:39 18.01.2020
4293 Fog 25 1012 100 3000 1 300 06:52 18.01.2020
4294 Fog 25 1012 100 3000 1 300 06:33 18.01.2020
4295 Fog 24 1012 100 2000 1.5 290 05:52 18.01.2020
4296 Clouds 25 1013 88 10000 1.5 360 04:25 18.01.2020
4297 Clouds 25 1013 94 10000 2.1 350 02:34 18.01.2020
4298 Clouds 25 1012 88 10000 1.5 360 01:40 18.01.2020
4299 Clouds 25 1011 94 10000 1 70 00:39 18.01.2020
4300 Clouds 25 1011 94 10000 1 70 00:19 18.01.2020
4301 Clouds 25 1011 94 10000 1 70 23:58 17.01.2020
4302 Clouds 26 1011 94 10000 2.1 20 23:38 17.01.2020
4303 Clouds 26 1011 94 10000 2.1 20 23:18 17.01.2020
4304 Clouds 26 1011 94 10000 0.41 84 22:41 17.01.2020
4305 Clouds 26 1011 94 10000 0.41 84 22:19 17.01.2020
4306 Clouds 26 1011 94 10000 1 330 21:54 17.01.2020
4307 Clouds 26 1011 94 10000 1 330 21:36 17.01.2020
4308 Clouds 26 1011 94 10000 1 330 21:18 17.01.2020
4309 Thunderstorm 25 1011 100 5000 3.6 350 20:41 17.01.2020
4310 Thunderstorm 25 1011 100 5000 3.6 350 20:21 17.01.2020
4311 Thunderstorm 25 1011 100 5000 3.6 350 20:21 17.01.2020
4312 Thunderstorm 27 1012 83 2000 5.7 60 19:57 17.01.2020
4313 Thunderstorm 28 1011 83 10000 2.1 260 19:38 17.01.2020
4314 Thunderstorm 28 1011 83 10000 2.1 260 19:20 17.01.2020
4315 Rain 29 1012 70 10000 1.5 110 18:57 17.01.2020
4316 Rain 29 1012 70 10000 1.5 110 18:38 17.01.2020
4317 Rain 29 1012 70 10000 1.5 110 18:19 17.01.2020
4318 Rain 28 1013 79 10000 1 300 17:40 17.01.2020
4319 Rain 28 1013 79 10000 1 300 17:40 17.01.2020
4320 Rain 28 1013 79 10000 1 300 17:21 17.01.2020
4321 Thunderstorm 26 1014 100 5000 2.1 300 16:55 17.01.2020
4322 Rain 26 1014 100 1000 1.5 240 16:36 17.01.2020
4323 Rain 26 1014 100 1000 1.5 240 16:18 17.01.2020
4324 Rain 26 1015 83 10000 1 130 15:43 17.01.2020
4325 Rain 26 1015 100 6000 1 140 15:25 17.01.2020
4326 Rain 26 1015 100 3000 1 120 14:44 17.01.2020
4327 Rain 26 1015 100 800 2.6 240 14:25 17.01.2020
4328 Rain 26 1014 94 4000 2.6 240 13:47 17.01.2020
4329 Rain 26 1014 94 4000 2.6 240 13:47 17.01.2020
4330 Rain 26 1014 94 4000 2.6 240 13:23 17.01.2020
4331 Mist 25 1013 100 5000 1.38 22 12:56 17.01.2020
4332 Clouds 26 1013 94 10000 2.1 220 12:37 17.01.2020
4333 Clouds 26 1013 94 10000 2.1 220 12:18 17.01.2020
4334 Clouds 25 1012 94 10000 1.5 240 11:38 17.01.2020
4335 Clouds 25 1012 94 10000 1.5 240 11:18 17.01.2020
4336 Fog 25 1012 100 600 1 300 10:42 17.01.2020
4337 Clouds 25 1012 100 10000 1.5 300 10:22 17.01.2020
4338 Mist 25 1012 100 1500 0.65 77 09:57 17.01.2020
4339 Fog 25 1012 100 500 1 300 09:37 17.01.2020
4340 Fog 25 1012 100 500 1 300 09:18 17.01.2020
4341 Clouds 25 1012 100 10000 1.5 290 08:42 17.01.2020
4342 Clouds 26 1012 88 10000 2.1 40 08:24 17.01.2020
4343 Clouds 26 1013 88 10000 1 40 07:53 17.01.2020
4344 Clouds 26 1013 88 10000 1 40 07:31 17.01.2020
4345 Clouds 26 1013 88 10000 1.5 60 06:57 17.01.2020
4346 Clouds 26 1013 88 10000 1.5 60 06:37 17.01.2020
4347 Clouds 26 1013 88 10000 1 30 05:27 17.01.2020
4348 Rain 24 1013 94 0 1.58 73 03:39 17.01.2020
4349 Rain 24 1013 94 0 1.58 73 02:44 17.01.2020
4350 Rain 25 1011 93 0 1.04 47 01:46 17.01.2020
4351 Rain 25 1011 92 0 1.15 33 01:27 17.01.2020
4352 Rain 25 1011 92 0 1.15 33 00:43 17.01.2020
4353 Clouds 29 1010 79 10000 1 90 00:20 17.01.2020
4354 Clouds 29 1010 79 10000 1 90 23:42 16.01.2020
4355 Clouds 29 1010 79 10000 1 90 23:24 16.01.2020
4356 Clouds 29 1010 83 10000 1 170 22:43 16.01.2020
4357 Clouds 29 1010 83 10000 1 170 22:22 16.01.2020
4358 Clouds 29 1010 74 10000 2.1 10 21:57 16.01.2020
4359 Clouds 29 1010 74 10000 2.1 10 21:39 16.01.2020
4360 Clouds 29 1010 74 10000 2.1 10 21:19 16.01.2020
4361 Rain 28 1011 74 10000 2.1 50 20:59 16.01.2020
4362 Rain 28 1011 74 10000 2.1 50 20:39 16.01.2020
4363 Rain 28 1011 74 10000 2.1 50 20:20 16.01.2020
4364 Rain 28 1012 78 10000 1.5 70 19:56 16.01.2020
4365 Rain 28 1012 78 10000 1.5 70 19:56 16.01.2020
4366 Rain 28 1012 78 10000 1.5 70 19:38 16.01.2020
4367 Rain 28 1012 78 10000 1.5 70 19:38 16.01.2020
4368 Rain 28 1012 78 10000 1.5 70 19:20 16.01.2020
4369 Clouds 28 1013 78 10000 2.1 160 18:55 16.01.2020
4370 Clouds 28 1013 78 10000 2.1 160 18:37 16.01.2020
4371 Clouds 28 1013 78 10000 2.1 160 18:18 16.01.2020
4372 Clouds 28 1013 78 10000 2.1 160 17:44 16.01.2020
4373 Clouds 28 1014 83 10000 1 150 17:23 16.01.2020
4374 Clouds 28 1014 83 10000 1 80 16:57 16.01.2020
4375 Clouds 28 1014 83 10000 1 80 16:39 16.01.2020
4376 Clouds 28 1014 83 10000 1 80 16:21 16.01.2020
4377 Clouds 27 1014 88 10000 2.1 70 15:44 16.01.2020
4378 Clouds 27 1014 88 10000 2.1 70 15:44 16.01.2020
4379 Clouds 27 1014 88 10000 2.1 70 15:24 16.01.2020
4380 Clouds 27 1014 88 10000 2.1 70 15:24 16.01.2020
4381 Clouds 25 1014 88 10000 4.6 70 14:59 16.01.2020
4382 Clouds 25 1014 88 10000 4.6 70 14:41 16.01.2020
4383 Clouds 25 1014 88 10000 4.6 70 14:22 16.01.2020
4384 Clouds 25 1014 88 10000 4.6 70 13:45 16.01.2020
4385 Clouds 24 1014 94 10000 5.1 60 13:26 16.01.2020
4386 Rain 24 1013 94 8000 5.1 30 12:57 16.01.2020
4387 Rain 24 1013 94 8000 5.1 30 12:38 16.01.2020
4388 Rain 24 1013 94 8000 5.1 30 12:20 16.01.2020
4389 Clouds 24 1012 94 10000 1.68 30 11:41 16.01.2020
4390 Clouds 24 1012 94 10000 1.68 30 11:41 16.01.2020
4391 Clouds 24 1012 94 10000 1.68 30 11:23 16.01.2020
4392 Clouds 25 1011 94 10000 1 90 10:55 16.01.2020
4393 Clouds 25 1011 94 10000 1 90 10:37 16.01.2020
4394 Clouds 25 1011 94 10000 1 90 10:19 16.01.2020
4395 Rain 26 1010 88 10000 1.5 60 09:42 16.01.2020
4396 Rain 26 1010 88 10000 1.5 60 09:24 16.01.2020
4397 Rain 25 1010 88 10000 1 100 08:58 16.01.2020
4398 Rain 25 1010 88 10000 1 100 08:39 16.01.2020
4399 Clear 25 1010 88 10000 1 100 08:18 16.01.2020
4400 Clear 26 1011 83 10000 1.5 80 07:42 16.01.2020
4401 Clear 26 1011 83 10000 1.5 80 07:23 16.01.2020
4402 Clear 25 1011 94 10000 1 80 06:50 16.01.2020
4403 Clear 25 1011 94 10000 1 80 06:32 16.01.2020
4404 Clear 26 1012 94 10000 0.66 237 05:47 16.01.2020
4405 Clear 25 1012 94 10000 0.34 58 04:46 16.01.2020
4406 Clear 25 1012 94 10000 0.34 58 04:46 16.01.2020
4407 Clouds 26 1012 88 10000 1 100 03:29 16.01.2020
4408 Clouds 27 1011 78 10000 0.34 58 02:45 16.01.2020
4409 Clouds 28 1009 74 10000 1.5 30 01:32 16.01.2020
4410 Clouds 28 1008 78 10000 1 100 00:42 16.01.2020
4411 Clouds 28 1008 78 10000 1 100 00:22 16.01.2020
4412 Clouds 29 1007 79 10000 0.5 150 23:40 15.01.2020
4413 -273 0 0 0 0 0 23:22 15.01.2020
4414 Clouds 29 1007 79 10000 0.5 150 23:22 15.01.2020
4415 Clouds 29 1007 79 10000 0.5 150 23:21 15.01.2020
4416 Clouds 30 1007 70 10000 1 110 22:56 15.01.2020
4417 Clouds 30 1007 70 10000 1 110 22:37 15.01.2020
4418 Clouds 30 1007 70 10000 1 110 22:18 15.01.2020
4419 Clouds 30 1007 70 10000 1.5 150 21:55 15.01.2020
4420 Clouds 30 1007 70 10000 1.5 150 21:36 15.01.2020
4421 Clouds 30 1007 70 10000 1.5 150 21:18 15.01.2020
4422 Clouds 30 1007 70 10000 1.5 150 21:18 15.01.2020
4423 Rain 30 1008 66 10000 3.1 70 20:54 15.01.2020
4424 Rain 30 1008 66 10000 3.1 70 20:36 15.01.2020
4425 Rain 30 1008 66 10000 3.1 70 20:18 15.01.2020
4426 Rain 30 1009 65 10000 7.7 70 19:54 15.01.2020
4427 Rain 30 1009 65 10000 7.7 70 19:36 15.01.2020
4428 Rain 30 1009 65 10000 7.7 70 19:18 15.01.2020
4429 Rain 30 1009 65 10000 7.7 70 19:18 15.01.2020
4430 Rain 32 1010 66 10000 2.1 90 18:54 15.01.2020
4431 Rain 32 1010 66 10000 2.1 90 18:36 15.01.2020
4432 Rain 32 1010 66 10000 2.1 90 18:18 15.01.2020
4433 Rain 31 1012 74 10000 2.6 70 17:40 15.01.2020
4434 Rain 31 1012 74 10000 2.6 70 17:40 15.01.2020
4435 Rain 31 1012 74 10000 2.6 70 17:21 15.01.2020
4436 Clouds 31 1012 70 10000 2.1 90 16:56 15.01.2020
4437 Clouds 31 1012 70 10000 2.1 90 16:38 15.01.2020
4438 Clouds 31 1012 70 10000 2.1 90 16:20 15.01.2020
4439 Clouds 31 1012 59 10000 3.1 60 15:43 15.01.2020
4440 Clouds 30 1013 70 10000 1.5 160 15:21 15.01.2020
4441 Clouds 29 1013 78 10000 2.6 90 14:55 15.01.2020
4442 Clouds 29 1013 78 10000 2.6 90 14:37 15.01.2020
4443 Clouds 29 1013 78 10000 2.6 90 14:18 15.01.2020
4444 Clouds 27 1012 83 10000 2.6 70 13:44 15.01.2020
4445 Clouds 27 1012 83 10000 2.6 70 13:23 15.01.2020
4446 Clouds 25 1011 94 10000 2.1 60 12:55 15.01.2020
4447 Clouds 25 1011 94 10000 2.1 60 12:37 15.01.2020
4448 Clouds 25 1011 94 10000 2.1 60 12:18 15.01.2020
4449 Clouds 25 1011 94 10000 2.1 60 12:18 15.01.2020
4450 Clouds 25 1010 94 10000 4.6 50 11:38 15.01.2020
4451 Clouds 25 1010 94 10000 4.6 50 11:20 15.01.2020
4452 Clouds 25 1010 94 10000 1 40 10:48 15.01.2020
4453 Clouds 25 1010 94 10000 1 40 10:29 15.01.2020
4454 Clouds 24 1010 94 10000 1 40 09:59 15.01.2020
4455 Clear 25 1010 83 10000 1.5 50 09:41 15.01.2020
4456 Clear 25 1010 83 10000 1.5 50 09:21 15.01.2020
4457 Clear 24 1009 83 10000 1.5 60 08:44 15.01.2020
4458 Clear 24 1009 83 10000 1.5 60 08:26 15.01.2020
4459 Clouds 25 1009 78 10000 1.5 40 07:54 15.01.2020
4460 Clouds 25 1009 78 10000 1.5 40 07:33 15.01.2020
4461 Clouds 24 1010 78 10000 1 30 06:54 15.01.2020
4462 Clouds 24 1010 78 10000 1 30 06:28 15.01.2020
4463 Clouds 26 1010 100 10000 1 210 04:57 15.01.2020
4464 Clouds 26 1011 78 10000 2.1 30 03:20 15.01.2020
4465 Clouds 26 1010 74 10000 1.5 90 01:48 15.01.2020
4466 Clouds 26 1010 74 10000 1.5 90 01:22 15.01.2020
4467 Thunderstorm 27 1009 74 10000 2.1 50 00:37 15.01.2020
4468 Thunderstorm 27 1009 74 10000 2.1 50 00:19 15.01.2020
4469 Thunderstorm 29 1009 74 10000 2.1 50 23:46 14.01.2020
4470 Clouds 29 1009 66 10000 2.1 70 23:27 14.01.2020
4471 Clouds 31 1008 58 10000 0.5 190 22:57 14.01.2020
4472 Clouds 31 1008 58 10000 0.5 190 22:39 14.01.2020
4473 Clouds 31 1008 58 10000 0.5 190 22:18 14.01.2020
4474 Clouds 31 1008 58 10000 1 140 21:56 14.01.2020
4475 Clouds 31 1008 58 10000 1 140 21:37 14.01.2020
4476 Clouds 31 1008 58 10000 1 140 21:19 14.01.2020
4477 Clouds 30 1010 70 10000 1.5 200 20:42 14.01.2020
4478 Clouds 30 1011 70 10000 1 120 20:22 14.01.2020
4479 Clouds 30 1011 70 10000 1 120 19:57 14.01.2020
4480 Clouds 30 1011 70 10000 1 120 19:38 14.01.2020
4481 Clouds 30 1011 70 10000 1 120 19:20 14.01.2020
4482 Clouds 30 1012 70 10000 2.1 160 18:59 14.01.2020
4483 Rain 30 1008 73 0 1.15 87 18:40 14.01.2020
4484 Clouds 30 1013 79 10000 1 60 18:19 14.01.2020
4485 Clouds 30 1013 79 10000 1 60 18:19 14.01.2020
4486 Clouds 30 1013 79 10000 1 60 17:39 14.01.2020
4487 Clouds 30 1013 79 10000 1 60 17:19 14.01.2020
4488 Clouds 27 1014 78 10000 2.6 60 16:59 14.01.2020
4489 Clouds 27 1014 78 10000 2.6 60 16:41 14.01.2020
4490 Clouds 27 1014 78 10000 2.6 60 16:21 14.01.2020
4491 Clouds 25 1014 94 10000 3.1 60 15:55 14.01.2020
4492 Clouds 25 1014 94 10000 3.1 60 15:37 14.01.2020
4493 Clouds 25 1014 94 10000 3.1 60 15:18 14.01.2020
4494 Rain 25 1014 94 4000 4.1 30 14:43 14.01.2020
4495 Rain 25 1014 94 4000 4.1 30 14:20 14.01.2020
4496 Rain 25 1015 94 10000 3.6 360 13:43 14.01.2020
4497 Rain 26 1014 94 4000 2.6 360 13:20 14.01.2020
4498 Clouds 24 1013 94 10000 1 170 12:59 14.01.2020
4499 Clouds 24 1013 94 10000 1 70 12:40 14.01.2020
4500 Clouds 24 1013 94 10000 1 70 12:20 14.01.2020
4501 Clouds 24 1013 94 10000 1 70 12:20 14.01.2020
4502 Clouds 24 1013 94 10000 1 70 12:20 14.01.2020
4503 Clouds 24 1013 94 10000 1 70 11:42 14.01.2020
4504 Clouds 24 1012 100 10000 1 110 11:23 14.01.2020
4505 Clouds 24 1011 94 10000 1 80 10:57 14.01.2020
4506 Clouds 24 1011 94 10000 1 80 10:38 14.01.2020
4507 Clouds 24 1011 94 10000 1 80 10:19 14.01.2020
4508 Clouds 23 1012 94 10000 1.5 60 09:56 14.01.2020
4509 Clouds 23 1012 94 10000 1.5 60 09:38 14.01.2020
4510 Clouds 23 1012 94 10000 1.5 60 09:19 14.01.2020
4511 Clouds 24 1012 94 10000 1 350 08:41 14.01.2020
4512 Clouds 24 1012 94 10000 1 350 08:23 14.01.2020
4513 Clouds 24 1012 94 10000 1.5 80 07:53 14.01.2020
4514 Clouds 24 1012 94 10000 1.5 80 07:26 14.01.2020
4515 Clouds 24 1013 94 10000 1 70 06:50 14.01.2020
4516 Clouds 24 1013 94 10000 1 70 06:18 14.01.2020
4517 Clouds 25 1013 94 10000 1 20 04:56 14.01.2020
4518 Clouds 25 1013 94 10000 1 110 03:48 14.01.2020
4519 Clouds 25 1012 94 10000 1 180 02:40 14.01.2020
4520 Clouds 24 1011 100 10000 1 120 01:31 14.01.2020
4521 Clouds 24 1011 100 10000 1 130 00:48 14.01.2020
4522 Clouds 24 1011 100 10000 1 130 00:26 14.01.2020
4523 Clouds 24 1011 100 10000 1 130 23:47 13.01.2020
4524 Rain 24 1011 100 10000 1 180 23:19 13.01.2020
4525 Rain 24 1011 94 5000 1 340 22:58 13.01.2020
4526 Rain 24 1011 94 5000 1 340 22:39 13.01.2020
4527 Rain 24 1011 94 5000 1 340 22:20 13.01.2020
4528 Rain 24 1010 100 8000 1.32 24 21:56 13.01.2020
4529 Rain 24 1010 100 8000 1.32 24 21:56 13.01.2020
4530 Rain 24 1010 100 8000 1.32 24 21:37 13.01.2020
4531 Rain 24 1010 100 8000 1.32 24 21:18 13.01.2020
4532 Rain 24 1010 100 8000 1.32 24 21:18 13.01.2020
4533 Rain 27 1010 94 10000 0.5 110 20:56 13.01.2020
4534 Rain 27 1010 94 10000 0.5 110 20:38 13.01.2020
4535 Rain 27 1010 94 10000 0.5 110 20:19 13.01.2020
4536 Rain 28 1011 88 9000 1.5 120 19:42 13.01.2020
4537 Rain 28 1011 88 9000 1.5 120 19:42 13.01.2020
4538 Rain 28 1011 88 9000 1.5 120 19:22 13.01.2020
4539 Clouds 30 1011 66 10000 4.6 10 18:59 13.01.2020
4540 Clouds 30 1011 66 10000 4.6 10 18:40 13.01.2020
4541 Clouds 30 1011 66 10000 4.6 10 18:20 13.01.2020
4542 Clouds 30 1011 66 10000 4.6 10 18:20 13.01.2020
4543 Clouds 30 1011 66 10000 4.6 10 18:20 13.01.2020
4544 Clouds 30 1012 66 10000 5.1 50 17:58 13.01.2020
4545 Clouds 30 1012 66 10000 5.1 50 17:39 13.01.2020
4546 Clouds 30 1012 66 10000 5.1 50 17:21 13.01.2020
4547 Rain 25 1013 91 0 1.21 328 16:44 13.01.2020
4548 Rain 25 1013 91 0 1.21 328 16:25 13.01.2020
4549 Rain 25 1013 91 0 1.21 328 15:59 13.01.2020
4550 Rain 25 1013 91 0 1.21 328 15:41 13.01.2020
4551 Rain 25 1013 91 0 1.21 328 15:21 13.01.2020
4552 Rain 25 1013 91 0 1.21 328 14:54 13.01.2020
4553 Rain 25 1013 91 0 1.21 328 14:36 13.01.2020
4554 Rain 24 1012 93 0 2.25 29 14:18 13.01.2020
4555 Rain 24 1012 93 0 2.25 29 13:40 13.01.2020
4556 Clouds 26 1012 83 10000 1 100 13:22 13.01.2020
4557 Clouds 26 1012 83 10000 1 100 12:58 13.01.2020
4558 Clouds 26 1012 83 10000 1 100 12:40 13.01.2020
4559 Clouds 25 1012 83 10000 1 100 12:21 13.01.2020
4560 Clouds 25 1012 78 10000 1 10 11:40 13.01.2020
4561 Clouds 25 1012 78 10000 1 10 11:20 13.01.2020
4562 Clouds 25 1012 78 10000 1 10 11:20 13.01.2020
4563 Clouds 25 1012 78 10000 1 10 11:20 13.01.2020
4564 Rain 25 1011 83 10000 1.5 60 10:58 13.01.2020
4565 Rain 25 1011 83 10000 1.5 60 10:58 13.01.2020
4566 Rain 25 1011 83 10000 1.5 60 10:39 13.01.2020
4567 Rain 25 1011 83 10000 1.5 60 10:39 13.01.2020
4568 Rain 25 1011 83 10000 1.5 60 10:21 13.01.2020
4569 Rain 25 1011 78 10000 1.5 50 09:59 13.01.2020
4570 Rain 25 1011 78 10000 1.5 50 09:40 13.01.2020
4571 Rain 25 1011 78 10000 1.5 50 09:21 13.01.2020
4572 Rain 25 1011 78 10000 2.6 50 08:41 13.01.2020
4573 Rain 25 1011 78 10000 2.6 50 08:20 13.01.2020
4574 Rain 25 1011 78 10000 2.6 50 07:52 13.01.2020
4575 Rain 25 1011 78 10000 2.6 50 07:33 13.01.2020
4576 Rain 26 1012 78 10000 2.1 30 06:43 13.01.2020
4577 Rain 26 1012 78 10000 2.1 30 06:21 13.01.2020
4578 Rain 26 1012 78 10000 2.6 10 05:27 13.01.2020
4579 Clouds 26 1013 74 10000 1.5 20 03:55 13.01.2020
4580 Clouds 26 1013 74 10000 1.5 20 03:24 13.01.2020
4581 Clouds 26 1012 69 10000 1.5 30 02:45 13.01.2020
4582 Clouds 26 1012 69 10000 1.5 30 02:26 13.01.2020
4583 Clouds 28 1011 66 10000 1.5 20 01:20 13.01.2020
4584 Rain 29 1010 66 10000 4.1 20 00:41 13.01.2020
4585 Rain 29 1010 66 10000 4.1 20 00:22 13.01.2020
4586 Clouds 31 1009 58 10000 2.6 360 23:42 12.01.2020
4587 Clouds 31 1009 58 10000 2.6 360 23:24 12.01.2020
4588 Clouds 31 1009 58 10000 2.6 360 22:58 12.01.2020
4589 Clouds 31 1009 58 10000 2.6 360 22:58 12.01.2020
4590 Clouds 31 1009 58 10000 2.1 50 22:39 12.01.2020
4591 Clouds 31 1009 58 10000 2.1 50 22:21 12.01.2020
4592 Clouds 31 1009 58 10000 2.1 50 21:56 12.01.2020
4593 Clouds 31 1010 66 10000 2.6 50 21:38 12.01.2020
4594 Clouds 31 1010 66 10000 2.6 50 21:19 12.01.2020
4595 Clouds 31 1010 66 10000 2.6 50 20:56 12.01.2020
4596 Clouds 32 1010 62 10000 3.1 100 20:37 12.01.2020
4597 Clouds 32 1010 62 10000 3.1 100 20:19 12.01.2020
4598 Clouds 31 1010 52 10000 2.6 330 19:55 12.01.2020
4599 Clouds 31 1011 70 10000 1.5 90 19:37 12.01.2020
4600 Clouds 31 1011 70 10000 1.5 90 19:18 12.01.2020
4601 Clouds 31 1011 70 10000 1.5 90 19:18 12.01.2020
4602 Clouds 31 1012 62 10000 4.6 30 18:56 12.01.2020
4603 Clouds 31 1012 62 10000 4.6 30 18:38 12.01.2020
4604 Clouds 31 1012 62 10000 4.6 30 18:19 12.01.2020
4605 Clouds 31 1013 58 10000 4.1 30 17:42 12.01.2020
4606 Clouds 31 1013 58 10000 4.1 30 17:22 12.01.2020
4607 Clouds 30 1013 62 10000 4.6 40 16:58 12.01.2020
4608 Clouds 30 1013 62 10000 4.6 40 16:39 12.01.2020
4609 Clouds 30 1013 62 10000 4.6 40 16:20 12.01.2020
4610 Clouds 28 1014 69 10000 4.6 30 15:55 12.01.2020
4611 Clouds 28 1014 69 10000 4.6 30 15:37 12.01.2020
4612 Clouds 28 1014 69 10000 4.6 30 15:19 12.01.2020
4613 Clouds 28 1014 69 10000 4.1 30 14:42 12.01.2020
4614 Clouds 28 1014 69 10000 4.1 30 14:23 12.01.2020
4615 Clouds 27 1013 78 10000 1 70 13:56 12.01.2020
4616 Clouds 27 1013 78 10000 1 70 13:38 12.01.2020
4617 Clouds 27 1013 78 10000 1 70 13:20 12.01.2020
4618 Clouds 25 1012 88 10000 1 60 12:44 12.01.2020
4619 Clouds 25 1012 88 10000 1 60 12:21 12.01.2020
4620 Clouds 25 1011 88 10000 1 40 11:59 12.01.2020
4621 Clouds 25 1011 88 10000 1 40 11:40 12.01.2020
4622 Clouds 25 1011 88 10000 1 40 11:22 12.01.2020
4623 Clouds 24 1011 88 10000 2.1 70 10:56 12.01.2020
4624 Clouds 24 1011 88 10000 2.1 70 10:37 12.01.2020
4625 Clouds 24 1011 88 10000 2.1 70 10:18 12.01.2020
4626 Clouds 24 1011 94 10000 1.5 120 09:41 12.01.2020
4627 Clouds 24 1011 94 10000 1.5 120 09:21 12.01.2020
4628 Clouds 25 1011 83 10000 2.1 130 08:47 12.01.2020
4629 Clouds 25 1011 83 10000 2.1 130 08:21 12.01.2020
4630 Clouds 25 1011 83 10000 2.1 130 08:21 12.01.2020
4631 Clouds 25 1012 83 10000 1.5 10 07:46 12.01.2020
4632 Clouds 25 1012 83 10000 1.5 10 07:25 12.01.2020
4633 Clouds 26 1012 83 10000 2.1 70 06:50 12.01.2020
4634 Clouds 26 1012 83 10000 2.1 70 06:32 12.01.2020
4635 Rain 27 1012 78 10000 2.1 130 05:49 12.01.2020
4636 Rain 27 1012 78 10000 1.5 70 04:52 12.01.2020
4637 Clouds 27 1012 74 10000 1.5 60 03:33 12.01.2020
4638 Clouds 27 1012 74 10000 1.5 30 02:43 12.01.2020
4639 Clouds 27 1012 74 10000 1.5 30 02:22 12.01.2020
4640 Clouds 27 1011 78 10000 2.1 70 01:30 12.01.2020
4641 Clouds 28 1010 70 10000 2.6 70 00:45 12.01.2020
4642 Clouds 28 1010 70 10000 2.6 70 00:22 12.01.2020
4643 Clouds 29 1010 70 10000 2.6 70 23:56 11.01.2020
4644 Rain 30 1009 66 10000 4.1 50 23:37 11.01.2020
4645 Rain 30 1009 66 10000 4.1 50 23:18 11.01.2020
4646 Rain 29 1009 66 10000 3.6 20 22:56 11.01.2020
4647 Rain 29 1009 66 10000 3.6 20 22:37 11.01.2020
4648 Rain 29 1009 66 10000 3.6 20 22:18 11.01.2020
4649 Clouds 31 1009 62 10000 3.1 40 21:42 11.01.2020
4650 Clouds 31 1009 62 10000 3.1 40 21:18 11.01.2020
4651 Clouds 31 1009 62 10000 3.6 60 20:55 11.01.2020
4652 Clouds 31 1009 62 10000 3.6 60 20:36 11.01.2020
4653 Clouds 31 1009 62 10000 3.6 60 20:18 11.01.2020
4654 Clouds 31 1009 62 10000 3.6 60 20:18 11.01.2020
4655 Clouds 30 1010 66 10000 2.6 40 19:54 11.01.2020
4656 Clouds 30 1010 66 10000 2.6 40 19:36 11.01.2020
4657 Clouds 30 1010 66 10000 2.6 40 19:18 11.01.2020
4658 Clouds 31 1011 62 10000 2.6 60 18:39 11.01.2020
4659 Clouds 31 1011 62 10000 2.6 60 18:20 11.01.2020
4660 Clouds 31 1011 62 10000 2.6 60 18:20 11.01.2020
4661 Clouds 30 1012 62 10000 3.6 70 17:58 11.01.2020
4662 Clouds 30 1012 62 10000 3.6 70 17:40 11.01.2020
4663 Clouds 30 1012 62 10000 3.6 70 17:20 11.01.2020
4664 Clouds 30 1012 62 10000 4.1 30 16:55 11.01.2020
4665 Clouds 30 1012 62 10000 4.1 30 16:55 11.01.2020
4666 Clouds 30 1012 62 10000 4.1 30 16:36 11.01.2020
4667 Clouds 30 1012 62 10000 4.1 30 16:36 11.01.2020
4668 Clouds 30 1012 62 10000 4.1 30 16:18 11.01.2020
4669 Clouds 29 1012 70 10000 3.1 50 15:41 11.01.2020
4670 Clouds 29 1012 70 10000 3.1 50 15:22 11.01.2020
4671 Clouds 27 1013 78 10000 2.1 80 14:58 11.01.2020
4672 Clouds 27 1013 78 10000 2.1 80 14:58 11.01.2020
4673 Clouds 27 1013 78 10000 2.1 80 14:39 11.01.2020
4674 Clouds 27 1013 78 10000 2.1 80 14:39 11.01.2020
4675 Clouds 27 1013 78 10000 2.1 80 14:21 11.01.2020
4676 Clouds 26 1013 78 10000 2.1 80 13:55 11.01.2020
4677 Clouds 26 1012 83 10000 2.6 80 13:36 11.01.2020
4678 Clouds 26 1012 83 10000 2.6 80 13:18 11.01.2020
4679 Clouds 25 1012 88 10000 1.5 60 12:41 11.01.2020
4680 Clouds 25 1012 88 10000 1.5 60 12:41 11.01.2020
4681 Clouds 25 1012 88 10000 1.5 60 12:23 11.01.2020
4682 Clouds 24 1012 88 10000 1.5 60 11:48 11.01.2020
4683 Clouds 24 1011 88 10000 1.5 10 11:26 11.01.2020
4684 Clouds 24 1010 94 10000 2.1 260 10:55 11.01.2020
4685 Clouds 24 1010 94 10000 2.1 260 10:36 11.01.2020
4686 Clouds 24 1010 94 10000 2.1 260 10:36 11.01.2020
4687 Clouds 24 1010 94 10000 2.1 260 10:18 11.01.2020
4688 Clouds 24 1010 94 10000 1.5 90 09:39 11.01.2020
4689 Clouds 24 1010 94 10000 1.5 90 09:20 11.01.2020
4690 Clouds 24 1010 94 10000 1.5 90 09:20 11.01.2020
4691 Clouds 24 1010 94 0 0.5 50 08:42 11.01.2020
4692 Clouds 24 1010 94 0 0.5 50 08:22 11.01.2020
4693 Rain 24 1011 94 10000 1 40 07:44 11.01.2020
4694 Rain 24 1011 94 10000 1 40 07:25 11.01.2020
4695 Rain 25 1011 88 10000 0.23 101 06:51 11.01.2020
4696 Rain 26 1012 83 10000 1.5 50 05:48 11.01.2020
4697 Rain 26 1012 83 10000 2.1 30 04:47 11.01.2020
4698 Rain 26 1012 83 10000 2.1 30 04:28 11.01.2020
4699 Rain 26 1011 83 10000 2.6 80 02:49 11.01.2020
4700 Rain 26 1011 83 10000 2.6 80 02:27 11.01.2020
4701 Clouds 27 1011 83 10000 2.1 30 01:43 11.01.2020
4702 Clouds 27 1011 83 10000 2.1 30 01:19 11.01.2020
4703 Clouds 27 1010 78 10000 1.5 360 00:40 11.01.2020
4704 Clouds 28 1009 78 10000 1.5 30 23:59 10.01.2020
4705 Clouds 28 1009 78 10000 1.5 30 23:40 10.01.2020
4706 Clouds 28 1009 78 10000 1.5 30 23:22 10.01.2020
4707 Clouds 30 1009 70 10000 2.6 20 22:58 10.01.2020
4708 Clouds 30 1009 70 10000 2.6 20 22:40 10.01.2020
4709 Clouds 30 1009 70 10000 2.6 20 22:20 10.01.2020
4710 Rain 29 1009 70 10000 3.1 10 21:57 10.01.2020
4711 Rain 29 1009 70 10000 3.1 10 21:37 10.01.2020
4712 Rain 29 1009 70 10000 3.1 10 21:19 10.01.2020
4713 Rain 27 1010 74 10000 2.6 10 20:43 10.01.2020
4714 Rain 27 1010 74 10000 2.6 10 20:24 10.01.2020
4715 Rain 27 1011 78 10000 4.1 20 19:58 10.01.2020
4716 Rain 27 1011 78 10000 4.1 20 19:38 10.01.2020
4717 Rain 27 1011 78 10000 4.1 20 19:19 10.01.2020
4718 Clouds 28 1012 83 10000 4.6 40 18:43 10.01.2020
4719 Clouds 28 1012 83 10000 4.6 40 18:19 10.01.2020
4720 Rain 27 1012 94 3000 6.2 60 17:57 10.01.2020
4721 Clouds 28 1012 78 10000 4.1 30 17:39 10.01.2020
4722 Clouds 28 1012 78 10000 4.1 30 17:20 10.01.2020
4723 Rain 25 1013 83 10000 4.6 30 16:58 10.01.2020
4724 Rain 24 1013 94 8000 5.7 30 16:39 10.01.2020
4725 Rain 24 1013 94 8000 5.7 30 16:19 10.01.2020
4726 Rain 26 1013 83 3000 2.6 60 15:56 10.01.2020
4727 Clouds 29 1013 79 10000 1.5 130 15:37 10.01.2020
4728 Clouds 29 1013 79 10000 1.5 130 15:18 10.01.2020
4729 Clouds 27 1013 83 10000 3.1 80 14:55 10.01.2020
4730 Rain 27 1013 88 8000 1.5 140 14:37 10.01.2020
4731 Rain 27 1013 88 8000 1.5 140 14:18 10.01.2020
4732 Clouds 27 1013 94 10000 1 140 13:43 10.01.2020
4733 Clouds 27 1013 94 10000 1 140 13:25 10.01.2020
4734 Clouds 25 1012 100 10000 1 310 12:58 10.01.2020
4735 Clouds 25 1012 100 10000 1 310 12:39 10.01.2020
4736 Clouds 25 1012 100 10000 1 310 12:19 10.01.2020
4737 Clouds 25 1012 100 10000 1 310 12:19 10.01.2020
4738 Clouds 24 1012 100 10000 1 310 11:55 10.01.2020
4739 Clouds 25 1011 94 10000 1 60 11:37 10.01.2020
4740 Clouds 25 1011 94 10000 1 60 11:18 10.01.2020
4741 Clouds 24 1011 94 10000 1 60 10:57 10.01.2020
4742 Clouds 24 1011 94 10000 1 60 10:36 10.01.2020
4743 Clouds 24 1011 94 10000 1 60 10:18 10.01.2020
4744 Clouds 24 1011 94 10000 1 70 09:42 10.01.2020
4745 Clouds 24 1011 94 10000 1 70 09:23 10.01.2020
4746 Clouds 24 1011 94 10000 1 60 08:43 10.01.2020
4747 Clouds 24 1011 94 10000 1 60 08:24 10.01.2020
4748 Clouds 25 1012 94 10000 1.5 150 07:48 10.01.2020
4749 Clouds 25 1012 94 10000 1.5 150 07:30 10.01.2020
4750 Clouds 25 1012 94 10000 1 70 06:56 10.01.2020
4751 Clouds 25 1012 94 10000 1 70 06:27 10.01.2020
4752 Clouds 26 1012 88 10000 1 140 05:52 10.01.2020
4753 Clouds 26 1012 88 10000 1.5 80 03:50 10.01.2020
4754 Clouds 26 1012 88 10000 1.5 80 03:31 10.01.2020
4755 Clouds 27 1011 83 10000 1.5 80 02:51 10.01.2020
4756 Clouds 27 1011 83 10000 2.1 80 01:52 10.01.2020
4757 Clouds 27 1011 83 10000 2.1 80 01:28 10.01.2020
4758 Clouds 27 1010 83 10000 1.5 80 00:48 10.01.2020
4759 Clouds 27 1010 83 10000 1.5 80 00:30 10.01.2020
4760 Clouds 28 1010 83 10000 2.6 80 23:39 09.01.2020
4761 Clouds 28 1010 83 10000 2.6 80 23:39 09.01.2020
4762 Clouds 28 1010 83 10000 2.6 80 23:39 09.01.2020
4763 Clouds 28 1010 83 10000 2.6 80 23:39 09.01.2020
4764 Clouds 28 1010 83 10000 2.6 80 23:39 09.01.2020
4765 Clouds 28 1010 83 10000 2.6 80 23:21 09.01.2020
4766 Clouds 29 1010 83 10000 2.1 70 22:58 09.01.2020
4767 Clouds 29 1010 83 10000 2.1 70 22:58 09.01.2020
4768 Clouds 29 1010 83 10000 2.1 70 22:39 09.01.2020
4769 Clouds 29 1010 83 10000 2.1 70 22:19 09.01.2020
4770 Clouds 29 1010 83 10000 2.1 70 22:19 09.01.2020
4771 Clouds 30 1010 79 10000 1.5 80 21:57 09.01.2020
4772 Clouds 30 1010 79 10000 1.5 80 21:57 09.01.2020
4773 Clouds 30 1010 79 10000 1.5 80 21:38 09.01.2020
4774 Clouds 30 1010 79 10000 1.5 80 21:20 09.01.2020
4775 Clouds 30 1011 74 10000 1.5 90 20:58 09.01.2020
4776 Clouds 30 1011 74 10000 1.5 90 20:39 09.01.2020
4777 Clouds 30 1011 74 10000 1.5 90 20:20 09.01.2020
4778 Clouds 30 1012 79 10000 2.1 80 19:58 09.01.2020
4779 Clouds 30 1012 79 10000 2.1 80 19:39 09.01.2020
4780 Clouds 30 1012 79 10000 2.1 80 19:20 09.01.2020
4781 Rain 29 1013 78 10000 3.1 70 18:56 09.01.2020
4782 Rain 29 1013 78 10000 3.1 70 18:37 09.01.2020
4783 Rain 29 1013 78 10000 3.1 70 18:19 09.01.2020
4784 Rain 29 1014 83 10000 2.6 70 17:41 09.01.2020
4785 Rain 29 1014 83 10000 2.6 70 17:19 09.01.2020
4786 Clouds 28 1014 83 10000 3.1 80 16:56 09.01.2020
4787 Clouds 28 1014 83 10000 3.1 80 16:36 09.01.2020
4788 Clouds 28 1014 83 10000 3.1 80 16:18 09.01.2020
4789 Clouds 28 1015 88 10000 2.1 80 15:41 09.01.2020
4790 Clouds 28 1015 88 10000 2.1 80 15:41 09.01.2020
4791 Clouds 28 1015 78 10000 3.1 80 15:20 09.01.2020
4792 Clouds 28 1014 83 10000 1 80 14:55 09.01.2020
4793 Clouds 28 1014 83 10000 1 80 14:36 09.01.2020
4794 Clouds 28 1014 83 10000 1 80 14:18 09.01.2020
4795 Clouds 27 1014 83 10000 1 70 13:54 09.01.2020
4796 Clouds 27 1014 83 10000 1 70 13:36 09.01.2020
4797 Clouds 27 1014 83 10000 1 70 13:18 09.01.2020
4798 Clouds 25 1013 88 10000 1 150 12:41 09.01.2020
4799 Clouds 25 1013 88 10000 1 150 12:22 09.01.2020
4800 Clouds 25 1013 88 10000 1 150 11:58 09.01.2020
4801 Clouds 25 1013 88 10000 1 150 11:40 09.01.2020
4802 Clouds 25 1013 88 10000 1 150 11:22 09.01.2020
4803 Clouds 25 1011 88 10000 1 50 10:44 09.01.2020
4804 Clouds 25 1011 88 10000 1 50 10:23 09.01.2020
4805 Clouds 26 1011 88 10000 1.5 50 09:59 09.01.2020
4806 Clouds 26 1011 88 10000 1.5 50 09:40 09.01.2020
4807 Clouds 26 1011 88 10000 1.5 50 09:21 09.01.2020
4808 Clouds 26 1011 88 10000 1.5 50 09:21 09.01.2020
4809 Clouds 25 1011 88 10000 1 50 08:55 09.01.2020
4810 Clouds 25 1011 88 10000 1 50 08:37 09.01.2020
4811 Clouds 25 1011 88 10000 1 50 08:19 09.01.2020
4812 Clouds 26 1011 88 10000 1.5 30 07:42 09.01.2020
4813 Clouds 26 1011 88 10000 1.5 30 07:42 09.01.2020
4814 Clouds 26 1011 88 10000 1.5 30 07:23 09.01.2020
4815 Clouds 26 1011 88 10000 1 40 06:39 09.01.2020
4816 Clouds 26 1011 88 10000 1 40 06:20 09.01.2020
4817 Clouds 26 1012 83 10000 1.5 40 05:49 09.01.2020
4818 Clouds 26 1012 83 10000 1 40 04:44 09.01.2020
4819 Clouds 26 1012 83 10000 1.5 40 03:38 09.01.2020
4820 Clouds 28 1012 78 10000 2.1 40 02:53 09.01.2020
4821 Clouds 28 1012 78 10000 2.1 40 02:24 09.01.2020
4822 Clouds 28 1011 74 10000 1.5 20 01:39 09.01.2020
4823 Clouds 28 1010 78 10000 2.6 20 00:43 09.01.2020
4824 Clouds 28 1010 78 10000 2.6 20 00:21 09.01.2020
4825 Clouds 28 1010 78 10000 2.6 20 00:21 09.01.2020
4826 Clouds 28 1010 78 10000 2.6 20 00:21 09.01.2020
4827 Clouds 29 1009 74 10000 1.5 30 23:42 08.01.2020
4828 Clouds 29 1009 74 10000 1.5 30 23:24 08.01.2020
4829 Clouds 29 1009 74 10000 2.6 10 22:59 08.01.2020
4830 Clouds 29 1009 74 10000 2.6 10 22:39 08.01.2020
4831 Clouds 29 1009 74 10000 2.6 10 22:20 08.01.2020
4832 Rain 31 1009 74 10000 2.1 30 21:57 08.01.2020
4833 Rain 31 1009 74 10000 2.1 30 21:38 08.01.2020
4834 Rain 31 1009 74 10000 2.1 30 21:19 08.01.2020
4835 Rain 28 1010 83 9000 2.6 360 20:57 08.01.2020
4836 Rain 28 1010 83 9000 2.6 360 20:38 08.01.2020
4837 Rain 28 1010 83 9000 2.6 360 20:20 08.01.2020
4838 Thunderstorm 29 1011 88 2000 5.7 50 19:55 08.01.2020
4839 Thunderstorm 29 1011 88 2000 5.7 50 19:55 08.01.2020
4840 Rain 31 1011 70 10000 3.6 30 19:36 08.01.2020
4841 Rain 31 1011 70 10000 3.6 30 19:18 08.01.2020
4842 Clouds 30 1012 78 10000 2.6 80 18:54 08.01.2020
4843 Clouds 30 1012 78 10000 2.6 80 18:54 08.01.2020
4844 Clouds 30 1012 78 10000 2.6 80 18:36 08.01.2020
4845 Clouds 30 1012 78 10000 2.6 80 18:18 08.01.2020
4846 Clouds 30 1012 78 10000 2.6 80 18:18 08.01.2020
4847 Clouds 30 1013 74 10000 4.1 10 17:42 08.01.2020
4848 Clouds 30 1013 74 10000 4.1 10 17:23 08.01.2020
4849 Clouds 29 1014 78 10000 3.1 40 16:57 08.01.2020
4850 Clouds 29 1014 78 10000 3.1 40 16:57 08.01.2020
4851 Clouds 29 1014 78 10000 3.1 40 16:38 08.01.2020
4852 Clouds 29 1014 78 10000 3.1 40 16:19 08.01.2020
4853 Clouds 26 1015 88 10000 1 10 15:55 08.01.2020
4854 Clouds 26 1015 88 10000 1 10 15:37 08.01.2020
4855 Clouds 26 1015 88 10000 1 10 15:18 08.01.2020
4856 Clouds 25 1014 88 10000 3.1 30 14:41 08.01.2020
4857 Clouds 25 1014 88 10000 3.1 30 14:21 08.01.2020
4858 Clouds 24 1014 100 10000 2.1 10 13:42 08.01.2020
4859 Rain 24 1014 94 5000 5.1 30 13:24 08.01.2020
4860 Rain 25 1014 94 1000 7.2 60 12:59 08.01.2020
4861 Rain 25 1014 94 5000 5.1 60 12:40 08.01.2020
4862 Rain 25 1014 94 5000 5.1 60 12:18 08.01.2020
4863 Rain 25 1014 94 5000 5.1 60 12:18 08.01.2020
4864 Rain 25 1013 94 10000 3.6 20 11:48 08.01.2020
4865 Clouds 26 1011 94 10000 1 80 11:19 08.01.2020
4866 Clouds 25 1011 100 10000 1 100 10:59 08.01.2020
4867 Clouds 25 1011 100 10000 1 100 10:40 08.01.2020
4868 Clouds 25 1011 100 10000 1 100 10:21 08.01.2020
4869 Clouds 25 1010 100 10000 1 60 09:43 08.01.2020
4870 Clouds 25 1010 100 10000 1 60 09:21 08.01.2020
4871 Clouds 25 1010 94 10000 1.5 80 08:59 08.01.2020
4872 Clouds 25 1010 94 10000 1.5 80 08:41 08.01.2020
4873 Clouds 25 1010 94 10000 1.5 80 08:22 08.01.2020
4874 Clouds 24 1010 94 10000 1 340 07:58 08.01.2020
4875 Clouds 24 1010 94 10000 1 340 07:39 08.01.2020
4876 Rain 25 1011 100 4000 3.1 70 07:18 08.01.2020
4877 Rain 25 1011 94 4000 5.7 50 06:41 08.01.2020
4878 Clouds 26 1012 94 10000 1 80 05:56 08.01.2020
4879 Clouds 26 1012 94 10000 1 80 05:26 08.01.2020
4880 Clouds 26 1012 88 10000 1 40 04:36 08.01.2020
4881 Clouds 26 1011 94 10000 0.5 130 02:46 08.01.2020
4882 Clouds 26 1011 94 10000 0.5 130 02:28 08.01.2020
4883 Thunderstorm 25 1011 94 6000 1 120 01:56 08.01.2020
4884 Thunderstorm 26 1011 94 4000 2.1 20 01:30 08.01.2020
4885 Thunderstorm 26 1010 94 4000 2.1 240 00:51 08.01.2020
4886 Thunderstorm 26 1010 94 4000 2.1 240 00:22 08.01.2020
4887 Thunderstorm 28 1009 88 2000 4.1 300 23:46 07.01.2020
4888 Thunderstorm 28 1009 88 2000 4.1 300 23:21 07.01.2020
4889 Thunderstorm 28 1009 88 2000 4.1 300 23:21 07.01.2020
4890 Thunderstorm 31 1008 66 9000 2.1 60 22:41 07.01.2020
4891 Clouds 32 1008 59 10000 2.1 80 22:21 07.01.2020
4892 Clouds 33 1008 62 10000 2.1 80 21:59 07.01.2020
4893 Clouds 33 1008 62 10000 2.1 80 21:41 07.01.2020
4894 Clouds 33 1008 62 10000 2.1 80 21:21 07.01.2020
4895 Clouds 33 1008 62 10000 2.1 70 20:57 07.01.2020
4896 Clouds 33 1008 62 10000 2.1 70 20:39 07.01.2020
4897 Clouds 33 1008 62 10000 2.1 70 20:39 07.01.2020
4898 Clouds 33 1008 62 10000 2.1 70 20:21 07.01.2020
4899 Rain 33 1010 59 10000 3.6 60 19:56 07.01.2020
4900 Rain 33 1010 59 10000 3.6 60 19:37 07.01.2020
4901 Rain 33 1010 59 10000 3.6 60 19:19 07.01.2020
4902 Rain 33 1010 59 10000 3.6 60 19:19 07.01.2020
4903 Rain 33 1010 59 10000 3.6 60 19:19 07.01.2020
4904 Clouds 33 1011 66 10000 3.6 70 18:55 07.01.2020
4905 Clouds 33 1011 66 10000 3.6 70 18:37 07.01.2020
4906 Clouds 33 1011 66 10000 3.6 70 18:18 07.01.2020
4907 Clouds 32 1011 66 10000 4.1 70 17:41 07.01.2020
4908 Clouds 32 1011 66 10000 4.1 70 17:23 07.01.2020
4909 Clouds 32 1012 66 10000 5.1 60 16:58 07.01.2020
4910 Clouds 32 1012 66 10000 5.1 60 16:38 07.01.2020
4911 Clouds 32 1012 66 10000 5.1 60 16:19 07.01.2020
4912 Clouds 31 1013 70 10000 4.1 80 15:59 07.01.2020
4913 Clouds 31 1013 70 10000 4.1 80 15:41 07.01.2020
4914 Clouds 31 1013 70 10000 4.1 80 15:23 07.01.2020
4915 Clouds 29 1012 79 10000 3.6 60 14:56 07.01.2020
4916 Clouds 29 1012 79 10000 3.6 60 14:37 07.01.2020
4917 Clouds 29 1012 79 10000 3.6 60 14:19 07.01.2020
4918 Clouds 28 1012 88 10000 4.1 70 13:40 07.01.2020
4919 Clouds 28 1012 88 10000 4.1 70 13:19 07.01.2020
4920 Clouds 26 1011 88 10000 3.6 70 12:42 07.01.2020
4921 Clouds 26 1011 88 10000 3.6 70 12:21 07.01.2020
4922 Clouds 26 1011 94 10000 3.6 70 11:59 07.01.2020
4923 Clouds 26 1011 94 10000 3.6 70 11:40 07.01.2020
4924 Clouds 26 1011 94 10000 3.6 70 11:21 07.01.2020
4925 Clouds 26 1010 83 10000 3.1 80 10:42 07.01.2020
4926 Clouds 26 1010 83 10000 3.1 80 10:42 07.01.2020
4927 Clouds 26 1010 83 10000 3.1 80 10:24 07.01.2020
4928 Clouds 26 1010 74 10000 1.5 40 09:59 07.01.2020
4929 Clouds 26 1010 74 10000 1.5 40 09:38 07.01.2020
4930 Clouds 26 1010 74 10000 1.5 40 09:20 07.01.2020
4931 Clouds 27 1009 65 10000 2.1 70 08:46 07.01.2020
4932 Clouds 27 1009 65 10000 2.1 70 08:26 07.01.2020
4933 Clouds 27 1009 69 10000 2.1 40 07:54 07.01.2020
4934 Clouds 27 1009 69 10000 2.1 40 07:29 07.01.2020
4935 Clouds 28 1010 65 10000 1.5 40 06:54 07.01.2020
4936 Clouds 28 1010 65 10000 1.5 40 06:54 07.01.2020
4937 Clouds 28 1010 65 10000 1.5 40 06:35 07.01.2020
4938 Clouds 28 1010 69 10000 2.1 50 05:57 07.01.2020
4939 Clouds 28 1010 69 10000 2.1 50 05:35 07.01.2020
4940 Clouds 29 1010 66 10000 2.1 30 03:29 07.01.2020
4941 Clouds 29 1010 62 10000 2.1 30 02:22 07.01.2020
4942 Clouds 29 1009 58 10000 2.1 30 01:57 07.01.2020
4943 Clouds 29 1009 58 10000 2.1 30 01:30 07.01.2020
4944 Clouds 30 1008 58 10000 2.1 40 00:37 07.01.2020
4945 Clouds 30 1008 58 10000 2.1 40 00:18 07.01.2020
4946 Clouds 32 1008 55 10000 2.1 70 23:55 06.01.2020
4947 Clouds 32 1008 55 10000 2.1 70 23:36 06.01.2020
4948 Clouds 32 1008 55 10000 2.1 70 23:18 06.01.2020
4949 Clouds 34 1008 52 10000 2.1 80 22:42 06.01.2020
4950 Clouds 34 1008 52 10000 2.1 80 22:22 06.01.2020
4951 Clouds 33 1008 55 10000 2.6 70 21:56 06.01.2020
4952 Clouds 33 1008 55 10000 2.6 70 21:38 06.01.2020
4953 Clouds 33 1008 55 10000 2.6 70 21:20 06.01.2020
4954 Clouds 34 1008 55 10000 1.5 90 20:56 06.01.2020
4955 Clouds 35 1008 41 10000 3.1 300 20:37 06.01.2020
4956 Clouds 34 1008 41 10000 3.1 300 20:19 06.01.2020
4957 Clouds 34 1009 52 10000 2.6 60 19:55 06.01.2020
4958 Clouds 34 1009 52 10000 2.6 60 19:37 06.01.2020
4959 Clouds 34 1009 52 10000 2.6 60 19:19 06.01.2020
4960 Clouds 34 1010 55 10000 3.1 80 18:45 06.01.2020
4961 Clouds 34 1010 55 10000 3.1 80 18:21 06.01.2020
4962 Clouds 34 1010 52 10000 4.1 30 17:56 06.01.2020
4963 Clouds 34 1010 52 10000 4.1 30 17:37 06.01.2020
4964 Clouds 34 1010 52 10000 4.1 30 17:18 06.01.2020
4965 Clouds 33 1011 52 10000 4.1 40 16:42 06.01.2020
4966 Clouds 33 1011 52 10000 4.1 40 16:42 06.01.2020
4967 Clouds 33 1011 52 10000 4.1 40 16:23 06.01.2020
4968 Clouds 31 1012 58 10000 5.1 40 15:59 06.01.2020
4969 Clouds 31 1012 58 10000 5.1 40 15:37 06.01.2020
4970 Clouds 31 1012 58 10000 5.1 40 15:18 06.01.2020
4971 Clouds 30 1012 62 10000 5.7 30 14:42 06.01.2020
4972 Clouds 30 1012 62 10000 5.7 30 14:23 06.01.2020
4973 Clouds 30 1012 62 10000 5.7 30 14:23 06.01.2020
4974 Clouds 30 1012 62 10000 5.7 30 14:23 06.01.2020
4975 Clouds 29 1011 66 10000 4.1 30 13:59 06.01.2020
4976 Clouds 29 1011 66 10000 4.1 30 13:39 06.01.2020
4977 Clouds 29 1011 66 10000 4.1 30 13:21 06.01.2020
4978 Clouds 27 1010 74 10000 3.6 20 12:58 06.01.2020
4979 Clouds 27 1010 74 10000 3.6 20 12:39 06.01.2020
4980 Clouds 27 1010 74 10000 3.6 20 12:39 06.01.2020
4981 Clouds 27 1010 74 10000 3.6 20 12:19 06.01.2020
4982 Clouds 24 1010 74 10000 2.1 90 11:43 06.01.2020
4983 Clouds 24 1010 74 10000 2.1 90 11:43 06.01.2020
4984 Clouds 24 1010 74 10000 2.1 90 11:24 06.01.2020
4985 Clouds 24 1009 74 10000 2.1 70 10:59 06.01.2020
4986 Clouds 24 1009 74 10000 2.1 70 10:41 06.01.2020
4987 Clouds 24 1009 74 10000 2.1 70 10:21 06.01.2020
4988 Clouds 25 1009 74 10000 1.5 50 09:42 06.01.2020
4989 Clouds 25 1009 74 10000 1.5 50 09:23 06.01.2020
4990 Clouds 25 1009 74 10000 2.1 50 08:55 06.01.2020
4991 Clouds 25 1009 74 10000 2.1 50 08:37 06.01.2020
4992 Clouds 25 1010 69 10000 1.5 90 07:57 06.01.2020
4993 Clouds 25 1010 69 10000 1.5 90 07:39 06.01.2020
4994 Clouds 26 1010 65 10000 1.5 40 06:51 06.01.2020
4995 Clouds 26 1010 65 10000 1.5 40 06:32 06.01.2020
4996 Clouds 26 1010 65 10000 2.1 60 05:48 06.01.2020
4997 Clear 27 1011 58 10000 2.1 20 04:58 06.01.2020
4998 Clear 27 1011 58 10000 2.1 20 04:22 06.01.2020
4999 Clear 27 1011 62 10000 2.1 20 03:26 06.01.2020
5000 Clear 28 1010 58 10000 2.1 20 02:26 06.01.2020
5001 Clouds 29 1009 55 10000 1.5 350 01:49 06.01.2020
5002 Clouds 29 1009 55 10000 1.5 350 01:29 06.01.2020
5003 Clouds 30 1008 52 10000 2.6 20 00:44 06.01.2020
5004 Clouds 30 1008 52 10000 2.6 20 00:44 06.01.2020
5005 Clouds 30 1008 52 10000 2.6 20 00:24 06.01.2020
5006 Clouds 33 1008 49 10000 3.6 20 23:43 05.01.2020
5007 Clouds 33 1008 49 10000 3.6 20 23:23 05.01.2020
5008 Clouds 34 1007 49 10000 2.6 40 22:58 05.01.2020
5009 Clouds 34 1007 49 10000 2.6 40 22:39 05.01.2020
5010 Clouds 34 1007 49 10000 2.6 40 22:20 05.01.2020
5011 Clouds 34 1007 46 10000 1.5 280 21:56 05.01.2020
5012 Clouds 34 1007 46 10000 1.5 280 21:38 05.01.2020
5013 Clouds 34 1007 46 10000 1.5 280 21:20 05.01.2020
5014 Clouds 34 1008 49 10000 2.1 30 20:56 05.01.2020
5015 Clouds 34 1008 49 10000 2.1 30 20:37 05.01.2020
5016 Clouds 34 1008 49 10000 2.1 30 20:19 05.01.2020
5017 Clouds 34 1009 52 10000 2.1 30 19:56 05.01.2020
5018 Clouds 34 1009 52 10000 2.1 30 19:37 05.01.2020
5019 Clouds 34 1009 52 10000 2.1 30 19:19 05.01.2020
5020 Clouds 34 1010 52 10000 3.1 30 18:54 05.01.2020
5021 Clouds 34 1010 52 10000 3.1 30 18:36 05.01.2020
5022 Clouds 34 1010 52 10000 3.1 30 18:18 05.01.2020
5023 Clouds 33 1011 49 10000 3.6 10 17:55 05.01.2020
5024 Clouds 33 1011 49 10000 3.6 10 17:55 05.01.2020
5025 Clouds 33 1011 49 10000 3.6 10 17:55 05.01.2020
5026 Clouds 33 1011 49 10000 3.6 10 17:37 05.01.2020
5027 Clouds 33 1011 49 10000 3.6 10 17:18 05.01.2020
5028 Clouds 32 1012 59 10000 3.1 20 16:54 05.01.2020
5029 Clouds 32 1012 59 10000 3.1 20 16:36 05.01.2020
5030 Clouds 32 1012 59 10000 3.1 20 16:18 05.01.2020
5031 Clouds 31 1013 62 10000 4.6 20 15:36 05.01.2020
5032 Clouds 31 1013 62 10000 4.6 20 15:18 05.01.2020
5033 Clouds 30 1013 66 10000 3.6 20 14:54 05.01.2020
5034 Clouds 30 1013 66 10000 3.6 20 14:36 05.01.2020
5035 Clouds 30 1013 66 10000 3.6 20 14:18 05.01.2020
5036 Clouds 28 1012 74 10000 3.1 20 13:39 05.01.2020
5037 Clouds 28 1012 74 10000 3.1 20 13:21 05.01.2020
5038 Clouds 26 1011 78 10000 3.1 20 12:57 05.01.2020
5039 Clouds 26 1011 78 10000 3.1 20 12:57 05.01.2020
5040 Clouds 26 1011 78 10000 3.1 20 12:39 05.01.2020
5041 Clouds 26 1011 78 10000 3.1 20 12:39 05.01.2020
5042 Clouds 26 1011 78 10000 3.1 20 12:21 05.01.2020
5043 Clouds 26 1011 78 10000 3.1 20 12:21 05.01.2020
5044 Clouds 25 1011 78 10000 2.6 30 11:55 05.01.2020
5045 Clouds 25 1011 78 10000 2.6 30 11:37 05.01.2020
5046 Clouds 25 1011 78 10000 2.6 30 11:19 05.01.2020
5047 Clouds 25 1011 78 10000 2.6 30 11:19 05.01.2020
5048 Clouds 25 1011 78 10000 2.6 30 11:19 05.01.2020
5049 Clouds 25 1010 88 10000 1 70 10:42 05.01.2020
5050 Clouds 25 1010 88 10000 1 70 10:20 05.01.2020
5051 Clouds 25 1010 88 10000 1.5 60 09:59 05.01.2020
5052 Clouds 25 1010 88 10000 1.5 60 09:41 05.01.2020
5053 Clouds 25 1010 88 10000 1.5 60 09:41 05.01.2020
5054 Clouds 25 1010 88 10000 1.5 60 09:41 05.01.2020
5055 Clouds 25 1010 88 10000 1.5 60 09:21 05.01.2020
5056 Clouds 25 1010 88 10000 1 60 08:45 05.01.2020
5057 Clouds 25 1010 88 10000 1 60 08:25 05.01.2020
5058 Clouds 25 1010 88 10000 1 80 07:55 05.01.2020
5059 Clouds 25 1010 88 10000 1 80 07:32 05.01.2020
5060 Clouds 26 1011 83 10000 1 70 06:57 05.01.2020
5061 Clouds 26 1011 83 10000 1.5 10 05:53 05.01.2020
5062 Clouds 26 1011 83 10000 1.5 10 05:28 05.01.2020
5063 Clouds 26 1012 78 10000 1.5 10 04:24 05.01.2020
5064 Clouds 27 1011 74 10000 1 360 03:45 05.01.2020
5065 Clouds 28 1011 74 10000 1 340 02:43 05.01.2020
5066 Rain 28 1011 74 10000 1 340 02:20 05.01.2020
5067 Clouds 28 1010 69 10000 2.1 90 01:39 05.01.2020
5068 Clouds 28 1010 69 10000 2.1 90 01:18 05.01.2020
5069 Clouds 30 1010 70 10000 1.5 270 00:40 05.01.2020
5070 Clouds 30 1010 70 10000 1.5 270 00:21 05.01.2020
5071 Clouds 31 1009 70 10000 2.1 290 23:59 04.01.2020
5072 Clouds 31 1009 70 10000 2.1 290 23:39 04.01.2020
5073 Clouds 31 1009 70 10000 2.1 290 23:18 04.01.2020
5074 Clouds 32 1009 66 10000 2.6 300 22:39 04.01.2020
5075 Clouds 32 1009 66 10000 2.6 300 22:39 04.01.2020
5076 Clouds 32 1009 66 10000 2.6 300 22:21 04.01.2020
5077 Clouds 31 1009 88 10000 1.5 80 21:57 04.01.2020
5078 Clouds 31 1009 88 10000 1.5 80 21:38 04.01.2020
5079 Clouds 31 1009 88 10000 1.5 80 21:19 04.01.2020
5080 Clouds 31 1009 88 10000 1.5 80 21:19 04.01.2020
5081 Rain 30 1010 78 8000 2.1 30 20:56 04.01.2020
5082 Rain 30 1010 78 8000 2.1 30 20:37 04.01.2020
5083 Rain 30 1010 78 8000 2.1 30 20:19 04.01.2020
5084 Rain 32 1010 70 4000 1.5 80 19:42 04.01.2020
5085 Rain 32 1010 70 4000 1.5 80 19:42 04.01.2020
5086 Clouds 32 1011 70 10000 1.5 160 19:23 04.01.2020
5087 Rain 31 1012 74 10000 2.1 200 18:58 04.01.2020
5088 Rain 31 1012 74 10000 2.1 200 18:39 04.01.2020
5089 Rain 31 1012 74 10000 2.1 200 18:20 04.01.2020
5090 Clouds 30 1013 79 10000 2.6 70 17:57 04.01.2020
5091 Clouds 30 1013 79 10000 2.6 70 17:57 04.01.2020
5092 Clouds 30 1013 79 10000 2.6 70 17:39 04.01.2020
5093 Clouds 30 1013 79 10000 2.6 70 17:21 04.01.2020
5094 Clouds 30 1014 74 10000 1 60 16:42 04.01.2020
5095 Clouds 30 1014 74 10000 1 60 16:24 04.01.2020
5096 Clouds 30 1014 74 10000 1 60 16:24 04.01.2020
5097 Clouds 30 1015 74 10000 3.1 40 15:57 04.01.2020
5098 Clouds 30 1015 74 10000 3.1 40 15:57 04.01.2020
5099 Clouds 30 1015 74 10000 3.1 40 15:39 04.01.2020
5100 Clouds 30 1015 74 10000 3.1 40 15:39 04.01.2020
5101 Clouds 30 1015 74 10000 3.1 40 15:19 04.01.2020
5102 Clouds 28 1015 83 10000 1.5 70 14:57 04.01.2020
5103 Clouds 28 1015 83 10000 1.5 70 14:39 04.01.2020
5104 Clouds 28 1015 83 10000 1.5 70 14:19 04.01.2020
5105 Clouds 28 1015 83 10000 1.5 70 14:19 04.01.2020
5106 Clouds 27 1014 88 10000 1 100 13:55 04.01.2020
5107 Clouds 27 1014 88 10000 1 100 13:36 04.01.2020
5108 Clouds 27 1014 88 10000 1 100 13:18 04.01.2020
5109 Clouds 25 1013 94 10000 0.5 160 12:41 04.01.2020
5110 Clouds 25 1013 94 10000 0.5 160 12:20 04.01.2020
5111 Clouds 25 1013 94 10000 1 160 11:58 04.01.2020
5112 Clouds 25 1013 94 10000 1 160 11:39 04.01.2020
5113 Clouds 25 1013 94 10000 1 160 11:39 04.01.2020
5114 Clouds 25 1013 94 10000 1 160 11:19 04.01.2020
5115 Clouds 25 1012 94 10000 2.1 80 10:42 04.01.2020
5116 Clouds 25 1013 94 10000 1.5 190 10:23 04.01.2020
5117 Clouds 25 1012 94 10000 2.1 220 09:59 04.01.2020
5118 Clouds 25 1012 94 10000 2.1 220 09:41 04.01.2020
5119 Clouds 25 1012 94 10000 2.1 220 09:21 04.01.2020
5120 Clouds 25 1012 94 10000 1 80 08:41 04.01.2020
5121 Clouds 25 1012 94 10000 1 80 08:21 04.01.2020
5122 Clouds 26 1013 94 10000 1 80 07:44 04.01.2020
5123 Clouds 26 1013 94 10000 1 80 07:20 04.01.2020
5124 Clouds 26 1013 94 10000 0.5 290 06:33 04.01.2020
5125 Clouds 27 1014 88 10000 1 60 05:22 04.01.2020
5126 Clouds 27 1014 94 10000 1 10 04:42 04.01.2020
5127 Clouds 27 1014 94 10000 1 10 04:24 04.01.2020
5128 Thunderstorm 27 1014 83 10000 1.5 90 03:18 04.01.2020
5129 Clouds 27 1014 94 10000 1.5 100 02:21 04.01.2020
5130 Rain 28 1013 69 7000 2.1 290 01:55 04.01.2020
5131 Rain 28 1013 69 7000 2.1 290 01:32 04.01.2020
5132 Rain 29 1013 83 4000 3.6 270 00:46 04.01.2020
5133 Clouds 30 1012 66 10000 2.1 80 00:26 04.01.2020
5134 Clouds 31 1011 66 10000 1 90 23:48 03.01.2020
5135 Clouds 31 1011 66 10000 1 90 23:25 03.01.2020
5136 Clouds 32 1010 62 10000 0.5 130 22:54 03.01.2020
5137 Clouds 32 1010 62 10000 0.5 130 22:36 03.01.2020
5138 Clouds 32 1010 62 10000 0.5 130 22:18 03.01.2020
5139 Clouds 33 1010 59 10000 1 230 21:54 03.01.2020
5140 Clouds 33 1010 59 10000 1 230 21:36 03.01.2020
5141 Clouds 33 1010 59 10000 1 230 21:18 03.01.2020
5142 Clouds 33 1010 59 10000 1.5 200 20:42 03.01.2020
5143 Clouds 33 1010 59 10000 1.5 200 20:19 03.01.2020
5144 Clouds 32 1011 59 10000 1 200 19:57 03.01.2020
5145 Clouds 32 1011 59 10000 1 200 19:39 03.01.2020
5146 Clouds 32 1011 59 10000 1 200 19:21 03.01.2020
5147 Clouds 32 1013 58 10000 2.1 170 18:44 03.01.2020
5148 Clouds 32 1013 58 10000 2.1 170 18:44 03.01.2020
5149 Clouds 32 1013 58 10000 2.1 170 18:26 03.01.2020
5150 Clouds 32 1013 58 10000 2.1 280 17:56 03.01.2020
5151 Clouds 32 1013 58 10000 2.1 280 17:38 03.01.2020
5152 Clouds 32 1013 58 10000 2.1 280 17:19 03.01.2020
5153 Clouds 32 1014 52 10000 2.6 320 16:42 03.01.2020
5154 Clouds 32 1014 52 10000 2.6 320 16:24 03.01.2020
5155 Clouds 31 1014 55 10000 4.1 350 15:57 03.01.2020
5156 Clouds 31 1014 55 10000 4.1 350 15:39 03.01.2020
5157 Clouds 31 1014 55 10000 4.1 350 15:18 03.01.2020
5158 Clouds 30 1014 58 10000 4.6 350 14:38 03.01.2020
5159 Clouds 30 1014 58 10000 4.6 350 14:19 03.01.2020
5160 Clouds 27 1014 65 10000 4.1 350 13:44 03.01.2020
5161 Clouds 27 1014 65 10000 4.1 350 13:24 03.01.2020
5162 Clouds 25 1013 69 10000 3.1 350 13:00 03.01.2020
5163 Clouds 25 1013 69 10000 3.1 350 12:39 03.01.2020
5164 Clouds 25 1013 69 10000 3.1 350 12:21 03.01.2020
5165 Clouds 25 1012 69 10000 3.1 340 11:47 03.01.2020
5166 Clouds 25 1012 69 10000 3.1 340 11:23 03.01.2020
5167 Clouds 25 1011 69 10000 2.6 10 10:46 03.01.2020
5168 Clouds 25 1011 69 10000 2.6 10 10:27 03.01.2020
5169 Clouds 25 1011 74 10000 1.5 20 09:58 03.01.2020
5170 Clouds 25 1011 74 10000 1.5 20 09:40 03.01.2020
5171 Clouds 25 1011 74 10000 1.5 20 09:22 03.01.2020
5172 Clouds 25 1011 74 10000 1.5 360 08:57 03.01.2020
5173 Clouds 25 1011 74 10000 1.5 360 08:38 03.01.2020
5174 Clouds 25 1011 74 10000 1.5 360 08:19 03.01.2020
5175 Clouds 25 1011 74 10000 1.5 360 07:40 03.01.2020
5176 Clouds 25 1011 74 10000 1.5 360 07:19 03.01.2020
5177 Clouds 26 1012 74 10000 1.5 350 06:50 03.01.2020
5178 Clouds 26 1012 74 10000 1.5 350 06:32 03.01.2020
5179 Clouds 25 1012 78 10000 1 20 05:46 03.01.2020
5180 Clouds 26 1012 78 10000 1.5 360 04:24 03.01.2020
5181 Clouds 27 1012 78 10000 1 80 02:57 03.01.2020
5182 Clouds 27 1012 78 10000 1 80 02:33 03.01.2020
5183 Clouds 27 1010 74 10000 1.5 80 01:44 03.01.2020
5184 Clouds 28 1010 74 10000 1 90 00:50 03.01.2020
5185 Clouds 28 1010 74 10000 1 90 00:31 03.01.2020
5186 Clouds 30 1009 70 10000 1 140 23:56 02.01.2020
5187 Clouds 30 1009 70 10000 1 140 23:38 02.01.2020
5188 Clouds 30 1009 70 10000 1 140 23:19 02.01.2020
5189 Clouds 30 1009 66 10000 1 80 22:45 02.01.2020
5190 Clouds 30 1009 66 10000 1 80 22:22 02.01.2020
5191 Clouds 31 1008 62 10000 1 80 22:00 02.01.2020
5192 Clouds 31 1008 62 10000 1 80 21:41 02.01.2020
5193 Clouds 31 1008 62 10000 1 80 21:23 02.01.2020
5194 Clouds 31 1009 62 10000 1 100 20:59 02.01.2020
5195 Clouds 31 1009 62 10000 1 100 20:39 02.01.2020
5196 Clouds 31 1009 62 10000 1 100 20:21 02.01.2020
5197 Clouds 32 1010 58 10000 1.5 100 19:55 02.01.2020
5198 Clouds 32 1010 58 10000 1.5 100 19:37 02.01.2020
5199 Clouds 32 1010 58 10000 1.5 100 19:19 02.01.2020
5200 Clouds 32 1011 58 10000 2.1 80 18:57 02.01.2020
5201 Clouds 32 1011 58 10000 2.1 80 18:38 02.01.2020
5202 Clouds 32 1011 58 10000 2.1 80 18:20 02.01.2020
5203 Clouds 31 1012 55 10000 3.1 40 17:56 02.01.2020
5204 Clouds 31 1012 55 10000 3.1 40 17:37 02.01.2020
5205 Clouds 31 1012 55 10000 3.1 40 17:18 02.01.2020
5206 Clouds 30 1013 55 10000 3.1 30 16:56 02.01.2020
5207 Clouds 30 1013 55 10000 3.1 30 16:38 02.01.2020
5208 Clouds 30 1013 55 10000 3.1 30 16:19 02.01.2020
5209 Clouds 30 1013 62 10000 3.1 50 15:44 02.01.2020
5210 Clouds 30 1013 62 10000 3.1 50 15:24 02.01.2020
5211 Clouds 29 1013 66 10000 2.6 40 14:58 02.01.2020
5212 Clouds 29 1013 66 10000 2.6 40 14:38 02.01.2020
5213 Clouds 29 1013 66 10000 2.6 40 14:20 02.01.2020
5214 Clouds 26 1012 74 10000 2.1 70 13:58 02.01.2020
5215 Clouds 26 1012 74 10000 2.1 70 13:39 02.01.2020
5216 Clouds 26 1012 74 10000 2.1 70 13:18 02.01.2020
5217 Clouds 25 1011 83 10000 1 80 12:42 02.01.2020
5218 Clouds 23 1011 83 10000 1 80 12:21 02.01.2020
5219 Clouds 23 1010 83 10000 1.5 50 11:42 02.01.2020
5220 Clouds 23 1010 83 10000 1.5 50 11:21 02.01.2020
5221 Clouds 24 1010 83 10000 2.6 50 10:46 02.01.2020
5222 Clouds 24 1010 83 10000 2.6 50 10:27 02.01.2020
5223 Clouds 24 1009 83 10000 2.1 20 09:56 02.01.2020
5224 Clouds 24 1009 83 10000 2.1 20 09:35 02.01.2020
5225 Clouds 25 1009 78 10000 2.1 40 08:58 02.01.2020
5226 Clouds 25 1009 78 10000 2.1 40 08:39 02.01.2020
5227 Clouds 25 1009 78 10000 2.1 40 08:19 02.01.2020
5228 Clouds 24 1009 74 10000 2.6 60 07:47 02.01.2020
5229 Clouds 24 1009 74 10000 2.6 60 07:26 02.01.2020
5230 Clouds 26 1010 78 10000 3.1 30 06:41 02.01.2020
5231 Clouds 26 1010 78 10000 3.1 30 06:41 02.01.2020
5232 Clouds 26 1010 78 10000 3.1 40 05:40 02.01.2020
5233 Clouds 27 1011 74 10000 3.1 40 04:34 02.01.2020
5234 Clouds 27 1011 74 10000 3.1 30 03:29 02.01.2020
5235 Clouds 27 1011 74 10000 3.1 30 03:29 02.01.2020
5236 Clouds 27 1011 78 10000 3.1 30 02:21 02.01.2020
5237 Rain 28 1010 74 10000 2.1 30 01:49 02.01.2020
5238 Rain 28 1010 74 10000 2.1 30 01:25 02.01.2020
5239 Clouds 28 1010 74 10000 2.6 30 00:38 02.01.2020
5240 Clouds 28 1010 74 10000 2.6 30 00:20 02.01.2020
5241 Clouds 29 1009 70 10000 3.1 30 23:42 01.01.2020
5242 Clouds 29 1009 70 10000 3.1 30 23:21 01.01.2020
5243 Clouds 30 1008 66 10000 3.1 20 22:39 01.01.2020
5244 Clouds 30 1008 66 10000 3.1 20 22:20 01.01.2020
5245 Clouds 30 1008 66 10000 2.6 30 21:58 01.01.2020
5246 Clouds 30 1008 66 10000 2.6 30 21:39 01.01.2020
5247 Clouds 30 1008 66 10000 2.6 30 21:20 01.01.2020
5248 Rain 30 1009 62 10000 3.1 40 20:56 01.01.2020
5249 Rain 30 1009 62 10000 3.1 40 20:38 01.01.2020
5250 Rain 30 1009 62 10000 3.1 40 20:19 01.01.2020
5251 Clouds 31 1009 62 10000 3.1 90 19:55 01.01.2020
5252 Clouds 31 1009 62 10000 3.1 90 19:55 01.01.2020
5253 Clouds 31 1009 62 10000 3.1 90 19:55 01.01.2020
5254 Clouds 31 1009 62 10000 3.1 90 19:55 01.01.2020
5255 Clouds 31 1009 62 10000 3.1 90 19:37 01.01.2020
5256 Clouds 31 1009 62 10000 3.1 90 19:19 01.01.2020
5257 Clouds 31 1010 66 10000 4.1 30 18:56 01.01.2020
5258 Clouds 31 1010 66 10000 4.1 30 18:36 01.01.2020
5259 Clouds 31 1010 66 10000 4.1 30 18:18 01.01.2020
5260 Clouds 30 1011 66 10000 3.6 40 17:56 01.01.2020
5261 Clouds 30 1011 66 10000 3.6 40 17:56 01.01.2020
5262 Clouds 30 1011 66 10000 3.6 40 17:38 01.01.2020
5263 Clouds 30 1011 66 10000 3.6 40 17:19 01.01.2020
5264 Clouds 29 1011 70 10000 4.1 20 16:42 01.01.2020
5265 Clouds 29 1011 70 10000 4.1 20 16:23 01.01.2020
5266 Clouds 29 1012 66 10000 5.1 30 15:58 01.01.2020
5267 Clouds 29 1012 66 10000 5.1 30 15:40 01.01.2020
5268 Clouds 29 1012 66 10000 5.1 30 15:21 01.01.2020
5269 Clouds 28 1012 69 10000 6.2 30 14:58 01.01.2020
5270 Clouds 28 1012 69 10000 6.2 30 14:40 01.01.2020
5271 Clouds 28 1012 69 10000 6.2 30 14:21 01.01.2020
5272 Clouds 26 1011 78 10000 3.6 40 13:56 01.01.2020
5273 Clouds 26 1011 78 10000 3.6 40 13:37 01.01.2020
5274 Clouds 26 1011 78 10000 3.6 40 13:37 01.01.2020
5275 Clouds 26 1011 78 10000 3.6 40 13:37 01.01.2020
5276 Clouds 26 1011 78 10000 3.6 40 13:37 01.01.2020
5277 Clouds 26 1011 78 10000 3.6 40 13:18 01.01.2020
5278 Clouds 25 1010 94 10000 2.1 30 12:55 01.01.2020
5279 Clouds 25 1010 94 10000 2.1 30 12:37 01.01.2020
5280 Clouds 25 1010 94 10000 2.1 30 12:18 01.01.2020
5281 Clouds 24 1010 94 10000 2.1 30 11:43 01.01.2020
5282 Clouds 24 1010 94 10000 2.1 30 11:22 01.01.2020
5283 Clouds 23 1010 94 10000 1.5 20 10:58 01.01.2020
5284 Clouds 23 1010 94 10000 1.5 20 10:40 01.01.2020
5285 Clouds 23 1010 94 10000 1.5 20 10:20 01.01.2020
5286 Clouds 24 1010 100 10000 1 10 09:55 01.01.2020
5287 Clouds 24 1010 100 10000 1 10 09:36 01.01.2020
5288 Clouds 24 1010 100 10000 1 10 09:18 01.01.2020
5289 Rain 24 1010 94 10000 2.03 19 08:54 01.01.2020
5290 Rain 24 1010 94 10000 2.03 19 08:36 01.01.2020
5291 Clouds 24 1010 94 10000 1.44 30 08:18 01.01.2020
5292 Clouds 24 1010 94 10000 1 50 07:45 01.01.2020
5293 Clouds 24 1010 94 10000 1 50 07:26 01.01.2020
5294 Clouds 24 1011 94 10000 2.1 20 06:44 01.01.2020
5295 Clouds 24 1011 94 10000 2.1 20 06:19 01.01.2020
5296 Rain 24 1011 88 10000 2.1 30 04:38 01.01.2020
5297 Rain 24 1021 88 10000 2.6 20 03:41 01.01.2020
5298 Rain 24 1021 88 10000 2.6 20 03:22 01.01.2020
5299 Rain 24 1021 88 10000 2.6 20 03:22 01.01.2020
5300 Rain 26 1010 88 10000 2.6 50 02:55 01.01.2020
5301 Rain 26 1010 88 10000 2.6 50 02:32 01.01.2020
5302 Rain 26 1010 83 10000 3.1 50 01:45 01.01.2020
5303 Rain 26 1010 83 10000 3.1 50 01:24 01.01.2020
5304 Clouds 26 1008 83 10000 3.1 30 00:56 01.01.2020
5305 Clouds 26 1008 83 10000 3.1 30 00:37 01.01.2020
5306 Clouds 26 1008 83 10000 3.1 30 00:18 01.01.2020
5307 Clouds 27 1008 83 10000 3.6 10 23:39 31.12.2019
5308 Clouds 27 1008 83 10000 3.6 10 23:19 31.12.2019
5309 Clouds 27 1007 78 10000 3.6 360 22:57 31.12.2019
5310 Clouds 27 1007 78 10000 3.6 360 22:38 31.12.2019
5311 Clouds 27 1007 78 10000 3.6 360 22:18 31.12.2019
5312 Rain 27 1008 83 10000 4.1 30 21:54 31.12.2019
5313 Rain 27 1008 83 10000 4.1 30 21:36 31.12.2019
5314 Rain 27 1008 83 10000 4.1 30 21:18 31.12.2019
5315 Rain 27 1008 83 10000 4.1 30 21:18 31.12.2019
5316 Clouds 28 1008 94 10000 2.6 360 20:40 31.12.2019
5317 Rain 28 1008 70 10000 3.6 70 20:21 31.12.2019
5318 Rain 31 1009 66 10000 3.1 70 19:59 31.12.2019
5319 Rain 31 1009 66 10000 3.1 70 19:40 31.12.2019
5320 Rain 31 1009 66 10000 3.1 70 19:22 31.12.2019
5321 Clouds 30 1010 70 10000 3.6 60 18:57 31.12.2019
5322 Clouds 30 1010 70 10000 3.6 60 18:57 31.12.2019
5323 Clouds 30 1010 70 10000 3.6 60 18:39 31.12.2019
5324 Clouds 30 1010 70 10000 3.6 60 18:19 31.12.2019
5325 Rain 29 1011 70 10000 2.6 80 17:56 31.12.2019
5326 Rain 29 1011 70 10000 2.6 80 17:37 31.12.2019
5327 Rain 29 1011 70 10000 2.6 80 17:18 31.12.2019
5328 Rain 29 1011 70 10000 2.6 80 17:18 31.12.2019
5329 Clouds 30 1012 74 10000 2.6 70 16:56 31.12.2019
5330 Clouds 30 1012 74 10000 2.6 70 16:37 31.12.2019
5331 Clouds 30 1012 74 10000 2.6 70 16:18 31.12.2019
5332 Clouds 28 1013 83 10000 2.6 60 15:56 31.12.2019
5333 Clouds 28 1013 83 10000 2.6 60 15:38 31.12.2019
5334 Clouds 28 1013 83 10000 2.6 60 15:19 31.12.2019
5335 Clouds 27 1013 88 10000 1 90 14:55 31.12.2019
5336 Clouds 27 1013 88 10000 1 90 14:37 31.12.2019
5337 Clouds 27 1013 88 10000 1 90 14:18 31.12.2019
5338 Clouds 25 1012 94 10000 1 70 13:56 31.12.2019
5339 Clouds 25 1012 94 10000 1 70 13:38 31.12.2019
5340 Clouds 25 1012 94 10000 1 70 13:19 31.12.2019
5341 Clouds 24 1011 100 10000 1 170 12:55 31.12.2019
5342 Clouds 24 1011 100 10000 1 170 12:55 31.12.2019
5343 Clouds 24 1011 100 10000 1 170 12:37 31.12.2019
5344 Clouds 24 1011 100 10000 1 170 12:18 31.12.2019
5345 Clouds 24 1011 100 10000 1 130 11:55 31.12.2019
5346 Clouds 24 1011 100 10000 1 130 11:36 31.12.2019
5347 Clouds 24 1011 100 10000 1 130 11:18 31.12.2019
5348 Clouds 24 1010 94 10000 1 110 10:55 31.12.2019
5349 Clouds 24 1010 94 10000 1 110 10:37 31.12.2019
5350 Clouds 24 1010 94 10000 1 110 10:19 31.12.2019
5351 Clouds 24 1010 94 10000 1 150 09:56 31.12.2019
5352 Clouds 24 1010 94 10000 1 150 09:38 31.12.2019
5353 Clouds 24 1010 94 10000 1 150 09:18 31.12.2019
5354 Clouds 24 1010 94 10000 1 150 09:18 31.12.2019
5355 Clouds 24 1010 100 10000 1 140 08:42 31.12.2019
5356 Clouds 24 1010 100 10000 1 140 08:42 31.12.2019
5357 Clouds 24 1010 100 10000 1 140 08:22 31.12.2019
5358 Clouds 24 1010 94 10000 1 80 07:56 31.12.2019
5359 Clouds 24 1010 94 10000 1 80 07:37 31.12.2019
5360 Clouds 24 1010 94 10000 1 80 07:18 31.12.2019
5361 Clouds 24 1010 94 10000 1 100 06:29 31.12.2019
5362 Clouds 24 1011 88 10000 1.5 40 04:55 31.12.2019
5363 Clouds 24 1011 88 10000 1.5 40 04:25 31.12.2019
5364 Clouds 24 1010 94 10000 3.1 50 02:58 31.12.2019
5365 Clouds 24 1010 94 10000 3.1 50 02:21 31.12.2019
5366 Clouds 24 1010 94 10000 3.1 50 02:21 31.12.2019
5367 Rain 23 1009 94 8000 3.1 60 01:50 31.12.2019
5368 Rain 23 1009 94 8000 3.1 60 01:31 31.12.2019
5369 Rain 24 1009 94 8000 3.1 40 00:49 31.12.2019
5370 Rain 24 1009 94 8000 3.1 40 00:26 31.12.2019
5371 Rain 24 1009 94 5000 3.6 360 23:59 30.12.2019
5372 Rain 24 1009 94 5000 3.6 360 23:41 30.12.2019
5373 Rain 24 1009 94 5000 3.6 360 23:23 30.12.2019
5374 Rain 24 1009 100 10000 2.1 340 22:59 30.12.2019
5375 Rain 24 1009 100 10000 2.1 340 22:41 30.12.2019
5376 Rain 24 1009 100 5000 4.1 360 22:22 30.12.2019
5377 Rain 24 1008 100 10000 2.1 340 21:57 30.12.2019
5378 Rain 24 1008 100 10000 2.1 340 21:39 30.12.2019
5379 Thunderstorm 24 1009 88 3000 4.6 360 21:20 30.12.2019
5380 Thunderstorm 25 1008 88 3000 4.1 360 20:59 30.12.2019
5381 Thunderstorm 25 1008 88 3000 4.1 360 20:41 30.12.2019
5382 Rain 29 1008 79 10000 3.1 170 20:20 30.12.2019
5383 Rain 29 1009 74 10000 2.1 200 19:59 30.12.2019
5384 Rain 29 1009 74 10000 2.1 200 19:39 30.12.2019
5385 Rain 29 1009 74 10000 2.1 200 19:19 30.12.2019
5386 Clouds 29 1010 78 10000 1 170 18:59 30.12.2019
5387 Clouds 29 1010 78 10000 1 170 18:41 30.12.2019
5388 Clouds 29 1010 78 10000 1 170 18:20 30.12.2019
5389 Clouds 29 1011 74 10000 1 180 17:57 30.12.2019
5390 Clouds 29 1011 74 10000 1 180 17:39 30.12.2019
5391 Clouds 29 1011 74 10000 1 180 17:19 30.12.2019
5392 Clouds 28 1012 83 10000 2.1 240 16:58 30.12.2019
5393 Clouds 28 1012 83 10000 2.1 240 16:37 30.12.2019
5394 Clouds 28 1012 83 10000 2.1 240 16:19 30.12.2019
5395 Clouds 28 1012 74 10000 1.5 20 15:56 30.12.2019
5396 Clouds 28 1012 74 10000 1.5 20 15:37 30.12.2019
5397 Clouds 28 1012 74 10000 1.5 20 15:18 30.12.2019
5398 Clouds 27 1011 78 10000 0.5 40 14:43 30.12.2019
5399 Clouds 27 1011 78 10000 0.5 40 14:20 30.12.2019
5400 Clouds 26 1011 83 10000 1 110 13:58 30.12.2019
5401 Clouds 26 1011 83 10000 1 110 13:40 30.12.2019
5402 Clouds 26 1011 83 10000 1 110 13:21 30.12.2019
5403 Clouds 26 1011 83 10000 1 110 13:21 30.12.2019
5404 Clouds 24 1010 94 10000 0.5 30 12:56 30.12.2019
5405 Clouds 24 1010 94 10000 0.5 30 12:37 30.12.2019
5406 Clouds 24 1010 94 10000 0.5 30 12:18 30.12.2019
5407 Clouds 24 1010 100 10000 1.5 10 11:42 30.12.2019
5408 Clouds 24 1010 100 10000 1.5 10 11:20 30.12.2019
5409 Clouds 24 1009 94 10000 0.5 90 10:58 30.12.2019
5410 Clouds 24 1009 94 10000 0.5 90 10:40 30.12.2019
5411 Clouds 24 1009 94 10000 0.5 90 10:40 30.12.2019
5412 Clouds 24 1009 94 10000 0.5 90 10:18 30.12.2019
5413 Clouds 24 1009 94 10000 1 90 09:42 30.12.2019
5414 Clouds 24 1009 94 10000 1 90 09:20 30.12.2019
5415 Clouds 24 1009 94 10000 1 50 08:56 30.12.2019
5416 Clouds 24 1009 94 10000 1 50 08:37 30.12.2019
5417 Clouds 24 1009 94 10000 1 50 08:18 30.12.2019
5418 Clouds 24 1009 94 10000 0.5 90 07:41 30.12.2019
5419 Clouds 24 1009 94 10000 0.5 90 06:58 30.12.2019
5420 Clouds 24 1009 94 10000 0.5 90 06:23 30.12.2019
5421 Clouds 25 1010 94 10000 0.5 80 04:23 30.12.2019
5422 Clouds 25 1010 94 10000 1 80 03:39 30.12.2019
5423 Clouds 25 1010 94 10000 0.5 90 02:41 30.12.2019
5424 Clouds 25 1010 94 10000 0.5 90 02:20 30.12.2019
5425 Clouds 25 1009 94 10000 0.5 180 01:25 30.12.2019
5426 Rain 25 1009 94 9000 1 190 00:46 30.12.2019
5427 Rain 25 1009 94 9000 1 190 00:23 30.12.2019
5428 Rain 25 1008 94 9000 1 150 23:40 29.12.2019
5429 Rain 25 1008 94 9000 1 150 23:22 29.12.2019
5430 Clouds 25 1007 94 10000 1 90 22:56 29.12.2019
5431 Clouds 25 1007 94 10000 1 90 22:38 29.12.2019
5432 Clouds 25 1007 94 10000 1 90 22:19 29.12.2019
5433 Rain 25 1007 94 9000 1.5 40 21:45 29.12.2019
5434 Rain 25 1007 94 9000 1.5 40 21:21 29.12.2019
5435 Rain 23 1007 94 5000 2.1 80 20:59 29.12.2019
5436 Rain 23 1007 94 5000 2.1 80 20:39 29.12.2019
5437 Rain 23 1007 94 5000 2.1 80 20:39 29.12.2019
5438 Rain 23 1007 94 5000 2.1 80 20:21 29.12.2019
5439 Thunderstorm 24 1008 100 3000 6.7 10 19:59 29.12.2019
5440 Thunderstorm 24 1008 100 3000 6.7 10 19:40 29.12.2019
5441 Thunderstorm 25 1009 94 1000 8.2 60 19:21 29.12.2019
5442 Thunderstorm 25 1009 94 1000 8.2 60 19:21 29.12.2019
5443 Rain 29 1009 70 10000 1.5 160 18:58 29.12.2019
5444 Rain 29 1009 70 10000 1.5 160 18:39 29.12.2019
5445 Rain 29 1009 70 10000 1.5 160 18:20 29.12.2019
5446 Rain 27 1010 79 10000 1.5 60 17:58 29.12.2019
5447 Rain 27 1010 79 10000 1.5 60 17:39 29.12.2019
5448 Rain 27 1010 79 10000 1.5 60 17:20 29.12.2019
5449 Clouds 28 1011 78 10000 2.1 130 16:57 29.12.2019
5450 Clouds 28 1011 78 10000 2.1 130 16:38 29.12.2019
5451 Clouds 28 1011 78 10000 2.1 130 16:20 29.12.2019
5452 Clouds 28 1011 78 10000 1.5 150 15:58 29.12.2019
5453 Clouds 28 1011 78 10000 1.5 150 15:58 29.12.2019
5454 Clouds 28 1011 78 10000 1.5 150 15:39 29.12.2019
5455 Clouds 28 1012 83 10000 1.5 170 15:20 29.12.2019
5456 Clouds 26 1011 88 10000 1 120 14:58 29.12.2019
5457 Clouds 26 1011 88 10000 1 120 14:39 29.12.2019
5458 Clouds 26 1011 88 10000 1 120 14:18 29.12.2019
5459 Rain 25 1011 100 8000 3.1 80 13:58 29.12.2019
5460 Rain 25 1011 100 8000 3.1 80 13:39 29.12.2019
5461 Rain 25 1011 100 8000 3.1 80 13:21 29.12.2019
5462 Clouds 25 1010 94 10000 1.5 160 12:46 29.12.2019
5463 Clouds 25 1010 94 10000 1.5 160 12:28 29.12.2019
5464 Clouds 25 1009 94 10000 1.5 190 11:59 29.12.2019
5465 Clouds 25 1009 94 10000 1.5 190 11:40 29.12.2019
5466 Clouds 25 1009 94 10000 1.5 190 11:20 29.12.2019
5467 Clouds 25 1009 94 10000 1.5 190 11:20 29.12.2019
5468 Clouds 25 1009 94 10000 1 160 10:55 29.12.2019
5469 Clouds 25 1009 94 10000 1 160 10:37 29.12.2019
5470 Clouds 25 1009 94 10000 1 160 10:18 29.12.2019
5471 Clouds 25 1009 94 10000 1 160 10:18 29.12.2019
5472 Clouds 25 1009 100 10000 1.5 200 09:41 29.12.2019
5473 Clouds 25 1009 100 10000 1.5 200 09:22 29.12.2019
5474 Clouds 25 1009 100 10000 1 210 08:48 29.12.2019
5475 Clouds 25 1009 100 10000 1 210 08:28 29.12.2019
5476 Clouds 25 1009 94 10000 1 160 07:58 29.12.2019
5477 Clouds 25 1009 94 10000 1 160 07:31 29.12.2019
5478 Clouds 25 1009 94 10000 1 160 07:31 29.12.2019
5479 Clouds 25 1009 100 10000 0.5 160 06:57 29.12.2019
5480 Clouds 25 1009 100 10000 0.5 160 06:27 29.12.2019
5481 Clouds 26 1010 94 10000 0.5 130 05:54 29.12.2019
5482 Clouds 26 1010 94 10000 1 190 04:37 29.12.2019
5483 Clouds 26 1009 94 10000 1.5 80 03:59 29.12.2019
5484 Clouds 26 1009 94 10000 1.5 80 03:21 29.12.2019
5485 Clouds 26 1009 94 10000 0.97 72 02:21 29.12.2019
5486 Clouds 26 1008 94 10000 0.5 70 01:40 29.12.2019
5487 Clouds 26 1008 94 10000 0.5 70 01:21 29.12.2019
5488 Clouds 26 1008 88 10000 2.1 90 00:42 29.12.2019
5489 Clouds 26 1008 88 10000 2.1 90 00:23 29.12.2019
5490 Clouds 26 1008 88 10000 2.1 90 00:23 29.12.2019
5491 Clouds 27 1007 94 10000 1 60 23:44 28.12.2019
5492 Clouds 27 1007 94 10000 1 60 23:18 28.12.2019
5493 Clouds 27 1007 94 10000 1 60 23:18 28.12.2019
5494 Clouds 28 1007 88 10000 2.1 70 22:39 28.12.2019
5495 Clouds 28 1007 88 10000 2.1 70 22:21 28.12.2019
5496 Clouds 28 1007 78 10000 2.6 40 21:58 28.12.2019
5497 Clouds 28 1007 78 10000 2.6 40 21:40 28.12.2019
5498 Clouds 28 1007 78 10000 2.6 40 21:21 28.12.2019
5499 Clouds 27 1008 83 10000 3.1 30 20:58 28.12.2019
5500 Clouds 27 1008 83 10000 3.1 30 20:38 28.12.2019
5501 Clouds 27 1008 83 10000 3.1 30 20:20 28.12.2019
5502 Clouds 26 1008 88 10000 3.1 30 19:58 28.12.2019
5503 Clouds 26 1008 88 10000 3.1 30 19:39 28.12.2019
5504 Clouds 26 1008 88 10000 3.1 30 19:20 28.12.2019
5505 Clouds 26 1009 88 10000 4.1 60 18:57 28.12.2019
5506 Clouds 26 1009 88 10000 4.1 60 18:39 28.12.2019
5507 Rain 27 1009 74 6000 6.7 10 18:19 28.12.2019
5508 Rain 29 1010 78 10000 4.6 360 17:54 28.12.2019
5509 Rain 31 1009 70 10000 3.6 60 17:36 28.12.2019
5510 Rain 31 1009 70 10000 3.6 60 17:18 28.12.2019
5511 Clouds 29 1011 83 10000 1.5 80 16:46 28.12.2019
5512 Clouds 29 1011 83 10000 1.5 80 16:25 28.12.2019
5513 Clouds 30 1011 74 10000 1 130 15:44 28.12.2019
5514 Clouds 30 1011 74 10000 1 130 15:24 28.12.2019
5515 -273 0 0 0 0 0 14:58 28.12.2019
5516 Clouds 29 1011 79 10000 1.5 70 14:38 28.12.2019
5517 Clouds 29 1011 79 10000 1.5 70 14:20 28.12.2019
5518 Rain 28 1011 83 10000 1.5 60 13:43 28.12.2019
5519 Rain 28 1011 83 10000 1.5 60 13:23 28.12.2019
5520 Rain 26 1010 88 10000 1.5 60 12:59 28.12.2019
5521 Rain 26 1010 88 10000 1.5 60 12:41 28.12.2019
5522 Rain 26 1010 88 10000 1.5 60 12:23 28.12.2019
5523 Rain 25 1010 94 10000 1 80 11:55 28.12.2019
5524 Rain 25 1010 94 10000 1 80 11:37 28.12.2019
5525 Rain 25 1010 94 10000 1 80 11:18 28.12.2019
5526 Rain 25 1010 94 10000 1 80 11:18 28.12.2019
5527 Rain 25 1009 88 10000 1.07 50 10:43 28.12.2019
5528 Rain 25 1009 88 10000 1.07 50 10:20 28.12.2019
5529 Rain 25 1009 88 10000 1 360 09:56 28.12.2019
5530 Rain 25 1009 88 10000 1 360 09:38 28.12.2019
5531 Rain 25 1009 88 10000 1 360 09:19 28.12.2019
5532 Rain 25 1009 88 10000 1 10 08:43 28.12.2019
5533 Clouds 25 1009 88 10000 1 10 08:25 28.12.2019
5534 Clouds 25 1009 88 10000 0.75 291 07:49 28.12.2019
5535 Clouds 25 1009 88 10000 0.75 291 07:27 28.12.2019
5536 Clouds 25 1010 88 10000 2.6 50 06:21 28.12.2019
5537 Clouds 26 1011 94 10000 1.5 20 03:59 28.12.2019
5538 Clouds 26 1011 94 10000 1.5 20 03:38 28.12.2019
5539 Clouds 26 1010 88 10000 1.5 30 02:48 28.12.2019
5540 Clouds 26 1009 88 10000 1 30 01:59 28.12.2019
5541 Clouds 26 1009 88 10000 1 30 01:29 28.12.2019
5542 Thunderstorm 26 1008 88 10000 1.5 10 00:54 28.12.2019
5543 Thunderstorm 27 1008 88 10000 3.1 10 00:36 28.12.2019
5544 Thunderstorm 27 1008 88 10000 3.1 10 00:18 28.12.2019
5545 Thunderstorm 26 1008 94 8000 3.1 10 23:42 27.12.2019
5546 Clouds 27 1008 88 10000 2.1 90 23:19 27.12.2019
5547 Thunderstorm 28 1008 88 3000 3.6 310 22:57 27.12.2019
5548 Thunderstorm 28 1008 88 3000 3.6 310 22:38 27.12.2019
5549 Clouds 30 1007 83 10000 1.5 80 22:20 27.12.2019
5550 Clouds 29 1007 88 10000 1.5 80 21:54 27.12.2019
5551 Clouds 29 1007 88 10000 1.5 80 21:36 27.12.2019
5552 Clouds 29 1007 88 10000 1.5 80 21:18 27.12.2019
5553 Rain 29 1008 79 10000 3.1 60 20:40 27.12.2019
5554 Rain 29 1008 79 10000 3.1 60 20:21 27.12.2019
5555 Rain 28 1009 74 10000 3.1 50 19:42 27.12.2019
5556 Rain 28 1009 74 10000 3.1 50 19:20 27.12.2019
5557 Rain 26 1010 83 10000 5.7 30 18:59 27.12.2019
5558 Rain 26 1010 83 10000 5.7 30 18:38 27.12.2019
5559 Rain 26 1010 83 10000 5.7 30 18:20 27.12.2019
5560 Thunderstorm 29 1011 88 10000 4.6 340 17:57 27.12.2019
5561 Rain 29 1011 74 10000 3.6 70 17:39 27.12.2019
5562 Rain 29 1011 74 10000 3.6 70 17:19 27.12.2019
5563 Clouds 28 1012 79 10000 2.6 70 16:56 27.12.2019
5564 Clouds 28 1012 79 10000 2.6 70 16:37 27.12.2019
5565 Clouds 28 1012 79 10000 2.6 70 16:19 27.12.2019
5566 Clouds 29 1012 79 10000 2.1 60 15:43 27.12.2019
5567 Clouds 29 1012 79 10000 2.1 60 15:20 27.12.2019
5568 Clouds 26 1012 83 10000 2.6 30 14:57 27.12.2019
5569 Clouds 26 1012 83 10000 2.6 30 14:38 27.12.2019
5570 Clouds 26 1012 83 10000 2.6 30 14:20 27.12.2019
5571 Clouds 26 1012 88 10000 2.1 40 13:48 27.12.2019
5572 Clouds 26 1012 88 10000 2.1 40 13:25 27.12.2019
5573 Clouds 25 1011 94 10000 1 20 12:58 27.12.2019
5574 Clouds 25 1011 94 10000 1 20 12:39 27.12.2019
5575 Clouds 25 1011 94 10000 1 20 12:21 27.12.2019
5576 Clouds 25 1010 94 10000 1 80 11:43 27.12.2019
5577 Clouds 25 1010 94 10000 1 80 11:43 27.12.2019
5578 Clouds 25 1010 94 10000 1 80 11:23 27.12.2019
5579 Clouds 25 1010 94 10000 0.08 207 10:55 27.12.2019
5580 Clouds 25 1010 94 10000 0.08 207 10:36 27.12.2019
5581 Clouds 25 1010 94 10000 0.08 207 10:18 27.12.2019
5582 Clouds 25 1010 94 10000 0.5 190 09:42 27.12.2019
5583 Clouds 25 1010 94 10000 0.5 190 09:21 27.12.2019
5584 Rain 25 1010 94 10000 0.08 207 08:55 27.12.2019
5585 Rain 25 1010 94 10000 0.08 207 08:35 27.12.2019
5586 Clouds 25 1010 88 10000 0.16 294 07:50 27.12.2019
5587 Clouds 25 1010 88 10000 0.16 294 07:31 27.12.2019
5588 Clouds 25 1010 88 10000 1 20 06:36 27.12.2019
5589 Clouds 25 1011 94 10000 1.5 60 04:59 27.12.2019
5590 Clouds 25 1011 94 10000 1.5 30 03:26 27.12.2019
5591 Clouds 26 1009 94 10000 0.5 10 01:59 27.12.2019
5592 Clouds 26 1009 94 10000 0.5 10 01:24 27.12.2019
5593 Clouds 26 1008 88 10000 2.1 20 00:58 27.12.2019
5594 Clouds 26 1008 88 10000 2.1 20 00:40 27.12.2019
5595 Clouds 26 1008 88 10000 2.1 20 00:21 27.12.2019
5596 Rain 27 1008 88 10000 1 100 23:41 26.12.2019
5597 Rain 27 1008 88 10000 1 100 23:22 26.12.2019
5598 Thunderstorm 28 1008 83 10000 2.6 170 22:45 26.12.2019
5599 Thunderstorm 28 1008 83 10000 2.6 170 22:23 26.12.2019
5600 Thunderstorm 27 1008 74 10000 1.5 100 21:59 26.12.2019
5601 Thunderstorm 27 1008 74 10000 1.5 100 21:38 26.12.2019
5602 Rain 27 1008 74 10000 5.1 40 21:20 26.12.2019
5603 Rain 29 1009 94 10000 2.6 320 20:46 26.12.2019
5604 Rain 29 1009 70 10000 1 120 20:23 26.12.2019
5605 Rain 29 1009 70 10000 1 120 20:23 26.12.2019
5606 Thunderstorm 31 1009 79 10000 3.6 210 19:59 26.12.2019
5607 Thunderstorm 31 1009 79 10000 3.6 210 19:40 26.12.2019
5608 Thunderstorm 31 1009 79 10000 3.6 210 19:21 26.12.2019
5609 Clouds 30 1011 74 10000 2.1 170 18:57 26.12.2019
5610 Clouds 30 1011 74 10000 2.1 170 18:39 26.12.2019
5611 Clouds 30 1011 74 10000 2.1 170 18:19 26.12.2019
5612 Clouds 30 1012 74 10000 1 130 17:43 26.12.2019
5613 Clouds 30 1012 74 10000 1 130 17:22 26.12.2019
5614 Clouds 29 1013 83 10000 2.1 80 16:59 26.12.2019
5615 Clouds 29 1013 83 10000 2.1 80 16:41 26.12.2019
5616 Clouds 29 1013 83 10000 2.1 80 16:21 26.12.2019
5617 Clouds 28 1013 83 10000 2.6 70 15:42 26.12.2019
5618 Clouds 28 1013 83 10000 2.6 70 15:22 26.12.2019
5619 Clouds 28 1013 83 10000 2.1 90 14:59 26.12.2019
5620 Clouds 28 1013 83 10000 2.1 90 14:39 26.12.2019
5621 Clouds 27 1013 83 10000 2.1 80 14:20 26.12.2019
5622 Clouds 25 1013 88 10000 2.6 80 13:43 26.12.2019
5623 Clouds 26 1012 94 10000 1 140 13:21 26.12.2019
5624 Clouds 25 1011 94 10000 1 60 12:58 26.12.2019
5625 Clouds 25 1011 94 10000 1 60 12:37 26.12.2019
5626 Clouds 25 1011 94 10000 1 60 12:19 26.12.2019
5627 Clouds 24 1010 100 10000 2.1 80 11:56 26.12.2019
5628 Clouds 24 1010 100 10000 2.1 80 11:37 26.12.2019
5629 Clouds 24 1010 100 10000 1 70 11:19 26.12.2019
5630 Clouds 24 1009 94 10000 1.5 140 10:42 26.12.2019
5631 Clouds 24 1009 94 10000 1.5 140 10:18 26.12.2019
5632 Clouds 24 1009 94 10000 1 230 09:45 26.12.2019
5633 Clouds 24 1009 94 10000 1 230 09:26 26.12.2019
5634 Clouds 23 1009 100 10000 1.5 140 08:42 26.12.2019
5635 Clouds 23 1009 100 10000 1.5 140 08:24 26.12.2019
5636 Clouds 24 1009 94 10000 1.5 140 07:53 26.12.2019
5637 Clouds 24 1009 94 10000 1.5 140 07:26 26.12.2019
5638 Clouds 24 1009 94 10000 1 130 06:52 26.12.2019
5639 Clouds 24 1009 94 10000 1 130 06:31 26.12.2019
5640 Clouds 24 1010 94 10000 0.5 220 05:45 26.12.2019
5641 Clouds 24 1010 94 10000 0.25 102 04:48 26.12.2019
5642 Clouds 24 1010 94 10000 0.25 102 04:29 26.12.2019
5643 Clouds 24 1010 88 10000 1 340 02:54 26.12.2019
5644 Clouds 24 1010 88 10000 1 340 02:32 26.12.2019
5645 Clouds 24 1010 94 10000 1 70 01:46 26.12.2019
5646 Clouds 24 1010 94 10000 1 70 01:27 26.12.2019
5647 Clouds 24 1010 88 10000 1.5 30 00:48 26.12.2019
5648 Clouds 24 1010 88 10000 1.5 30 00:24 26.12.2019
5649 Clouds 24 1009 88 10000 1 30 23:58 25.12.2019
5650 Clouds 24 1009 88 10000 1 30 23:38 25.12.2019
5651 Clouds 24 1009 88 10000 1 30 23:20 25.12.2019
5652 Clouds 24 1009 88 10000 2.1 30 22:58 25.12.2019
5653 Clouds 24 1009 88 10000 2.1 30 22:38 25.12.2019
5654 Clouds 24 1009 88 10000 2.1 30 22:38 25.12.2019
5655 Clouds 24 1009 88 10000 2.1 30 22:19 25.12.2019
5656 Clouds 24 1009 94 10000 2.6 40 21:57 25.12.2019
5657 Clouds 24 1009 94 10000 2.6 40 21:39 25.12.2019
5658 Clouds 24 1009 94 10000 2.6 40 21:19 25.12.2019
5659 Clouds 25 1010 88 10000 3.1 50 20:41 25.12.2019
5660 Clouds 25 1010 88 10000 3.1 50 20:41 25.12.2019
5661 Clouds 25 1010 88 10000 3.1 50 20:21 25.12.2019
5662 Clouds 25 1010 88 10000 2.6 40 19:59 25.12.2019
5663 Clouds 25 1010 88 10000 2.6 40 19:41 25.12.2019
5664 Clouds 25 1010 88 10000 2.6 40 19:22 25.12.2019
5665 Clouds 24 1011 94 10000 3.1 10 18:41 25.12.2019
5666 Clouds 24 1011 94 10000 3.1 10 18:21 25.12.2019
5667 Rain 24 1011 83 4000 6.7 70 17:58 25.12.2019
5668 Rain 24 1011 83 4000 6.7 70 17:39 25.12.2019
5669 Rain 30 1011 74 10000 1.5 100 17:18 25.12.2019
5670 Clouds 30 1012 79 10000 1.5 140 16:55 25.12.2019
5671 Clouds 30 1012 79 10000 1.5 140 16:55 25.12.2019
5672 Clouds 30 1012 79 10000 1.5 140 16:36 25.12.2019
5673 Clouds 30 1012 79 10000 1.5 140 16:18 25.12.2019
5674 Clouds 28 1012 78 10000 1 200 15:55 25.12.2019
5675 Clouds 28 1012 78 10000 1 200 15:36 25.12.2019
5676 Clouds 28 1012 78 10000 1 200 15:18 25.12.2019
5677 Clouds 26 1012 88 10000 1.5 230 14:42 25.12.2019
5678 Clouds 26 1012 88 10000 1.5 230 14:23 25.12.2019
5679 Clouds 25 1012 88 10000 1.5 170 13:58 25.12.2019
5680 Clouds 25 1012 88 10000 1.5 170 13:39 25.12.2019
5681 Clouds 25 1011 94 10000 1.5 190 13:20 25.12.2019
5682 Clouds 25 1011 100 10000 1.5 170 12:43 25.12.2019
5683 Clouds 25 1011 94 10000 1.5 210 12:22 25.12.2019
5684 Clouds 25 1010 94 10000 1 180 11:58 25.12.2019
5685 Clouds 25 1010 94 10000 1 180 11:39 25.12.2019
5686 Clouds 25 1010 94 10000 1 180 11:20 25.12.2019
5687 Clouds 25 1009 94 10000 2.1 30 10:39 25.12.2019
5688 Clouds 25 1009 94 10000 2.1 30 10:39 25.12.2019
5689 Clouds 25 1009 94 10000 2.1 30 10:21 25.12.2019
5690 Clouds 24 1009 100 10000 1.5 240 09:51 25.12.2019
5691 Clouds 24 1009 100 10000 1.5 240 09:33 25.12.2019
5692 Clouds 25 1010 94 10000 2.6 220 08:56 25.12.2019
5693 Clouds 25 1010 94 10000 2.6 220 08:38 25.12.2019
5694 Clouds 25 1010 94 10000 2.6 220 08:19 25.12.2019
5695 Clouds 24 1010 100 10000 1.5 180 07:40 25.12.2019
5696 Clouds 25 1010 100 10000 1.5 180 07:21 25.12.2019
5697 Clouds 25 1010 94 10000 1.5 230 06:24 25.12.2019
5698 Clouds 24 1011 94 10000 1.5 240 05:44 25.12.2019
5699 Clouds 25 1011 94 10000 1.5 220 04:40 25.12.2019
5700 Clouds 25 1011 94 10000 1.5 220 04:20 25.12.2019
5701 Clouds 24 1010 100 10000 1 210 03:43 25.12.2019
5702 Clouds 24 1010 94 10000 1 190 02:57 25.12.2019
5703 Clouds 24 1010 94 10000 1 190 02:28 25.12.2019
5704 Clouds 25 1008 88 10000 1 10 01:36 25.12.2019
5705 Clouds 25 1008 88 10000 1 10 01:18 25.12.2019
5706 Clouds 24 1008 100 10000 1 60 00:40 25.12.2019
5707 Clouds 24 1008 100 10000 1 60 00:22 25.12.2019
5708 Clouds 24 1008 100 10000 1 60 00:22 25.12.2019
5709 Clouds 24 1008 100 10000 1 100 23:39 24.12.2019
5710 Clouds 24 1008 100 10000 1 100 23:20 24.12.2019
5711 Clouds 24 1008 94 10000 2.1 60 22:42 24.12.2019
5712 Clouds 24 1008 94 10000 2.1 60 22:23 24.12.2019
5713 Rain 23 1007 94 8000 3.6 40 21:57 24.12.2019
5714 Rain 23 1007 94 8000 3.6 40 21:37 24.12.2019
5715 Thunderstorm 23 1008 100 5000 2.6 350 21:19 24.12.2019
5716 Thunderstorm 24 1008 100 800 8.7 30 20:41 24.12.2019
5717 Rain 31 1007 79 10000 2.1 160 20:20 24.12.2019
5718 Clouds 30 1008 66 10000 1.5 180 19:47 24.12.2019
5719 Clouds 30 1008 66 10000 1.5 180 19:22 24.12.2019
5720 Clouds 30 1008 66 10000 1.5 180 19:22 24.12.2019
5721 Rain 31 1009 66 10000 2.1 200 18:59 24.12.2019
5722 Rain 31 1009 66 10000 2.1 200 18:40 24.12.2019
5723 Rain 31 1009 66 10000 2.1 200 18:18 24.12.2019
5724 Rain 30 1011 79 10000 1 150 17:43 24.12.2019
5725 Rain 30 1011 79 10000 1 150 17:22 24.12.2019
5726 Clouds 30 1012 83 10000 2.1 200 16:58 24.12.2019
5727 Clouds 30 1012 83 10000 2.1 200 16:39 24.12.2019
5728 Clouds 30 1012 83 10000 2.1 200 16:20 24.12.2019
5729 Clouds 29 1012 79 10000 2.1 240 15:57 24.12.2019
5730 Clouds 29 1012 79 10000 2.1 240 15:37 24.12.2019
5731 Clouds 29 1012 79 10000 2.1 240 15:19 24.12.2019
5732 Clouds 27 1012 83 10000 2.6 260 14:57 24.12.2019
5733 Clouds 27 1012 83 10000 2.6 260 14:39 24.12.2019
5734 Clouds 27 1012 83 10000 2.6 260 14:21 24.12.2019
5735 Clouds 27 1012 94 10000 1.5 230 13:56 24.12.2019
5736 Clouds 27 1012 94 10000 1.5 230 13:37 24.12.2019
5737 Clouds 27 1012 94 10000 1.5 230 13:37 24.12.2019
5738 Clouds 27 1012 94 10000 1.5 230 13:19 24.12.2019
5739 Clouds 24 1011 100 8000 2.1 250 12:55 24.12.2019
5740 Clouds 24 1011 100 8000 2.1 250 12:36 24.12.2019
5741 Clouds 24 1011 100 8000 2.1 250 12:18 24.12.2019
5742 Clouds 24 1011 100 8000 1.5 240 11:55 24.12.2019
5743 Clouds 24 1011 100 8000 1.5 240 11:55 24.12.2019
5744 Clouds 24 1010 100 7000 1 340 11:37 24.12.2019
5745 Clouds 24 1010 100 7000 1 340 11:37 24.12.2019
5746 Clouds 24 1010 100 7000 1 340 11:37 24.12.2019
5747 Clouds 24 1010 100 7000 1 340 11:18 24.12.2019
5748 Clouds 24 1010 100 7000 1 50 10:56 24.12.2019
5749 Clouds 24 1010 100 7000 1 50 10:37 24.12.2019
5750 Clouds 24 1010 100 7000 1 50 10:19 24.12.2019
5751 Clouds 24 1009 100 10000 1 20 09:55 24.12.2019
5752 Clouds 24 1009 100 10000 1 20 09:36 24.12.2019
5753 Clouds 24 1009 100 10000 1 20 09:18 24.12.2019
5754 Clouds 24 1009 100 10000 1 90 08:44 24.12.2019
5755 Clouds 24 1009 100 10000 1 90 08:20 24.12.2019
5756 Clouds 24 1010 100 10000 0.54 309 07:46 24.12.2019
5757 Clouds 24 1010 100 10000 0.54 309 07:25 24.12.2019
5758 Clouds 24 1010 100 10000 0.54 309 07:25 24.12.2019
5759 Clouds 24 1010 100 10000 1 40 06:58 24.12.2019
5760 Clouds 24 1010 100 10000 1 40 06:38 24.12.2019
5761 Clouds 24 1010 100 10000 1 40 06:18 24.12.2019
5762 Clouds 25 1011 94 10000 1 10 05:20 24.12.2019
5763 Clouds 25 1011 94 10000 0.37 306 04:44 24.12.2019
5764 Clouds 25 1011 94 10000 1 80 03:50 24.12.2019
5765 Clouds 25 1011 94 10000 1 80 03:18 24.12.2019
5766 Clouds 25 1011 94 10000 0.38 29 02:21 24.12.2019
5767 Clouds 25 1010 94 10000 0.5 90 01:50 24.12.2019
5768 Clouds 25 1010 94 10000 0.5 90 01:21 24.12.2019
5769 Clouds 25 1010 94 10000 1 70 00:45 24.12.2019
5770 Clouds 25 1009 94 10000 1 60 00:23 24.12.2019
5771 Clouds 26 1009 94 10000 1 80 23:56 23.12.2019
5772 Clouds 26 1009 94 10000 1 80 23:37 23.12.2019
5773 Clouds 26 1009 94 10000 1 80 23:19 23.12.2019
5774 Clouds 26 1009 88 10000 1 40 22:56 23.12.2019
5775 Clouds 26 1009 88 10000 1 40 22:56 23.12.2019
5776 Clouds 26 1009 88 10000 1 40 22:36 23.12.2019
5777 Clouds 26 1009 88 10000 1 40 22:18 23.12.2019
5778 Clouds 26 1009 88 10000 1.5 20 21:55 23.12.2019
5779 Clouds 26 1009 88 10000 2.1 40 21:36 23.12.2019
5780 Clouds 26 1009 88 10000 2.1 40 21:18 23.12.2019
5781 Clouds 26 1010 88 10000 1.5 80 20:56 23.12.2019
5782 Clouds 26 1010 88 10000 1.5 80 20:56 23.12.2019
5783 Clouds 26 1010 88 10000 1.5 80 20:38 23.12.2019
5784 Clouds 26 1010 88 10000 1.5 80 20:18 23.12.2019
5785 Clouds 26 1011 94 10000 1 90 19:55 23.12.2019
5786 Clouds 26 1011 94 10000 1 90 19:55 23.12.2019
5787 Clouds 26 1011 94 10000 1 90 19:37 23.12.2019
5788 Clouds 26 1011 94 10000 1 90 19:18 23.12.2019
5789 Rain 26 1012 94 10000 1 140 18:55 23.12.2019
5790 Rain 26 1012 94 10000 1 140 18:37 23.12.2019
5791 Rain 26 1012 94 10000 1 140 18:18 23.12.2019
5792 Thunderstorm 25 1013 94 10000 1 90 17:55 23.12.2019
5793 Thunderstorm 25 1013 94 10000 1 90 17:55 23.12.2019
5794 Thunderstorm 25 1013 94 10000 1 90 17:37 23.12.2019
5795 Thunderstorm 25 1013 94 10000 1 90 17:18 23.12.2019
5796 Thunderstorm 24 1014 100 7000 1.5 80 16:42 23.12.2019
5797 Thunderstorm 24 1014 100 7000 1.5 80 16:19 23.12.2019
5798 Thunderstorm 23 1014 94 8000 2.1 90 15:58 23.12.2019
5799 Thunderstorm 23 1014 94 8000 2.1 90 15:38 23.12.2019
5800 Thunderstorm 24 1014 100 4000 4.6 60 15:20 23.12.2019
5801 Thunderstorm 23 1014 94 1000 2.1 190 14:58 23.12.2019
5802 Thunderstorm 24 1014 94 1000 2.1 190 14:39 23.12.2019
5803 Clouds 26 1013 88 10000 1.5 180 14:21 23.12.2019
5804 Clouds 25 1012 94 10000 1.5 220 13:58 23.12.2019
5805 Clouds 25 1012 94 10000 1.5 220 13:40 23.12.2019
5806 Clouds 25 1012 94 10000 1.5 220 13:22 23.12.2019
5807 Clouds 25 1011 94 10000 1 170 12:56 23.12.2019
5808 Clouds 25 1011 94 10000 1 170 12:37 23.12.2019
5809 Clouds 25 1011 94 10000 1 170 12:19 23.12.2019
5810 Clouds 25 1010 94 10000 1.5 190 11:44 23.12.2019
5811 Clouds 25 1010 94 10000 1.5 190 11:25 23.12.2019
5812 Clouds 25 1010 94 10000 1 190 10:57 23.12.2019
5813 Clouds 25 1010 94 10000 1 190 10:39 23.12.2019
5814 Clouds 25 1010 94 10000 1 190 10:20 23.12.2019
5815 Clouds 24 1009 100 10000 1 160 09:59 23.12.2019
5816 Clouds 24 1009 100 10000 1 160 09:39 23.12.2019
5817 Clouds 24 1010 100 10000 1 170 09:20 23.12.2019
5818 Clouds 24 1009 94 10000 1.5 210 08:55 23.12.2019
5819 Clouds 24 1009 94 10000 1.5 210 08:37 23.12.2019
5820 Clouds 24 1009 94 10000 1.5 210 08:19 23.12.2019
5821 Clouds 25 1010 94 10000 1.5 200 07:43 23.12.2019
5822 Clouds 25 1010 94 10000 1.5 200 07:20 23.12.2019
5823 Clouds 25 1010 94 10000 1 230 06:51 23.12.2019
5824 Clouds 25 1010 94 10000 1 230 06:24 23.12.2019
5825 Clouds 26 1011 94 10000 1.5 220 05:49 23.12.2019
5826 Clouds 26 1011 94 10000 1.5 220 05:22 23.12.2019
5827 Clouds 26 1011 94 10000 1.5 210 04:20 23.12.2019
5828 Clouds 25 1011 100 10000 1.42 272 02:55 23.12.2019
5829 Clouds 26 1010 94 10000 1.42 272 02:28 23.12.2019
5830 Clouds 26 1009 94 10000 1.25 285 01:55 23.12.2019
5831 Clouds 26 1009 94 10000 1.25 285 01:36 23.12.2019
5832 Clouds 26 1009 94 10000 1.25 285 01:18 23.12.2019
5833 Clouds 26 1009 94 10000 1.42 279 00:35 23.12.2019
5834 Clouds 26 1008 88 10000 1.42 279 23:58 22.12.2019
5835 Clouds 26 1008 88 10000 1.42 279 23:39 22.12.2019
5836 Clouds 26 1008 88 10000 1.22 269 23:20 22.12.2019
5837 Clouds 27 1007 83 10000 0.5 150 22:57 22.12.2019
5838 Clouds 27 1007 83 10000 0.5 150 22:38 22.12.2019
5839 Clouds 27 1007 83 10000 0.5 150 22:19 22.12.2019
5840 Clouds 27 1007 83 10000 1 80 21:56 22.12.2019
5841 Clouds 27 1007 83 10000 1 80 21:56 22.12.2019
5842 Clouds 27 1007 83 10000 1 80 21:38 22.12.2019
5843 Clouds 27 1007 83 10000 1 80 21:20 22.12.2019
5844 Clouds 27 1008 83 10000 1 90 20:55 22.12.2019
5845 Clouds 27 1008 83 10000 1 90 20:37 22.12.2019
5846 Clouds 27 1008 83 10000 1 90 20:37 22.12.2019
5847 Clouds 27 1008 83 10000 1 90 20:18 22.12.2019
5848 Clouds 26 1010 83 10000 2.6 70 19:40 22.12.2019
5849 Clouds 26 1010 83 10000 2.6 70 19:21 22.12.2019
5850 Clouds 26 1011 88 10000 3.6 40 18:58 22.12.2019
5851 Clouds 26 1011 88 10000 3.6 40 18:38 22.12.2019
5852 Clouds 26 1011 88 10000 3.6 40 18:19 22.12.2019
5853 Rain 25 1012 94 10000 1.5 60 17:55 22.12.2019
5854 Rain 25 1012 94 10000 1.5 60 17:37 22.12.2019
5855 Rain 25 1012 94 10000 1.5 60 17:18 22.12.2019
5856 Rain 24 1014 100 8000 2.1 70 16:43 22.12.2019
5857 Rain 24 1014 100 8000 2.1 70 16:43 22.12.2019
5858 Rain 24 1014 100 8000 2.1 70 16:23 22.12.2019
5859 Thunderstorm 24 1014 94 8000 4.1 80 15:59 22.12.2019
5860 Thunderstorm 24 1014 94 8000 4.1 80 15:39 22.12.2019
5861 Thunderstorm 24 1014 94 8000 4.1 80 15:21 22.12.2019
5862 Thunderstorm 24 1014 94 8000 4.1 80 15:21 22.12.2019
5863 Thunderstorm 23 1014 94 6000 2.6 100 14:59 22.12.2019
5864 Thunderstorm 23 1014 94 6000 2.6 100 14:38 22.12.2019
5865 Thunderstorm 24 1013 100 3000 3.6 50 14:19 22.12.2019
5866 Thunderstorm 24 1013 94 2000 5.1 70 13:56 22.12.2019
5867 Thunderstorm 24 1013 94 2000 5.1 70 13:38 22.12.2019
5868 Rain 26 1012 94 500 2.6 180 13:19 22.12.2019
5869 Mist 26 1011 100 5000 2.1 240 12:57 22.12.2019
5870 Mist 26 1011 100 5000 2.1 240 12:38 22.12.2019
5871 Mist 26 1011 100 2000 1.5 220 12:19 22.12.2019
5872 Mist 25 1011 100 2000 1 250 11:57 22.12.2019
5873 Mist 25 1011 100 2000 1 250 11:38 22.12.2019
5874 Clouds 25 1010 100 10000 1 200 11:19 22.12.2019
5875 Clouds 25 1009 100 10000 1.5 240 10:57 22.12.2019
5876 Clouds 25 1009 100 10000 1.5 240 10:57 22.12.2019
5877 Clouds 25 1009 100 10000 1.5 240 10:38 22.12.2019
5878 Clouds 25 1009 100 10000 1.5 240 10:19 22.12.2019
5879 Clouds 25 1009 100 10000 1 180 09:57 22.12.2019
5880 Clouds 25 1009 100 10000 1 180 09:39 22.12.2019
5881 Clouds 25 1009 100 10000 1 180 09:20 22.12.2019
5882 Clouds 25 1009 94 10000 1 20 08:42 22.12.2019
5883 Clouds 25 1009 94 10000 1 20 08:22 22.12.2019
5884 Clouds 25 1009 100 10000 1 160 07:43 22.12.2019
5885 Clouds 25 1009 100 10000 1 160 07:21 22.12.2019
5886 Clouds 25 1010 100 10000 1.5 150 06:52 22.12.2019
5887 Clouds 26 1010 94 10000 1.5 200 06:26 22.12.2019
5888 Clouds 26 1010 100 10000 1 170 05:33 22.12.2019
5889 Clouds 26 1010 94 10000 1 200 04:46 22.12.2019
5890 Clouds 26 1010 94 10000 1 200 04:25 22.12.2019
5891 Clouds 27 1009 94 10000 1.5 160 02:45 22.12.2019
5892 Clouds 27 1009 94 10000 1.5 160 02:20 22.12.2019
5893 Clouds 27 1008 94 10000 1 160 01:31 22.12.2019
5894 Clouds 27 1007 88 10000 1.18 341 00:54 22.12.2019
5895 Clouds 27 1007 88 10000 1.18 341 00:36 22.12.2019
5896 Clouds 27 1007 88 10000 1.18 341 00:18 22.12.2019
5897 Clouds 28 1006 88 10000 1 130 23:40 21.12.2019
5898 Clouds 28 1006 88 10000 1 130 23:21 21.12.2019
5899 Clouds 29 1006 83 10000 1.96 15 22:47 21.12.2019
5900 Clouds 29 1006 83 10000 1.96 15 22:20 21.12.2019
5901 Clouds 29 1007 83 10000 1 60 21:59 21.12.2019
5902 Clouds 29 1007 83 10000 1 60 21:40 21.12.2019
5903 Clouds 29 1007 83 10000 1 60 21:21 21.12.2019
5904 Clouds 29 1008 79 10000 1 70 20:59 21.12.2019
5905 Clouds 29 1008 79 10000 1 70 20:59 21.12.2019
5906 Clouds 29 1008 79 10000 1 70 20:41 21.12.2019
5907 Clouds 29 1008 79 10000 1 70 20:22 21.12.2019
5908 Clouds 29 1009 83 10000 2.1 160 19:59 21.12.2019
5909 Clouds 29 1009 83 10000 2.1 160 19:41 21.12.2019
5910 Clouds 29 1009 83 10000 2.1 160 19:20 21.12.2019
5911 Clouds 28 1010 79 10000 0.5 330 18:56 21.12.2019
5912 Clouds 28 1010 79 10000 0.5 330 18:38 21.12.2019
5913 Clouds 28 1010 79 10000 0.5 330 18:20 21.12.2019
5914 Rain 28 1010 94 10000 3.6 70 17:55 21.12.2019
5915 Rain 28 1010 94 10000 3.6 70 17:37 21.12.2019
5916 Rain 29 1010 79 3000 6.2 120 17:18 21.12.2019
5917 Rain 30 1011 79 10000 1.5 160 16:41 21.12.2019
5918 Rain 30 1011 79 10000 1.5 160 16:19 21.12.2019
5919 Clouds 29 1012 79 10000 1.5 350 15:58 21.12.2019
5920 Clouds 29 1012 79 10000 1.5 350 15:39 21.12.2019
5921 Clouds 29 1012 79 10000 1.5 350 15:20 21.12.2019
5922 Rain 26 1012 88 10000 2.1 350 14:59 21.12.2019
5923 Rain 26 1012 88 10000 2.1 350 14:40 21.12.2019
5924 Rain 27 1012 88 4000 1.5 240 14:22 21.12.2019
5925 Clouds 27 1012 94 10000 2.6 310 13:57 21.12.2019
5926 Clouds 27 1012 94 10000 2.6 310 13:38 21.12.2019
5927 Clouds 27 1012 94 10000 1.5 220 13:18 21.12.2019
5928 Clouds 25 1011 88 10000 1 300 12:56 21.12.2019
5929 Clouds 25 1011 88 10000 1 300 12:37 21.12.2019
5930 Clouds 25 1011 88 10000 1 300 12:19 21.12.2019
5931 Clouds 24 1010 94 10000 1 320 11:45 21.12.2019
5932 Clouds 24 1010 94 10000 1 320 11:26 21.12.2019
5933 Clouds 25 1009 94 10000 0.5 340 10:57 21.12.2019
5934 Clouds 25 1009 94 10000 0.5 340 10:39 21.12.2019
5935 Clouds 25 1009 94 10000 0.5 340 10:21 21.12.2019
5936 Clouds 24 1009 100 10000 0.5 90 09:56 21.12.2019
5937 Clouds 24 1009 100 10000 0.5 90 09:56 21.12.2019
5938 Clouds 24 1009 100 10000 0.5 90 09:38 21.12.2019
5939 Clouds 24 1009 100 10000 0.5 90 09:19 21.12.2019
5940 Clouds 25 1009 100 10000 0.73 42 08:46 21.12.2019
5941 Clouds 25 1009 100 10000 0.73 42 08:26 21.12.2019
5942 Clouds 25 1009 100 10000 0.5 120 07:46 21.12.2019
5943 Clouds 25 1009 100 10000 0.5 120 07:23 21.12.2019
5944 Clouds 25 1009 100 10000 0.5 120 07:23 21.12.2019
5945 Clouds 25 1010 100 10000 0.5 80 06:46 21.12.2019
5946 Clouds 25 1010 100 10000 0.5 80 06:28 21.12.2019
5947 Clouds 26 1010 94 10000 0.71 340 05:55 21.12.2019
5948 Clouds 26 1010 100 10000 1 90 04:58 21.12.2019
5949 Clouds 26 1010 100 10000 0.5 140 03:59 21.12.2019
5950 Clouds 26 1010 100 10000 0.5 140 03:37 21.12.2019
5951 Clouds 27 1009 94 10000 0.5 150 02:19 21.12.2019
5952 Clouds 27 1008 88 10000 1 80 01:41 21.12.2019
5953 Clouds 27 1007 88 10000 1 60 01:22 21.12.2019
5954 Clouds 27 1007 88 10000 1 60 00:37 21.12.2019
5955 Clouds 28 1007 88 10000 1 60 00:18 21.12.2019
5956 Clouds 28 1007 83 10000 1 110 23:38 20.12.2019
5957 Clouds 28 1007 83 10000 1 110 23:19 20.12.2019
5958 Clouds 30 1007 74 10000 1.5 70 22:57 20.12.2019
5959 Clouds 30 1007 74 10000 1.5 70 22:36 20.12.2019
5960 Clouds 30 1007 74 10000 1.5 70 22:18 20.12.2019
5961 Clouds 31 1007 74 10000 2.1 80 21:40 20.12.2019
5962 Clouds 31 1007 74 10000 2.1 80 21:20 20.12.2019
5963 Thunderstorm 32 1007 62 10000 4.1 80 20:56 20.12.2019
5964 Thunderstorm 32 1007 62 10000 4.1 80 20:36 20.12.2019
5965 Rain 31 1007 66 10000 2.1 80 20:18 20.12.2019
5966 Rain 30 1008 70 10000 2.1 110 19:42 20.12.2019
5967 Rain 30 1008 70 10000 2.1 110 19:20 20.12.2019
5968 Clouds 30 1009 70 10000 1.5 100 18:58 20.12.2019
5969 Clouds 30 1009 70 10000 1.5 100 18:39 20.12.2019
5970 Clouds 30 1009 70 10000 1.5 100 18:21 20.12.2019
5971 Clouds 29 1011 79 10000 1.5 150 17:54 20.12.2019
5972 Clouds 29 1011 79 10000 1.5 150 17:36 20.12.2019
5973 Clouds 29 1011 79 10000 1.5 150 17:18 20.12.2019
5974 Clouds 29 1011 79 10000 1.5 150 17:18 20.12.2019
5975 Clouds 28 1012 83 10000 2.6 170 16:40 20.12.2019
5976 Clouds 28 1012 83 10000 2.6 170 16:20 20.12.2019
5977 Clouds 28 1012 83 10000 1.5 180 15:57 20.12.2019
5978 Clouds 28 1012 83 10000 1.5 180 15:39 20.12.2019
5979 Clouds 28 1012 83 10000 1.5 180 15:20 20.12.2019
5980 Clouds 27 1012 94 10000 1.5 180 14:59 20.12.2019
5981 Clouds 27 1012 94 10000 1.5 180 14:40 20.12.2019
5982 Clouds 27 1012 94 10000 1.5 180 14:22 20.12.2019
5983 Clouds 26 1012 94 8000 1.5 210 13:55 20.12.2019
5984 Clouds 26 1012 94 8000 1.5 210 13:36 20.12.2019
5985 Clouds 26 1012 94 8000 1.5 210 13:18 20.12.2019
5986 Clouds 25 1011 94 10000 1 220 12:42 20.12.2019
5987 Clouds 25 1011 94 10000 1 220 12:20 20.12.2019
5988 Clouds 24 1011 100 10000 1 190 11:59 20.12.2019
5989 Clouds 24 1010 100 10000 1.5 240 11:40 20.12.2019
5990 Clouds 24 1010 100 10000 1.5 240 11:21 20.12.2019
5991 Mist 24 1010 100 3000 1 310 10:59 20.12.2019
5992 Mist 24 1010 100 3000 1 310 10:41 20.12.2019
5993 Mist 24 1010 100 3000 1 310 10:21 20.12.2019
5994 Clouds 24 1008 94 10000 1.5 180 09:56 20.12.2019
5995 Clouds 24 1008 94 10000 1.5 180 09:38 20.12.2019
5996 Clouds 24 1008 94 10000 1.5 180 09:19 20.12.2019
5997 Clouds 24 1009 94 10000 1.5 160 08:43 20.12.2019
5998 Clouds 24 1009 94 10000 1.5 160 08:25 20.12.2019
5999 Rain 24 1009 94 10000 1.5 190 07:59 20.12.2019
6000 Rain 24 1009 94 10000 1.5 190 07:40 20.12.2019
6001 Rain 24 1009 94 10000 1.5 190 07:19 20.12.2019
6002 Rain 24 1009 94 10000 1.5 220 06:52 20.12.2019
6003 Rain 24 1009 94 10000 1.5 220 06:32 20.12.2019
6004 Rain 24 1010 88 10000 1 210 05:53 20.12.2019
6005 Rain 24 1010 88 10000 1 210 05:35 20.12.2019
6006 Clouds 24 1010 88 10000 1 200 04:33 20.12.2019
6007 Clouds 25 1011 88 10000 1 200 03:30 20.12.2019
6008 Clouds 25 1011 88 10000 1 200 03:30 20.12.2019
6009 Clouds 25 1010 94 10000 1 230 02:43 20.12.2019
6010 Clouds 25 1009 100 10000 0.5 70 01:49 20.12.2019
6011 Clouds 25 1009 100 10000 0.5 70 01:49 20.12.2019
6012 Clouds 25 1009 100 10000 0.5 70 01:30 20.12.2019
6013 Thunderstorm 25 1008 88 10000 2.6 20 00:43 20.12.2019
6014 Thunderstorm 25 1008 88 10000 2.6 20 00:23 20.12.2019
6015 Thunderstorm 28 1007 83 10000 3.1 320 23:44 19.12.2019
6016 Thunderstorm 28 1007 83 10000 3.1 320 23:25 19.12.2019
6017 Clouds 28 1006 74 10000 2.6 340 22:59 19.12.2019
6018 Clouds 28 1006 74 10000 2.6 340 22:37 19.12.2019
6019 Clouds 28 1006 74 10000 2.6 340 22:18 19.12.2019
6020 Rain 29 1007 100 10000 1.5 230 21:55 19.12.2019
6021 Rain 29 1006 70 10000 1.5 80 21:37 19.12.2019
6022 Rain 29 1006 70 10000 1.5 80 21:18 19.12.2019
6023 Clouds 30 1007 70 10000 2.6 70 20:55 19.12.2019
6024 Clouds 30 1007 70 10000 2.6 70 20:36 19.12.2019
6025 Clouds 30 1007 70 10000 2.6 70 20:18 19.12.2019
6026 Clouds 30 1009 74 10000 2.6 60 19:54 19.12.2019
6027 Clouds 30 1009 74 10000 2.6 60 19:36 19.12.2019
6028 Clouds 30 1009 74 10000 2.6 60 19:18 19.12.2019
6029 Clouds 30 1009 74 10000 4.1 50 18:41 19.12.2019
6030 Clouds 30 1009 74 10000 4.1 50 18:22 19.12.2019
6031 Clouds 29 1009 74 10000 4.1 50 17:57 19.12.2019
6032 Clouds 29 1011 74 10000 4.1 70 17:39 19.12.2019
6033 Clouds 29 1011 74 10000 4.1 70 17:19 19.12.2019
6034 Clouds 28 1011 78 10000 4.6 60 16:57 19.12.2019
6035 Clouds 28 1011 78 10000 4.6 60 16:39 19.12.2019
6036 Clouds 28 1011 78 10000 4.6 60 16:20 19.12.2019
6037 Clouds 28 1012 83 10000 3.6 40 15:58 19.12.2019
6038 Clouds 28 1012 83 10000 3.6 40 15:39 19.12.2019
6039 Clouds 28 1012 83 10000 3.6 40 15:19 19.12.2019
6040 Clouds 25 1012 88 10000 4.6 40 14:58 19.12.2019
6041 Clouds 25 1012 88 10000 4.6 40 14:40 19.12.2019
6042 Clouds 25 1012 88 10000 4.6 40 14:18 19.12.2019
6043 Rain 24 1011 94 8000 4.1 40 13:56 19.12.2019
6044 Rain 24 1011 94 8000 4.1 40 13:37 19.12.2019
6045 Rain 24 1011 94 8000 4.1 40 13:18 19.12.2019
6046 -273 0 0 0 0 0 12:54 19.12.2019
6047 Rain 24 1011 94 5000 4.1 350 12:36 19.12.2019
6048 Rain 24 1011 94 5000 4.1 350 12:18 19.12.2019
6049 Rain 24 1011 94 5000 4.1 350 12:18 19.12.2019
6050 Rain 24 1011 94 5000 4.1 350 12:18 19.12.2019
6051 Rain 24 1011 94 5000 4.1 350 12:18 19.12.2019
6052 Rain 25 1010 100 2500 4.1 70 11:42 19.12.2019
6053 Rain 25 1010 100 2500 4.1 70 11:20 19.12.2019
6054 Rain 25 1008 94 10000 2.1 90 10:59 19.12.2019
6055 Rain 25 1008 94 10000 2.1 90 10:39 19.12.2019
6056 Rain 25 1008 94 10000 2.1 90 10:20 19.12.2019
6057 Rain 24 1008 94 10000 2.1 90 09:57 19.12.2019
6058 Rain 25 1008 88 10000 1.5 30 09:38 19.12.2019
6059 Rain 25 1008 88 10000 1.5 30 09:20 19.12.2019
6060 Rain 25 1008 88 10000 1 30 08:55 19.12.2019
6061 Rain 25 1008 88 10000 1 30 08:37 19.12.2019
6062 Rain 25 1008 88 10000 1 30 08:18 19.12.2019
6063 Rain 26 1008 88 10000 1.5 350 07:54 19.12.2019
6064 Rain 26 1008 88 10000 1.5 350 07:36 19.12.2019
6065 Rain 26 1008 88 10000 1.5 350 07:18 19.12.2019
6066 Rain 25 1009 88 10000 1.5 50 06:42 19.12.2019
6067 Rain 25 1009 88 10000 1.5 50 06:23 19.12.2019
6068 Rain 25 1009 88 10000 2.1 20 05:45 19.12.2019
6069 Rain 25 1009 88 10000 2.1 20 05:20 19.12.2019
6070 Rain 25 1009 83 10000 1.5 20 03:54 19.12.2019
6071 Rain 25 1009 88 10000 2.1 10 02:29 19.12.2019
6072 Clouds 25 1008 83 10000 3.1 360 01:26 19.12.2019
6073 Clouds 26 1007 83 10000 2.6 40 00:59 19.12.2019
6074 Clouds 26 1007 83 10000 2.6 40 00:39 19.12.2019
6075 Clouds 26 1007 83 10000 2.6 40 00:19 19.12.2019
6076 Clouds 26 1007 83 10000 2.6 40 23:45 18.12.2019
6077 Clouds 26 1006 78 10000 3.1 20 23:19 18.12.2019
6078 Rain 26 1006 88 10000 4.1 30 22:58 18.12.2019
6079 Rain 26 1006 88 10000 4.1 30 22:39 18.12.2019
6080 Rain 26 1006 88 10000 4.1 30 22:39 18.12.2019
6081 Rain 26 1006 88 10000 4.1 30 22:21 18.12.2019
6082 Rain 30 1006 74 10000 2.1 40 21:58 18.12.2019
6083 Rain 30 1006 74 10000 2.1 40 21:40 18.12.2019
6084 Rain 30 1006 74 10000 2.1 40 21:20 18.12.2019
6085 Rain 30 1006 74 10000 2.1 40 21:20 18.12.2019
6086 Rain 30 1006 70 10000 2.6 10 20:57 18.12.2019
6087 Rain 30 1006 70 10000 2.6 10 20:38 18.12.2019
6088 Rain 30 1006 70 10000 2.6 10 20:20 18.12.2019
6089 Clouds 29 1008 66 10000 3.6 30 19:56 18.12.2019
6090 Clouds 29 1008 66 10000 3.6 30 19:56 18.12.2019
6091 Clouds 29 1008 66 10000 3.6 30 19:38 18.12.2019
6092 Clouds 29 1008 66 10000 3.6 30 19:19 18.12.2019
6093 Rain 27 1009 79 10000 4.6 30 18:54 18.12.2019
6094 Rain 27 1009 79 10000 4.6 30 18:36 18.12.2019
6095 Rain 27 1009 79 10000 4.6 30 18:18 18.12.2019
6096 Rain 27 1009 79 10000 4.6 30 17:55 18.12.2019
6097 Thunderstorm 27 1010 100 10000 3.1 320 17:37 18.12.2019
6098 Thunderstorm 27 1010 100 10000 3.1 320 17:18 18.12.2019
6099 Thunderstorm 29 1010 74 2500 6.2 40 16:42 18.12.2019
6100 Thunderstorm 29 1010 74 2500 6.2 40 16:42 18.12.2019
6101 Rain 31 1011 74 10000 3.1 70 16:23 18.12.2019
6102 Clouds 30 1011 74 10000 2.6 120 15:57 18.12.2019
6103 Clouds 30 1011 74 10000 2.6 120 15:39 18.12.2019
6104 Clouds 30 1011 74 10000 2.6 120 15:21 18.12.2019
6105 Clouds 28 1011 88 10000 1.5 50 14:56 18.12.2019
6106 Clouds 28 1011 88 10000 1.5 50 14:36 18.12.2019
6107 Clouds 28 1011 88 10000 1.5 50 14:18 18.12.2019
6108 Clouds 27 1011 88 10000 1 60 13:54 18.12.2019
6109 Clouds 27 1011 94 10000 1 70 13:36 18.12.2019
6110 Clouds 27 1011 94 10000 1 70 13:18 18.12.2019
6111 Clouds 27 1011 94 10000 1 70 13:18 18.12.2019
6112 Clouds 26 1010 88 10000 1.5 30 12:40 18.12.2019
6113 Clouds 26 1010 88 10000 1.5 30 12:40 18.12.2019
6114 Clouds 26 1010 88 10000 1.5 30 12:21 18.12.2019
6115 Clouds 25 1010 94 10000 1.5 50 11:57 18.12.2019
6116 Clouds 25 1009 94 10000 1 20 11:39 18.12.2019
6117 Clouds 25 1009 94 10000 1 20 11:20 18.12.2019
6118 Clouds 25 1009 94 10000 1.5 190 10:58 18.12.2019
6119 Clouds 25 1009 94 10000 1.5 190 10:39 18.12.2019
6120 Clouds 25 1009 94 10000 1.5 190 10:20 18.12.2019
6121 Clouds 25 1009 94 10000 1.5 190 10:20 18.12.2019
6122 Clouds 25 1009 94 10000 2.1 190 09:57 18.12.2019
6123 Clouds 25 1009 94 10000 2.1 190 09:20 18.12.2019
6124 Clouds 25 1008 100 10000 1.5 190 08:42 18.12.2019
6125 Rain 25 1008 100 10000 1.5 190 08:24 18.12.2019
6126 Clouds 25 1008 100 10000 1 230 07:57 18.12.2019
6127 Clouds 25 1008 100 10000 1 230 07:39 18.12.2019
6128 Clouds 25 1008 100 10000 1 230 07:19 18.12.2019
6129 Clouds 25 1009 94 10000 1 250 06:51 18.12.2019
6130 Clouds 25 1009 94 10000 1 250 06:23 18.12.2019
6131 Clouds 25 1009 94 10000 1.5 270 05:34 18.12.2019
6132 Clouds 26 1009 88 10000 1 360 03:46 18.12.2019
6133 Clouds 26 1009 83 10000 0.5 60 02:44 18.12.2019
6134 Clouds 26 1009 83 10000 0.5 60 02:26 18.12.2019
6135 Clouds 26 1008 83 10000 2.1 70 01:43 18.12.2019
6136 Clouds 26 1008 83 10000 2.1 70 01:25 18.12.2019
6137 Clouds 27 1007 83 10000 1.5 80 00:42 18.12.2019
6138 Clouds 27 1007 83 10000 1.5 80 00:24 18.12.2019
6139 Clouds 28 1007 83 10000 1.5 80 23:58 17.12.2019
6140 Clouds 28 1007 83 10000 1.5 80 23:58 17.12.2019
6141 Clouds 28 1006 78 10000 1.5 80 23:39 17.12.2019
6142 Clouds 28 1006 78 10000 1.5 80 23:21 17.12.2019
6143 Clouds 29 1006 78 10000 3.1 70 22:57 17.12.2019
6144 Clouds 29 1006 78 10000 3.1 70 22:38 17.12.2019
6145 Clouds 29 1006 78 10000 3.1 70 22:19 17.12.2019
6146 Rain 29 1006 74 10000 3.6 70 21:57 17.12.2019
6147 Rain 29 1006 74 10000 3.6 70 21:38 17.12.2019
6148 Rain 29 1006 74 10000 3.6 70 21:38 17.12.2019
6149 Rain 29 1006 74 10000 3.6 70 21:20 17.12.2019
6150 Clouds 29 1007 74 10000 4.1 40 20:58 17.12.2019
6151 Clouds 29 1007 74 10000 4.1 40 20:39 17.12.2019
6152 Clouds 29 1007 74 10000 4.1 40 20:19 17.12.2019
6153 Clouds 28 1008 74 10000 4.1 40 19:56 17.12.2019
6154 Clouds 28 1008 74 10000 4.1 40 19:38 17.12.2019
6155 Clouds 28 1008 74 10000 4.1 40 19:19 17.12.2019
6156 Clouds 28 1010 79 10000 3.6 60 18:56 17.12.2019
6157 Clouds 28 1010 79 10000 3.6 60 18:37 17.12.2019
6158 Clouds 28 1010 79 10000 3.6 60 18:19 17.12.2019
6159 Clouds 27 1011 74 10000 3.6 40 17:42 17.12.2019
6160 Clouds 27 1011 74 10000 3.6 40 17:21 17.12.2019
6161 Clouds 26 1012 78 10000 3.6 40 16:57 17.12.2019
6162 Clouds 26 1012 78 10000 3.6 40 16:38 17.12.2019
6163 Clouds 26 1012 78 10000 3.6 40 16:19 17.12.2019
6164 Clouds 27 1012 74 10000 3.1 30 15:59 17.12.2019
6165 Clouds 27 1012 74 10000 3.1 30 15:37 17.12.2019
6166 Clouds 27 1012 74 10000 3.1 30 15:19 17.12.2019
6167 Clouds 26 1012 78 10000 3.6 20 14:56 17.12.2019
6168 Clouds 26 1012 78 10000 3.6 20 14:38 17.12.2019
6169 Clouds 26 1012 83 10000 3.1 40 14:18 17.12.2019
6170 Clouds 25 1011 88 10000 1.58 43 13:56 17.12.2019
6171 Clouds 25 1011 88 10000 1.58 43 13:38 17.12.2019
6172 Clouds 25 1011 88 10000 1.74 50 13:19 17.12.2019
6173 Clouds 25 1011 88 10000 1.74 50 12:55 17.12.2019
6174 Clouds 25 1011 88 10000 1.74 50 12:37 17.12.2019
6175 Clouds 25 1011 88 10000 1.74 50 12:18 17.12.2019
6176 Clouds 25 1010 100 10000 1 330 11:55 17.12.2019
6177 Clouds 25 1010 94 10000 1.74 50 11:36 17.12.2019
6178 Clouds 25 1010 94 10000 0.71 71 11:18 17.12.2019
6179 Clouds 25 1010 94 10000 0.71 71 11:18 17.12.2019
6180 Clouds 25 1009 94 10000 1.5 190 10:54 17.12.2019
6181 Clouds 25 1009 94 10000 1.5 190 10:36 17.12.2019
6182 Clouds 25 1009 94 10000 1.5 190 10:18 17.12.2019
6183 Clouds 25 1009 94 10000 1.5 170 09:42 17.12.2019
6184 Clouds 25 1009 94 10000 1.5 170 09:21 17.12.2019
6185 Clouds 25 1009 94 10000 1.5 170 09:21 17.12.2019
6186 Clouds 25 1009 94 10000 1 170 08:57 17.12.2019
6187 Clouds 25 1009 94 10000 1 170 08:38 17.12.2019
6188 Clouds 25 1009 94 10000 1 170 08:38 17.12.2019
6189 Clouds 25 1009 94 10000 1 170 08:38 17.12.2019
6190 Clouds 25 1009 94 10000 1 170 08:20 17.12.2019
6191 Clouds 25 1009 94 10000 1.5 250 07:55 17.12.2019
6192 Clouds 25 1009 94 10000 1.5 250 07:36 17.12.2019
6193 Clouds 25 1009 94 10000 1.5 250 07:18 17.12.2019
6194 Clouds 25 1010 88 10000 1 150 06:35 17.12.2019
6195 Clouds 26 1010 88 10000 1.5 340 05:57 17.12.2019
6196 Clouds 26 1010 88 10000 1.5 340 05:38 17.12.2019
6197 Clouds 25 1010 94 10000 1.5 340 04:45 17.12.2019
6198 Clouds 26 1010 94 10000 1.5 70 02:47 17.12.2019
6199 Clouds 26 1009 94 10000 1 100 01:56 17.12.2019
6200 Clouds 26 1009 94 10000 1 100 01:20 17.12.2019
6201 Clouds 26 1008 88 10000 1 350 00:38 17.12.2019
6202 Clouds 26 1008 88 10000 1 350 00:20 17.12.2019
6203 Clouds 26 1007 94 10000 0.5 80 23:42 16.12.2019
6204 Clouds 26 1007 94 10000 0.5 80 23:42 16.12.2019
6205 Clouds 26 1007 94 10000 0.5 80 23:19 16.12.2019
6206 Rain 27 1007 83 10000 1 330 22:58 16.12.2019
6207 Rain 27 1007 83 10000 1 330 22:38 16.12.2019
6208 Rain 27 1007 83 10000 1 330 22:19 16.12.2019
6209 Rain 27 1007 83 10000 1 330 22:19 16.12.2019
6210 Rain 28 1007 83 10000 1.5 260 21:56 16.12.2019
6211 Rain 28 1007 83 10000 1.5 260 21:37 16.12.2019
6212 Rain 28 1007 83 10000 1.5 260 21:19 16.12.2019
6213 Rain 29 1007 88 10000 2.6 50 20:57 16.12.2019
6214 Rain 29 1007 88 10000 2.6 50 20:38 16.12.2019
6215 Rain 29 1007 88 10000 2.6 50 20:38 16.12.2019
6216 Rain 29 1007 88 10000 2.6 50 20:19 16.12.2019
6217 Thunderstorm 29 1008 88 9000 3.1 40 19:56 16.12.2019
6218 Thunderstorm 29 1008 88 9000 3.1 40 19:37 16.12.2019
6219 Thunderstorm 29 1008 88 9000 3.1 40 19:19 16.12.2019
6220 Thunderstorm 27 1009 88 8000 2.1 290 18:56 16.12.2019
6221 Thunderstorm 27 1009 88 8000 2.1 290 18:56 16.12.2019
6222 Rain 27 1000 83 6000 2.6 330 18:38 16.12.2019
6223 Rain 27 1000 83 6000 2.6 330 18:19 16.12.2019
6224 Rain 29 1010 83 10000 3.1 270 17:57 16.12.2019
6225 Rain 30 1011 74 10000 3.6 290 17:38 16.12.2019
6226 Rain 30 1011 74 10000 3.6 290 17:20 16.12.2019
6227 Clouds 30 1012 74 10000 2.6 250 16:56 16.12.2019
6228 Clouds 30 1012 74 10000 2.6 250 16:38 16.12.2019
6229 Clouds 30 1012 74 10000 2.6 250 16:19 16.12.2019
6230 Clouds 28 1013 78 10000 1 280 15:57 16.12.2019
6231 Clouds 28 1013 78 10000 1 280 15:38 16.12.2019
6232 Clouds 28 1013 78 10000 1 280 15:20 16.12.2019
6233 Clouds 26 1013 83 10000 3.1 320 14:55 16.12.2019
6234 Clouds 26 1013 83 10000 3.1 320 14:37 16.12.2019
6235 Clouds 26 1013 83 10000 3.1 320 14:37 16.12.2019
6236 Clouds 26 1013 83 10000 3.1 320 14:18 16.12.2019
6237 Clouds 25 1012 88 10000 1.5 10 13:56 16.12.2019
6238 Clouds 25 1012 88 10000 1.5 10 13:37 16.12.2019
6239 Clouds 25 1012 88 10000 1.5 10 13:19 16.12.2019
6240 Clouds 23 1012 88 10000 2.1 340 12:56 16.12.2019
6241 Clouds 23 1012 88 10000 2.1 340 12:38 16.12.2019
6242 Clouds 23 1012 88 10000 2.1 340 12:18 16.12.2019
6243 Clouds 22 1011 94 10000 1.5 310 11:55 16.12.2019
6244 Clouds 22 1011 94 10000 1.5 310 11:37 16.12.2019
6245 Clouds 22 1011 94 10000 1.5 310 11:19 16.12.2019
6246 Clouds 22 1010 94 10000 1 340 10:40 16.12.2019
6247 Clouds 22 1010 94 10000 1 340 10:40 16.12.2019
6248 Clouds 22 1010 94 10000 1 340 10:22 16.12.2019
6249 Clouds 22 1010 94 10000 1.5 300 09:59 16.12.2019
6250 Clouds 22 1010 94 10000 1.5 300 09:41 16.12.2019
6251 Clouds 22 1010 94 10000 1.5 300 09:23 16.12.2019
6252 Mist 23 1010 94 5000 1.5 290 08:40 16.12.2019
6253 Clouds 22 1010 94 10000 1.5 340 08:20 16.12.2019
6254 Mist 22 1010 100 5000 1.5 300 07:53 16.12.2019
6255 Clouds 22 1010 94 10000 1 350 07:31 16.12.2019
6256 Clouds 22 1010 94 10000 1 350 07:31 16.12.2019
6257 Clouds 22 1011 94 10000 1.5 10 06:57 16.12.2019
6258 Clouds 22 1011 94 10000 1.5 10 06:39 16.12.2019
6259 Clouds 22 1011 94 10000 1.5 10 06:18 16.12.2019
6260 Clouds 22 1011 94 10000 1.5 30 05:41 16.12.2019
6261 Clouds 22 1011 94 10000 1.5 30 05:22 16.12.2019
6262 Clouds 23 1011 94 10000 1 60 03:28 16.12.2019
6263 Clouds 24 1010 94 10000 2.1 10 01:46 16.12.2019
6264 Clouds 24 1009 94 10000 1.5 20 00:57 16.12.2019
6265 Clouds 24 1009 94 10000 1.5 20 00:38 16.12.2019
6266 Clouds 24 1009 94 10000 1.5 20 00:19 16.12.2019
6267 Clouds 25 1009 88 10000 3.1 20 23:44 15.12.2019
6268 Clouds 25 1009 88 10000 3.1 20 23:25 15.12.2019
6269 Clouds 25 1009 88 10000 2.1 360 22:57 15.12.2019
6270 Clouds 25 1009 88 10000 2.1 360 22:38 15.12.2019
6271 Clouds 25 1009 88 10000 2.1 360 22:38 15.12.2019
6272 Clouds 25 1009 88 10000 2.1 360 22:19 15.12.2019
6273 Clouds 25 1008 88 10000 1.5 30 21:58 15.12.2019
6274 Clouds 25 1008 88 10000 1.5 30 21:38 15.12.2019
6275 Clouds 25 1008 88 10000 1.5 30 21:20 15.12.2019
6276 Clouds 25 1009 88 10000 1 80 20:58 15.12.2019
6277 Clouds 25 1009 88 10000 1 80 20:40 15.12.2019
6278 Clouds 25 1009 88 10000 1 80 20:21 15.12.2019
6279 Clouds 25 1009 88 10000 1 80 20:21 15.12.2019
6280 Clouds 25 1009 88 10000 1 80 20:21 15.12.2019
6281 Drizzle 23 1010 94 10000 2.1 60 19:58 15.12.2019
6282 Drizzle 23 1010 94 10000 2.1 60 19:40 15.12.2019
6283 Drizzle 23 1010 94 10000 2.1 60 19:20 15.12.2019
6284 Rain 22 1012 94 10000 1.5 80 18:58 15.12.2019
6285 Rain 22 1012 94 10000 1.5 80 18:39 15.12.2019
6286 Rain 22 1012 94 10000 1.5 80 18:19 15.12.2019
6287 Rain 22 1014 100 5000 2.6 50 17:56 15.12.2019
6288 Rain 22 1014 100 5000 2.6 50 17:56 15.12.2019
6289 Rain 22 1014 100 5000 2.6 50 17:38 15.12.2019
6290 Rain 22 1014 100 5000 2.6 50 17:19 15.12.2019
6291 Rain 22 1015 94 2000 4.6 50 16:57 15.12.2019
6292 Rain 22 1015 94 2000 4.6 50 16:39 15.12.2019
6293 Rain 22 1015 94 2000 4.6 50 16:20 15.12.2019
6294 Thunderstorm 23 1015 88 2000 5.7 40 15:55 15.12.2019
6295 Thunderstorm 23 1015 88 2000 5.7 40 15:55 15.12.2019
6296 Thunderstorm 23 1015 88 2000 5.7 40 15:37 15.12.2019
6297 Thunderstorm 23 1015 88 2000 5.7 40 15:18 15.12.2019
6298 Rain 24 1015 94 3000 5.1 340 14:55 15.12.2019
6299 Rain 24 1015 94 3000 5.1 340 14:55 15.12.2019
6300 Clouds 25 1014 88 10000 1 180 14:36 15.12.2019
6301 Clouds 25 1014 88 10000 1 180 14:18 15.12.2019
6302 Clouds 25 1013 88 10000 1.5 160 13:55 15.12.2019
6303 Clouds 25 1013 88 10000 1.5 160 13:37 15.12.2019
6304 Clouds 25 1013 88 10000 1.5 160 13:18 15.12.2019
6305 Clouds 25 1013 88 10000 1.5 160 13:18 15.12.2019
6306 Clouds 25 1012 94 10000 1 150 12:56 15.12.2019
6307 Clouds 25 1012 94 10000 1 150 12:38 15.12.2019
6308 Clouds 25 1012 94 10000 1 150 12:19 15.12.2019
6309 Clouds 25 1011 94 10000 1 160 11:38 15.12.2019
6310 Clouds 25 1011 94 10000 1 160 11:20 15.12.2019
6311 Clouds 25 1011 88 10000 1 110 10:58 15.12.2019
6312 Clouds 25 1011 88 10000 1 110 10:40 15.12.2019
6313 Clouds 25 1011 88 10000 1 110 10:20 15.12.2019
6314 Clouds 25 1010 88 10000 1 200 09:59 15.12.2019
6315 Clouds 25 1010 88 10000 1 200 09:38 15.12.2019
6316 Clouds 25 1010 88 10000 1 200 09:20 15.12.2019
6317 Clouds 25 1009 94 10000 1 200 08:55 15.12.2019
6318 Clouds 25 1009 94 10000 1 200 08:37 15.12.2019
6319 Clouds 25 1009 94 10000 1 200 08:19 15.12.2019
6320 Clouds 24 1010 94 10000 1 210 07:53 15.12.2019
6321 Clouds 24 1010 94 10000 1 210 07:31 15.12.2019
6322 Clouds 25 1010 94 10000 1 220 06:30 15.12.2019
6323 Clouds 24 1010 94 10000 1 220 05:49 15.12.2019
6324 Clouds 25 1011 88 10000 1.5 250 05:22 15.12.2019
6325 Clouds 25 1011 88 10000 2.1 250 04:22 15.12.2019
6326 Clouds 26 1011 88 10000 2.6 250 02:55 15.12.2019
6327 Clouds 26 1011 88 10000 2.6 250 02:32 15.12.2019
6328 Clouds 26 1010 88 10000 1.5 210 01:41 15.12.2019
6329 Clouds 26 1010 88 10000 1.5 210 01:19 15.12.2019
6330 Thunderstorm 26 1010 88 10000 2.1 220 00:51 15.12.2019
6331 Thunderstorm 26 1010 88 10000 2.1 220 00:32 15.12.2019
6332 Thunderstorm 26 1010 88 10000 2.1 220 23:54 14.12.2019
6333 Clouds 26 1009 88 10000 3.1 240 23:36 14.12.2019
6334 Clouds 27 1008 83 10000 1 190 23:18 14.12.2019
6335 Clouds 27 1008 83 10000 1 190 22:42 14.12.2019
6336 Clouds 27 1008 83 10000 1 190 22:42 14.12.2019
6337 Clouds 27 1008 83 10000 1 190 22:23 14.12.2019
6338 Clouds 26 1008 83 10000 1 180 21:58 14.12.2019
6339 Clouds 26 1008 83 10000 1 180 21:40 14.12.2019
6340 Clouds 26 1008 83 10000 1 180 21:20 14.12.2019
6341 Clouds 26 1009 83 10000 1.88 27 20:59 14.12.2019
6342 Clouds 26 1009 83 10000 1.88 27 20:41 14.12.2019
6343 Clouds 26 1009 83 10000 0.73 84 20:20 14.12.2019
6344 Rain 26 1010 83 10000 2.1 70 19:57 14.12.2019
6345 Rain 26 1010 83 10000 2.1 70 19:39 14.12.2019
6346 Rain 26 1010 83 10000 2.1 70 19:20 14.12.2019
6347 Thunderstorm 26 1010 78 5000 6.7 60 18:56 14.12.2019
6348 Thunderstorm 26 1010 78 5000 6.7 60 18:38 14.12.2019
6349 Thunderstorm 26 1010 78 5000 6.7 60 18:19 14.12.2019
6350 Thunderstorm 30 1010 83 10000 7.2 60 17:44 14.12.2019
6351 Thunderstorm 29 1010 70 10000 2.1 90 17:24 14.12.2019
6352 Clouds 30 1012 70 10000 1.5 140 16:59 14.12.2019
6353 Clouds 30 1012 70 10000 1.5 140 16:40 14.12.2019
6354 Clouds 30 1012 70 10000 1.5 140 16:19 14.12.2019
6355 Clouds 30 1012 70 10000 1.5 130 15:43 14.12.2019
6356 Clouds 30 1012 70 10000 1.5 130 15:25 14.12.2019
6357 Clouds 30 1012 70 10000 1 170 14:59 14.12.2019
6358 Clouds 30 1012 70 10000 1 170 14:39 14.12.2019
6359 Clouds 30 1012 70 10000 1 170 14:20 14.12.2019
6360 Clouds 28 1012 78 10000 1 280 13:58 14.12.2019
6361 Clouds 28 1012 78 10000 1 280 13:39 14.12.2019
6362 Clouds 28 1012 78 10000 1 280 13:19 14.12.2019
6363 Clouds 28 1012 78 10000 1 280 13:19 14.12.2019
6364 Clouds 26 1011 88 10000 2.1 10 12:56 14.12.2019
6365 Rain 26 1011 88 10000 2.1 10 12:37 14.12.2019
6366 Clouds 26 1011 88 10000 2.1 10 12:19 14.12.2019
6367 Clouds 25 1011 88 10000 2.1 10 11:56 14.12.2019
6368 Rain 25 1010 83 10000 2.1 10 11:37 14.12.2019
6369 Clouds 25 1010 83 10000 2.1 10 11:18 14.12.2019
6370 Clouds 24 1009 100 10000 1.5 70 10:55 14.12.2019
6371 Clouds 24 1009 100 10000 1.5 70 10:55 14.12.2019
6372 Clouds 24 1009 100 10000 1.5 70 10:37 14.12.2019
6373 Clouds 24 1009 100 10000 1.5 70 10:19 14.12.2019
6374 Clouds 25 1008 94 10000 1 70 09:41 14.12.2019
6375 Clouds 25 1008 94 10000 1 70 09:21 14.12.2019
6376 Clouds 25 1008 94 10000 1 60 08:45 14.12.2019
6377 Clouds 25 1008 94 10000 1 60 08:21 14.12.2019
6378 Clouds 25 1009 94 10000 1 50 07:58 14.12.2019
6379 Clouds 25 1009 94 10000 1 50 07:38 14.12.2019
6380 Clouds 25 1009 94 10000 1 50 07:19 14.12.2019
6381 Clouds 25 1009 94 10000 0.5 90 06:41 14.12.2019
6382 Clouds 25 1009 94 10000 0.5 90 06:22 14.12.2019
6383 Rain 25 1009 94 10000 1.5 70 05:25 14.12.2019
6384 Rain 26 1009 94 10000 1 100 02:51 14.12.2019
6385 Rain 26 1009 94 10000 1 100 02:23 14.12.2019
6386 Rain 26 1008 88 10000 2.1 90 01:43 14.12.2019
6387 Clouds 27 1007 83 10000 2.1 80 00:55 14.12.2019
6388 Clouds 27 1007 83 10000 2.1 80 00:37 14.12.2019
6389 Clouds 27 1007 83 10000 2.1 80 00:18 14.12.2019
6390 Clouds 28 1006 88 10000 2.1 80 23:41 13.12.2019
6391 Clouds 28 1006 88 10000 2.1 80 23:19 13.12.2019
6392 Clouds 29 1005 83 10000 2.6 80 22:55 13.12.2019
6393 Clouds 29 1005 83 10000 2.6 80 22:37 13.12.2019
6394 Clouds 29 1005 83 10000 2.6 80 22:18 13.12.2019
6395 Rain 29 1006 74 10000 2.6 80 21:42 13.12.2019
6396 Rain 29 1006 74 10000 2.6 80 21:21 13.12.2019
6397 Clouds 29 1006 66 10000 3.1 60 20:57 13.12.2019
6398 Clouds 29 1006 66 10000 3.1 60 20:38 13.12.2019
6399 Rain 28 1008 70 10000 3.1 70 20:19 13.12.2019
6400 Rain 28 1008 70 10000 3.1 70 19:56 13.12.2019
6401 Rain 28 1008 70 10000 3.1 70 19:56 13.12.2019
6402 Rain 28 1008 70 10000 3.1 70 19:37 13.12.2019
6403 Rain 28 1008 70 10000 3.1 70 19:18 13.12.2019
6404 Clouds 29 1009 74 10000 2.1 90 18:42 13.12.2019
6405 Clouds 29 1009 74 10000 2.1 90 18:19 13.12.2019
6406 Clouds 28 1009 74 10000 2.1 90 17:58 13.12.2019
6407 Clouds 28 1010 74 10000 3.1 60 17:39 13.12.2019
6408 Clouds 28 1010 74 10000 3.1 60 17:18 13.12.2019
6409 Clouds 28 1010 74 10000 3.1 60 17:18 13.12.2019
6410 Clouds 28 1010 74 10000 3.1 60 16:55 13.12.2019
6411 Clouds 29 1011 79 10000 2.1 70 16:37 13.12.2019
6412 Clouds 29 1011 79 10000 2.1 70 16:18 13.12.2019
6413 Clouds 28 1011 83 10000 1.5 110 15:41 13.12.2019
6414 Clouds 28 1011 83 10000 1.5 110 15:21 13.12.2019
6415 Clouds 27 1011 88 10000 1.5 130 14:56 13.12.2019
6416 Clouds 27 1011 88 10000 1.5 130 14:36 13.12.2019
6417 Clouds 27 1011 88 10000 1.5 130 14:18 13.12.2019
6418 Clouds 26 1011 94 10000 2.1 150 13:43 13.12.2019
6419 Clouds 26 1011 94 10000 2.1 150 13:23 13.12.2019
6420 Clouds 25 1010 94 10000 1.25 60 12:54 13.12.2019
6421 Clouds 25 1010 94 10000 1.25 60 12:36 13.12.2019
6422 Clouds 24 1010 94 10000 1.5 210 12:18 13.12.2019
6423 Clouds 24 1010 94 10000 1.5 210 12:18 13.12.2019
6424 Clouds 24 1009 100 10000 0.5 210 11:42 13.12.2019
6425 Clouds 24 1009 100 10000 0.5 210 11:24 13.12.2019
6426 Rain 24 1009 100 8000 1 210 10:56 13.12.2019
6427 Rain 24 1009 100 8000 1 210 10:38 13.12.2019
6428 Rain 24 1009 100 8000 1 210 10:19 13.12.2019
6429 Clouds 24 1008 94 10000 1.5 120 09:41 13.12.2019
6430 Clouds 24 1008 94 10000 1.5 120 09:20 13.12.2019
6431 Clouds 24 1008 94 10000 1 34 08:44 13.12.2019
6432 Clouds 24 1008 94 10000 1.03 49 08:26 13.12.2019
6433 Clouds 23 1008 94 10000 1 50 07:48 13.12.2019
6434 Clouds 23 1008 94 10000 1 50 07:24 13.12.2019
6435 Clouds 23 1009 94 10000 1.5 60 06:55 13.12.2019
6436 Clouds 23 1009 94 10000 1.5 60 06:29 13.12.2019
6437 Clouds 23 1009 94 10000 2.6 40 05:51 13.12.2019
6438 Clouds 23 1009 94 10000 2.6 40 05:30 13.12.2019
6439 Clouds 24 1009 94 10000 2.1 30 04:48 13.12.2019
6440 Clouds 23 1009 94 10000 2.1 30 03:49 13.12.2019
6441 Clouds 24 1008 94 10000 2.6 50 02:35 13.12.2019
6442 Clouds 24 1008 100 10000 1.5 350 01:50 13.12.2019
6443 Clouds 24 1007 94 10000 2.6 30 01:21 13.12.2019
6444 Clouds 24 1007 94 10000 2.6 30 00:46 13.12.2019
6445 Clouds 24 1007 94 10000 2.6 30 00:24 13.12.2019
6446 Clouds 24 1007 94 10000 3.1 30 23:41 12.12.2019
6447 Clouds 24 1007 94 10000 3.1 30 23:22 12.12.2019
6448 Rain 24 1009 94 7000 1 80 22:56 12.12.2019
6449 Rain 24 1009 94 7000 1 80 22:38 12.12.2019
6450 Rain 24 1009 94 7000 1 80 22:19 12.12.2019
6451 Thunderstorm 23 1009 100 4000 2.1 70 21:55 12.12.2019
6452 Thunderstorm 23 1009 100 4000 2.1 70 21:55 12.12.2019
6453 Thunderstorm 23 1009 100 4000 2.1 70 21:55 12.12.2019
6454 Thunderstorm 23 1009 100 4000 2.1 70 21:37 12.12.2019
6455 Thunderstorm 23 1009 100 4000 2.1 70 21:19 12.12.2019
6456 Thunderstorm 23 1009 100 4000 2.1 70 20:56 12.12.2019
6457 Thunderstorm 23 1009 100 1500 7.7 60 20:38 12.12.2019
6458 Thunderstorm 23 1009 100 1500 7.7 60 20:20 12.12.2019
6459 Rain 29 1009 78 10000 2.6 200 19:43 12.12.2019
6460 Rain 29 1009 78 10000 2.6 200 19:23 12.12.2019
6461 Rain 29 1008 74 10000 4.1 180 18:58 12.12.2019
6462 Rain 29 1009 74 10000 4.6 230 18:40 12.12.2019
6463 Rain 29 1009 74 10000 4.6 230 18:40 12.12.2019
6464 Rain 29 1009 74 10000 4.6 230 18:21 12.12.2019
6465 Rain 29 1010 74 10000 5.1 250 17:58 12.12.2019
6466 Rain 29 1010 74 10000 5.1 250 17:40 12.12.2019
6467 Rain 29 1010 74 10000 5.1 250 17:21 12.12.2019
6468 Clouds 29 1010 74 10000 4.6 240 16:58 12.12.2019
6469 Clouds 29 1010 74 10000 4.6 240 16:40 12.12.2019
6470 Clouds 29 1010 74 10000 4.6 240 16:21 12.12.2019
6471 Clouds 29 1010 74 10000 4.6 240 16:21 12.12.2019
6472 Clouds 27 1011 83 10000 4.1 250 15:57 12.12.2019
6473 Clouds 27 1011 83 10000 4.1 250 15:57 12.12.2019
6474 Clouds 27 1011 83 10000 4.1 250 15:39 12.12.2019
6475 Clouds 27 1011 83 10000 4.1 250 15:18 12.12.2019
6476 Clouds 27 1011 88 10000 4.6 240 14:38 12.12.2019
6477 Clouds 27 1011 88 10000 4.6 240 14:38 12.12.2019
6478 Clouds 27 1011 88 10000 4.6 240 14:20 12.12.2019
6479 Clouds 26 1010 88 10000 4.1 250 13:58 12.12.2019
6480 Clouds 26 1010 88 10000 4.1 250 13:40 12.12.2019
6481 Clouds 26 1010 88 10000 4.1 250 13:21 12.12.2019
6482 Clouds 25 1010 94 10000 2.6 250 12:59 12.12.2019
6483 Clouds 25 1010 94 10000 2.6 250 12:40 12.12.2019
6484 Clouds 25 1010 94 10000 2.6 250 12:22 12.12.2019
6485 Clouds 25 1010 94 10000 2.6 250 11:57 12.12.2019
6486 Clouds 25 1008 100 9000 2.6 240 11:38 12.12.2019
6487 Clouds 25 1008 100 9000 2.6 240 11:19 12.12.2019
6488 Drizzle 25 1008 94 7000 2.1 240 10:56 12.12.2019
6489 Clouds 26 1008 83 10000 2.1 300 10:38 12.12.2019
6490 Clouds 26 1008 83 10000 2.1 300 10:20 12.12.2019
6491 Clouds 25 1007 88 10000 2.6 310 09:55 12.12.2019
6492 Clouds 25 1007 88 10000 2.6 310 09:37 12.12.2019
6493 Clouds 25 1007 88 10000 2.6 310 09:18 12.12.2019
6494 Clouds 26 1007 94 10000 2.6 320 08:43 12.12.2019
6495 Clouds 26 1007 94 10000 2.6 320 08:43 12.12.2019
6496 Clouds 26 1007 94 10000 2.6 320 08:25 12.12.2019
6497 Clouds 26 1007 94 10000 2.6 320 08:25 12.12.2019
6498 Clouds 26 1007 88 10000 1.5 300 07:49 12.12.2019
6499 Clouds 26 1007 88 10000 1.5 300 07:49 12.12.2019
6500 Clouds 26 1007 88 10000 1.5 300 07:26 12.12.2019
6501 Clouds 26 1008 88 10000 2.1 300 06:55 12.12.2019
6502 Clouds 26 1008 88 10000 2.1 300 06:35 12.12.2019
6503 Clouds 27 1009 83 10000 1.5 320 05:42 12.12.2019
6504 Clouds 27 1009 83 10000 1.5 310 04:54 12.12.2019
6505 Clouds 27 1009 83 10000 3.1 310 03:50 12.12.2019
6506 Clouds 27 1009 74 10000 1.5 350 02:40 12.12.2019
6507 Rain 27 1009 74 10000 1.5 350 02:21 12.12.2019
6508 Rain 27 1008 70 10000 1.5 20 01:46 12.12.2019
6509 Rain 27 1008 70 10000 1.5 20 01:28 12.12.2019
6510 Rain 29 1007 74 10000 1 30 00:47 12.12.2019
6511 Rain 29 1007 74 10000 1 30 00:20 12.12.2019
6512 Rain 29 1007 74 10000 1 30 23:45 11.12.2019
6513 Clouds 29 1005 74 10000 2.1 70 23:21 11.12.2019
6514 Clouds 31 1005 66 10000 2.1 80 22:58 11.12.2019
6515 Clouds 31 1005 66 10000 2.1 80 22:39 11.12.2019
6516 Clouds 31 1005 66 10000 2.1 80 22:20 11.12.2019
6517 Clouds 32 1005 66 10000 1.5 60 21:59 11.12.2019
6518 Clouds 32 1005 66 10000 1.5 60 21:39 11.12.2019
6519 Clouds 32 1005 66 10000 1.5 60 21:20 11.12.2019
6520 Clouds 32 1005 66 10000 1.5 60 20:56 11.12.2019
6521 Clouds 32 1005 66 10000 1.5 60 20:56 11.12.2019
6522 Clouds 32 1006 62 10000 1.5 120 20:38 11.12.2019
6523 Clouds 32 1006 62 10000 1.5 120 20:19 11.12.2019
6524 Clouds 31 1008 66 10000 2.6 70 19:58 11.12.2019
6525 Clouds 31 1008 66 10000 2.6 70 19:39 11.12.2019
6526 Clouds 31 1008 66 10000 2.6 70 19:19 11.12.2019
6527 Clouds 30 1009 74 10000 2.6 70 18:42 11.12.2019
6528 Clouds 30 1009 74 10000 2.6 70 18:22 11.12.2019
6529 Clouds 30 1009 74 10000 2.6 70 17:57 11.12.2019
6530 Clouds 30 1010 79 10000 1.5 170 17:39 11.12.2019
6531 Clouds 30 1010 79 10000 1.5 170 17:19 11.12.2019
6532 Clouds 28 1010 79 10000 1.5 170 16:58 11.12.2019
6533 Clouds 28 1011 83 10000 2.1 70 16:40 11.12.2019
6534 Clouds 28 1011 83 10000 2.1 70 16:22 11.12.2019
6535 Clouds 27 1011 83 10000 1.5 90 15:59 11.12.2019
6536 Clouds 27 1011 83 10000 1.5 90 15:59 11.12.2019
6537 Rain 27 1012 94 10000 2.1 60 15:41 11.12.2019
6538 Rain 27 1012 94 10000 2.1 60 15:23 11.12.2019
6539 Rain 26 1012 88 10000 2.1 80 14:56 11.12.2019
6540 Rain 26 1012 88 10000 2.1 80 14:38 11.12.2019
6541 Rain 26 1012 88 10000 2.1 80 14:20 11.12.2019
6542 Rain 26 1012 88 10000 2.1 80 13:55 11.12.2019
6543 Clouds 26 1021 88 10000 1 80 13:37 11.12.2019
6544 Clouds 26 1021 88 10000 1 80 13:18 11.12.2019
6545 Clouds 25 1010 94 10000 1.5 80 12:55 11.12.2019
6546 Clouds 25 1010 94 10000 1.5 80 12:37 11.12.2019
6547 Clouds 24 1010 94 10000 1.5 80 12:18 11.12.2019
6548 Clouds 24 1010 94 10000 1.5 80 12:18 11.12.2019
6549 Clouds 24 1010 94 10000 1.5 80 11:57 11.12.2019
6550 Clouds 25 1009 94 10000 1.5 30 11:38 11.12.2019
6551 Clouds 25 1009 94 10000 1.5 30 11:18 11.12.2019
6552 Clouds 24 1009 94 10000 1 160 10:44 11.12.2019
6553 Clouds 24 1009 94 10000 1 160 10:44 11.12.2019
6554 Clouds 24 1009 94 10000 1 160 10:26 11.12.2019
6555 Clouds 25 1008 100 10000 1.04 103 09:59 11.12.2019
6556 Clouds 25 1009 94 10000 2.1 10 09:38 11.12.2019
6557 Clouds 25 1009 94 10000 2.1 10 09:20 11.12.2019
6558 Clouds 25 1008 100 10000 1.5 120 08:57 11.12.2019
6559 Clouds 25 1010 94 10000 1.5 160 08:38 11.12.2019
6560 Clouds 25 1010 94 10000 1.5 160 08:19 11.12.2019
6561 Clouds 25 1008 100 10000 2.6 130 07:45 11.12.2019
6562 Clouds 26 1009 94 10000 3.1 120 07:25 11.12.2019
6563 Clouds 26 1010 94 10000 1 140 06:57 11.12.2019
6564 Clouds 26 1010 94 10000 1 140 06:37 11.12.2019
6565 Clouds 26 1010 94 10000 1 140 06:18 11.12.2019
6566 Clouds 25 1010 94 10000 1 160 05:37 11.12.2019
6567 Clouds 26 1011 88 10000 1 80 04:57 11.12.2019
6568 Clouds 26 1011 88 10000 1.5 80 03:49 11.12.2019
6569 Clouds 26 1010 94 10000 1 80 02:40 11.12.2019
6570 Clouds 26 1009 94 10000 1 210 01:23 11.12.2019
6571 Clouds 27 1009 88 10000 1.5 80 00:46 11.12.2019
6572 Clouds 27 1009 88 10000 1.5 80 00:21 11.12.2019
6573 Clouds 27 1008 83 10000 1 130 23:46 10.12.2019
6574 Clouds 27 1008 83 10000 1 130 23:28 10.12.2019
6575 Clouds 28 1008 83 10000 1 130 22:57 10.12.2019
6576 Clouds 28 1007 83 10000 2.1 80 22:39 10.12.2019
6577 Clouds 28 1007 83 10000 2.1 80 22:21 10.12.2019
6578 Clouds 28 1007 83 10000 1 130 21:55 10.12.2019
6579 Clouds 28 1007 83 10000 1 130 21:37 10.12.2019
6580 Clouds 28 1007 83 10000 1 130 21:18 10.12.2019
6581 Clouds 28 1008 74 10000 2.6 70 20:56 10.12.2019
6582 Clouds 28 1008 74 10000 2.6 70 20:37 10.12.2019
6583 Clouds 28 1008 74 10000 2.6 70 20:18 10.12.2019
6584 Clouds 27 1008 74 10000 2.6 70 19:54 10.12.2019
6585 Thunderstorm 28 1008 74 10000 3.6 60 19:36 10.12.2019
6586 Thunderstorm 28 1008 74 10000 3.6 60 19:36 10.12.2019
6587 Thunderstorm 28 1008 74 10000 3.6 60 19:18 10.12.2019
6588 Thunderstorm 29 1009 70 10000 6.7 60 18:39 10.12.2019
6589 Thunderstorm 29 1009 70 10000 6.7 60 18:39 10.12.2019
6590 Thunderstorm 29 1009 70 10000 6.7 60 18:20 10.12.2019
6591 Clouds 32 1010 62 10000 2.1 60 17:57 10.12.2019
6592 Rain 32 1010 74 10000 2.1 80 17:39 10.12.2019
6593 Rain 32 1010 74 10000 2.1 80 17:19 10.12.2019
6594 Clouds 31 1011 79 10000 2.6 80 16:43 10.12.2019
6595 Clouds 31 1011 79 10000 2.6 80 16:20 10.12.2019
6596 Clouds 29 1012 83 10000 2.6 90 15:58 10.12.2019
6597 Clouds 29 1012 83 10000 2.6 90 15:37 10.12.2019
6598 Clouds 29 1012 83 10000 2.6 90 15:18 10.12.2019
6599 Clouds 29 1012 83 10000 2.6 90 15:18 10.12.2019
6600 Clouds 28 1012 83 10000 1 50 14:55 10.12.2019
6601 Clouds 28 1012 83 10000 1 50 14:37 10.12.2019
6602 Clouds 28 1012 83 10000 1 50 14:19 10.12.2019
6603 Clouds 26 1012 94 10000 1 80 13:56 10.12.2019
6604 Clouds 26 1012 94 10000 1 80 13:37 10.12.2019
6605 Clouds 26 1012 94 10000 1 80 13:18 10.12.2019
6606 Clouds 26 1011 94 10000 0.5 270 12:40 10.12.2019
6607 Clouds 26 1011 94 10000 0.5 270 12:22 10.12.2019
6608 Clouds 26 1011 88 10000 1 80 11:42 10.12.2019
6609 Clouds 26 1010 88 10000 2.1 90 11:24 10.12.2019
6610 Rain 26 1009 83 10000 2.1 130 10:56 10.12.2019
6611 Rain 26 1009 83 10000 2.1 130 10:37 10.12.2019
6612 Rain 26 1009 83 10000 2.1 130 10:19 10.12.2019
6613 Rain 26 1008 88 10000 1.5 130 09:55 10.12.2019
6614 Rain 26 1008 88 10000 1.5 130 09:37 10.12.2019
6615 Rain 26 1008 88 10000 1.5 130 09:19 10.12.2019
6616 Rain 26 1008 88 10000 1.5 90 08:54 10.12.2019
6617 Rain 26 1008 88 10000 1.5 90 08:36 10.12.2019
6618 Rain 26 1008 88 10000 1.5 90 08:18 10.12.2019
6619 Rain 26 1009 88 10000 1.5 100 07:43 10.12.2019
6620 Rain 26 1009 88 10000 1.5 100 07:24 10.12.2019
6621 Rain 26 1009 88 10000 2.1 60 06:46 10.12.2019
6622 Rain 26 1009 88 10000 2.1 60 06:19 10.12.2019
6623 Rain 27 1010 83 10000 1 50 05:53 10.12.2019
6624 Clouds 27 1010 88 10000 1 360 04:52 10.12.2019
6625 Clouds 28 1010 78 10000 3.6 60 03:37 10.12.2019
6626 Clouds 28 1010 83 10000 2.1 80 02:45 10.12.2019
6627 Clouds 29 1009 70 10000 1 50 01:44 10.12.2019
6628 Clouds 29 1009 70 10000 1 50 01:21 10.12.2019
6629 Clouds 29 1008 66 10000 2.1 10 00:41 10.12.2019
6630 Clouds 29 1008 66 10000 2.1 10 00:21 10.12.2019
6631 Thunderstorm 29 1007 70 10000 3.1 50 23:41 09.12.2019
6632 Thunderstorm 29 1007 70 10000 3.1 50 23:23 09.12.2019
6633 Thunderstorm 29 1007 70 10000 4.6 40 22:58 09.12.2019
6634 Rain 30 1006 62 10000 2.1 70 22:40 09.12.2019
6635 Rain 30 1006 62 10000 2.1 70 22:19 09.12.2019
6636 Rain 33 1006 62 10000 1.5 150 21:56 09.12.2019
6637 Rain 33 1006 62 10000 1.5 150 21:38 09.12.2019
6638 Rain 33 1006 62 10000 1.5 150 21:18 09.12.2019
6639 Clouds 32 1007 59 10000 1 300 20:56 09.12.2019
6640 Clouds 32 1007 59 10000 1 300 20:38 09.12.2019
6641 Clouds 32 1007 59 10000 1 300 20:20 09.12.2019
6642 Clouds 33 1008 66 10000 2.1 160 19:55 09.12.2019
6643 Clouds 33 1008 66 10000 2.1 160 19:37 09.12.2019
6644 Clouds 33 1008 66 10000 2.1 160 19:19 09.12.2019
6645 Clouds 32 1008 52 10000 1 70 18:56 09.12.2019
6646 Clouds 32 1010 66 10000 2.1 190 18:37 09.12.2019
6647 Clouds 32 1010 66 10000 2.1 190 18:19 09.12.2019
6648 -273 0 0 0 0 0 17:57 09.12.2019
6649 Clouds 32 1011 66 10000 2.1 220 17:38 09.12.2019
6650 -273 0 0 0 0 0 17:19 09.12.2019
6651 Clouds 31 1012 66 10000 3.1 250 16:56 09.12.2019
6652 Clouds 31 1012 66 10000 3.1 250 16:37 09.12.2019
6653 Clouds 31 1012 66 10000 3.1 250 16:18 09.12.2019
6654 Clouds 29 1012 74 10000 3.1 240 15:55 09.12.2019
6655 -273 0 0 0 0 0 15:54 09.12.2019
6656 Clouds 29 1012 74 10000 3.1 240 15:36 09.12.2019
6657 Clouds 29 1012 74 10000 3.1 240 15:18 09.12.2019
6658 Clouds 29 1013 74 10000 1.5 270 14:41 09.12.2019
6659 Clouds 29 1013 74 10000 1.5 270 14:18 09.12.2019
6660 Clouds 27 1012 83 10000 1.5 240 13:56 09.12.2019
6661 Clouds 27 1012 83 10000 1.5 240 13:38 09.12.2019
6662 Clouds 27 1012 83 10000 1.5 240 13:19 09.12.2019
6663 Clouds 25 1012 88 10000 1 250 12:55 09.12.2019
6664 Clouds 25 1012 88 10000 1 250 12:37 09.12.2019
6665 Clouds 25 1012 88 10000 1 250 12:18 09.12.2019
6666 Clouds 25 1012 88 10000 1 250 11:55 09.12.2019
6667 Clouds 25 1011 88 10000 1 350 11:36 09.12.2019
6668 Clouds 25 1011 88 10000 1 350 11:18 09.12.2019
6669 Clouds 24 1010 88 10000 1.5 50 10:39 09.12.2019
6670 Clouds 24 1010 88 10000 1.5 50 10:39 09.12.2019
6671 Clouds 24 1010 88 10000 1.5 50 10:20 09.12.2019
6672 Clouds 25 1010 88 10000 1.5 40 09:56 09.12.2019
6673 Clouds 25 1010 88 10000 1.5 40 09:37 09.12.2019
6674 Clouds 25 1010 88 10000 1.5 40 09:19 09.12.2019
6675 Clouds 24 1009 88 10000 1.5 40 08:40 09.12.2019
6676 Clouds 24 1009 88 10000 1.5 40 08:22 09.12.2019
6677 Clouds 24 1009 88 10000 1 300 07:53 09.12.2019
6678 Clouds 24 1009 88 10000 1 300 07:34 09.12.2019
6679 Clouds 25 1009 88 10000 1 320 06:59 09.12.2019
6680 Clouds 25 1009 88 10000 1 320 06:33 09.12.2019
6681 Clouds 25 1010 88 10000 1.5 300 05:51 09.12.2019
6682 Clouds 25 1010 88 10000 1.5 300 05:24 09.12.2019
6683 Clouds 26 1010 88 10000 1.5 30 04:28 09.12.2019
6684 Clouds 26 1010 88 10000 2.1 50 02:46 09.12.2019
6685 Clouds 27 1010 94 10000 1.5 360 01:47 09.12.2019
6686 Clouds 27 1009 83 10000 1.5</